<?xml version="1.0" encoding="UTF-8" standalone="no" ?><gpx xmlns="http://www.topografix.com/GPX/1/1" xmlns:gpxx="http://www.garmin.com/xmlschemas/GpxExtensions/v3" xmlns:wptx1="http://www.garmin.com/xmlschemas/WaypointExtension/v1" xmlns:gpxtpx="http://www.garmin.com/xmlschemas/TrackPointExtension/v1" creator="GuideVTT.com" version="1.1" xmlns:xsi="http://www.w3.org/2001/XMLSchema-instance" xsi:schemaLocation="http://www.topografix.com/GPX/1/1 http://www.topografix.com/GPX/1/1/gpx.xsd http://www.garmin.com/xmlschemas/GpxExtensions/v3 http://www8.garmin.com/xmlschemas/GpxExtensionsv3.xsd http://www.garmin.com/xmlschemas/WaypointExtension/v1 http://www8.garmin.com/xmlschemas/WaypointExtensionv1.xsd http://www.garmin.com/xmlschemas/TrackPointExtension/v1 http://www.garmin.com/xmlschemas/TrackPointExtensionv1.xsd">
<metadata><link href="http://www.garmin.com"><text>Garmin International</text></link><time>2013-06-22T15:13:50Z</time></metadata>
<trk><name>vtt_2015-10-11_561a0c550c9501804201f781.gpx</name><extensions><gpxx:TrackExtension><gpxx:DisplayColor>Cyan</gpxx:DisplayColor></gpxx:TrackExtension></extensions><trkseg>
<trkpt lat="48.949245452881" lon="3.1306240558624"><ele></ele><time>2022-6-1T7:4:56Z</time></trkpt>
<trkpt lat="48.949245452881" lon="3.1306240558624"><ele></ele><time>2022-6-1T7:4:59Z</time></trkpt>
<trkpt lat="48.949329376221" lon="3.1307258605957"><ele></ele><time>2022-6-1T7:5:2Z</time></trkpt>
<trkpt lat="48.949382781982" lon="3.1307809352875"><ele></ele><time>2022-6-1T7:5:5Z</time></trkpt>
<trkpt lat="48.949382781982" lon="3.1307809352875"><ele></ele><time>2022-6-1T7:5:8Z</time></trkpt>
<trkpt lat="48.949451446533" lon="3.1308636665344"><ele></ele><time>2022-6-1T7:5:11Z</time></trkpt>
<trkpt lat="48.949531555176" lon="3.1309230327606"><ele></ele><time>2022-6-1T7:5:14Z</time></trkpt>
<trkpt lat="48.949619293213" lon="3.1309843063354"><ele></ele><time>2022-6-1T7:5:17Z</time></trkpt>
<trkpt lat="48.949619293213" lon="3.1309843063354"><ele></ele><time>2022-6-1T7:5:20Z</time></trkpt>
<trkpt lat="48.949691772461" lon="3.1310467720032"><ele></ele><time>2022-6-1T7:5:23Z</time></trkpt>
<trkpt lat="48.949741363525" lon="3.1311116218567"><ele></ele><time>2022-6-1T7:5:26Z</time></trkpt>
<trkpt lat="48.949775695801" lon="3.1311860084534"><ele></ele><time>2022-6-1T7:5:29Z</time></trkpt>
<trkpt lat="48.949775695801" lon="3.1311860084534"><ele></ele><time>2022-6-1T7:5:32Z</time></trkpt>
<trkpt lat="48.949775695801" lon="3.1311860084534"><ele></ele><time>2022-6-1T7:5:35Z</time></trkpt>
<trkpt lat="48.949829101562" lon="3.1312670707703"><ele></ele><time>2022-6-1T7:5:38Z</time></trkpt>
<trkpt lat="48.949878692627" lon="3.1313309669495"><ele></ele><time>2022-6-1T7:5:41Z</time></trkpt>
<trkpt lat="48.949878692627" lon="3.1313309669495"><ele></ele><time>2022-6-1T7:5:44Z</time></trkpt>
<trkpt lat="48.949939727783" lon="3.1313796043396"><ele></ele><time>2022-6-1T7:5:47Z</time></trkpt>
<trkpt lat="48.949939727783" lon="3.1313796043396"><ele></ele><time>2022-6-1T7:5:50Z</time></trkpt>
<trkpt lat="48.949966430664" lon="3.1314973831177"><ele></ele><time>2022-6-1T7:5:53Z</time></trkpt>
<trkpt lat="48.949966430664" lon="3.1314973831177"><ele></ele><time>2022-6-1T7:5:56Z</time></trkpt>
<trkpt lat="48.949981689453" lon="3.1316156387329"><ele></ele><time>2022-6-1T7:5:59Z</time></trkpt>
<trkpt lat="48.95002746582" lon="3.1317880153656"><ele></ele><time>2022-6-1T7:6:2Z</time></trkpt>
<trkpt lat="48.950088500977" lon="3.131947517395"><ele></ele><time>2022-6-1T7:6:5Z</time></trkpt>
<trkpt lat="48.950088500977" lon="3.131947517395"><ele></ele><time>2022-6-1T7:6:8Z</time></trkpt>
<trkpt lat="48.950180053711" lon="3.1320340633392"><ele></ele><time>2022-6-1T7:6:11Z</time></trkpt>
<trkpt lat="48.950271606445" lon="3.132134437561"><ele></ele><time>2022-6-1T7:6:14Z</time></trkpt>
<trkpt lat="48.950374603271" lon="3.1322309970856"><ele></ele><time>2022-6-1T7:6:17Z</time></trkpt>
<trkpt lat="48.950374603271" lon="3.1322309970856"><ele></ele><time>2022-6-1T7:6:20Z</time></trkpt>
<trkpt lat="48.950469970703" lon="3.1323409080505"><ele></ele><time>2022-6-1T7:6:23Z</time></trkpt>
<trkpt lat="48.950550079346" lon="3.1324453353882"><ele></ele><time>2022-6-1T7:6:26Z</time></trkpt>
<trkpt lat="48.950614929199" lon="3.132538318634"><ele></ele><time>2022-6-1T7:6:29Z</time></trkpt>
<trkpt lat="48.950614929199" lon="3.132538318634"><ele></ele><time>2022-6-1T7:6:32Z</time></trkpt>
<trkpt lat="48.950695037842" lon="3.1326282024384"><ele></ele><time>2022-6-1T7:6:35Z</time></trkpt>
<trkpt lat="48.950782775879" lon="3.1327219009399"><ele></ele><time>2022-6-1T7:6:38Z</time></trkpt>
<trkpt lat="48.950866699219" lon="3.1328141689301"><ele></ele><time>2022-6-1T7:6:41Z</time></trkpt>
<trkpt lat="48.950866699219" lon="3.1328141689301"><ele></ele><time>2022-6-1T7:6:44Z</time></trkpt>
<trkpt lat="48.950942993164" lon="3.1329107284546"><ele></ele><time>2022-6-1T7:6:47Z</time></trkpt>
<trkpt lat="48.950996398926" lon="3.1329851150513"><ele></ele><time>2022-6-1T7:6:50Z</time></trkpt>
<trkpt lat="48.951061248779" lon="3.1330733299255"><ele></ele><time>2022-6-1T7:6:53Z</time></trkpt>
<trkpt lat="48.951061248779" lon="3.1330733299255"><ele></ele><time>2022-6-1T7:6:56Z</time></trkpt>
<trkpt lat="48.951114654541" lon="3.1331534385681"><ele></ele><time>2022-6-1T7:6:59Z</time></trkpt>
<trkpt lat="48.951175689697" lon="3.133234500885"><ele></ele><time>2022-6-1T7:7:2Z</time></trkpt>
<trkpt lat="48.951229095459" lon="3.1333169937134"><ele></ele><time>2022-6-1T7:7:5Z</time></trkpt>
<trkpt lat="48.951229095459" lon="3.1333169937134"><ele></ele><time>2022-6-1T7:7:8Z</time></trkpt>
<trkpt lat="48.951274871826" lon="3.1333827972412"><ele></ele><time>2022-6-1T7:7:11Z</time></trkpt>
<trkpt lat="48.951274871826" lon="3.1333827972412"><ele></ele><time>2022-6-1T7:7:14Z</time></trkpt>
<trkpt lat="48.951358795166" lon="3.1334891319275"><ele></ele><time>2022-6-1T7:7:17Z</time></trkpt>
<trkpt lat="48.951358795166" lon="3.1334891319275"><ele></ele><time>2022-6-1T7:7:20Z</time></trkpt>
<trkpt lat="48.95140838623" lon="3.1335556507111"><ele></ele><time>2022-6-1T7:7:23Z</time></trkpt>
<trkpt lat="48.951473236084" lon="3.1336469650269"><ele></ele><time>2022-6-1T7:7:26Z</time></trkpt>
<trkpt lat="48.951545715332" lon="3.1337385177612"><ele></ele><time>2022-6-1T7:7:29Z</time></trkpt>
<trkpt lat="48.951545715332" lon="3.1337385177612"><ele></ele><time>2022-6-1T7:7:32Z</time></trkpt>
<trkpt lat="48.951610565186" lon="3.1338212490082"><ele></ele><time>2022-6-1T7:7:35Z</time></trkpt>
<trkpt lat="48.951671600342" lon="3.1338982582092"><ele></ele><time>2022-6-1T7:7:38Z</time></trkpt>
<trkpt lat="48.95174407959" lon="3.1339778900146"><ele></ele><time>2022-6-1T7:7:41Z</time></trkpt>
<trkpt lat="48.95174407959" lon="3.1339778900146"><ele></ele><time>2022-6-1T7:7:44Z</time></trkpt>
<trkpt lat="48.951812744141" lon="3.1340479850769"><ele></ele><time>2022-6-1T7:7:47Z</time></trkpt>
<trkpt lat="48.951881408691" lon="3.1341207027435"><ele></ele><time>2022-6-1T7:7:50Z</time></trkpt>
<trkpt lat="48.951950073242" lon="3.1341843605042"><ele></ele><time>2022-6-1T7:7:53Z</time></trkpt>
<trkpt lat="48.951950073242" lon="3.1341843605042"><ele></ele><time>2022-6-1T7:7:56Z</time></trkpt>
<trkpt lat="48.95202255249" lon="3.1342439651489"><ele></ele><time>2022-6-1T7:7:59Z</time></trkpt>
<trkpt lat="48.952083587646" lon="3.1342957019806"><ele></ele><time>2022-6-1T7:8:2Z</time></trkpt>
<trkpt lat="48.952083587646" lon="3.1342957019806"><ele></ele><time>2022-6-1T7:8:5Z</time></trkpt>
<trkpt lat="48.952083587646" lon="3.1342957019806"><ele></ele><time>2022-6-1T7:8:8Z</time></trkpt>
<trkpt lat="48.952205657959" lon="3.1343910694122"><ele></ele><time>2022-6-1T7:8:11Z</time></trkpt>
<trkpt lat="48.952262878418" lon="3.1344356536865"><ele></ele><time>2022-6-1T7:8:14Z</time></trkpt>
<trkpt lat="48.952339172363" lon="3.1344838142395"><ele></ele><time>2022-6-1T7:8:17Z</time></trkpt>
<trkpt lat="48.952339172363" lon="3.1344838142395"><ele></ele><time>2022-6-1T7:8:20Z</time></trkpt>
<trkpt lat="48.952407836914" lon="3.1345145702362"><ele></ele><time>2022-6-1T7:8:23Z</time></trkpt>
<trkpt lat="48.952472686768" lon="3.1345539093018"><ele></ele><time>2022-6-1T7:8:26Z</time></trkpt>
<trkpt lat="48.952537536621" lon="3.1346127986908"><ele></ele><time>2022-6-1T7:8:29Z</time></trkpt>
<trkpt lat="48.952537536621" lon="3.1346127986908"><ele></ele><time>2022-6-1T7:8:32Z</time></trkpt>
<trkpt lat="48.952537536621" lon="3.1346127986908"><ele></ele><time>2022-6-1T7:8:35Z</time></trkpt>
<trkpt lat="48.95263671875" lon="3.1347422599792"><ele></ele><time>2022-6-1T7:8:38Z</time></trkpt>
<trkpt lat="48.95272064209" lon="3.1348447799683"><ele></ele><time>2022-6-1T7:8:41Z</time></trkpt>
<trkpt lat="48.95272064209" lon="3.1348447799683"><ele></ele><time>2022-6-1T7:8:44Z</time></trkpt>
<trkpt lat="48.952785491943" lon="3.1349577903748"><ele></ele><time>2022-6-1T7:8:47Z</time></trkpt>
<trkpt lat="48.952850341797" lon="3.1350800991058"><ele></ele><time>2022-6-1T7:8:50Z</time></trkpt>
<trkpt lat="48.952926635742" lon="3.1351935863495"><ele></ele><time>2022-6-1T7:8:53Z</time></trkpt>
<trkpt lat="48.952926635742" lon="3.1351935863495"><ele></ele><time>2022-6-1T7:8:56Z</time></trkpt>
<trkpt lat="48.95299911499" lon="3.1352939605713"><ele></ele><time>2022-6-1T7:8:59Z</time></trkpt>
<trkpt lat="48.953067779541" lon="3.1354141235352"><ele></ele><time>2022-6-1T7:9:2Z</time></trkpt>
<trkpt lat="48.953117370605" lon="3.1355049610138"><ele></ele><time>2022-6-1T7:9:5Z</time></trkpt>
<trkpt lat="48.953117370605" lon="3.1355049610138"><ele></ele><time>2022-6-1T7:9:8Z</time></trkpt>
<trkpt lat="48.953174591064" lon="3.1356046199799"><ele></ele><time>2022-6-1T7:9:11Z</time></trkpt>
<trkpt lat="48.953216552734" lon="3.1357131004333"><ele></ele><time>2022-6-1T7:9:14Z</time></trkpt>
<trkpt lat="48.953247070312" lon="3.1358375549316"><ele></ele><time>2022-6-1T7:9:17Z</time></trkpt>
<trkpt lat="48.953247070312" lon="3.1358375549316"><ele></ele><time>2022-6-1T7:9:20Z</time></trkpt>
<trkpt lat="48.953281402588" lon="3.135968208313"><ele></ele><time>2022-6-1T7:9:23Z</time></trkpt>
<trkpt lat="48.953296661377" lon="3.1360564231873"><ele></ele><time>2022-6-1T7:9:26Z</time></trkpt>
<trkpt lat="48.953296661377" lon="3.1361727714539"><ele></ele><time>2022-6-1T7:9:29Z</time></trkpt>
<trkpt lat="48.953296661377" lon="3.1361727714539"><ele></ele><time>2022-6-1T7:9:32Z</time></trkpt>
<trkpt lat="48.953289031982" lon="3.1363294124603"><ele></ele><time>2022-6-1T7:9:35Z</time></trkpt>
<trkpt lat="48.953323364258" lon="3.1364679336548"><ele></ele><time>2022-6-1T7:9:38Z</time></trkpt>
<trkpt lat="48.953380584717" lon="3.1365468502045"><ele></ele><time>2022-6-1T7:9:41Z</time></trkpt>
<trkpt lat="48.953380584717" lon="3.1365468502045"><ele></ele><time>2022-6-1T7:9:44Z</time></trkpt>
<trkpt lat="48.953437805176" lon="3.1366062164307"><ele></ele><time>2022-6-1T7:9:47Z</time></trkpt>
<trkpt lat="48.953437805176" lon="3.1366062164307"><ele></ele><time>2022-6-1T7:9:50Z</time></trkpt>
<trkpt lat="48.953437805176" lon="3.1366062164307"><ele></ele><time>2022-6-1T7:9:53Z</time></trkpt>
<trkpt lat="48.953437805176" lon="3.1366062164307"><ele></ele><time>2022-6-1T7:9:56Z</time></trkpt>
<trkpt lat="48.953437805176" lon="3.1366062164307"><ele></ele><time>2022-6-1T7:9:59Z</time></trkpt>
<trkpt lat="48.953426361084" lon="3.1365933418274"><ele></ele><time>2022-6-1T7:10:2Z</time></trkpt>
<trkpt lat="48.953426361084" lon="3.1365933418274"><ele></ele><time>2022-6-1T7:10:5Z</time></trkpt>
<trkpt lat="48.953426361084" lon="3.1365933418274"><ele></ele><time>2022-6-1T7:10:8Z</time></trkpt>
<trkpt lat="48.953426361084" lon="3.1365933418274"><ele></ele><time>2022-6-1T7:10:11Z</time></trkpt>
<trkpt lat="48.95336151123" lon="3.1365051269531"><ele></ele><time>2022-6-1T7:10:14Z</time></trkpt>
<trkpt lat="48.953319549561" lon="3.1363723278046"><ele></ele><time>2022-6-1T7:10:17Z</time></trkpt>
<trkpt lat="48.953319549561" lon="3.1363723278046"><ele></ele><time>2022-6-1T7:10:20Z</time></trkpt>
<trkpt lat="48.953330993652" lon="3.1362869739532"><ele></ele><time>2022-6-1T7:10:23Z</time></trkpt>
<trkpt lat="48.953357696533" lon="3.1361656188965"><ele></ele><time>2022-6-1T7:10:26Z</time></trkpt>
<trkpt lat="48.953357696533" lon="3.1361656188965"><ele></ele><time>2022-6-1T7:10:29Z</time></trkpt>
<trkpt lat="48.953338623047" lon="3.1359925270081"><ele></ele><time>2022-6-1T7:10:32Z</time></trkpt>
<trkpt lat="48.953315734863" lon="3.1358938217163"><ele></ele><time>2022-6-1T7:10:35Z</time></trkpt>
<trkpt lat="48.953315734863" lon="3.1358938217163"><ele></ele><time>2022-6-1T7:10:38Z</time></trkpt>
<trkpt lat="48.953285217285" lon="3.1358013153076"><ele></ele><time>2022-6-1T7:10:41Z</time></trkpt>
<trkpt lat="48.953239440918" lon="3.1356956958771"><ele></ele><time>2022-6-1T7:10:44Z</time></trkpt>
<trkpt lat="48.953212738037" lon="3.1355814933777"><ele></ele><time>2022-6-1T7:10:47Z</time></trkpt>
<trkpt lat="48.953212738037" lon="3.1355814933777"><ele></ele><time>2022-6-1T7:10:50Z</time></trkpt>
<trkpt lat="48.953239440918" lon="3.1354749202728"><ele></ele><time>2022-6-1T7:10:53Z</time></trkpt>
<trkpt lat="48.953273773193" lon="3.135379076004"><ele></ele><time>2022-6-1T7:10:56Z</time></trkpt>
<trkpt lat="48.953273773193" lon="3.135379076004"><ele></ele><time>2022-6-1T7:10:59Z</time></trkpt>
<trkpt lat="48.953273773193" lon="3.135379076004"><ele></ele><time>2022-6-1T7:11:2Z</time></trkpt>
<trkpt lat="48.953273773193" lon="3.135379076004"><ele></ele><time>2022-6-1T7:11:5Z</time></trkpt>
<trkpt lat="48.953273773193" lon="3.135379076004"><ele></ele><time>2022-6-1T7:11:8Z</time></trkpt>
<trkpt lat="48.953285217285" lon="3.1352932453156"><ele></ele><time>2022-6-1T7:11:11Z</time></trkpt>
<trkpt lat="48.953285217285" lon="3.1352932453156"><ele></ele><time>2022-6-1T7:11:14Z</time></trkpt>
<trkpt lat="48.953285217285" lon="3.1352932453156"><ele></ele><time>2022-6-1T7:11:17Z</time></trkpt>
<trkpt lat="48.953285217285" lon="3.1352932453156"><ele></ele><time>2022-6-1T7:11:20Z</time></trkpt>
<trkpt lat="48.953285217285" lon="3.1352932453156"><ele></ele><time>2022-6-1T7:11:23Z</time></trkpt>
<trkpt lat="48.953285217285" lon="3.1352932453156"><ele></ele><time>2022-6-1T7:11:26Z</time></trkpt>
<trkpt lat="48.953414916992" lon="3.1352803707123"><ele></ele><time>2022-6-1T7:11:29Z</time></trkpt>
<trkpt lat="48.953414916992" lon="3.1352803707123"><ele></ele><time>2022-6-1T7:11:32Z</time></trkpt>
<trkpt lat="48.953514099121" lon="3.1353557109833"><ele></ele><time>2022-6-1T7:11:35Z</time></trkpt>
<trkpt lat="48.953582763672" lon="3.1354186534882"><ele></ele><time>2022-6-1T7:11:38Z</time></trkpt>
<trkpt lat="48.953647613525" lon="3.1354804039001"><ele></ele><time>2022-6-1T7:11:41Z</time></trkpt>
<trkpt lat="48.953716278076" lon="3.1355519294739"><ele></ele><time>2022-6-1T7:11:44Z</time></trkpt>
<trkpt lat="48.953792572021" lon="3.1356253623962"><ele></ele><time>2022-6-1T7:11:47Z</time></trkpt>
<trkpt lat="48.953868865967" lon="3.1356992721558"><ele></ele><time>2022-6-1T7:11:50Z</time></trkpt>
<trkpt lat="48.953948974609" lon="3.1357731819153"><ele></ele><time>2022-6-1T7:11:53Z</time></trkpt>
<trkpt lat="48.954029083252" lon="3.135852098465"><ele></ele><time>2022-6-1T7:11:56Z</time></trkpt>
<trkpt lat="48.954128265381" lon="3.1359376907349"><ele></ele><time>2022-6-1T7:11:59Z</time></trkpt>
<trkpt lat="48.95422744751" lon="3.1360206604004"><ele></ele><time>2022-6-1T7:12:2Z</time></trkpt>
<trkpt lat="48.954326629639" lon="3.1361072063446"><ele></ele><time>2022-6-1T7:12:5Z</time></trkpt>
<trkpt lat="48.954429626465" lon="3.1361918449402"><ele></ele><time>2022-6-1T7:12:8Z</time></trkpt>
<trkpt lat="48.954521179199" lon="3.1362709999084"><ele></ele><time>2022-6-1T7:12:11Z</time></trkpt>
<trkpt lat="48.954620361328" lon="3.1363418102264"><ele></ele><time>2022-6-1T7:12:14Z</time></trkpt>
<trkpt lat="48.954704284668" lon="3.1364068984985"><ele></ele><time>2022-6-1T7:12:17Z</time></trkpt>
<trkpt lat="48.954780578613" lon="3.1364662647247"><ele></ele><time>2022-6-1T7:12:20Z</time></trkpt>
<trkpt lat="48.95486831665" lon="3.1365451812744"><ele></ele><time>2022-6-1T7:12:23Z</time></trkpt>
<trkpt lat="48.954936981201" lon="3.1366004943848"><ele></ele><time>2022-6-1T7:12:26Z</time></trkpt>
<trkpt lat="48.954936981201" lon="3.1366004943848"><ele></ele><time>2022-6-1T7:12:29Z</time></trkpt>
<trkpt lat="48.955001831055" lon="3.1366634368896"><ele></ele><time>2022-6-1T7:12:32Z</time></trkpt>
<trkpt lat="48.955001831055" lon="3.1366634368896"><ele></ele><time>2022-6-1T7:12:35Z</time></trkpt>
<trkpt lat="48.955081939697" lon="3.1367256641388"><ele></ele><time>2022-6-1T7:12:38Z</time></trkpt>
<trkpt lat="48.955135345459" lon="3.1367626190186"><ele></ele><time>2022-6-1T7:12:41Z</time></trkpt>
<trkpt lat="48.955135345459" lon="3.1367626190186"><ele></ele><time>2022-6-1T7:12:44Z</time></trkpt>
<trkpt lat="48.955242156982" lon="3.1368319988251"><ele></ele><time>2022-6-1T7:12:47Z</time></trkpt>
<trkpt lat="48.955242156982" lon="3.1368319988251"><ele></ele><time>2022-6-1T7:12:50Z</time></trkpt>
<trkpt lat="48.955242156982" lon="3.1368319988251"><ele></ele><time>2022-6-1T7:12:53Z</time></trkpt>
<trkpt lat="48.955337524414" lon="3.1368932723999"><ele></ele><time>2022-6-1T7:12:56Z</time></trkpt>
<trkpt lat="48.955337524414" lon="3.1368932723999"><ele></ele><time>2022-6-1T7:12:59Z</time></trkpt>
<trkpt lat="48.955459594727" lon="3.1369683742523"><ele></ele><time>2022-6-1T7:13:2Z</time></trkpt>
<trkpt lat="48.955459594727" lon="3.1369683742523"><ele></ele><time>2022-6-1T7:13:5Z</time></trkpt>
<trkpt lat="48.955535888672" lon="3.137008190155"><ele></ele><time>2022-6-1T7:13:8Z</time></trkpt>
<trkpt lat="48.955623626709" lon="3.1370468139648"><ele></ele><time>2022-6-1T7:13:11Z</time></trkpt>
<trkpt lat="48.955711364746" lon="3.1370854377747"><ele></ele><time>2022-6-1T7:13:14Z</time></trkpt>
<trkpt lat="48.955711364746" lon="3.1370854377747"><ele></ele><time>2022-6-1T7:13:17Z</time></trkpt>
<trkpt lat="48.955795288086" lon="3.1371250152588"><ele></ele><time>2022-6-1T7:13:20Z</time></trkpt>
<trkpt lat="48.955875396729" lon="3.1371629238129"><ele></ele><time>2022-6-1T7:13:23Z</time></trkpt>
<trkpt lat="48.955959320068" lon="3.1372017860413"><ele></ele><time>2022-6-1T7:13:26Z</time></trkpt>
<trkpt lat="48.955959320068" lon="3.1372017860413"><ele></ele><time>2022-6-1T7:13:29Z</time></trkpt>
<trkpt lat="48.956020355225" lon="3.1372380256653"><ele></ele><time>2022-6-1T7:13:32Z</time></trkpt>
<trkpt lat="48.95613861084" lon="3.1373183727264"><ele></ele><time>2022-6-1T7:13:35Z</time></trkpt>
<trkpt lat="48.95613861084" lon="3.1373183727264"><ele></ele><time>2022-6-1T7:13:38Z</time></trkpt>
<trkpt lat="48.956203460693" lon="3.1373643875122"><ele></ele><time>2022-6-1T7:13:41Z</time></trkpt>
<trkpt lat="48.956272125244" lon="3.137412071228"><ele></ele><time>2022-6-1T7:13:44Z</time></trkpt>
<trkpt lat="48.9563331604" lon="3.1374571323395"><ele></ele><time>2022-6-1T7:13:47Z</time></trkpt>
<trkpt lat="48.9563331604" lon="3.1374571323395"><ele></ele><time>2022-6-1T7:13:50Z</time></trkpt>
<trkpt lat="48.956398010254" lon="3.1375119686127"><ele></ele><time>2022-6-1T7:13:53Z</time></trkpt>
<trkpt lat="48.956462860107" lon="3.1375687122345"><ele></ele><time>2022-6-1T7:13:56Z</time></trkpt>
<trkpt lat="48.956523895264" lon="3.1376163959503"><ele></ele><time>2022-6-1T7:13:59Z</time></trkpt>
<trkpt lat="48.956523895264" lon="3.1376163959503"><ele></ele><time>2022-6-1T7:14:2Z</time></trkpt>
<trkpt lat="48.956581115723" lon="3.1376638412476"><ele></ele><time>2022-6-1T7:14:5Z</time></trkpt>
<trkpt lat="48.956642150879" lon="3.1377155780792"><ele></ele><time>2022-6-1T7:14:8Z</time></trkpt>
<trkpt lat="48.956707000732" lon="3.1377768516541"><ele></ele><time>2022-6-1T7:14:11Z</time></trkpt>
<trkpt lat="48.956707000732" lon="3.1377768516541"><ele></ele><time>2022-6-1T7:14:14Z</time></trkpt>
<trkpt lat="48.956771850586" lon="3.1378388404846"><ele></ele><time>2022-6-1T7:14:17Z</time></trkpt>
<trkpt lat="48.956832885742" lon="3.1378970146179"><ele></ele><time>2022-6-1T7:14:20Z</time></trkpt>
<trkpt lat="48.956893920898" lon="3.1379508972168"><ele></ele><time>2022-6-1T7:14:23Z</time></trkpt>
<trkpt lat="48.956893920898" lon="3.1379508972168"><ele></ele><time>2022-6-1T7:14:26Z</time></trkpt>
<trkpt lat="48.956958770752" lon="3.13800573349"><ele></ele><time>2022-6-1T7:14:29Z</time></trkpt>
<trkpt lat="48.957019805908" lon="3.1380648612976"><ele></ele><time>2022-6-1T7:14:32Z</time></trkpt>
<trkpt lat="48.957080841064" lon="3.138126373291"><ele></ele><time>2022-6-1T7:14:35Z</time></trkpt>
<trkpt lat="48.957080841064" lon="3.138126373291"><ele></ele><time>2022-6-1T7:14:38Z</time></trkpt>
<trkpt lat="48.957141876221" lon="3.1381919384003"><ele></ele><time>2022-6-1T7:14:41Z</time></trkpt>
<trkpt lat="48.95719909668" lon="3.1382451057434"><ele></ele><time>2022-6-1T7:14:44Z</time></trkpt>
<trkpt lat="48.957260131836" lon="3.1383063793182"><ele></ele><time>2022-6-1T7:14:47Z</time></trkpt>
<trkpt lat="48.957260131836" lon="3.1383063793182"><ele></ele><time>2022-6-1T7:14:50Z</time></trkpt>
<trkpt lat="48.957336425781" lon="3.1383745670319"><ele></ele><time>2022-6-1T7:14:53Z</time></trkpt>
<trkpt lat="48.957408905029" lon="3.1384408473969"><ele></ele><time>2022-6-1T7:14:56Z</time></trkpt>
<trkpt lat="48.957473754883" lon="3.138507604599"><ele></ele><time>2022-6-1T7:14:59Z</time></trkpt>
<trkpt lat="48.957473754883" lon="3.138507604599"><ele></ele><time>2022-6-1T7:15:2Z</time></trkpt>
<trkpt lat="48.957530975342" lon="3.1385591030121"><ele></ele><time>2022-6-1T7:15:5Z</time></trkpt>
<trkpt lat="48.957599639893" lon="3.1386277675629"><ele></ele><time>2022-6-1T7:15:8Z</time></trkpt>
<trkpt lat="48.957679748535" lon="3.1386997699738"><ele></ele><time>2022-6-1T7:15:11Z</time></trkpt>
<trkpt lat="48.957679748535" lon="3.1386997699738"><ele></ele><time>2022-6-1T7:15:14Z</time></trkpt>
<trkpt lat="48.957759857178" lon="3.1387870311737"><ele></ele><time>2022-6-1T7:15:17Z</time></trkpt>
<trkpt lat="48.95783996582" lon="3.1388509273529"><ele></ele><time>2022-6-1T7:15:20Z</time></trkpt>
<trkpt lat="48.957912445068" lon="3.1389129161835"><ele></ele><time>2022-6-1T7:15:23Z</time></trkpt>
<trkpt lat="48.957912445068" lon="3.1389129161835"><ele></ele><time>2022-6-1T7:15:26Z</time></trkpt>
<trkpt lat="48.957981109619" lon="3.1389789581299"><ele></ele><time>2022-6-1T7:15:29Z</time></trkpt>
<trkpt lat="48.958045959473" lon="3.1390392780304"><ele></ele><time>2022-6-1T7:15:32Z</time></trkpt>
<trkpt lat="48.958110809326" lon="3.1391005516052"><ele></ele><time>2022-6-1T7:15:35Z</time></trkpt>
<trkpt lat="48.958110809326" lon="3.1391005516052"><ele></ele><time>2022-6-1T7:15:38Z</time></trkpt>
<trkpt lat="48.95817565918" lon="3.1391596794128"><ele></ele><time>2022-6-1T7:15:41Z</time></trkpt>
<trkpt lat="48.95824432373" lon="3.1392164230347"><ele></ele><time>2022-6-1T7:15:44Z</time></trkpt>
<trkpt lat="48.958320617676" lon="3.1392772197723"><ele></ele><time>2022-6-1T7:15:47Z</time></trkpt>
<trkpt lat="48.958320617676" lon="3.1392772197723"><ele></ele><time>2022-6-1T7:15:50Z</time></trkpt>
<trkpt lat="48.958393096924" lon="3.1393411159515"><ele></ele><time>2022-6-1T7:15:53Z</time></trkpt>
<trkpt lat="48.958469390869" lon="3.1394097805023"><ele></ele><time>2022-6-1T7:15:56Z</time></trkpt>
<trkpt lat="48.958545684814" lon="3.1394739151001"><ele></ele><time>2022-6-1T7:15:59Z</time></trkpt>
<trkpt lat="48.958545684814" lon="3.1394739151001"><ele></ele><time>2022-6-1T7:16:2Z</time></trkpt>
<trkpt lat="48.958618164062" lon="3.1395332813263"><ele></ele><time>2022-6-1T7:16:5Z</time></trkpt>
<trkpt lat="48.958698272705" lon="3.1396048069"><ele></ele><time>2022-6-1T7:16:8Z</time></trkpt>
<trkpt lat="48.958782196045" lon="3.139687538147"><ele></ele><time>2022-6-1T7:16:11Z</time></trkpt>
<trkpt lat="48.958782196045" lon="3.139687538147"><ele></ele><time>2022-6-1T7:16:14Z</time></trkpt>
<trkpt lat="48.958862304688" lon="3.1397540569305"><ele></ele><time>2022-6-1T7:16:17Z</time></trkpt>
<trkpt lat="48.958938598633" lon="3.1398055553436"><ele></ele><time>2022-6-1T7:16:20Z</time></trkpt>
<trkpt lat="48.959003448486" lon="3.1398754119873"><ele></ele><time>2022-6-1T7:16:23Z</time></trkpt>
<trkpt lat="48.959003448486" lon="3.1398754119873"><ele></ele><time>2022-6-1T7:16:26Z</time></trkpt>
<trkpt lat="48.959079742432" lon="3.139945268631"><ele></ele><time>2022-6-1T7:16:29Z</time></trkpt>
<trkpt lat="48.959148406982" lon="3.1399967670441"><ele></ele><time>2022-6-1T7:16:32Z</time></trkpt>
<trkpt lat="48.959148406982" lon="3.1399967670441"><ele></ele><time>2022-6-1T7:16:35Z</time></trkpt>
<trkpt lat="48.959148406982" lon="3.1399967670441"><ele></ele><time>2022-6-1T7:16:38Z</time></trkpt>
<trkpt lat="48.959243774414" lon="3.1400628089905"><ele></ele><time>2022-6-1T7:16:41Z</time></trkpt>
<trkpt lat="48.959293365479" lon="3.1401107311249"><ele></ele><time>2022-6-1T7:16:44Z</time></trkpt>
<trkpt lat="48.95934677124" lon="3.1401603221893"><ele></ele><time>2022-6-1T7:16:47Z</time></trkpt>
<trkpt lat="48.95934677124" lon="3.1401603221893"><ele></ele><time>2022-6-1T7:16:50Z</time></trkpt>
<trkpt lat="48.959411621094" lon="3.1402156352997"><ele></ele><time>2022-6-1T7:16:53Z</time></trkpt>
<trkpt lat="48.95947265625" lon="3.1402642726898"><ele></ele><time>2022-6-1T7:16:56Z</time></trkpt>
<trkpt lat="48.959548950195" lon="3.1403105258942"><ele></ele><time>2022-6-1T7:16:59Z</time></trkpt>
<trkpt lat="48.959548950195" lon="3.1403105258942"><ele></ele><time>2022-6-1T7:17:2Z</time></trkpt>
<trkpt lat="48.959613800049" lon="3.1403629779816"><ele></ele><time>2022-6-1T7:17:5Z</time></trkpt>
<trkpt lat="48.959686279297" lon="3.1404168605804"><ele></ele><time>2022-6-1T7:17:8Z</time></trkpt>
<trkpt lat="48.959762573242" lon="3.1404838562012"><ele></ele><time>2022-6-1T7:17:11Z</time></trkpt>
<trkpt lat="48.959762573242" lon="3.1404838562012"><ele></ele><time>2022-6-1T7:17:14Z</time></trkpt>
<trkpt lat="48.959823608398" lon="3.1405477523804"><ele></ele><time>2022-6-1T7:17:17Z</time></trkpt>
<trkpt lat="48.959884643555" lon="3.1405975818634"><ele></ele><time>2022-6-1T7:17:20Z</time></trkpt>
<trkpt lat="48.959957122803" lon="3.140661239624"><ele></ele><time>2022-6-1T7:17:23Z</time></trkpt>
<trkpt lat="48.959957122803" lon="3.140661239624"><ele></ele><time>2022-6-1T7:17:26Z</time></trkpt>
<trkpt lat="48.960029602051" lon="3.1407215595245"><ele></ele><time>2022-6-1T7:17:29Z</time></trkpt>
<trkpt lat="48.960102081299" lon="3.1407825946808"><ele></ele><time>2022-6-1T7:17:32Z</time></trkpt>
<trkpt lat="48.96017074585" lon="3.1408514976501"><ele></ele><time>2022-6-1T7:17:35Z</time></trkpt>
<trkpt lat="48.96017074585" lon="3.1408514976501"><ele></ele><time>2022-6-1T7:17:38Z</time></trkpt>
<trkpt lat="48.9602394104" lon="3.140914440155"><ele></ele><time>2022-6-1T7:17:41Z</time></trkpt>
<trkpt lat="48.960292816162" lon="3.1409597396851"><ele></ele><time>2022-6-1T7:17:44Z</time></trkpt>
<trkpt lat="48.960292816162" lon="3.1409597396851"><ele></ele><time>2022-6-1T7:17:47Z</time></trkpt>
<trkpt lat="48.960292816162" lon="3.1409597396851"><ele></ele><time>2022-6-1T7:17:50Z</time></trkpt>
<trkpt lat="48.960369110107" lon="3.1410443782806"><ele></ele><time>2022-6-1T7:17:53Z</time></trkpt>
<trkpt lat="48.960418701172" lon="3.1410939693451"><ele></ele><time>2022-6-1T7:17:56Z</time></trkpt>
<trkpt lat="48.960494995117" lon="3.1411805152893"><ele></ele><time>2022-6-1T7:17:59Z</time></trkpt>
<trkpt lat="48.960494995117" lon="3.1411805152893"><ele></ele><time>2022-6-1T7:18:2Z</time></trkpt>
<trkpt lat="48.960552215576" lon="3.1412832736969"><ele></ele><time>2022-6-1T7:18:5Z</time></trkpt>
<trkpt lat="48.960605621338" lon="3.1413507461548"><ele></ele><time>2022-6-1T7:18:8Z</time></trkpt>
<trkpt lat="48.9606590271" lon="3.1414227485657"><ele></ele><time>2022-6-1T7:18:11Z</time></trkpt>
<trkpt lat="48.9606590271" lon="3.1414227485657"><ele></ele><time>2022-6-1T7:18:14Z</time></trkpt>
<trkpt lat="48.960735321045" lon="3.1415264606476"><ele></ele><time>2022-6-1T7:18:17Z</time></trkpt>
<trkpt lat="48.960807800293" lon="3.1416187286377"><ele></ele><time>2022-6-1T7:18:20Z</time></trkpt>
<trkpt lat="48.960891723633" lon="3.1417100429535"><ele></ele><time>2022-6-1T7:18:23Z</time></trkpt>
<trkpt lat="48.960891723633" lon="3.1417100429535"><ele></ele><time>2022-6-1T7:18:26Z</time></trkpt>
<trkpt lat="48.960960388184" lon="3.1418039798737"><ele></ele><time>2022-6-1T7:18:29Z</time></trkpt>
<trkpt lat="48.961025238037" lon="3.1418976783752"><ele></ele><time>2022-6-1T7:18:32Z</time></trkpt>
<trkpt lat="48.961097717285" lon="3.1419820785522"><ele></ele><time>2022-6-1T7:18:35Z</time></trkpt>
<trkpt lat="48.961097717285" lon="3.1419820785522"><ele></ele><time>2022-6-1T7:18:38Z</time></trkpt>
<trkpt lat="48.96117401123" lon="3.1420958042145"><ele></ele><time>2022-6-1T7:18:41Z</time></trkpt>
<trkpt lat="48.961235046387" lon="3.1421937942505"><ele></ele><time>2022-6-1T7:18:44Z</time></trkpt>
<trkpt lat="48.961277008057" lon="3.1422846317291"><ele></ele><time>2022-6-1T7:18:47Z</time></trkpt>
<trkpt lat="48.961277008057" lon="3.1422846317291"><ele></ele><time>2022-6-1T7:18:50Z</time></trkpt>
<trkpt lat="48.961307525635" lon="3.1423625946045"><ele></ele><time>2022-6-1T7:18:53Z</time></trkpt>
<trkpt lat="48.961330413818" lon="3.1424481868744"><ele></ele><time>2022-6-1T7:18:56Z</time></trkpt>
<trkpt lat="48.961330413818" lon="3.1424481868744"><ele></ele><time>2022-6-1T7:18:59Z</time></trkpt>
<trkpt lat="48.961330413818" lon="3.1424481868744"><ele></ele><time>2022-6-1T7:19:2Z</time></trkpt>
<trkpt lat="48.961334228516" lon="3.1426067352295"><ele></ele><time>2022-6-1T7:19:5Z</time></trkpt>
<trkpt lat="48.961334228516" lon="3.1426067352295"><ele></ele><time>2022-6-1T7:19:8Z</time></trkpt>
<trkpt lat="48.961345672607" lon="3.1427648067474"><ele></ele><time>2022-6-1T7:19:11Z</time></trkpt>
<trkpt lat="48.961345672607" lon="3.1427648067474"><ele></ele><time>2022-6-1T7:19:14Z</time></trkpt>
<trkpt lat="48.961376190186" lon="3.1428668498993"><ele></ele><time>2022-6-1T7:19:17Z</time></trkpt>
<trkpt lat="48.961391448975" lon="3.1429734230042"><ele></ele><time>2022-6-1T7:19:20Z</time></trkpt>
<trkpt lat="48.961399078369" lon="3.1430904865265"><ele></ele><time>2022-6-1T7:19:23Z</time></trkpt>
<trkpt lat="48.961399078369" lon="3.1430904865265"><ele></ele><time>2022-6-1T7:19:26Z</time></trkpt>
<trkpt lat="48.961414337158" lon="3.1432209014893"><ele></ele><time>2022-6-1T7:19:29Z</time></trkpt>
<trkpt lat="48.961456298828" lon="3.1433629989624"><ele></ele><time>2022-6-1T7:19:32Z</time></trkpt>
<trkpt lat="48.961490631104" lon="3.1434946060181"><ele></ele><time>2022-6-1T7:19:35Z</time></trkpt>
<trkpt lat="48.961490631104" lon="3.1434946060181"><ele></ele><time>2022-6-1T7:19:38Z</time></trkpt>
<trkpt lat="48.961490631104" lon="3.1434946060181"><ele></ele><time>2022-6-1T7:19:41Z</time></trkpt>
<trkpt lat="48.96155166626" lon="3.1436989307404"><ele></ele><time>2022-6-1T7:19:44Z</time></trkpt>
<trkpt lat="48.961570739746" lon="3.1438283920288"><ele></ele><time>2022-6-1T7:19:47Z</time></trkpt>
<trkpt lat="48.961570739746" lon="3.1438283920288"><ele></ele><time>2022-6-1T7:19:50Z</time></trkpt>
<trkpt lat="48.961605072021" lon="3.1439492702484"><ele></ele><time>2022-6-1T7:19:53Z</time></trkpt>
<trkpt lat="48.961639404297" lon="3.1440312862396"><ele></ele><time>2022-6-1T7:19:56Z</time></trkpt>
<trkpt lat="48.961639404297" lon="3.1440312862396"><ele></ele><time>2022-6-1T7:19:59Z</time></trkpt>
<trkpt lat="48.961639404297" lon="3.1440312862396"><ele></ele><time>2022-6-1T7:20:2Z</time></trkpt>
<trkpt lat="48.961715698242" lon="3.144238948822"><ele></ele><time>2022-6-1T7:20:5Z</time></trkpt>
<trkpt lat="48.961799621582" lon="3.1443626880646"><ele></ele><time>2022-6-1T7:20:8Z</time></trkpt>
<trkpt lat="48.961879730225" lon="3.1444568634033"><ele></ele><time>2022-6-1T7:20:11Z</time></trkpt>
<trkpt lat="48.961879730225" lon="3.1444568634033"><ele></ele><time>2022-6-1T7:20:14Z</time></trkpt>
<trkpt lat="48.96195602417" lon="3.144558429718"><ele></ele><time>2022-6-1T7:20:17Z</time></trkpt>
<trkpt lat="48.962028503418" lon="3.1446585655212"><ele></ele><time>2022-6-1T7:20:20Z</time></trkpt>
<trkpt lat="48.962089538574" lon="3.1447622776031"><ele></ele><time>2022-6-1T7:20:23Z</time></trkpt>
<trkpt lat="48.962089538574" lon="3.1447622776031"><ele></ele><time>2022-6-1T7:20:26Z</time></trkpt>
<trkpt lat="48.962158203125" lon="3.1448724269867"><ele></ele><time>2022-6-1T7:20:29Z</time></trkpt>
<trkpt lat="48.962223052979" lon="3.1449823379517"><ele></ele><time>2022-6-1T7:20:32Z</time></trkpt>
<trkpt lat="48.962272644043" lon="3.1450800895691"><ele></ele><time>2022-6-1T7:20:35Z</time></trkpt>
<trkpt lat="48.962272644043" lon="3.1450800895691"><ele></ele><time>2022-6-1T7:20:38Z</time></trkpt>
<trkpt lat="48.962333679199" lon="3.1451888084412"><ele></ele><time>2022-6-1T7:20:41Z</time></trkpt>
<trkpt lat="48.962394714355" lon="3.1452896595001"><ele></ele><time>2022-6-1T7:20:44Z</time></trkpt>
<trkpt lat="48.962463378906" lon="3.145397901535"><ele></ele><time>2022-6-1T7:20:47Z</time></trkpt>
<trkpt lat="48.962463378906" lon="3.145397901535"><ele></ele><time>2022-6-1T7:20:50Z</time></trkpt>
<trkpt lat="48.962532043457" lon="3.1455166339874"><ele></ele><time>2022-6-1T7:20:53Z</time></trkpt>
<trkpt lat="48.962608337402" lon="3.1456265449524"><ele></ele><time>2022-6-1T7:20:56Z</time></trkpt>
<trkpt lat="48.96268081665" lon="3.1457371711731"><ele></ele><time>2022-6-1T7:20:59Z</time></trkpt>
<trkpt lat="48.96268081665" lon="3.1457371711731"><ele></ele><time>2022-6-1T7:21:2Z</time></trkpt>
<trkpt lat="48.962730407715" lon="3.1458206176758"><ele></ele><time>2022-6-1T7:21:5Z</time></trkpt>
<trkpt lat="48.962730407715" lon="3.1458206176758"><ele></ele><time>2022-6-1T7:21:8Z</time></trkpt>
<trkpt lat="48.962810516357" lon="3.145934343338"><ele></ele><time>2022-6-1T7:21:11Z</time></trkpt>
<trkpt lat="48.962810516357" lon="3.145934343338"><ele></ele><time>2022-6-1T7:21:14Z</time></trkpt>
<trkpt lat="48.962863922119" lon="3.1460344791412"><ele></ele><time>2022-6-1T7:21:17Z</time></trkpt>
<trkpt lat="48.962928771973" lon="3.146152973175"><ele></ele><time>2022-6-1T7:21:20Z</time></trkpt>
<trkpt lat="48.962982177734" lon="3.1462693214417"><ele></ele><time>2022-6-1T7:21:23Z</time></trkpt>
<trkpt lat="48.962982177734" lon="3.1462693214417"><ele></ele><time>2022-6-1T7:21:26Z</time></trkpt>
<trkpt lat="48.963024139404" lon="3.146378993988"><ele></ele><time>2022-6-1T7:21:29Z</time></trkpt>
<trkpt lat="48.963062286377" lon="3.1464784145355"><ele></ele><time>2022-6-1T7:21:32Z</time></trkpt>
<trkpt lat="48.963104248047" lon="3.146585226059"><ele></ele><time>2022-6-1T7:21:35Z</time></trkpt>
<trkpt lat="48.963104248047" lon="3.146585226059"><ele></ele><time>2022-6-1T7:21:38Z</time></trkpt>
<trkpt lat="48.96314239502" lon="3.1467015743256"><ele></ele><time>2022-6-1T7:21:41Z</time></trkpt>
<trkpt lat="48.963184356689" lon="3.1468088626862"><ele></ele><time>2022-6-1T7:21:44Z</time></trkpt>
<trkpt lat="48.963233947754" lon="3.1469192504883"><ele></ele><time>2022-6-1T7:21:47Z</time></trkpt>
<trkpt lat="48.963275909424" lon="3.1470379829407"><ele></ele><time>2022-6-1T7:21:50Z</time></trkpt>
<trkpt lat="48.963321685791" lon="3.1471576690674"><ele></ele><time>2022-6-1T7:21:53Z</time></trkpt>
<trkpt lat="48.963367462158" lon="3.1472797393799"><ele></ele><time>2022-6-1T7:21:56Z</time></trkpt>
<trkpt lat="48.96342086792" lon="3.1473958492279"><ele></ele><time>2022-6-1T7:21:59Z</time></trkpt>
<trkpt lat="48.963485717773" lon="3.1475002765656"><ele></ele><time>2022-6-1T7:22:2Z</time></trkpt>
<trkpt lat="48.963535308838" lon="3.1476111412048"><ele></ele><time>2022-6-1T7:22:5Z</time></trkpt>
<trkpt lat="48.963592529297" lon="3.1477603912354"><ele></ele><time>2022-6-1T7:22:8Z</time></trkpt>
<trkpt lat="48.963645935059" lon="3.1479249000549"><ele></ele><time>2022-6-1T7:22:11Z</time></trkpt>
<trkpt lat="48.963691711426" lon="3.1480867862701"><ele></ele><time>2022-6-1T7:22:14Z</time></trkpt>
<trkpt lat="48.963729858398" lon="3.1482219696045"><ele></ele><time>2022-6-1T7:22:17Z</time></trkpt>
<trkpt lat="48.963768005371" lon="3.148336648941"><ele></ele><time>2022-6-1T7:22:20Z</time></trkpt>
<trkpt lat="48.963809967041" lon="3.1484434604645"><ele></ele><time>2022-6-1T7:22:23Z</time></trkpt>
<trkpt lat="48.963855743408" lon="3.1485612392426"><ele></ele><time>2022-6-1T7:22:26Z</time></trkpt>
<trkpt lat="48.963893890381" lon="3.1486728191376"><ele></ele><time>2022-6-1T7:22:29Z</time></trkpt>
<trkpt lat="48.963928222656" lon="3.1487474441528"><ele></ele><time>2022-6-1T7:22:32Z</time></trkpt>
<trkpt lat="48.963928222656" lon="3.1487474441528"><ele></ele><time>2022-6-1T7:22:35Z</time></trkpt>
<trkpt lat="48.963928222656" lon="3.1487474441528"><ele></ele><time>2022-6-1T7:22:38Z</time></trkpt>
<trkpt lat="48.96399307251" lon="3.1487286090851"><ele></ele><time>2022-6-1T7:22:41Z</time></trkpt>
<trkpt lat="48.964031219482" lon="3.1486568450928"><ele></ele><time>2022-6-1T7:22:44Z</time></trkpt>
<trkpt lat="48.96407699585" lon="3.1485786437988"><ele></ele><time>2022-6-1T7:22:47Z</time></trkpt>
<trkpt lat="48.964126586914" lon="3.1484920978546"><ele></ele><time>2022-6-1T7:22:50Z</time></trkpt>
<trkpt lat="48.964172363281" lon="3.148396730423"><ele></ele><time>2022-6-1T7:22:53Z</time></trkpt>
<trkpt lat="48.96422958374" lon="3.1482932567596"><ele></ele><time>2022-6-1T7:22:56Z</time></trkpt>
<trkpt lat="48.964286804199" lon="3.1481928825378"><ele></ele><time>2022-6-1T7:22:59Z</time></trkpt>
<trkpt lat="48.964332580566" lon="3.1481049060822"><ele></ele><time>2022-6-1T7:23:2Z</time></trkpt>
<trkpt lat="48.964378356934" lon="3.1480197906494"><ele></ele><time>2022-6-1T7:23:5Z</time></trkpt>
<trkpt lat="48.964431762695" lon="3.1479377746582"><ele></ele><time>2022-6-1T7:23:8Z</time></trkpt>
<trkpt lat="48.964477539062" lon="3.1478478908539"><ele></ele><time>2022-6-1T7:23:11Z</time></trkpt>
<trkpt lat="48.964534759521" lon="3.1477553844452"><ele></ele><time>2022-6-1T7:23:14Z</time></trkpt>
<trkpt lat="48.964576721191" lon="3.1476776599884"><ele></ele><time>2022-6-1T7:23:17Z</time></trkpt>
<trkpt lat="48.964630126953" lon="3.1475958824158"><ele></ele><time>2022-6-1T7:23:20Z</time></trkpt>
<trkpt lat="48.964672088623" lon="3.1475231647491"><ele></ele><time>2022-6-1T7:23:23Z</time></trkpt>
<trkpt lat="48.964714050293" lon="3.1474499702454"><ele></ele><time>2022-6-1T7:23:26Z</time></trkpt>
<trkpt lat="48.964763641357" lon="3.1473653316498"><ele></ele><time>2022-6-1T7:23:29Z</time></trkpt>
<trkpt lat="48.964809417725" lon="3.1472775936127"><ele></ele><time>2022-6-1T7:23:32Z</time></trkpt>
<trkpt lat="48.964851379395" lon="3.1472074985504"><ele></ele><time>2022-6-1T7:23:35Z</time></trkpt>
<trkpt lat="48.964851379395" lon="3.1472074985504"><ele></ele><time>2022-6-1T7:23:38Z</time></trkpt>
<trkpt lat="48.964931488037" lon="3.1470730304718"><ele></ele><time>2022-6-1T7:23:41Z</time></trkpt>
<trkpt lat="48.964981079102" lon="3.1469924449921"><ele></ele><time>2022-6-1T7:23:44Z</time></trkpt>
<trkpt lat="48.965019226074" lon="3.1469280719757"><ele></ele><time>2022-6-1T7:23:47Z</time></trkpt>
<trkpt lat="48.965061187744" lon="3.1468689441681"><ele></ele><time>2022-6-1T7:23:50Z</time></trkpt>
<trkpt lat="48.965061187744" lon="3.1468689441681"><ele></ele><time>2022-6-1T7:23:53Z</time></trkpt>
<trkpt lat="48.965137481689" lon="3.1467592716217"><ele></ele><time>2022-6-1T7:23:56Z</time></trkpt>
<trkpt lat="48.965137481689" lon="3.1467592716217"><ele></ele><time>2022-6-1T7:23:59Z</time></trkpt>
<trkpt lat="48.965221405029" lon="3.1466553211212"><ele></ele><time>2022-6-1T7:24:2Z</time></trkpt>
<trkpt lat="48.965221405029" lon="3.1466553211212"><ele></ele><time>2022-6-1T7:24:5Z</time></trkpt>
<trkpt lat="48.965293884277" lon="3.1465630531311"><ele></ele><time>2022-6-1T7:24:8Z</time></trkpt>
<trkpt lat="48.965343475342" lon="3.146496295929"><ele></ele><time>2022-6-1T7:24:11Z</time></trkpt>
<trkpt lat="48.965385437012" lon="3.1464405059814"><ele></ele><time>2022-6-1T7:24:14Z</time></trkpt>
<trkpt lat="48.965385437012" lon="3.1464405059814"><ele></ele><time>2022-6-1T7:24:17Z</time></trkpt>
<trkpt lat="48.965454101562" lon="3.1463513374329"><ele></ele><time>2022-6-1T7:24:20Z</time></trkpt>
<trkpt lat="48.965454101562" lon="3.1463513374329"><ele></ele><time>2022-6-1T7:24:23Z</time></trkpt>
<trkpt lat="48.965526580811" lon="3.1462640762329"><ele></ele><time>2022-6-1T7:24:26Z</time></trkpt>
<trkpt lat="48.965526580811" lon="3.1462640762329"><ele></ele><time>2022-6-1T7:24:29Z</time></trkpt>
<trkpt lat="48.965606689453" lon="3.1461584568024"><ele></ele><time>2022-6-1T7:24:32Z</time></trkpt>
<trkpt lat="48.965656280518" lon="3.1461029052734"><ele></ele><time>2022-6-1T7:24:35Z</time></trkpt>
<trkpt lat="48.965656280518" lon="3.1461029052734"><ele></ele><time>2022-6-1T7:24:38Z</time></trkpt>
<trkpt lat="48.965732574463" lon="3.1460163593292"><ele></ele><time>2022-6-1T7:24:41Z</time></trkpt>
<trkpt lat="48.965732574463" lon="3.1460163593292"><ele></ele><time>2022-6-1T7:24:44Z</time></trkpt>
<trkpt lat="48.965824127197" lon="3.1459171772003"><ele></ele><time>2022-6-1T7:24:47Z</time></trkpt>
<trkpt lat="48.965896606445" lon="3.1458203792572"><ele></ele><time>2022-6-1T7:24:50Z</time></trkpt>
<trkpt lat="48.965896606445" lon="3.1458203792572"><ele></ele><time>2022-6-1T7:24:53Z</time></trkpt>
<trkpt lat="48.965957641602" lon="3.1457467079163"><ele></ele><time>2022-6-1T7:24:56Z</time></trkpt>
<trkpt lat="48.965957641602" lon="3.1457467079163"><ele></ele><time>2022-6-1T7:24:59Z</time></trkpt>
<trkpt lat="48.965957641602" lon="3.1457467079163"><ele></ele><time>2022-6-1T7:25:2Z</time></trkpt>
<trkpt lat="48.96603012085" lon="3.1456682682037"><ele></ele><time>2022-6-1T7:25:5Z</time></trkpt>
<trkpt lat="48.96603012085" lon="3.1456682682037"><ele></ele><time>2022-6-1T7:25:8Z</time></trkpt>
<trkpt lat="48.966106414795" lon="3.1455752849579"><ele></ele><time>2022-6-1T7:25:11Z</time></trkpt>
<trkpt lat="48.966106414795" lon="3.1455752849579"><ele></ele><time>2022-6-1T7:25:14Z</time></trkpt>
<trkpt lat="48.966106414795" lon="3.1455752849579"><ele></ele><time>2022-6-1T7:25:17Z</time></trkpt>
<trkpt lat="48.966148376465" lon="3.1455163955688"><ele></ele><time>2022-6-1T7:25:20Z</time></trkpt>
<trkpt lat="48.966148376465" lon="3.1455163955688"><ele></ele><time>2022-6-1T7:25:23Z</time></trkpt>
<trkpt lat="48.966148376465" lon="3.1455163955688"><ele></ele><time>2022-6-1T7:25:26Z</time></trkpt>
<trkpt lat="48.966175079346" lon="3.1454844474792"><ele></ele><time>2022-6-1T7:25:29Z</time></trkpt>
<trkpt lat="48.966209411621" lon="3.1454436779022"><ele></ele><time>2022-6-1T7:25:32Z</time></trkpt>
<trkpt lat="48.966251373291" lon="3.1453874111176"><ele></ele><time>2022-6-1T7:25:35Z</time></trkpt>
<trkpt lat="48.966251373291" lon="3.1453874111176"><ele></ele><time>2022-6-1T7:25:38Z</time></trkpt>
<trkpt lat="48.966293334961" lon="3.1453261375427"><ele></ele><time>2022-6-1T7:25:41Z</time></trkpt>
<trkpt lat="48.966342926025" lon="3.1452605724335"><ele></ele><time>2022-6-1T7:25:44Z</time></trkpt>
<trkpt lat="48.96643447876" lon="3.1451289653778"><ele></ele><time>2022-6-1T7:25:47Z</time></trkpt>
<trkpt lat="48.966464996338" lon="3.1450502872467"><ele></ele><time>2022-6-1T7:25:50Z</time></trkpt>
<trkpt lat="48.966522216797" lon="3.1449558734894"><ele></ele><time>2022-6-1T7:25:53Z</time></trkpt>
<trkpt lat="48.96658706665" lon="3.1448769569397"><ele></ele><time>2022-6-1T7:25:56Z</time></trkpt>
<trkpt lat="48.96658706665" lon="3.1448769569397"><ele></ele><time>2022-6-1T7:25:59Z</time></trkpt>
<trkpt lat="48.966636657715" lon="3.1448130607605"><ele></ele><time>2022-6-1T7:26:2Z</time></trkpt>
<trkpt lat="48.966678619385" lon="3.1447489261627"><ele></ele><time>2022-6-1T7:26:5Z</time></trkpt>
<trkpt lat="48.966720581055" lon="3.1446828842163"><ele></ele><time>2022-6-1T7:26:8Z</time></trkpt>
<trkpt lat="48.966720581055" lon="3.1446828842163"><ele></ele><time>2022-6-1T7:26:11Z</time></trkpt>
<trkpt lat="48.966758728027" lon="3.1446127891541"><ele></ele><time>2022-6-1T7:26:14Z</time></trkpt>
<trkpt lat="48.966758728027" lon="3.1446127891541"><ele></ele><time>2022-6-1T7:26:17Z</time></trkpt>
<trkpt lat="48.966808319092" lon="3.14453125"><ele></ele><time>2022-6-1T7:26:20Z</time></trkpt>
<trkpt lat="48.966808319092" lon="3.14453125"><ele></ele><time>2022-6-1T7:26:23Z</time></trkpt>
<trkpt lat="48.966808319092" lon="3.14453125"><ele></ele><time>2022-6-1T7:26:26Z</time></trkpt>
<trkpt lat="48.966808319092" lon="3.14453125"><ele></ele><time>2022-6-1T7:26:29Z</time></trkpt>
<trkpt lat="48.96688079834" lon="3.1445376873016"><ele></ele><time>2022-6-1T7:26:32Z</time></trkpt>
<trkpt lat="48.96688079834" lon="3.1445376873016"><ele></ele><time>2022-6-1T7:26:35Z</time></trkpt>
<trkpt lat="48.96688079834" lon="3.1445376873016"><ele></ele><time>2022-6-1T7:26:38Z</time></trkpt>
<trkpt lat="48.966949462891" lon="3.1446449756622"><ele></ele><time>2022-6-1T7:26:41Z</time></trkpt>
<trkpt lat="48.966949462891" lon="3.1446449756622"><ele></ele><time>2022-6-1T7:26:44Z</time></trkpt>
<trkpt lat="48.966949462891" lon="3.1446449756622"><ele></ele><time>2022-6-1T7:26:47Z</time></trkpt>
<trkpt lat="48.966949462891" lon="3.1446449756622"><ele></ele><time>2022-6-1T7:26:50Z</time></trkpt>
<trkpt lat="48.967029571533" lon="3.1447196006775"><ele></ele><time>2022-6-1T7:26:53Z</time></trkpt>
<trkpt lat="48.967029571533" lon="3.1447196006775"><ele></ele><time>2022-6-1T7:26:56Z</time></trkpt>
<trkpt lat="48.967029571533" lon="3.1447196006775"><ele></ele><time>2022-6-1T7:26:59Z</time></trkpt>
<trkpt lat="48.967029571533" lon="3.1447196006775"><ele></ele><time>2022-6-1T7:27:2Z</time></trkpt>
<trkpt lat="48.967079162598" lon="3.1446681022644"><ele></ele><time>2022-6-1T7:27:5Z</time></trkpt>
<trkpt lat="48.967079162598" lon="3.1446681022644"><ele></ele><time>2022-6-1T7:27:8Z</time></trkpt>
<trkpt lat="48.967079162598" lon="3.1446681022644"><ele></ele><time>2022-6-1T7:27:11Z</time></trkpt>
<trkpt lat="48.967113494873" lon="3.1445996761322"><ele></ele><time>2022-6-1T7:27:14Z</time></trkpt>
<trkpt lat="48.967113494873" lon="3.1445996761322"><ele></ele><time>2022-6-1T7:27:17Z</time></trkpt>
<trkpt lat="48.967113494873" lon="3.1445996761322"><ele></ele><time>2022-6-1T7:27:20Z</time></trkpt>
<trkpt lat="48.967113494873" lon="3.1445996761322"><ele></ele><time>2022-6-1T7:27:23Z</time></trkpt>
<trkpt lat="48.967163085938" lon="3.1445198059082"><ele></ele><time>2022-6-1T7:27:26Z</time></trkpt>
<trkpt lat="48.967163085938" lon="3.1445198059082"><ele></ele><time>2022-6-1T7:27:29Z</time></trkpt>
<trkpt lat="48.967163085938" lon="3.1445198059082"><ele></ele><time>2022-6-1T7:27:32Z</time></trkpt>
<trkpt lat="48.967163085938" lon="3.1445198059082"><ele></ele><time>2022-6-1T7:27:35Z</time></trkpt>
<trkpt lat="48.96720123291" lon="3.1444399356842"><ele></ele><time>2022-6-1T7:27:38Z</time></trkpt>
<trkpt lat="48.96720123291" lon="3.1444399356842"><ele></ele><time>2022-6-1T7:27:41Z</time></trkpt>
<trkpt lat="48.96720123291" lon="3.1444399356842"><ele></ele><time>2022-6-1T7:27:44Z</time></trkpt>
<trkpt lat="48.96720123291" lon="3.1444399356842"><ele></ele><time>2022-6-1T7:27:47Z</time></trkpt>
<trkpt lat="48.96724319458" lon="3.1443786621094"><ele></ele><time>2022-6-1T7:27:50Z</time></trkpt>
<trkpt lat="48.96724319458" lon="3.1443786621094"><ele></ele><time>2022-6-1T7:27:53Z</time></trkpt>
<trkpt lat="48.96724319458" lon="3.1443786621094"><ele></ele><time>2022-6-1T7:27:56Z</time></trkpt>
<trkpt lat="48.967330932617" lon="3.1444246768951"><ele></ele><time>2022-6-1T7:27:59Z</time></trkpt>
<trkpt lat="48.967391967773" lon="3.1444947719574"><ele></ele><time>2022-6-1T7:28:2Z</time></trkpt>
<trkpt lat="48.967391967773" lon="3.1444947719574"><ele></ele><time>2022-6-1T7:28:5Z</time></trkpt>
<trkpt lat="48.967445373535" lon="3.1445510387421"><ele></ele><time>2022-6-1T7:28:8Z</time></trkpt>
<trkpt lat="48.967445373535" lon="3.1445510387421"><ele></ele><time>2022-6-1T7:28:11Z</time></trkpt>
<trkpt lat="48.967445373535" lon="3.1445510387421"><ele></ele><time>2022-6-1T7:28:14Z</time></trkpt>
<trkpt lat="48.967445373535" lon="3.1445510387421"><ele></ele><time>2022-6-1T7:28:17Z</time></trkpt>
<trkpt lat="48.967514038086" lon="3.1445815563202"><ele></ele><time>2022-6-1T7:28:20Z</time></trkpt>
<trkpt lat="48.967514038086" lon="3.1445815563202"><ele></ele><time>2022-6-1T7:28:23Z</time></trkpt>
<trkpt lat="48.967514038086" lon="3.1445815563202"><ele></ele><time>2022-6-1T7:28:26Z</time></trkpt>
<trkpt lat="48.967514038086" lon="3.1445815563202"><ele></ele><time>2022-6-1T7:28:29Z</time></trkpt>
<trkpt lat="48.967575073242" lon="3.1444914340973"><ele></ele><time>2022-6-1T7:28:32Z</time></trkpt>
<trkpt lat="48.967575073242" lon="3.1444914340973"><ele></ele><time>2022-6-1T7:28:35Z</time></trkpt>
<trkpt lat="48.967636108398" lon="3.144412279129"><ele></ele><time>2022-6-1T7:28:38Z</time></trkpt>
<trkpt lat="48.967636108398" lon="3.144412279129"><ele></ele><time>2022-6-1T7:28:41Z</time></trkpt>
<trkpt lat="48.967678070068" lon="3.1443412303925"><ele></ele><time>2022-6-1T7:28:44Z</time></trkpt>
<trkpt lat="48.967678070068" lon="3.1443412303925"><ele></ele><time>2022-6-1T7:28:47Z</time></trkpt>
<trkpt lat="48.967723846436" lon="3.1442763805389"><ele></ele><time>2022-6-1T7:28:50Z</time></trkpt>
<trkpt lat="48.967723846436" lon="3.1442763805389"><ele></ele><time>2022-6-1T7:28:53Z</time></trkpt>
<trkpt lat="48.967723846436" lon="3.1442763805389"><ele></ele><time>2022-6-1T7:28:56Z</time></trkpt>
<trkpt lat="48.967723846436" lon="3.1442763805389"><ele></ele><time>2022-6-1T7:28:59Z</time></trkpt>
<trkpt lat="48.967750549316" lon="3.1442451477051"><ele></ele><time>2022-6-1T7:29:2Z</time></trkpt>
<trkpt lat="48.967750549316" lon="3.1442451477051"><ele></ele><time>2022-6-1T7:29:5Z</time></trkpt>
<trkpt lat="48.967777252197" lon="3.1442003250122"><ele></ele><time>2022-6-1T7:29:8Z</time></trkpt>
<trkpt lat="48.967777252197" lon="3.1442003250122"><ele></ele><time>2022-6-1T7:29:11Z</time></trkpt>
<trkpt lat="48.967803955078" lon="3.1441643238068"><ele></ele><time>2022-6-1T7:29:14Z</time></trkpt>
<trkpt lat="48.967826843262" lon="3.1441338062286"><ele></ele><time>2022-6-1T7:29:17Z</time></trkpt>
<trkpt lat="48.967826843262" lon="3.1441338062286"><ele></ele><time>2022-6-1T7:29:20Z</time></trkpt>
<trkpt lat="48.967826843262" lon="3.1441338062286"><ele></ele><time>2022-6-1T7:29:23Z</time></trkpt>
<trkpt lat="48.967853546143" lon="3.144095659256"><ele></ele><time>2022-6-1T7:29:26Z</time></trkpt>
<trkpt lat="48.967880249023" lon="3.1440558433533"><ele></ele><time>2022-6-1T7:29:29Z</time></trkpt>
<trkpt lat="48.96789932251" lon="3.144021987915"><ele></ele><time>2022-6-1T7:29:32Z</time></trkpt>
<trkpt lat="48.96789932251" lon="3.144021987915"><ele></ele><time>2022-6-1T7:29:35Z</time></trkpt>
<trkpt lat="48.967929840088" lon="3.143985748291"><ele></ele><time>2022-6-1T7:29:38Z</time></trkpt>
<trkpt lat="48.967956542969" lon="3.1439580917358"><ele></ele><time>2022-6-1T7:29:41Z</time></trkpt>
<trkpt lat="48.967956542969" lon="3.1439580917358"><ele></ele><time>2022-6-1T7:29:44Z</time></trkpt>
<trkpt lat="48.967956542969" lon="3.1439580917358"><ele></ele><time>2022-6-1T7:29:47Z</time></trkpt>
<trkpt lat="48.967979431152" lon="3.1439299583435"><ele></ele><time>2022-6-1T7:29:50Z</time></trkpt>
<trkpt lat="48.967979431152" lon="3.1439299583435"><ele></ele><time>2022-6-1T7:29:53Z</time></trkpt>
<trkpt lat="48.967979431152" lon="3.1439299583435"><ele></ele><time>2022-6-1T7:29:56Z</time></trkpt>
<trkpt lat="48.968013763428" lon="3.1438827514648"><ele></ele><time>2022-6-1T7:29:59Z</time></trkpt>
<trkpt lat="48.968048095703" lon="3.1438393592834"><ele></ele><time>2022-6-1T7:30:2Z</time></trkpt>
<trkpt lat="48.968078613281" lon="3.1438069343567"><ele></ele><time>2022-6-1T7:30:5Z</time></trkpt>
<trkpt lat="48.968078613281" lon="3.1438069343567"><ele></ele><time>2022-6-1T7:30:8Z</time></trkpt>
<trkpt lat="48.968109130859" lon="3.1437776088715"><ele></ele><time>2022-6-1T7:30:11Z</time></trkpt>
<trkpt lat="48.968132019043" lon="3.1437537670135"><ele></ele><time>2022-6-1T7:30:14Z</time></trkpt>
<trkpt lat="48.968132019043" lon="3.1437537670135"><ele></ele><time>2022-6-1T7:30:17Z</time></trkpt>
<trkpt lat="48.968196868896" lon="3.1437225341797"><ele></ele><time>2022-6-1T7:30:20Z</time></trkpt>
<trkpt lat="48.968196868896" lon="3.1437225341797"><ele></ele><time>2022-6-1T7:30:23Z</time></trkpt>
<trkpt lat="48.968284606934" lon="3.1437530517578"><ele></ele><time>2022-6-1T7:30:26Z</time></trkpt>
<trkpt lat="48.968353271484" lon="3.1438162326813"><ele></ele><time>2022-6-1T7:30:29Z</time></trkpt>
<trkpt lat="48.968353271484" lon="3.1438162326813"><ele></ele><time>2022-6-1T7:30:32Z</time></trkpt>
<trkpt lat="48.968418121338" lon="3.1438882350922"><ele></ele><time>2022-6-1T7:30:35Z</time></trkpt>
<trkpt lat="48.968418121338" lon="3.1438882350922"><ele></ele><time>2022-6-1T7:30:38Z</time></trkpt>
<trkpt lat="48.968482971191" lon="3.1439468860626"><ele></ele><time>2022-6-1T7:30:41Z</time></trkpt>
<trkpt lat="48.968563079834" lon="3.1439969539642"><ele></ele><time>2022-6-1T7:30:44Z</time></trkpt>
<trkpt lat="48.968563079834" lon="3.1439969539642"><ele></ele><time>2022-6-1T7:30:47Z</time></trkpt>
<trkpt lat="48.968616485596" lon="3.1440415382385"><ele></ele><time>2022-6-1T7:30:50Z</time></trkpt>
<trkpt lat="48.968616485596" lon="3.1440415382385"><ele></ele><time>2022-6-1T7:30:53Z</time></trkpt>
<trkpt lat="48.968692779541" lon="3.1440999507904"><ele></ele><time>2022-6-1T7:30:56Z</time></trkpt>
<trkpt lat="48.968692779541" lon="3.1440999507904"><ele></ele><time>2022-6-1T7:30:59Z</time></trkpt>
<trkpt lat="48.96875" lon="3.1441440582275"><ele></ele><time>2022-6-1T7:31:2Z</time></trkpt>
<trkpt lat="48.968818664551" lon="3.1442048549652"><ele></ele><time>2022-6-1T7:31:5Z</time></trkpt>
<trkpt lat="48.968818664551" lon="3.1442048549652"><ele></ele><time>2022-6-1T7:31:8Z</time></trkpt>
<trkpt lat="48.968914031982" lon="3.1442778110504"><ele></ele><time>2022-6-1T7:31:11Z</time></trkpt>
<trkpt lat="48.968914031982" lon="3.1442778110504"><ele></ele><time>2022-6-1T7:31:14Z</time></trkpt>
<trkpt lat="48.96900177002" lon="3.1443507671356"><ele></ele><time>2022-6-1T7:31:17Z</time></trkpt>
<trkpt lat="48.969085693359" lon="3.1444101333618"><ele></ele><time>2022-6-1T7:31:20Z</time></trkpt>
<trkpt lat="48.969085693359" lon="3.1444101333618"><ele></ele><time>2022-6-1T7:31:23Z</time></trkpt>
<trkpt lat="48.96915435791" lon="3.1444609165192"><ele></ele><time>2022-6-1T7:31:26Z</time></trkpt>
<trkpt lat="48.96915435791" lon="3.1444609165192"><ele></ele><time>2022-6-1T7:31:29Z</time></trkpt>
<trkpt lat="48.969234466553" lon="3.1445548534393"><ele></ele><time>2022-6-1T7:31:32Z</time></trkpt>
<trkpt lat="48.96932220459" lon="3.144654750824"><ele></ele><time>2022-6-1T7:31:35Z</time></trkpt>
<trkpt lat="48.96932220459" lon="3.144654750824"><ele></ele><time>2022-6-1T7:31:38Z</time></trkpt>
<trkpt lat="48.96940612793" lon="3.144731760025"><ele></ele><time>2022-6-1T7:31:41Z</time></trkpt>
<trkpt lat="48.96940612793" lon="3.144731760025"><ele></ele><time>2022-6-1T7:31:44Z</time></trkpt>
<trkpt lat="48.969478607178" lon="3.1448113918304"><ele></ele><time>2022-6-1T7:31:47Z</time></trkpt>
<trkpt lat="48.969478607178" lon="3.1448113918304"><ele></ele><time>2022-6-1T7:31:50Z</time></trkpt>
<trkpt lat="48.969554901123" lon="3.1448884010315"><ele></ele><time>2022-6-1T7:31:53Z</time></trkpt>
<trkpt lat="48.969554901123" lon="3.1448884010315"><ele></ele><time>2022-6-1T7:31:56Z</time></trkpt>
<trkpt lat="48.969623565674" lon="3.1449699401855"><ele></ele><time>2022-6-1T7:31:59Z</time></trkpt>
<trkpt lat="48.969623565674" lon="3.1449699401855"><ele></ele><time>2022-6-1T7:32:2Z</time></trkpt>
<trkpt lat="48.969711303711" lon="3.1450402736664"><ele></ele><time>2022-6-1T7:32:5Z</time></trkpt>
<trkpt lat="48.969802856445" lon="3.1451094150543"><ele></ele><time>2022-6-1T7:32:8Z</time></trkpt>
<trkpt lat="48.969802856445" lon="3.1451094150543"><ele></ele><time>2022-6-1T7:32:11Z</time></trkpt>
<trkpt lat="48.969802856445" lon="3.1451094150543"><ele></ele><time>2022-6-1T7:32:14Z</time></trkpt>
<trkpt lat="48.969890594482" lon="3.1451835632324"><ele></ele><time>2022-6-1T7:32:17Z</time></trkpt>
<trkpt lat="48.969890594482" lon="3.1451835632324"><ele></ele><time>2022-6-1T7:32:20Z</time></trkpt>
<trkpt lat="48.969982147217" lon="3.1452615261078"><ele></ele><time>2022-6-1T7:32:23Z</time></trkpt>
<trkpt lat="48.969982147217" lon="3.1452615261078"><ele></ele><time>2022-6-1T7:32:26Z</time></trkpt>
<trkpt lat="48.970077514648" lon="3.1453325748444"><ele></ele><time>2022-6-1T7:32:29Z</time></trkpt>
<trkpt lat="48.970169067383" lon="3.1454079151154"><ele></ele><time>2022-6-1T7:32:32Z</time></trkpt>
<trkpt lat="48.970169067383" lon="3.1454079151154"><ele></ele><time>2022-6-1T7:32:35Z</time></trkpt>
<trkpt lat="48.970268249512" lon="3.1455061435699"><ele></ele><time>2022-6-1T7:32:38Z</time></trkpt>
<trkpt lat="48.97034072876" lon="3.1455736160278"><ele></ele><time>2022-6-1T7:32:41Z</time></trkpt>
<trkpt lat="48.970405578613" lon="3.1456344127655"><ele></ele><time>2022-6-1T7:32:44Z</time></trkpt>
<trkpt lat="48.970474243164" lon="3.1456935405731"><ele></ele><time>2022-6-1T7:32:47Z</time></trkpt>
<trkpt lat="48.970539093018" lon="3.1457483768463"><ele></ele><time>2022-6-1T7:32:50Z</time></trkpt>
<trkpt lat="48.970596313477" lon="3.1458048820496"><ele></ele><time>2022-6-1T7:32:53Z</time></trkpt>
<trkpt lat="48.970653533936" lon="3.1458535194397"><ele></ele><time>2022-6-1T7:32:56Z</time></trkpt>
<trkpt lat="48.970710754395" lon="3.1458964347839"><ele></ele><time>2022-6-1T7:32:59Z</time></trkpt>
<trkpt lat="48.970760345459" lon="3.1459441184998"><ele></ele><time>2022-6-1T7:33:2Z</time></trkpt>
<trkpt lat="48.970813751221" lon="3.1459882259369"><ele></ele><time>2022-6-1T7:33:5Z</time></trkpt>
<trkpt lat="48.97087097168" lon="3.1460371017456"><ele></ele><time>2022-6-1T7:33:8Z</time></trkpt>
<trkpt lat="48.97093963623" lon="3.1461024284363"><ele></ele><time>2022-6-1T7:33:11Z</time></trkpt>
<trkpt lat="48.970996856689" lon="3.1461577415466"><ele></ele><time>2022-6-1T7:33:14Z</time></trkpt>
<trkpt lat="48.971057891846" lon="3.1462090015411"><ele></ele><time>2022-6-1T7:33:17Z</time></trkpt>
<trkpt lat="48.971115112305" lon="3.1462614536285"><ele></ele><time>2022-6-1T7:33:20Z</time></trkpt>
<trkpt lat="48.971172332764" lon="3.1463184356689"><ele></ele><time>2022-6-1T7:33:23Z</time></trkpt>
<trkpt lat="48.971225738525" lon="3.146359205246"><ele></ele><time>2022-6-1T7:33:26Z</time></trkpt>
<trkpt lat="48.971225738525" lon="3.146359205246"><ele></ele><time>2022-6-1T7:33:29Z</time></trkpt>
<trkpt lat="48.971267700195" lon="3.1463980674744"><ele></ele><time>2022-6-1T7:33:32Z</time></trkpt>
<trkpt lat="48.971309661865" lon="3.1464364528656"><ele></ele><time>2022-6-1T7:33:35Z</time></trkpt>
<trkpt lat="48.971351623535" lon="3.1464736461639"><ele></ele><time>2022-6-1T7:33:38Z</time></trkpt>
<trkpt lat="48.971393585205" lon="3.1465108394623"><ele></ele><time>2022-6-1T7:33:41Z</time></trkpt>
<trkpt lat="48.97142791748" lon="3.1465394496918"><ele></ele><time>2022-6-1T7:33:44Z</time></trkpt>
<trkpt lat="48.971492767334" lon="3.1465978622437"><ele></ele><time>2022-6-1T7:33:47Z</time></trkpt>
<trkpt lat="48.971492767334" lon="3.1465978622437"><ele></ele><time>2022-6-1T7:33:50Z</time></trkpt>
<trkpt lat="48.97155380249" lon="3.1466724872589"><ele></ele><time>2022-6-1T7:33:53Z</time></trkpt>
<trkpt lat="48.97155380249" lon="3.1466724872589"><ele></ele><time>2022-6-1T7:33:56Z</time></trkpt>
<trkpt lat="48.971626281738" lon="3.1467278003693"><ele></ele><time>2022-6-1T7:33:59Z</time></trkpt>
<trkpt lat="48.971626281738" lon="3.1467278003693"><ele></ele><time>2022-6-1T7:34:2Z</time></trkpt>
<trkpt lat="48.971683502197" lon="3.1467871665955"><ele></ele><time>2022-6-1T7:34:5Z</time></trkpt>
<trkpt lat="48.971683502197" lon="3.1467871665955"><ele></ele><time>2022-6-1T7:34:8Z</time></trkpt>
<trkpt lat="48.971736907959" lon="3.1468598842621"><ele></ele><time>2022-6-1T7:34:11Z</time></trkpt>
<trkpt lat="48.971736907959" lon="3.1468598842621"><ele></ele><time>2022-6-1T7:34:14Z</time></trkpt>
<trkpt lat="48.97180557251" lon="3.1469440460205"><ele></ele><time>2022-6-1T7:34:17Z</time></trkpt>
<trkpt lat="48.971893310547" lon="3.14701795578"><ele></ele><time>2022-6-1T7:34:20Z</time></trkpt>
<trkpt lat="48.971977233887" lon="3.1470856666565"><ele></ele><time>2022-6-1T7:34:23Z</time></trkpt>
<trkpt lat="48.971977233887" lon="3.1470856666565"><ele></ele><time>2022-6-1T7:34:26Z</time></trkpt>
<trkpt lat="48.972057342529" lon="3.1471679210663"><ele></ele><time>2022-6-1T7:34:29Z</time></trkpt>
<trkpt lat="48.972145080566" lon="3.1472501754761"><ele></ele><time>2022-6-1T7:34:32Z</time></trkpt>
<trkpt lat="48.972240447998" lon="3.1473314762115"><ele></ele><time>2022-6-1T7:34:35Z</time></trkpt>
<trkpt lat="48.972240447998" lon="3.1473314762115"><ele></ele><time>2022-6-1T7:34:38Z</time></trkpt>
<trkpt lat="48.972328186035" lon="3.1474053859711"><ele></ele><time>2022-6-1T7:34:41Z</time></trkpt>
<trkpt lat="48.972427368164" lon="3.147492647171"><ele></ele><time>2022-6-1T7:34:44Z</time></trkpt>
<trkpt lat="48.972484588623" lon="3.1475315093994"><ele></ele><time>2022-6-1T7:34:47Z</time></trkpt>
<trkpt lat="48.972541809082" lon="3.1475746631622"><ele></ele><time>2022-6-1T7:34:50Z</time></trkpt>
<trkpt lat="48.972591400146" lon="3.147617816925"><ele></ele><time>2022-6-1T7:34:53Z</time></trkpt>
<trkpt lat="48.972648620605" lon="3.147668838501"><ele></ele><time>2022-6-1T7:34:56Z</time></trkpt>
<trkpt lat="48.972705841064" lon="3.1477150917053"><ele></ele><time>2022-6-1T7:34:59Z</time></trkpt>
<trkpt lat="48.972705841064" lon="3.1477150917053"><ele></ele><time>2022-6-1T7:35:2Z</time></trkpt>
<trkpt lat="48.972812652588" lon="3.1477987766266"><ele></ele><time>2022-6-1T7:35:5Z</time></trkpt>
<trkpt lat="48.972812652588" lon="3.1477987766266"><ele></ele><time>2022-6-1T7:35:8Z</time></trkpt>
<trkpt lat="48.972900390625" lon="3.1478724479675"><ele></ele><time>2022-6-1T7:35:11Z</time></trkpt>
<trkpt lat="48.972988128662" lon="3.1479620933533"><ele></ele><time>2022-6-1T7:35:14Z</time></trkpt>
<trkpt lat="48.972988128662" lon="3.1479620933533"><ele></ele><time>2022-6-1T7:35:17Z</time></trkpt>
<trkpt lat="48.973037719727" lon="3.1480274200439"><ele></ele><time>2022-6-1T7:35:20Z</time></trkpt>
<trkpt lat="48.973094940186" lon="3.1481246948242"><ele></ele><time>2022-6-1T7:35:23Z</time></trkpt>
<trkpt lat="48.973094940186" lon="3.1481246948242"><ele></ele><time>2022-6-1T7:35:26Z</time></trkpt>
<trkpt lat="48.973159790039" lon="3.1482398509979"><ele></ele><time>2022-6-1T7:35:29Z</time></trkpt>
<trkpt lat="48.973232269287" lon="3.1483521461487"><ele></ele><time>2022-6-1T7:35:32Z</time></trkpt>
<trkpt lat="48.973278045654" lon="3.1484155654907"><ele></ele><time>2022-6-1T7:35:35Z</time></trkpt>
<trkpt lat="48.973278045654" lon="3.1484155654907"><ele></ele><time>2022-6-1T7:35:38Z</time></trkpt>
<trkpt lat="48.9733543396" lon="3.1485216617584"><ele></ele><time>2022-6-1T7:35:41Z</time></trkpt>
<trkpt lat="48.973438262939" lon="3.1486344337463"><ele></ele><time>2022-6-1T7:35:44Z</time></trkpt>
<trkpt lat="48.973480224609" lon="3.1486992835999"><ele></ele><time>2022-6-1T7:35:47Z</time></trkpt>
<trkpt lat="48.973545074463" lon="3.1488139629364"><ele></ele><time>2022-6-1T7:35:50Z</time></trkpt>
<trkpt lat="48.973545074463" lon="3.1488139629364"><ele></ele><time>2022-6-1T7:35:53Z</time></trkpt>
<trkpt lat="48.973545074463" lon="3.1488139629364"><ele></ele><time>2022-6-1T7:35:56Z</time></trkpt>
<trkpt lat="48.97338104248" lon="3.1491730213165"><ele></ele><time>2022-6-1T7:35:59Z</time></trkpt>
<trkpt lat="48.97338104248" lon="3.1491730213165"><ele></ele><time>2022-6-1T7:36:2Z</time></trkpt>
<trkpt lat="48.973323822021" lon="3.1494133472443"><ele></ele><time>2022-6-1T7:36:5Z</time></trkpt>
<trkpt lat="48.973361968994" lon="3.1495475769043"><ele></ele><time>2022-6-1T7:36:8Z</time></trkpt>
<trkpt lat="48.973361968994" lon="3.1495475769043"><ele></ele><time>2022-6-1T7:36:11Z</time></trkpt>
<trkpt lat="48.973419189453" lon="3.149650812149"><ele></ele><time>2022-6-1T7:36:14Z</time></trkpt>
<trkpt lat="48.973480224609" lon="3.1497535705566"><ele></ele><time>2022-6-1T7:36:17Z</time></trkpt>
<trkpt lat="48.973541259766" lon="3.1498415470123"><ele></ele><time>2022-6-1T7:36:20Z</time></trkpt>
<trkpt lat="48.973541259766" lon="3.1498415470123"><ele></ele><time>2022-6-1T7:36:23Z</time></trkpt>
<trkpt lat="48.973602294922" lon="3.1498990058899"><ele></ele><time>2022-6-1T7:36:26Z</time></trkpt>
<trkpt lat="48.973678588867" lon="3.1499838829041"><ele></ele><time>2022-6-1T7:36:29Z</time></trkpt>
<trkpt lat="48.97375869751" lon="3.1500768661499"><ele></ele><time>2022-6-1T7:36:32Z</time></trkpt>
<trkpt lat="48.97375869751" lon="3.1500768661499"><ele></ele><time>2022-6-1T7:36:35Z</time></trkpt>
<trkpt lat="48.973823547363" lon="3.1501607894897"><ele></ele><time>2022-6-1T7:36:38Z</time></trkpt>
<trkpt lat="48.973876953125" lon="3.1502289772034"><ele></ele><time>2022-6-1T7:36:41Z</time></trkpt>
<trkpt lat="48.973926544189" lon="3.1502902507782"><ele></ele><time>2022-6-1T7:36:44Z</time></trkpt>
<trkpt lat="48.973926544189" lon="3.1502902507782"><ele></ele><time>2022-6-1T7:36:47Z</time></trkpt>
<trkpt lat="48.973976135254" lon="3.1503489017487"><ele></ele><time>2022-6-1T7:36:50Z</time></trkpt>
<trkpt lat="48.974021911621" lon="3.1504085063934"><ele></ele><time>2022-6-1T7:36:53Z</time></trkpt>
<trkpt lat="48.974063873291" lon="3.1504759788513"><ele></ele><time>2022-6-1T7:36:56Z</time></trkpt>
<trkpt lat="48.974063873291" lon="3.1504759788513"><ele></ele><time>2022-6-1T7:36:59Z</time></trkpt>
<trkpt lat="48.974102020264" lon="3.1505546569824"><ele></ele><time>2022-6-1T7:37:2Z</time></trkpt>
<trkpt lat="48.974136352539" lon="3.1506388187408"><ele></ele><time>2022-6-1T7:37:5Z</time></trkpt>
<trkpt lat="48.974166870117" lon="3.1507151126862"><ele></ele><time>2022-6-1T7:37:8Z</time></trkpt>
<trkpt lat="48.974166870117" lon="3.1507151126862"><ele></ele><time>2022-6-1T7:37:11Z</time></trkpt>
<trkpt lat="48.974227905273" lon="3.1508779525757"><ele></ele><time>2022-6-1T7:37:14Z</time></trkpt>
<trkpt lat="48.974239349365" lon="3.150970697403"><ele></ele><time>2022-6-1T7:37:17Z</time></trkpt>
<trkpt lat="48.974224090576" lon="3.151061296463"><ele></ele><time>2022-6-1T7:37:20Z</time></trkpt>
<trkpt lat="48.974224090576" lon="3.151061296463"><ele></ele><time>2022-6-1T7:37:23Z</time></trkpt>
<trkpt lat="48.974117279053" lon="3.1511538028717"><ele></ele><time>2022-6-1T7:37:26Z</time></trkpt>
<trkpt lat="48.974052429199" lon="3.151193857193"><ele></ele><time>2022-6-1T7:37:29Z</time></trkpt>
<trkpt lat="48.974052429199" lon="3.151193857193"><ele></ele><time>2022-6-1T7:37:32Z</time></trkpt>
<trkpt lat="48.974002838135" lon="3.1513063907623"><ele></ele><time>2022-6-1T7:37:35Z</time></trkpt>
<trkpt lat="48.974018096924" lon="3.1513967514038"><ele></ele><time>2022-6-1T7:37:38Z</time></trkpt>
<trkpt lat="48.974018096924" lon="3.1513967514038"><ele></ele><time>2022-6-1T7:37:41Z</time></trkpt>
<trkpt lat="48.974044799805" lon="3.1515488624573"><ele></ele><time>2022-6-1T7:37:44Z</time></trkpt>
<trkpt lat="48.974044799805" lon="3.1515488624573"><ele></ele><time>2022-6-1T7:37:47Z</time></trkpt>
<trkpt lat="48.974063873291" lon="3.1516435146332"><ele></ele><time>2022-6-1T7:37:50Z</time></trkpt>
<trkpt lat="48.974063873291" lon="3.1516435146332"><ele></ele><time>2022-6-1T7:37:53Z</time></trkpt>
<trkpt lat="48.974067687988" lon="3.1517817974091"><ele></ele><time>2022-6-1T7:37:56Z</time></trkpt>
<trkpt lat="48.974075317383" lon="3.1518907546997"><ele></ele><time>2022-6-1T7:37:59Z</time></trkpt>
<trkpt lat="48.974071502686" lon="3.1520216464996"><ele></ele><time>2022-6-1T7:38:2Z</time></trkpt>
<trkpt lat="48.974071502686" lon="3.1521503925323"><ele></ele><time>2022-6-1T7:38:5Z</time></trkpt>
<trkpt lat="48.974071502686" lon="3.1522676944733"><ele></ele><time>2022-6-1T7:38:8Z</time></trkpt>
<trkpt lat="48.974071502686" lon="3.1522676944733"><ele></ele><time>2022-6-1T7:38:11Z</time></trkpt>
<trkpt lat="48.974067687988" lon="3.1524307727814"><ele></ele><time>2022-6-1T7:38:14Z</time></trkpt>
<trkpt lat="48.974067687988" lon="3.1524307727814"><ele></ele><time>2022-6-1T7:38:17Z</time></trkpt>
<trkpt lat="48.974067687988" lon="3.1524307727814"><ele></ele><time>2022-6-1T7:38:20Z</time></trkpt>
<trkpt lat="48.974166870117" lon="3.1523826122284"><ele></ele><time>2022-6-1T7:38:23Z</time></trkpt>
<trkpt lat="48.974243164062" lon="3.1523222923279"><ele></ele><time>2022-6-1T7:38:26Z</time></trkpt>
<trkpt lat="48.974243164062" lon="3.1523222923279"><ele></ele><time>2022-6-1T7:38:29Z</time></trkpt>
<trkpt lat="48.974311828613" lon="3.1522557735443"><ele></ele><time>2022-6-1T7:38:32Z</time></trkpt>
<trkpt lat="48.974311828613" lon="3.1522557735443"><ele></ele><time>2022-6-1T7:38:35Z</time></trkpt>
<trkpt lat="48.974369049072" lon="3.1522016525269"><ele></ele><time>2022-6-1T7:38:38Z</time></trkpt>
<trkpt lat="48.974369049072" lon="3.1522016525269"><ele></ele><time>2022-6-1T7:38:41Z</time></trkpt>
<trkpt lat="48.974369049072" lon="3.1522016525269"><ele></ele><time>2022-6-1T7:38:44Z</time></trkpt>
<trkpt lat="48.974452972412" lon="3.1521563529968"><ele></ele><time>2022-6-1T7:38:47Z</time></trkpt>
<trkpt lat="48.974452972412" lon="3.1521563529968"><ele></ele><time>2022-6-1T7:38:50Z</time></trkpt>
<trkpt lat="48.974452972412" lon="3.1521563529968"><ele></ele><time>2022-6-1T7:38:53Z</time></trkpt>
<trkpt lat="48.974540710449" lon="3.1521213054657"><ele></ele><time>2022-6-1T7:38:56Z</time></trkpt>
<trkpt lat="48.974540710449" lon="3.1521213054657"><ele></ele><time>2022-6-1T7:38:59Z</time></trkpt>
<trkpt lat="48.974609375" lon="3.1520788669586"><ele></ele><time>2022-6-1T7:39:2Z</time></trkpt>
<trkpt lat="48.974609375" lon="3.1520788669586"><ele></ele><time>2022-6-1T7:39:5Z</time></trkpt>
<trkpt lat="48.974666595459" lon="3.1520466804504"><ele></ele><time>2022-6-1T7:39:8Z</time></trkpt>
<trkpt lat="48.974666595459" lon="3.1520466804504"><ele></ele><time>2022-6-1T7:39:11Z</time></trkpt>
<trkpt lat="48.974666595459" lon="3.1520466804504"><ele></ele><time>2022-6-1T7:39:14Z</time></trkpt>
<trkpt lat="48.974746704102" lon="3.1520113945007"><ele></ele><time>2022-6-1T7:39:17Z</time></trkpt>
<trkpt lat="48.974746704102" lon="3.1520113945007"><ele></ele><time>2022-6-1T7:39:20Z</time></trkpt>
<trkpt lat="48.974746704102" lon="3.1520113945007"><ele></ele><time>2022-6-1T7:39:23Z</time></trkpt>
<trkpt lat="48.974815368652" lon="3.1521043777466"><ele></ele><time>2022-6-1T7:39:26Z</time></trkpt>
<trkpt lat="48.974815368652" lon="3.1521043777466"><ele></ele><time>2022-6-1T7:39:29Z</time></trkpt>
<trkpt lat="48.974853515625" lon="3.1521995067596"><ele></ele><time>2022-6-1T7:39:32Z</time></trkpt>
<trkpt lat="48.974891662598" lon="3.1522736549377"><ele></ele><time>2022-6-1T7:39:35Z</time></trkpt>
<trkpt lat="48.974891662598" lon="3.1522736549377"><ele></ele><time>2022-6-1T7:39:38Z</time></trkpt>
<trkpt lat="48.974891662598" lon="3.1522736549377"><ele></ele><time>2022-6-1T7:39:41Z</time></trkpt>
<trkpt lat="48.97497177124" lon="3.1522445678711"><ele></ele><time>2022-6-1T7:39:44Z</time></trkpt>
<trkpt lat="48.97497177124" lon="3.1522445678711"><ele></ele><time>2022-6-1T7:39:47Z</time></trkpt>
<trkpt lat="48.97497177124" lon="3.1522445678711"><ele></ele><time>2022-6-1T7:39:50Z</time></trkpt>
<trkpt lat="48.974998474121" lon="3.1522309780121"><ele></ele><time>2022-6-1T7:39:53Z</time></trkpt>
<trkpt lat="48.974998474121" lon="3.1522309780121"><ele></ele><time>2022-6-1T7:39:56Z</time></trkpt>
<trkpt lat="48.975036621094" lon="3.1522130966187"><ele></ele><time>2022-6-1T7:39:59Z</time></trkpt>
<trkpt lat="48.975067138672" lon="3.1521980762482"><ele></ele><time>2022-6-1T7:40:2Z</time></trkpt>
<trkpt lat="48.975067138672" lon="3.1521980762482"><ele></ele><time>2022-6-1T7:40:5Z</time></trkpt>
<trkpt lat="48.975101470947" lon="3.152179479599"><ele></ele><time>2022-6-1T7:40:8Z</time></trkpt>
<trkpt lat="48.975131988525" lon="3.1521649360657"><ele></ele><time>2022-6-1T7:40:11Z</time></trkpt>
<trkpt lat="48.975158691406" lon="3.1521515846252"><ele></ele><time>2022-6-1T7:40:14Z</time></trkpt>
<trkpt lat="48.975158691406" lon="3.1521515846252"><ele></ele><time>2022-6-1T7:40:17Z</time></trkpt>
<trkpt lat="48.975193023682" lon="3.1521372795105"><ele></ele><time>2022-6-1T7:40:20Z</time></trkpt>
<trkpt lat="48.975219726562" lon="3.1521232128143"><ele></ele><time>2022-6-1T7:40:23Z</time></trkpt>
<trkpt lat="48.975219726562" lon="3.1521232128143"><ele></ele><time>2022-6-1T7:40:26Z</time></trkpt>
<trkpt lat="48.975257873535" lon="3.1521039009094"><ele></ele><time>2022-6-1T7:40:29Z</time></trkpt>
<trkpt lat="48.975288391113" lon="3.1520879268646"><ele></ele><time>2022-6-1T7:40:32Z</time></trkpt>
<trkpt lat="48.975315093994" lon="3.1520752906799"><ele></ele><time>2022-6-1T7:40:35Z</time></trkpt>
<trkpt lat="48.975353240967" lon="3.1520738601685"><ele></ele><time>2022-6-1T7:40:38Z</time></trkpt>
<trkpt lat="48.975383758545" lon="3.1520862579346"><ele></ele><time>2022-6-1T7:40:41Z</time></trkpt>
<trkpt lat="48.975414276123" lon="3.1521153450012"><ele></ele><time>2022-6-1T7:40:44Z</time></trkpt>
<trkpt lat="48.975448608398" lon="3.1521525382996"><ele></ele><time>2022-6-1T7:40:47Z</time></trkpt>
<trkpt lat="48.975479125977" lon="3.1521821022034"><ele></ele><time>2022-6-1T7:40:50Z</time></trkpt>
<trkpt lat="48.975540161133" lon="3.152191400528"><ele></ele><time>2022-6-1T7:40:53Z</time></trkpt>
<trkpt lat="48.975540161133" lon="3.152191400528"><ele></ele><time>2022-6-1T7:40:56Z</time></trkpt>
<trkpt lat="48.975589752197" lon="3.1521201133728"><ele></ele><time>2022-6-1T7:40:59Z</time></trkpt>
<trkpt lat="48.975639343262" lon="3.1520435810089"><ele></ele><time>2022-6-1T7:41:2Z</time></trkpt>
<trkpt lat="48.975696563721" lon="3.1519644260406"><ele></ele><time>2022-6-1T7:41:5Z</time></trkpt>
<trkpt lat="48.975696563721" lon="3.1519644260406"><ele></ele><time>2022-6-1T7:41:8Z</time></trkpt>
<trkpt lat="48.975696563721" lon="3.1519644260406"><ele></ele><time>2022-6-1T7:41:11Z</time></trkpt>
<trkpt lat="48.975761413574" lon="3.1518926620483"><ele></ele><time>2022-6-1T7:41:14Z</time></trkpt>
<trkpt lat="48.975761413574" lon="3.1518926620483"><ele></ele><time>2022-6-1T7:41:17Z</time></trkpt>
<trkpt lat="48.975814819336" lon="3.1518371105194"><ele></ele><time>2022-6-1T7:41:20Z</time></trkpt>
<trkpt lat="48.975814819336" lon="3.1518371105194"><ele></ele><time>2022-6-1T7:41:23Z</time></trkpt>
<trkpt lat="48.975879669189" lon="3.15176653862"><ele></ele><time>2022-6-1T7:41:26Z</time></trkpt>
<trkpt lat="48.975879669189" lon="3.15176653862"><ele></ele><time>2022-6-1T7:41:29Z</time></trkpt>
<trkpt lat="48.975921630859" lon="3.1517024040222"><ele></ele><time>2022-6-1T7:41:32Z</time></trkpt>
<trkpt lat="48.975921630859" lon="3.1517024040222"><ele></ele><time>2022-6-1T7:41:35Z</time></trkpt>
<trkpt lat="48.975963592529" lon="3.1516511440277"><ele></ele><time>2022-6-1T7:41:38Z</time></trkpt>
<trkpt lat="48.975963592529" lon="3.1516511440277"><ele></ele><time>2022-6-1T7:41:41Z</time></trkpt>
<trkpt lat="48.976066589355" lon="3.1516122817993"><ele></ele><time>2022-6-1T7:41:44Z</time></trkpt>
<trkpt lat="48.976135253906" lon="3.1516275405884"><ele></ele><time>2022-6-1T7:41:47Z</time></trkpt>
<trkpt lat="48.976184844971" lon="3.1517219543457"><ele></ele><time>2022-6-1T7:41:50Z</time></trkpt>
<trkpt lat="48.976238250732" lon="3.1518337726593"><ele></ele><time>2022-6-1T7:41:53Z</time></trkpt>
<trkpt lat="48.976314544678" lon="3.1518933773041"><ele></ele><time>2022-6-1T7:41:56Z</time></trkpt>
<trkpt lat="48.976402282715" lon="3.1519227027893"><ele></ele><time>2022-6-1T7:41:59Z</time></trkpt>
<trkpt lat="48.976528167725" lon="3.1519198417664"><ele></ele><time>2022-6-1T7:42:2Z</time></trkpt>
<trkpt lat="48.976634979248" lon="3.1519119739532"><ele></ele><time>2022-6-1T7:42:5Z</time></trkpt>
<trkpt lat="48.976707458496" lon="3.151917219162"><ele></ele><time>2022-6-1T7:42:8Z</time></trkpt>
<trkpt lat="48.976783752441" lon="3.151917219162"><ele></ele><time>2022-6-1T7:42:11Z</time></trkpt>
<trkpt lat="48.976848602295" lon="3.1519286632538"><ele></ele><time>2022-6-1T7:42:14Z</time></trkpt>
<trkpt lat="48.976905822754" lon="3.1519408226013"><ele></ele><time>2022-6-1T7:42:17Z</time></trkpt>
<trkpt lat="48.976970672607" lon="3.1519546508789"><ele></ele><time>2022-6-1T7:42:20Z</time></trkpt>
<trkpt lat="48.976970672607" lon="3.1519546508789"><ele></ele><time>2022-6-1T7:42:23Z</time></trkpt>
<trkpt lat="48.977058410645" lon="3.1519815921783"><ele></ele><time>2022-6-1T7:42:26Z</time></trkpt>
<trkpt lat="48.977058410645" lon="3.1519815921783"><ele></ele><time>2022-6-1T7:42:29Z</time></trkpt>
<trkpt lat="48.977165222168" lon="3.1519882678986"><ele></ele><time>2022-6-1T7:42:32Z</time></trkpt>
<trkpt lat="48.977165222168" lon="3.1519882678986"><ele></ele><time>2022-6-1T7:42:35Z</time></trkpt>
<trkpt lat="48.9772605896" lon="3.1519734859467"><ele></ele><time>2022-6-1T7:42:38Z</time></trkpt>
<trkpt lat="48.9772605896" lon="3.1519734859467"><ele></ele><time>2022-6-1T7:42:41Z</time></trkpt>
<trkpt lat="48.977355957031" lon="3.1519582271576"><ele></ele><time>2022-6-1T7:42:44Z</time></trkpt>
<trkpt lat="48.977355957031" lon="3.1519582271576"><ele></ele><time>2022-6-1T7:42:47Z</time></trkpt>
<trkpt lat="48.977424621582" lon="3.151998758316"><ele></ele><time>2022-6-1T7:42:50Z</time></trkpt>
<trkpt lat="48.977424621582" lon="3.151998758316"><ele></ele><time>2022-6-1T7:42:53Z</time></trkpt>
<trkpt lat="48.977478027344" lon="3.1521027088165"><ele></ele><time>2022-6-1T7:42:56Z</time></trkpt>
<trkpt lat="48.977478027344" lon="3.1521027088165"><ele></ele><time>2022-6-1T7:42:59Z</time></trkpt>
<trkpt lat="48.977516174316" lon="3.1521804332733"><ele></ele><time>2022-6-1T7:43:2Z</time></trkpt>
<trkpt lat="48.977516174316" lon="3.1521804332733"><ele></ele><time>2022-6-1T7:43:5Z</time></trkpt>
<trkpt lat="48.977531433105" lon="3.1522698402405"><ele></ele><time>2022-6-1T7:43:8Z</time></trkpt>
<trkpt lat="48.977531433105" lon="3.1522698402405"><ele></ele><time>2022-6-1T7:43:11Z</time></trkpt>
<trkpt lat="48.977523803711" lon="3.1523702144623"><ele></ele><time>2022-6-1T7:43:14Z</time></trkpt>
<trkpt lat="48.977485656738" lon="3.1524541378021"><ele></ele><time>2022-6-1T7:43:17Z</time></trkpt>
<trkpt lat="48.977443695068" lon="3.1525704860687"><ele></ele><time>2022-6-1T7:43:20Z</time></trkpt>
<trkpt lat="48.977386474609" lon="3.1527106761932"><ele></ele><time>2022-6-1T7:43:23Z</time></trkpt>
<trkpt lat="48.977310180664" lon="3.1528642177582"><ele></ele><time>2022-6-1T7:43:26Z</time></trkpt>
<trkpt lat="48.977237701416" lon="3.1530108451843"><ele></ele><time>2022-6-1T7:43:29Z</time></trkpt>
<trkpt lat="48.977237701416" lon="3.1530108451843"><ele></ele><time>2022-6-1T7:43:32Z</time></trkpt>
<trkpt lat="48.977188110352" lon="3.1531667709351"><ele></ele><time>2022-6-1T7:43:35Z</time></trkpt>
<trkpt lat="48.977108001709" lon="3.1533493995667"><ele></ele><time>2022-6-1T7:43:38Z</time></trkpt>
<trkpt lat="48.977035522461" lon="3.1534979343414"><ele></ele><time>2022-6-1T7:43:41Z</time></trkpt>
<trkpt lat="48.977035522461" lon="3.1534979343414"><ele></ele><time>2022-6-1T7:43:44Z</time></trkpt>
<trkpt lat="48.976974487305" lon="3.1536388397217"><ele></ele><time>2022-6-1T7:43:47Z</time></trkpt>
<trkpt lat="48.976917266846" lon="3.153801202774"><ele></ele><time>2022-6-1T7:43:50Z</time></trkpt>
<trkpt lat="48.976890563965" lon="3.1539566516876"><ele></ele><time>2022-6-1T7:43:53Z</time></trkpt>
<trkpt lat="48.976890563965" lon="3.1539566516876"><ele></ele><time>2022-6-1T7:43:56Z</time></trkpt>
<trkpt lat="48.976890563965" lon="3.1539566516876"><ele></ele><time>2022-6-1T7:43:59Z</time></trkpt>
<trkpt lat="48.976913452148" lon="3.1540551185608"><ele></ele><time>2022-6-1T7:44:2Z</time></trkpt>
<trkpt lat="48.976913452148" lon="3.1540551185608"><ele></ele><time>2022-6-1T7:44:5Z</time></trkpt>
<trkpt lat="48.976963043213" lon="3.1541044712067"><ele></ele><time>2022-6-1T7:44:8Z</time></trkpt>
<trkpt lat="48.976963043213" lon="3.1541044712067"><ele></ele><time>2022-6-1T7:44:11Z</time></trkpt>
<trkpt lat="48.977035522461" lon="3.1541631221771"><ele></ele><time>2022-6-1T7:44:14Z</time></trkpt>
<trkpt lat="48.977035522461" lon="3.1541631221771"><ele></ele><time>2022-6-1T7:44:17Z</time></trkpt>
<trkpt lat="48.977100372314" lon="3.1542091369629"><ele></ele><time>2022-6-1T7:44:20Z</time></trkpt>
<trkpt lat="48.977100372314" lon="3.1542091369629"><ele></ele><time>2022-6-1T7:44:23Z</time></trkpt>
<trkpt lat="48.977169036865" lon="3.1542401313782"><ele></ele><time>2022-6-1T7:44:26Z</time></trkpt>
<trkpt lat="48.977169036865" lon="3.1542401313782"><ele></ele><time>2022-6-1T7:44:29Z</time></trkpt>
<trkpt lat="48.977169036865" lon="3.1542401313782"><ele></ele><time>2022-6-1T7:44:32Z</time></trkpt>
<trkpt lat="48.977256774902" lon="3.1543061733246"><ele></ele><time>2022-6-1T7:44:35Z</time></trkpt>
<trkpt lat="48.977256774902" lon="3.1543061733246"><ele></ele><time>2022-6-1T7:44:38Z</time></trkpt>
<trkpt lat="48.977317810059" lon="3.1543488502502"><ele></ele><time>2022-6-1T7:44:41Z</time></trkpt>
<trkpt lat="48.977317810059" lon="3.1543488502502"><ele></ele><time>2022-6-1T7:44:44Z</time></trkpt>
<trkpt lat="48.977317810059" lon="3.1543488502502"><ele></ele><time>2022-6-1T7:44:47Z</time></trkpt>
<trkpt lat="48.977382659912" lon="3.1544122695923"><ele></ele><time>2022-6-1T7:44:50Z</time></trkpt>
<trkpt lat="48.977382659912" lon="3.1544122695923"><ele></ele><time>2022-6-1T7:44:53Z</time></trkpt>
<trkpt lat="48.977382659912" lon="3.1544122695923"><ele></ele><time>2022-6-1T7:44:56Z</time></trkpt>
<trkpt lat="48.977420806885" lon="3.1544427871704"><ele></ele><time>2022-6-1T7:44:59Z</time></trkpt>
<trkpt lat="48.977451324463" lon="3.1544644832611"><ele></ele><time>2022-6-1T7:45:2Z</time></trkpt>
<trkpt lat="48.977451324463" lon="3.1544644832611"><ele></ele><time>2022-6-1T7:45:5Z</time></trkpt>
<trkpt lat="48.977451324463" lon="3.1544644832611"><ele></ele><time>2022-6-1T7:45:8Z</time></trkpt>
<trkpt lat="48.977485656738" lon="3.1545026302338"><ele></ele><time>2022-6-1T7:45:11Z</time></trkpt>
<trkpt lat="48.977516174316" lon="3.1545307636261"><ele></ele><time>2022-6-1T7:45:14Z</time></trkpt>
<trkpt lat="48.977516174316" lon="3.1545307636261"><ele></ele><time>2022-6-1T7:45:17Z</time></trkpt>
<trkpt lat="48.977569580078" lon="3.1545658111572"><ele></ele><time>2022-6-1T7:45:20Z</time></trkpt>
<trkpt lat="48.977615356445" lon="3.1545917987823"><ele></ele><time>2022-6-1T7:45:23Z</time></trkpt>
<trkpt lat="48.977649688721" lon="3.1546173095703"><ele></ele><time>2022-6-1T7:45:26Z</time></trkpt>
<trkpt lat="48.977649688721" lon="3.1546173095703"><ele></ele><time>2022-6-1T7:45:29Z</time></trkpt>
<trkpt lat="48.977676391602" lon="3.1546456813812"><ele></ele><time>2022-6-1T7:45:32Z</time></trkpt>
<trkpt lat="48.977676391602" lon="3.1546456813812"><ele></ele><time>2022-6-1T7:45:35Z</time></trkpt>
<trkpt lat="48.977676391602" lon="3.1546456813812"><ele></ele><time>2022-6-1T7:45:38Z</time></trkpt>
<trkpt lat="48.977676391602" lon="3.1546456813812"><ele></ele><time>2022-6-1T7:45:41Z</time></trkpt>
<trkpt lat="48.977737426758" lon="3.1547157764435"><ele></ele><time>2022-6-1T7:45:44Z</time></trkpt>
<trkpt lat="48.977779388428" lon="3.1547582149506"><ele></ele><time>2022-6-1T7:45:47Z</time></trkpt>
<trkpt lat="48.977779388428" lon="3.1547582149506"><ele></ele><time>2022-6-1T7:45:50Z</time></trkpt>
<trkpt lat="48.977779388428" lon="3.1547582149506"><ele></ele><time>2022-6-1T7:45:53Z</time></trkpt>
<trkpt lat="48.977779388428" lon="3.1547582149506"><ele></ele><time>2022-6-1T7:45:56Z</time></trkpt>
<trkpt lat="48.977779388428" lon="3.1547582149506"><ele></ele><time>2022-6-1T7:45:59Z</time></trkpt>
<trkpt lat="48.977779388428" lon="3.1547582149506"><ele></ele><time>2022-6-1T7:46:2Z</time></trkpt>
<trkpt lat="48.977779388428" lon="3.1547582149506"><ele></ele><time>2022-6-1T7:46:5Z</time></trkpt>
<trkpt lat="48.977920532227" lon="3.1548669338226"><ele></ele><time>2022-6-1T7:46:8Z</time></trkpt>
<trkpt lat="48.977996826172" lon="3.154931306839"><ele></ele><time>2022-6-1T7:46:11Z</time></trkpt>
<trkpt lat="48.977996826172" lon="3.154931306839"><ele></ele><time>2022-6-1T7:46:14Z</time></trkpt>
<trkpt lat="48.977996826172" lon="3.154931306839"><ele></ele><time>2022-6-1T7:46:17Z</time></trkpt>
<trkpt lat="48.977996826172" lon="3.154931306839"><ele></ele><time>2022-6-1T7:46:20Z</time></trkpt>
<trkpt lat="48.977996826172" lon="3.154931306839"><ele></ele><time>2022-6-1T7:46:23Z</time></trkpt>
<trkpt lat="48.977996826172" lon="3.154931306839"><ele></ele><time>2022-6-1T7:46:26Z</time></trkpt>
<trkpt lat="48.977996826172" lon="3.154931306839"><ele></ele><time>2022-6-1T7:46:29Z</time></trkpt>
<trkpt lat="48.977996826172" lon="3.154931306839"><ele></ele><time>2022-6-1T7:46:32Z</time></trkpt>
<trkpt lat="48.977996826172" lon="3.154931306839"><ele></ele><time>2022-6-1T7:46:35Z</time></trkpt>
<trkpt lat="48.977996826172" lon="3.154931306839"><ele></ele><time>2022-6-1T7:46:38Z</time></trkpt>
<trkpt lat="48.977996826172" lon="3.154931306839"><ele></ele><time>2022-6-1T7:46:41Z</time></trkpt>
<trkpt lat="48.977996826172" lon="3.154931306839"><ele></ele><time>2022-6-1T7:46:44Z</time></trkpt>
<trkpt lat="48.977996826172" lon="3.154931306839"><ele></ele><time>2022-6-1T7:46:47Z</time></trkpt>
<trkpt lat="48.978637695312" lon="3.155246257782"><ele></ele><time>2022-6-1T7:46:50Z</time></trkpt>
<trkpt lat="48.978626251221" lon="3.1551504135132"><ele></ele><time>2022-6-1T7:46:53Z</time></trkpt>
<trkpt lat="48.978626251221" lon="3.1551504135132"><ele></ele><time>2022-6-1T7:46:56Z</time></trkpt>
<trkpt lat="48.978630065918" lon="3.1550438404083"><ele></ele><time>2022-6-1T7:46:59Z</time></trkpt>
<trkpt lat="48.978630065918" lon="3.1550438404083"><ele></ele><time>2022-6-1T7:47:2Z</time></trkpt>
<trkpt lat="48.978645324707" lon="3.1549377441406"><ele></ele><time>2022-6-1T7:47:5Z</time></trkpt>
<trkpt lat="48.978645324707" lon="3.1549377441406"><ele></ele><time>2022-6-1T7:47:8Z</time></trkpt>
<trkpt lat="48.978668212891" lon="3.1548228263855"><ele></ele><time>2022-6-1T7:47:11Z</time></trkpt>
<trkpt lat="48.978668212891" lon="3.1548228263855"><ele></ele><time>2022-6-1T7:47:14Z</time></trkpt>
<trkpt lat="48.978698730469" lon="3.1547498703003"><ele></ele><time>2022-6-1T7:47:17Z</time></trkpt>
<trkpt lat="48.978698730469" lon="3.1547498703003"><ele></ele><time>2022-6-1T7:47:20Z</time></trkpt>
<trkpt lat="48.978698730469" lon="3.1547498703003"><ele></ele><time>2022-6-1T7:47:23Z</time></trkpt>
<trkpt lat="48.97872543335" lon="3.1546547412872"><ele></ele><time>2022-6-1T7:47:26Z</time></trkpt>
<trkpt lat="48.97872543335" lon="3.1546547412872"><ele></ele><time>2022-6-1T7:47:29Z</time></trkpt>
<trkpt lat="48.97872543335" lon="3.1546547412872"><ele></ele><time>2022-6-1T7:47:32Z</time></trkpt>
<trkpt lat="48.97872543335" lon="3.1546547412872"><ele></ele><time>2022-6-1T7:47:35Z</time></trkpt>
<trkpt lat="48.978759765625" lon="3.1545610427856"><ele></ele><time>2022-6-1T7:47:38Z</time></trkpt>
<trkpt lat="48.978759765625" lon="3.1545610427856"><ele></ele><time>2022-6-1T7:47:41Z</time></trkpt>
<trkpt lat="48.978759765625" lon="3.1545610427856"><ele></ele><time>2022-6-1T7:47:44Z</time></trkpt>
<trkpt lat="48.978759765625" lon="3.1545610427856"><ele></ele><time>2022-6-1T7:47:47Z</time></trkpt>
<trkpt lat="48.978759765625" lon="3.1545610427856"><ele></ele><time>2022-6-1T7:47:50Z</time></trkpt>
<trkpt lat="48.978832244873" lon="3.1545693874359"><ele></ele><time>2022-6-1T7:47:53Z</time></trkpt>
<trkpt lat="48.978832244873" lon="3.1545693874359"><ele></ele><time>2022-6-1T7:47:56Z</time></trkpt>
<trkpt lat="48.978870391846" lon="3.1546401977539"><ele></ele><time>2022-6-1T7:47:59Z</time></trkpt>
<trkpt lat="48.978870391846" lon="3.1546401977539"><ele></ele><time>2022-6-1T7:48:2Z</time></trkpt>
<trkpt lat="48.978893280029" lon="3.1547379493713"><ele></ele><time>2022-6-1T7:48:5Z</time></trkpt>
<trkpt lat="48.978893280029" lon="3.1547379493713"><ele></ele><time>2022-6-1T7:48:8Z</time></trkpt>
<trkpt lat="48.978893280029" lon="3.1547379493713"><ele></ele><time>2022-6-1T7:48:11Z</time></trkpt>
<trkpt lat="48.978942871094" lon="3.1548483371735"><ele></ele><time>2022-6-1T7:48:14Z</time></trkpt>
<trkpt lat="48.978981018066" lon="3.1549305915833"><ele></ele><time>2022-6-1T7:48:17Z</time></trkpt>
<trkpt lat="48.978981018066" lon="3.1549305915833"><ele></ele><time>2022-6-1T7:48:20Z</time></trkpt>
<trkpt lat="48.979015350342" lon="3.1550159454346"><ele></ele><time>2022-6-1T7:48:23Z</time></trkpt>
<trkpt lat="48.979015350342" lon="3.1550159454346"><ele></ele><time>2022-6-1T7:48:26Z</time></trkpt>
<trkpt lat="48.979061126709" lon="3.1551034450531"><ele></ele><time>2022-6-1T7:48:29Z</time></trkpt>
<trkpt lat="48.979106903076" lon="3.1551973819733"><ele></ele><time>2022-6-1T7:48:32Z</time></trkpt>
<trkpt lat="48.979106903076" lon="3.1551973819733"><ele></ele><time>2022-6-1T7:48:35Z</time></trkpt>
<trkpt lat="48.979152679443" lon="3.1552996635437"><ele></ele><time>2022-6-1T7:48:38Z</time></trkpt>
<trkpt lat="48.979152679443" lon="3.1552996635437"><ele></ele><time>2022-6-1T7:48:41Z</time></trkpt>
<trkpt lat="48.979202270508" lon="3.1554093360901"><ele></ele><time>2022-6-1T7:48:44Z</time></trkpt>
<trkpt lat="48.979244232178" lon="3.1555149555206"><ele></ele><time>2022-6-1T7:48:47Z</time></trkpt>
<trkpt lat="48.979244232178" lon="3.1555149555206"><ele></ele><time>2022-6-1T7:48:50Z</time></trkpt>
<trkpt lat="48.979290008545" lon="3.1556401252747"><ele></ele><time>2022-6-1T7:48:53Z</time></trkpt>
<trkpt lat="48.979290008545" lon="3.1556401252747"><ele></ele><time>2022-6-1T7:48:56Z</time></trkpt>
<trkpt lat="48.979339599609" lon="3.1557490825653"><ele></ele><time>2022-6-1T7:48:59Z</time></trkpt>
<trkpt lat="48.979385375977" lon="3.1558566093445"><ele></ele><time>2022-6-1T7:49:2Z</time></trkpt>
<trkpt lat="48.979385375977" lon="3.1558566093445"><ele></ele><time>2022-6-1T7:49:5Z</time></trkpt>
<trkpt lat="48.97940826416" lon="3.1559221744537"><ele></ele><time>2022-6-1T7:49:8Z</time></trkpt>
<trkpt lat="48.979434967041" lon="3.1559882164001"><ele></ele><time>2022-6-1T7:49:11Z</time></trkpt>
<trkpt lat="48.979434967041" lon="3.1559882164001"><ele></ele><time>2022-6-1T7:49:14Z</time></trkpt>
<trkpt lat="48.979461669922" lon="3.1560559272766"><ele></ele><time>2022-6-1T7:49:17Z</time></trkpt>
<trkpt lat="48.9794921875" lon="3.1561303138733"><ele></ele><time>2022-6-1T7:49:20Z</time></trkpt>
<trkpt lat="48.979526519775" lon="3.1562027931213"><ele></ele><time>2022-6-1T7:49:23Z</time></trkpt>
<trkpt lat="48.979526519775" lon="3.1562027931213"><ele></ele><time>2022-6-1T7:49:26Z</time></trkpt>
<trkpt lat="48.979583740234" lon="3.1563217639923"><ele></ele><time>2022-6-1T7:49:29Z</time></trkpt>
<trkpt lat="48.979583740234" lon="3.1563217639923"><ele></ele><time>2022-6-1T7:49:32Z</time></trkpt>
<trkpt lat="48.979629516602" lon="3.1564345359802"><ele></ele><time>2022-6-1T7:49:35Z</time></trkpt>
<trkpt lat="48.979629516602" lon="3.1564345359802"><ele></ele><time>2022-6-1T7:49:38Z</time></trkpt>
<trkpt lat="48.979663848877" lon="3.1565179824829"><ele></ele><time>2022-6-1T7:49:41Z</time></trkpt>
<trkpt lat="48.979705810547" lon="3.1566224098206"><ele></ele><time>2022-6-1T7:49:44Z</time></trkpt>
<trkpt lat="48.979705810547" lon="3.1566224098206"><ele></ele><time>2022-6-1T7:49:47Z</time></trkpt>
<trkpt lat="48.979705810547" lon="3.1566224098206"><ele></ele><time>2022-6-1T7:49:50Z</time></trkpt>
<trkpt lat="48.979774475098" lon="3.1567528247833"><ele></ele><time>2022-6-1T7:49:53Z</time></trkpt>
<trkpt lat="48.979774475098" lon="3.1567528247833"><ele></ele><time>2022-6-1T7:49:56Z</time></trkpt>
<trkpt lat="48.979843139648" lon="3.1568691730499"><ele></ele><time>2022-6-1T7:49:59Z</time></trkpt>
<trkpt lat="48.979843139648" lon="3.1568691730499"><ele></ele><time>2022-6-1T7:50:2Z</time></trkpt>
<trkpt lat="48.979843139648" lon="3.1568691730499"><ele></ele><time>2022-6-1T7:50:5Z</time></trkpt>
<trkpt lat="48.979904174805" lon="3.1570119857788"><ele></ele><time>2022-6-1T7:50:8Z</time></trkpt>
<trkpt lat="48.97993850708" lon="3.1570861339569"><ele></ele><time>2022-6-1T7:50:11Z</time></trkpt>
<trkpt lat="48.97993850708" lon="3.1570861339569"><ele></ele><time>2022-6-1T7:50:14Z</time></trkpt>
<trkpt lat="48.97993850708" lon="3.1570861339569"><ele></ele><time>2022-6-1T7:50:17Z</time></trkpt>
<trkpt lat="48.979988098145" lon="3.1572120189667"><ele></ele><time>2022-6-1T7:50:20Z</time></trkpt>
<trkpt lat="48.980026245117" lon="3.1572911739349"><ele></ele><time>2022-6-1T7:50:23Z</time></trkpt>
<trkpt lat="48.980026245117" lon="3.1572911739349"><ele></ele><time>2022-6-1T7:50:26Z</time></trkpt>
<trkpt lat="48.980091094971" lon="3.1574444770813"><ele></ele><time>2022-6-1T7:50:29Z</time></trkpt>
<trkpt lat="48.980091094971" lon="3.1574444770813"><ele></ele><time>2022-6-1T7:50:32Z</time></trkpt>
<trkpt lat="48.980144500732" lon="3.1575326919556"><ele></ele><time>2022-6-1T7:50:35Z</time></trkpt>
<trkpt lat="48.980144500732" lon="3.1575326919556"><ele></ele><time>2022-6-1T7:50:38Z</time></trkpt>
<trkpt lat="48.980186462402" lon="3.1576156616211"><ele></ele><time>2022-6-1T7:50:41Z</time></trkpt>
<trkpt lat="48.980186462402" lon="3.1576156616211"><ele></ele><time>2022-6-1T7:50:44Z</time></trkpt>
<trkpt lat="48.980186462402" lon="3.1576156616211"><ele></ele><time>2022-6-1T7:50:47Z</time></trkpt>
<trkpt lat="48.980247497559" lon="3.1577572822571"><ele></ele><time>2022-6-1T7:50:50Z</time></trkpt>
<trkpt lat="48.980247497559" lon="3.1577572822571"><ele></ele><time>2022-6-1T7:50:53Z</time></trkpt>
<trkpt lat="48.980247497559" lon="3.1577572822571"><ele></ele><time>2022-6-1T7:50:56Z</time></trkpt>
<trkpt lat="48.980323791504" lon="3.1578736305237"><ele></ele><time>2022-6-1T7:50:59Z</time></trkpt>
<trkpt lat="48.980323791504" lon="3.1578736305237"><ele></ele><time>2022-6-1T7:51:2Z</time></trkpt>
<trkpt lat="48.98038482666" lon="3.1579627990723"><ele></ele><time>2022-6-1T7:51:5Z</time></trkpt>
<trkpt lat="48.98038482666" lon="3.1579627990723"><ele></ele><time>2022-6-1T7:51:8Z</time></trkpt>
<trkpt lat="48.98038482666" lon="3.1579627990723"><ele></ele><time>2022-6-1T7:51:11Z</time></trkpt>
<trkpt lat="48.980438232422" lon="3.1580414772034"><ele></ele><time>2022-6-1T7:51:14Z</time></trkpt>
<trkpt lat="48.980480194092" lon="3.158109664917"><ele></ele><time>2022-6-1T7:51:17Z</time></trkpt>
<trkpt lat="48.980480194092" lon="3.158109664917"><ele></ele><time>2022-6-1T7:51:20Z</time></trkpt>
<trkpt lat="48.980480194092" lon="3.158109664917"><ele></ele><time>2022-6-1T7:51:23Z</time></trkpt>
<trkpt lat="48.980541229248" lon="3.1582126617432"><ele></ele><time>2022-6-1T7:51:26Z</time></trkpt>
<trkpt lat="48.980541229248" lon="3.1582126617432"><ele></ele><time>2022-6-1T7:51:29Z</time></trkpt>
<trkpt lat="48.980541229248" lon="3.1582126617432"><ele></ele><time>2022-6-1T7:51:32Z</time></trkpt>
<trkpt lat="48.980625152588" lon="3.1582913398743"><ele></ele><time>2022-6-1T7:51:35Z</time></trkpt>
<trkpt lat="48.980682373047" lon="3.1583449840546"><ele></ele><time>2022-6-1T7:51:38Z</time></trkpt>
<trkpt lat="48.980735778809" lon="3.1584079265594"><ele></ele><time>2022-6-1T7:51:41Z</time></trkpt>
<trkpt lat="48.980800628662" lon="3.1584668159485"><ele></ele><time>2022-6-1T7:51:44Z</time></trkpt>
<trkpt lat="48.980800628662" lon="3.1584668159485"><ele></ele><time>2022-6-1T7:51:47Z</time></trkpt>
<trkpt lat="48.98087310791" lon="3.1585259437561"><ele></ele><time>2022-6-1T7:51:50Z</time></trkpt>
<trkpt lat="48.980953216553" lon="3.1586036682129"><ele></ele><time>2022-6-1T7:51:53Z</time></trkpt>
<trkpt lat="48.980953216553" lon="3.1586036682129"><ele></ele><time>2022-6-1T7:51:56Z</time></trkpt>
<trkpt lat="48.981029510498" lon="3.158656835556"><ele></ele><time>2022-6-1T7:51:59Z</time></trkpt>
<trkpt lat="48.981029510498" lon="3.158656835556"><ele></ele><time>2022-6-1T7:52:2Z</time></trkpt>
<trkpt lat="48.981105804443" lon="3.1586942672729"><ele></ele><time>2022-6-1T7:52:5Z</time></trkpt>
<trkpt lat="48.981105804443" lon="3.1586942672729"><ele></ele><time>2022-6-1T7:52:8Z</time></trkpt>
<trkpt lat="48.981163024902" lon="3.1587543487549"><ele></ele><time>2022-6-1T7:52:11Z</time></trkpt>
<trkpt lat="48.981163024902" lon="3.1587543487549"><ele></ele><time>2022-6-1T7:52:14Z</time></trkpt>
<trkpt lat="48.981243133545" lon="3.1588072776794"><ele></ele><time>2022-6-1T7:52:17Z</time></trkpt>
<trkpt lat="48.981243133545" lon="3.1588072776794"><ele></ele><time>2022-6-1T7:52:20Z</time></trkpt>
<trkpt lat="48.981304168701" lon="3.1588628292084"><ele></ele><time>2022-6-1T7:52:23Z</time></trkpt>
<trkpt lat="48.981304168701" lon="3.1588628292084"><ele></ele><time>2022-6-1T7:52:26Z</time></trkpt>
<trkpt lat="48.981365203857" lon="3.1589286327362"><ele></ele><time>2022-6-1T7:52:29Z</time></trkpt>
<trkpt lat="48.981452941895" lon="3.1590096950531"><ele></ele><time>2022-6-1T7:52:32Z</time></trkpt>
<trkpt lat="48.981452941895" lon="3.1590096950531"><ele></ele><time>2022-6-1T7:52:35Z</time></trkpt>
<trkpt lat="48.981536865234" lon="3.1590666770935"><ele></ele><time>2022-6-1T7:52:38Z</time></trkpt>
<trkpt lat="48.981597900391" lon="3.1591169834137"><ele></ele><time>2022-6-1T7:52:41Z</time></trkpt>
<trkpt lat="48.981662750244" lon="3.1591603755951"><ele></ele><time>2022-6-1T7:52:44Z</time></trkpt>
<trkpt lat="48.981719970703" lon="3.1591973304749"><ele></ele><time>2022-6-1T7:52:47Z</time></trkpt>
<trkpt lat="48.981777191162" lon="3.1592464447021"><ele></ele><time>2022-6-1T7:52:50Z</time></trkpt>
<trkpt lat="48.981777191162" lon="3.1592464447021"><ele></ele><time>2022-6-1T7:52:53Z</time></trkpt>
<trkpt lat="48.981864929199" lon="3.1593306064606"><ele></ele><time>2022-6-1T7:52:56Z</time></trkpt>
<trkpt lat="48.981914520264" lon="3.1593880653381"><ele></ele><time>2022-6-1T7:52:59Z</time></trkpt>
<trkpt lat="48.981914520264" lon="3.1593880653381"><ele></ele><time>2022-6-1T7:53:2Z</time></trkpt>
<trkpt lat="48.981979370117" lon="3.1594705581665"><ele></ele><time>2022-6-1T7:53:5Z</time></trkpt>
<trkpt lat="48.981979370117" lon="3.1594705581665"><ele></ele><time>2022-6-1T7:53:8Z</time></trkpt>
<trkpt lat="48.982055664062" lon="3.1595470905304"><ele></ele><time>2022-6-1T7:53:11Z</time></trkpt>
<trkpt lat="48.982112884521" lon="3.1595911979675"><ele></ele><time>2022-6-1T7:53:14Z</time></trkpt>
<trkpt lat="48.98217010498" lon="3.159636259079"><ele></ele><time>2022-6-1T7:53:17Z</time></trkpt>
<trkpt lat="48.98225402832" lon="3.1597049236298"><ele></ele><time>2022-6-1T7:53:20Z</time></trkpt>
<trkpt lat="48.982307434082" lon="3.1597468852997"><ele></ele><time>2022-6-1T7:53:23Z</time></trkpt>
<trkpt lat="48.982402801514" lon="3.1598086357117"><ele></ele><time>2022-6-1T7:53:26Z</time></trkpt>
<trkpt lat="48.982460021973" lon="3.1598651409149"><ele></ele><time>2022-6-1T7:53:29Z</time></trkpt>
<trkpt lat="48.982509613037" lon="3.1599102020264"><ele></ele><time>2022-6-1T7:53:32Z</time></trkpt>
<trkpt lat="48.982509613037" lon="3.1599102020264"><ele></ele><time>2022-6-1T7:53:35Z</time></trkpt>
<trkpt lat="48.982551574707" lon="3.1599535942078"><ele></ele><time>2022-6-1T7:53:38Z</time></trkpt>
<trkpt lat="48.98258972168" lon="3.1599934101105"><ele></ele><time>2022-6-1T7:53:41Z</time></trkpt>
<trkpt lat="48.982627868652" lon="3.1600294113159"><ele></ele><time>2022-6-1T7:53:44Z</time></trkpt>
<trkpt lat="48.982662200928" lon="3.1600625514984"><ele></ele><time>2022-6-1T7:53:47Z</time></trkpt>
<trkpt lat="48.982696533203" lon="3.1600904464722"><ele></ele><time>2022-6-1T7:53:50Z</time></trkpt>
<trkpt lat="48.98278427124" lon="3.1601431369781"><ele></ele><time>2022-6-1T7:53:53Z</time></trkpt>
<trkpt lat="48.982887268066" lon="3.1602160930634"><ele></ele><time>2022-6-1T7:53:56Z</time></trkpt>
<trkpt lat="48.982944488525" lon="3.1602456569672"><ele></ele><time>2022-6-1T7:53:59Z</time></trkpt>
<trkpt lat="48.98303604126" lon="3.1603074073792"><ele></ele><time>2022-6-1T7:54:2Z</time></trkpt>
<trkpt lat="48.98303604126" lon="3.1603074073792"><ele></ele><time>2022-6-1T7:54:5Z</time></trkpt>
<trkpt lat="48.9831199646" lon="3.1603882312775"><ele></ele><time>2022-6-1T7:54:8Z</time></trkpt>
<trkpt lat="48.983215332031" lon="3.1604709625244"><ele></ele><time>2022-6-1T7:54:11Z</time></trkpt>
<trkpt lat="48.983276367188" lon="3.1605312824249"><ele></ele><time>2022-6-1T7:54:14Z</time></trkpt>
<trkpt lat="48.983329772949" lon="3.1606049537659"><ele></ele><time>2022-6-1T7:54:17Z</time></trkpt>
<trkpt lat="48.983402252197" lon="3.1606543064117"><ele></ele><time>2022-6-1T7:54:20Z</time></trkpt>
<trkpt lat="48.983463287354" lon="3.1606724262238"><ele></ele><time>2022-6-1T7:54:23Z</time></trkpt>
<trkpt lat="48.983463287354" lon="3.1606724262238"><ele></ele><time>2022-6-1T7:54:26Z</time></trkpt>
<trkpt lat="48.98356628418" lon="3.1606376171112"><ele></ele><time>2022-6-1T7:54:29Z</time></trkpt>
<trkpt lat="48.98356628418" lon="3.1606376171112"><ele></ele><time>2022-6-1T7:54:32Z</time></trkpt>
<trkpt lat="48.98356628418" lon="3.1606376171112"><ele></ele><time>2022-6-1T7:54:35Z</time></trkpt>
<trkpt lat="48.983657836914" lon="3.1606402397156"><ele></ele><time>2022-6-1T7:54:38Z</time></trkpt>
<trkpt lat="48.983657836914" lon="3.1606402397156"><ele></ele><time>2022-6-1T7:54:41Z</time></trkpt>
<trkpt lat="48.983745574951" lon="3.1606850624084"><ele></ele><time>2022-6-1T7:54:44Z</time></trkpt>
<trkpt lat="48.983745574951" lon="3.1606850624084"><ele></ele><time>2022-6-1T7:54:47Z</time></trkpt>
<trkpt lat="48.983745574951" lon="3.1606850624084"><ele></ele><time>2022-6-1T7:54:50Z</time></trkpt>
<trkpt lat="48.983821868896" lon="3.1607599258423"><ele></ele><time>2022-6-1T7:54:53Z</time></trkpt>
<trkpt lat="48.983821868896" lon="3.1607599258423"><ele></ele><time>2022-6-1T7:54:56Z</time></trkpt>
<trkpt lat="48.983821868896" lon="3.1607599258423"><ele></ele><time>2022-6-1T7:54:59Z</time></trkpt>
<trkpt lat="48.983909606934" lon="3.1608164310455"><ele></ele><time>2022-6-1T7:55:2Z</time></trkpt>
<trkpt lat="48.98397064209" lon="3.1608417034149"><ele></ele><time>2022-6-1T7:55:5Z</time></trkpt>
<trkpt lat="48.98397064209" lon="3.1608417034149"><ele></ele><time>2022-6-1T7:55:8Z</time></trkpt>
<trkpt lat="48.984130859375" lon="3.1609387397766"><ele></ele><time>2022-6-1T7:55:11Z</time></trkpt>
<trkpt lat="48.984191894531" lon="3.1609780788422"><ele></ele><time>2022-6-1T7:55:14Z</time></trkpt>
<trkpt lat="48.984191894531" lon="3.1609780788422"><ele></ele><time>2022-6-1T7:55:17Z</time></trkpt>
<trkpt lat="48.984443664551" lon="3.161123752594"><ele></ele><time>2022-6-1T7:55:20Z</time></trkpt>
<trkpt lat="48.984569549561" lon="3.1611840724945"><ele></ele><time>2022-6-1T7:55:23Z</time></trkpt>
<trkpt lat="48.984645843506" lon="3.1612060070038"><ele></ele><time>2022-6-1T7:55:26Z</time></trkpt>
<trkpt lat="48.984714508057" lon="3.161224603653"><ele></ele><time>2022-6-1T7:55:29Z</time></trkpt>
<trkpt lat="48.984790802002" lon="3.1612458229065"><ele></ele><time>2022-6-1T7:55:32Z</time></trkpt>
<trkpt lat="48.984878540039" lon="3.1612832546234"><ele></ele><time>2022-6-1T7:55:35Z</time></trkpt>
<trkpt lat="48.984981536865" lon="3.1613078117371"><ele></ele><time>2022-6-1T7:55:38Z</time></trkpt>
<trkpt lat="48.98511505127" lon="3.1613438129425"><ele></ele><time>2022-6-1T7:55:41Z</time></trkpt>
<trkpt lat="48.985271453857" lon="3.1613922119141"><ele></ele><time>2022-6-1T7:55:44Z</time></trkpt>
<trkpt lat="48.98539352417" lon="3.1614255905151"><ele></ele><time>2022-6-1T7:55:47Z</time></trkpt>
<trkpt lat="48.985504150391" lon="3.1614353656769"><ele></ele><time>2022-6-1T7:55:50Z</time></trkpt>
<trkpt lat="48.985610961914" lon="3.1614198684692"><ele></ele><time>2022-6-1T7:55:53Z</time></trkpt>
<trkpt lat="48.985702514648" lon="3.1614000797272"><ele></ele><time>2022-6-1T7:55:56Z</time></trkpt>
<trkpt lat="48.985828399658" lon="3.16135597229"><ele></ele><time>2022-6-1T7:55:59Z</time></trkpt>
<trkpt lat="48.98592376709" lon="3.1613328456879"><ele></ele><time>2022-6-1T7:56:2Z</time></trkpt>
<trkpt lat="48.985984802246" lon="3.1613237857819"><ele></ele><time>2022-6-1T7:56:5Z</time></trkpt>
<trkpt lat="48.985984802246" lon="3.1613237857819"><ele></ele><time>2022-6-1T7:56:8Z</time></trkpt>
<trkpt lat="48.986057281494" lon="3.1613199710846"><ele></ele><time>2022-6-1T7:56:11Z</time></trkpt>
<trkpt lat="48.986057281494" lon="3.1613199710846"><ele></ele><time>2022-6-1T7:56:14Z</time></trkpt>
<trkpt lat="48.98611831665" lon="3.1613059043884"><ele></ele><time>2022-6-1T7:56:17Z</time></trkpt>
<trkpt lat="48.98611831665" lon="3.1613059043884"><ele></ele><time>2022-6-1T7:56:20Z</time></trkpt>
<trkpt lat="48.986206054688" lon="3.1612942218781"><ele></ele><time>2022-6-1T7:56:23Z</time></trkpt>
<trkpt lat="48.986206054688" lon="3.1612942218781"><ele></ele><time>2022-6-1T7:56:26Z</time></trkpt>
<trkpt lat="48.986274719238" lon="3.161297082901"><ele></ele><time>2022-6-1T7:56:29Z</time></trkpt>
<trkpt lat="48.986274719238" lon="3.161297082901"><ele></ele><time>2022-6-1T7:56:32Z</time></trkpt>
<trkpt lat="48.986274719238" lon="3.161297082901"><ele></ele><time>2022-6-1T7:56:35Z</time></trkpt>
<trkpt lat="48.986362457275" lon="3.1613039970398"><ele></ele><time>2022-6-1T7:56:38Z</time></trkpt>
<trkpt lat="48.986362457275" lon="3.1613039970398"><ele></ele><time>2022-6-1T7:56:41Z</time></trkpt>
<trkpt lat="48.986362457275" lon="3.1613039970398"><ele></ele><time>2022-6-1T7:56:44Z</time></trkpt>
<trkpt lat="48.986431121826" lon="3.1613144874573"><ele></ele><time>2022-6-1T7:56:47Z</time></trkpt>
<trkpt lat="48.986431121826" lon="3.1613144874573"><ele></ele><time>2022-6-1T7:56:50Z</time></trkpt>
<trkpt lat="48.986499786377" lon="3.1613039970398"><ele></ele><time>2022-6-1T7:56:53Z</time></trkpt>
<trkpt lat="48.986557006836" lon="3.1613194942474"><ele></ele><time>2022-6-1T7:56:56Z</time></trkpt>
<trkpt lat="48.986640930176" lon="3.161337852478"><ele></ele><time>2022-6-1T7:56:59Z</time></trkpt>
<trkpt lat="48.986736297607" lon="3.1613640785217"><ele></ele><time>2022-6-1T7:57:2Z</time></trkpt>
<trkpt lat="48.986820220947" lon="3.1613667011261"><ele></ele><time>2022-6-1T7:57:5Z</time></trkpt>
<trkpt lat="48.986896514893" lon="3.1613528728485"><ele></ele><time>2022-6-1T7:57:8Z</time></trkpt>
<trkpt lat="48.986965179443" lon="3.161360502243"><ele></ele><time>2022-6-1T7:57:11Z</time></trkpt>
<trkpt lat="48.986965179443" lon="3.161360502243"><ele></ele><time>2022-6-1T7:57:14Z</time></trkpt>
<trkpt lat="48.987087249756" lon="3.1614134311676"><ele></ele><time>2022-6-1T7:57:17Z</time></trkpt>
<trkpt lat="48.987144470215" lon="3.1614766120911"><ele></ele><time>2022-6-1T7:57:20Z</time></trkpt>
<trkpt lat="48.987197875977" lon="3.1615252494812"><ele></ele><time>2022-6-1T7:57:23Z</time></trkpt>
<trkpt lat="48.98726272583" lon="3.1615858078003"><ele></ele><time>2022-6-1T7:57:26Z</time></trkpt>
<trkpt lat="48.987319946289" lon="3.1616342067719"><ele></ele><time>2022-6-1T7:57:29Z</time></trkpt>
<trkpt lat="48.987377166748" lon="3.1616797447205"><ele></ele><time>2022-6-1T7:57:32Z</time></trkpt>
<trkpt lat="48.987491607666" lon="3.1617531776428"><ele></ele><time>2022-6-1T7:57:35Z</time></trkpt>
<trkpt lat="48.987586975098" lon="3.1617968082428"><ele></ele><time>2022-6-1T7:57:38Z</time></trkpt>
<trkpt lat="48.987720489502" lon="3.1618702411652"><ele></ele><time>2022-6-1T7:57:41Z</time></trkpt>
<trkpt lat="48.987812042236" lon="3.1619124412537"><ele></ele><time>2022-6-1T7:57:44Z</time></trkpt>
<trkpt lat="48.987812042236" lon="3.1619124412537"><ele></ele><time>2022-6-1T7:57:47Z</time></trkpt>
<trkpt lat="48.987949371338" lon="3.161981344223"><ele></ele><time>2022-6-1T7:57:50Z</time></trkpt>
<trkpt lat="48.988052368164" lon="3.1620161533356"><ele></ele><time>2022-6-1T7:57:53Z</time></trkpt>
<trkpt lat="48.988162994385" lon="3.162068605423"><ele></ele><time>2022-6-1T7:57:56Z</time></trkpt>
<trkpt lat="48.988273620605" lon="3.1621148586273"><ele></ele><time>2022-6-1T7:57:59Z</time></trkpt>
<trkpt lat="48.988372802734" lon="3.1621644496918"><ele></ele><time>2022-6-1T7:58:2Z</time></trkpt>
<trkpt lat="48.98844909668" lon="3.1621894836426"><ele></ele><time>2022-6-1T7:58:5Z</time></trkpt>
<trkpt lat="48.988525390625" lon="3.1622240543365"><ele></ele><time>2022-6-1T7:58:8Z</time></trkpt>
<trkpt lat="48.988525390625" lon="3.1622240543365"><ele></ele><time>2022-6-1T7:58:11Z</time></trkpt>
<trkpt lat="48.988800048828" lon="3.162397146225"><ele></ele><time>2022-6-1T7:58:14Z</time></trkpt>
<trkpt lat="48.988800048828" lon="3.162397146225"><ele></ele><time>2022-6-1T7:58:17Z</time></trkpt>
<trkpt lat="48.98885345459" lon="3.1623506546021"><ele></ele><time>2022-6-1T7:58:20Z</time></trkpt>
<trkpt lat="48.98885345459" lon="3.1623506546021"><ele></ele><time>2022-6-1T7:58:23Z</time></trkpt>
<trkpt lat="48.98885345459" lon="3.1623506546021"><ele></ele><time>2022-6-1T7:58:26Z</time></trkpt>
<trkpt lat="48.98885345459" lon="3.1623506546021"><ele></ele><time>2022-6-1T7:58:29Z</time></trkpt>
<trkpt lat="48.98885345459" lon="3.1623506546021"><ele></ele><time>2022-6-1T7:58:32Z</time></trkpt>
<trkpt lat="48.98885345459" lon="3.1623506546021"><ele></ele><time>2022-6-1T7:58:35Z</time></trkpt>
<trkpt lat="48.989017486572" lon="3.162403345108"><ele></ele><time>2022-6-1T7:58:38Z</time></trkpt>
<trkpt lat="48.989017486572" lon="3.162403345108"><ele></ele><time>2022-6-1T7:58:41Z</time></trkpt>
<trkpt lat="48.98908996582" lon="3.1624867916107"><ele></ele><time>2022-6-1T7:58:44Z</time></trkpt>
<trkpt lat="48.98908996582" lon="3.1624867916107"><ele></ele><time>2022-6-1T7:58:47Z</time></trkpt>
<trkpt lat="48.98908996582" lon="3.1624867916107"><ele></ele><time>2022-6-1T7:58:50Z</time></trkpt>
<trkpt lat="48.989154815674" lon="3.1625628471375"><ele></ele><time>2022-6-1T7:58:53Z</time></trkpt>
<trkpt lat="48.989200592041" lon="3.1626226902008"><ele></ele><time>2022-6-1T7:58:56Z</time></trkpt>
<trkpt lat="48.989200592041" lon="3.1626226902008"><ele></ele><time>2022-6-1T7:58:59Z</time></trkpt>
<trkpt lat="48.989292144775" lon="3.1627020835876"><ele></ele><time>2022-6-1T7:59:2Z</time></trkpt>
<trkpt lat="48.989353179932" lon="3.1627407073975"><ele></ele><time>2022-6-1T7:59:5Z</time></trkpt>
<trkpt lat="48.989414215088" lon="3.1627759933472"><ele></ele><time>2022-6-1T7:59:8Z</time></trkpt>
<trkpt lat="48.989482879639" lon="3.1628155708313"><ele></ele><time>2022-6-1T7:59:11Z</time></trkpt>
<trkpt lat="48.989555358887" lon="3.162858247757"><ele></ele><time>2022-6-1T7:59:14Z</time></trkpt>
<trkpt lat="48.989555358887" lon="3.162858247757"><ele></ele><time>2022-6-1T7:59:17Z</time></trkpt>
<trkpt lat="48.989650726318" lon="3.1629014015198"><ele></ele><time>2022-6-1T7:59:20Z</time></trkpt>
<trkpt lat="48.989753723145" lon="3.1629619598389"><ele></ele><time>2022-6-1T7:59:23Z</time></trkpt>
<trkpt lat="48.989837646484" lon="3.163010597229"><ele></ele><time>2022-6-1T7:59:26Z</time></trkpt>
<trkpt lat="48.989933013916" lon="3.1630403995514"><ele></ele><time>2022-6-1T7:59:29Z</time></trkpt>
<trkpt lat="48.990032196045" lon="3.1630942821503"><ele></ele><time>2022-6-1T7:59:32Z</time></trkpt>
<trkpt lat="48.990097045898" lon="3.1631433963776"><ele></ele><time>2022-6-1T7:59:35Z</time></trkpt>
<trkpt lat="48.990180969238" lon="3.1632254123688"><ele></ele><time>2022-6-1T7:59:38Z</time></trkpt>
<trkpt lat="48.990280151367" lon="3.1633098125458"><ele></ele><time>2022-6-1T7:59:41Z</time></trkpt>
<trkpt lat="48.990356445312" lon="3.1633539199829"><ele></ele><time>2022-6-1T7:59:44Z</time></trkpt>
<trkpt lat="48.990650177002" lon="3.1636164188385"><ele></ele><time>2022-6-1T7:59:47Z</time></trkpt>
<trkpt lat="48.990760803223" lon="3.1637232303619"><ele></ele><time>2022-6-1T7:59:50Z</time></trkpt>
<trkpt lat="48.990859985352" lon="3.1638042926788"><ele></ele><time>2022-6-1T7:59:53Z</time></trkpt>
<trkpt lat="48.990924835205" lon="3.1638433933258"><ele></ele><time>2022-6-1T7:59:56Z</time></trkpt>
<trkpt lat="48.990997314453" lon="3.1638805866241"><ele></ele><time>2022-6-1T7:59:59Z</time></trkpt>
<trkpt lat="48.991111755371" lon="3.1639385223389"><ele></ele><time>2022-6-1T8:0:2Z</time></trkpt>
<trkpt lat="48.991207122803" lon="3.1640043258667"><ele></ele><time>2022-6-1T8:0:5Z</time></trkpt>
<trkpt lat="48.991271972656" lon="3.1640334129333"><ele></ele><time>2022-6-1T8:0:8Z</time></trkpt>
<trkpt lat="48.991344451904" lon="3.1640548706055"><ele></ele><time>2022-6-1T8:0:11Z</time></trkpt>
<trkpt lat="48.991409301758" lon="3.1641085147858"><ele></ele><time>2022-6-1T8:0:14Z</time></trkpt>
<trkpt lat="48.991481781006" lon="3.1641805171967"><ele></ele><time>2022-6-1T8:0:17Z</time></trkpt>
<trkpt lat="48.991539001465" lon="3.1642410755157"><ele></ele><time>2022-6-1T8:0:20Z</time></trkpt>
<trkpt lat="48.991596221924" lon="3.1642835140228"><ele></ele><time>2022-6-1T8:0:23Z</time></trkpt>
<trkpt lat="48.99165725708" lon="3.1643278598785"><ele></ele><time>2022-6-1T8:0:26Z</time></trkpt>
<trkpt lat="48.991718292236" lon="3.1643793582916"><ele></ele><time>2022-6-1T8:0:29Z</time></trkpt>
<trkpt lat="48.991786956787" lon="3.1644322872162"><ele></ele><time>2022-6-1T8:0:32Z</time></trkpt>
<trkpt lat="48.991786956787" lon="3.1644322872162"><ele></ele><time>2022-6-1T8:0:35Z</time></trkpt>
<trkpt lat="48.991882324219" lon="3.1644675731659"><ele></ele><time>2022-6-1T8:0:38Z</time></trkpt>
<trkpt lat="48.991882324219" lon="3.1644675731659"><ele></ele><time>2022-6-1T8:0:41Z</time></trkpt>
<trkpt lat="48.99197769165" lon="3.1645171642303"><ele></ele><time>2022-6-1T8:0:44Z</time></trkpt>
<trkpt lat="48.992042541504" lon="3.1645414829254"><ele></ele><time>2022-6-1T8:0:47Z</time></trkpt>
<trkpt lat="48.992042541504" lon="3.1645414829254"><ele></ele><time>2022-6-1T8:0:50Z</time></trkpt>
<trkpt lat="48.99210357666" lon="3.1645135879517"><ele></ele><time>2022-6-1T8:0:53Z</time></trkpt>
<trkpt lat="48.99210357666" lon="3.1645135879517"><ele></ele><time>2022-6-1T8:0:56Z</time></trkpt>
<trkpt lat="48.99210357666" lon="3.1645135879517"><ele></ele><time>2022-6-1T8:0:59Z</time></trkpt>
<trkpt lat="48.99210357666" lon="3.1645135879517"><ele></ele><time>2022-6-1T8:1:2Z</time></trkpt>
<trkpt lat="48.992137908936" lon="3.1644456386566"><ele></ele><time>2022-6-1T8:1:5Z</time></trkpt>
<trkpt lat="48.992137908936" lon="3.1644456386566"><ele></ele><time>2022-6-1T8:1:8Z</time></trkpt>
<trkpt lat="48.992137908936" lon="3.1644456386566"><ele></ele><time>2022-6-1T8:1:11Z</time></trkpt>
<trkpt lat="48.992137908936" lon="3.1644456386566"><ele></ele><time>2022-6-1T8:1:14Z</time></trkpt>
<trkpt lat="48.992137908936" lon="3.1644456386566"><ele></ele><time>2022-6-1T8:1:17Z</time></trkpt>
<trkpt lat="48.992164611816" lon="3.1642718315125"><ele></ele><time>2022-6-1T8:1:20Z</time></trkpt>
<trkpt lat="48.992202758789" lon="3.1641757488251"><ele></ele><time>2022-6-1T8:1:23Z</time></trkpt>
<trkpt lat="48.992202758789" lon="3.1641757488251"><ele></ele><time>2022-6-1T8:1:26Z</time></trkpt>
<trkpt lat="48.992221832275" lon="3.1640882492065"><ele></ele><time>2022-6-1T8:1:29Z</time></trkpt>
<trkpt lat="48.992221832275" lon="3.1640882492065"><ele></ele><time>2022-6-1T8:1:32Z</time></trkpt>
<trkpt lat="48.992221832275" lon="3.1640882492065"><ele></ele><time>2022-6-1T8:1:35Z</time></trkpt>
<trkpt lat="48.992237091064" lon="3.1639959812164"><ele></ele><time>2022-6-1T8:1:38Z</time></trkpt>
<trkpt lat="48.992237091064" lon="3.1639959812164"><ele></ele><time>2022-6-1T8:1:41Z</time></trkpt>
<trkpt lat="48.992237091064" lon="3.1639959812164"><ele></ele><time>2022-6-1T8:1:44Z</time></trkpt>
<trkpt lat="48.992248535156" lon="3.1639001369476"><ele></ele><time>2022-6-1T8:1:47Z</time></trkpt>
<trkpt lat="48.992248535156" lon="3.1639001369476"><ele></ele><time>2022-6-1T8:1:50Z</time></trkpt>
<trkpt lat="48.992279052734" lon="3.1638267040253"><ele></ele><time>2022-6-1T8:1:53Z</time></trkpt>
<trkpt lat="48.992279052734" lon="3.1638267040253"><ele></ele><time>2022-6-1T8:1:56Z</time></trkpt>
<trkpt lat="48.992332458496" lon="3.1637706756592"><ele></ele><time>2022-6-1T8:1:59Z</time></trkpt>
<trkpt lat="48.992332458496" lon="3.1637706756592"><ele></ele><time>2022-6-1T8:2:2Z</time></trkpt>
<trkpt lat="48.992389678955" lon="3.163720369339"><ele></ele><time>2022-6-1T8:2:5Z</time></trkpt>
<trkpt lat="48.99243927002" lon="3.1636486053467"><ele></ele><time>2022-6-1T8:2:8Z</time></trkpt>
<trkpt lat="48.992496490479" lon="3.1635375022888"><ele></ele><time>2022-6-1T8:2:11Z</time></trkpt>
<trkpt lat="48.992496490479" lon="3.1635375022888"><ele></ele><time>2022-6-1T8:2:14Z</time></trkpt>
<trkpt lat="48.992527008057" lon="3.1634409427643"><ele></ele><time>2022-6-1T8:2:17Z</time></trkpt>
<trkpt lat="48.992530822754" lon="3.1633327007294"><ele></ele><time>2022-6-1T8:2:20Z</time></trkpt>
<trkpt lat="48.992523193359" lon="3.1632182598114"><ele></ele><time>2022-6-1T8:2:23Z</time></trkpt>
<trkpt lat="48.992523193359" lon="3.1632182598114"><ele></ele><time>2022-6-1T8:2:26Z</time></trkpt>
<trkpt lat="48.992515563965" lon="3.1631169319153"><ele></ele><time>2022-6-1T8:2:29Z</time></trkpt>
<trkpt lat="48.992515563965" lon="3.1631169319153"><ele></ele><time>2022-6-1T8:2:32Z</time></trkpt>
<trkpt lat="48.992473602295" lon="3.1630358695984"><ele></ele><time>2022-6-1T8:2:35Z</time></trkpt>
<trkpt lat="48.992473602295" lon="3.1630358695984"><ele></ele><time>2022-6-1T8:2:38Z</time></trkpt>
<trkpt lat="48.992443084717" lon="3.1629464626312"><ele></ele><time>2022-6-1T8:2:41Z</time></trkpt>
<trkpt lat="48.992443084717" lon="3.1629464626312"><ele></ele><time>2022-6-1T8:2:44Z</time></trkpt>
<trkpt lat="48.992412567139" lon="3.1628684997559"><ele></ele><time>2022-6-1T8:2:47Z</time></trkpt>
<trkpt lat="48.992412567139" lon="3.1628684997559"><ele></ele><time>2022-6-1T8:2:50Z</time></trkpt>
<trkpt lat="48.99235534668" lon="3.162743806839"><ele></ele><time>2022-6-1T8:2:53Z</time></trkpt>
<trkpt lat="48.992309570312" lon="3.1626505851746"><ele></ele><time>2022-6-1T8:2:56Z</time></trkpt>
<trkpt lat="48.992309570312" lon="3.1626505851746"><ele></ele><time>2022-6-1T8:2:59Z</time></trkpt>
<trkpt lat="48.992256164551" lon="3.1625785827637"><ele></ele><time>2022-6-1T8:3:2Z</time></trkpt>
<trkpt lat="48.992191314697" lon="3.1624884605408"><ele></ele><time>2022-6-1T8:3:5Z</time></trkpt>
<trkpt lat="48.992126464844" lon="3.1624145507812"><ele></ele><time>2022-6-1T8:3:8Z</time></trkpt>
<trkpt lat="48.992126464844" lon="3.1624145507812"><ele></ele><time>2022-6-1T8:3:11Z</time></trkpt>
<trkpt lat="48.992065429688" lon="3.1623384952545"><ele></ele><time>2022-6-1T8:3:14Z</time></trkpt>
<trkpt lat="48.992004394531" lon="3.1622648239136"><ele></ele><time>2022-6-1T8:3:17Z</time></trkpt>
<trkpt lat="48.991943359375" lon="3.1621851921082"><ele></ele><time>2022-6-1T8:3:20Z</time></trkpt>
<trkpt lat="48.991943359375" lon="3.1621851921082"><ele></ele><time>2022-6-1T8:3:23Z</time></trkpt>
<trkpt lat="48.991893768311" lon="3.1621196269989"><ele></ele><time>2022-6-1T8:3:26Z</time></trkpt>
<trkpt lat="48.991855621338" lon="3.1620309352875"><ele></ele><time>2022-6-1T8:3:29Z</time></trkpt>
<trkpt lat="48.991855621338" lon="3.1620309352875"><ele></ele><time>2022-6-1T8:3:32Z</time></trkpt>
<trkpt lat="48.991874694824" lon="3.1619138717651"><ele></ele><time>2022-6-1T8:3:35Z</time></trkpt>
<trkpt lat="48.991874694824" lon="3.1619138717651"><ele></ele><time>2022-6-1T8:3:38Z</time></trkpt>
<trkpt lat="48.991901397705" lon="3.1618628501892"><ele></ele><time>2022-6-1T8:3:41Z</time></trkpt>
<trkpt lat="48.991924285889" lon="3.1618149280548"><ele></ele><time>2022-6-1T8:3:44Z</time></trkpt>
<trkpt lat="48.991947174072" lon="3.1617674827576"><ele></ele><time>2022-6-1T8:3:47Z</time></trkpt>
<trkpt lat="48.991973876953" lon="3.1617214679718"><ele></ele><time>2022-6-1T8:3:50Z</time></trkpt>
<trkpt lat="48.992000579834" lon="3.161670923233"><ele></ele><time>2022-6-1T8:3:53Z</time></trkpt>
<trkpt lat="48.992046356201" lon="3.1615788936615"><ele></ele><time>2022-6-1T8:3:56Z</time></trkpt>
<trkpt lat="48.992099761963" lon="3.1614735126495"><ele></ele><time>2022-6-1T8:3:59Z</time></trkpt>
<trkpt lat="48.992099761963" lon="3.1614735126495"><ele></ele><time>2022-6-1T8:4:2Z</time></trkpt>
<trkpt lat="48.992164611816" lon="3.1613445281982"><ele></ele><time>2022-6-1T8:4:5Z</time></trkpt>
<trkpt lat="48.992164611816" lon="3.1613445281982"><ele></ele><time>2022-6-1T8:4:8Z</time></trkpt>
<trkpt lat="48.992221832275" lon="3.1612284183502"><ele></ele><time>2022-6-1T8:4:11Z</time></trkpt>
<trkpt lat="48.992282867432" lon="3.1610984802246"><ele></ele><time>2022-6-1T8:4:14Z</time></trkpt>
<trkpt lat="48.992282867432" lon="3.1610984802246"><ele></ele><time>2022-6-1T8:4:17Z</time></trkpt>
<trkpt lat="48.992340087891" lon="3.1609899997711"><ele></ele><time>2022-6-1T8:4:20Z</time></trkpt>
<trkpt lat="48.992340087891" lon="3.1609899997711"><ele></ele><time>2022-6-1T8:4:23Z</time></trkpt>
<trkpt lat="48.992340087891" lon="3.1609899997711"><ele></ele><time>2022-6-1T8:4:26Z</time></trkpt>
<trkpt lat="48.992382049561" lon="3.1609284877777"><ele></ele><time>2022-6-1T8:4:29Z</time></trkpt>
<trkpt lat="48.992382049561" lon="3.1609284877777"><ele></ele><time>2022-6-1T8:4:32Z</time></trkpt>
<trkpt lat="48.992382049561" lon="3.1609284877777"><ele></ele><time>2022-6-1T8:4:35Z</time></trkpt>
<trkpt lat="48.992435455322" lon="3.1607925891876"><ele></ele><time>2022-6-1T8:4:38Z</time></trkpt>
<trkpt lat="48.992500305176" lon="3.160701751709"><ele></ele><time>2022-6-1T8:4:41Z</time></trkpt>
<trkpt lat="48.992500305176" lon="3.160701751709"><ele></ele><time>2022-6-1T8:4:44Z</time></trkpt>
<trkpt lat="48.992546081543" lon="3.1606268882751"><ele></ele><time>2022-6-1T8:4:47Z</time></trkpt>
<trkpt lat="48.992588043213" lon="3.1605415344238"><ele></ele><time>2022-6-1T8:4:50Z</time></trkpt>
<trkpt lat="48.992588043213" lon="3.1605415344238"><ele></ele><time>2022-6-1T8:4:53Z</time></trkpt>
<trkpt lat="48.992588043213" lon="3.1605415344238"><ele></ele><time>2022-6-1T8:4:56Z</time></trkpt>
<trkpt lat="48.992588043213" lon="3.1605415344238"><ele></ele><time>2022-6-1T8:4:59Z</time></trkpt>
<trkpt lat="48.992664337158" lon="3.1603980064392"><ele></ele><time>2022-6-1T8:5:2Z</time></trkpt>
<trkpt lat="48.992664337158" lon="3.1603980064392"><ele></ele><time>2022-6-1T8:5:5Z</time></trkpt>
<trkpt lat="48.99271774292" lon="3.1602966785431"><ele></ele><time>2022-6-1T8:5:8Z</time></trkpt>
<trkpt lat="48.992748260498" lon="3.1602253913879"><ele></ele><time>2022-6-1T8:5:11Z</time></trkpt>
<trkpt lat="48.992748260498" lon="3.1602253913879"><ele></ele><time>2022-6-1T8:5:14Z</time></trkpt>
<trkpt lat="48.992782592773" lon="3.1601533889771"><ele></ele><time>2022-6-1T8:5:17Z</time></trkpt>
<trkpt lat="48.992847442627" lon="3.1600158214569"><ele></ele><time>2022-6-1T8:5:20Z</time></trkpt>
<trkpt lat="48.992847442627" lon="3.1600158214569"><ele></ele><time>2022-6-1T8:5:23Z</time></trkpt>
<trkpt lat="48.992908477783" lon="3.1598963737488"><ele></ele><time>2022-6-1T8:5:26Z</time></trkpt>
<trkpt lat="48.992950439453" lon="3.1598160266876"><ele></ele><time>2022-6-1T8:5:29Z</time></trkpt>
<trkpt lat="48.992950439453" lon="3.1598160266876"><ele></ele><time>2022-6-1T8:5:32Z</time></trkpt>
<trkpt lat="48.992992401123" lon="3.1597383022308"><ele></ele><time>2022-6-1T8:5:35Z</time></trkpt>
<trkpt lat="48.993034362793" lon="3.1596517562866"><ele></ele><time>2022-6-1T8:5:38Z</time></trkpt>
<trkpt lat="48.993072509766" lon="3.1595704555511"><ele></ele><time>2022-6-1T8:5:41Z</time></trkpt>
<trkpt lat="48.993072509766" lon="3.1595704555511"><ele></ele><time>2022-6-1T8:5:44Z</time></trkpt>
<trkpt lat="48.993110656738" lon="3.1594939231873"><ele></ele><time>2022-6-1T8:5:47Z</time></trkpt>
<trkpt lat="48.993148803711" lon="3.1594159603119"><ele></ele><time>2022-6-1T8:5:50Z</time></trkpt>
<trkpt lat="48.993190765381" lon="3.1593325138092"><ele></ele><time>2022-6-1T8:5:53Z</time></trkpt>
<trkpt lat="48.993190765381" lon="3.1593325138092"><ele></ele><time>2022-6-1T8:5:56Z</time></trkpt>
<trkpt lat="48.993228912354" lon="3.1592497825623"><ele></ele><time>2022-6-1T8:5:59Z</time></trkpt>
<trkpt lat="48.993270874023" lon="3.1591665744781"><ele></ele><time>2022-6-1T8:6:2Z</time></trkpt>
<trkpt lat="48.993309020996" lon="3.1590957641602"><ele></ele><time>2022-6-1T8:6:5Z</time></trkpt>
<trkpt lat="48.993309020996" lon="3.1590957641602"><ele></ele><time>2022-6-1T8:6:8Z</time></trkpt>
<trkpt lat="48.993350982666" lon="3.1590225696564"><ele></ele><time>2022-6-1T8:6:11Z</time></trkpt>
<trkpt lat="48.993385314941" lon="3.1589529514313"><ele></ele><time>2022-6-1T8:6:14Z</time></trkpt>
<trkpt lat="48.993385314941" lon="3.1589529514313"><ele></ele><time>2022-6-1T8:6:17Z</time></trkpt>
<trkpt lat="48.993385314941" lon="3.1589529514313"><ele></ele><time>2022-6-1T8:6:20Z</time></trkpt>
<trkpt lat="48.993453979492" lon="3.1588175296783"><ele></ele><time>2022-6-1T8:6:23Z</time></trkpt>
<trkpt lat="48.993488311768" lon="3.1587493419647"><ele></ele><time>2022-6-1T8:6:26Z</time></trkpt>
<trkpt lat="48.993488311768" lon="3.1587493419647"><ele></ele><time>2022-6-1T8:6:29Z</time></trkpt>
<trkpt lat="48.993488311768" lon="3.1587493419647"><ele></ele><time>2022-6-1T8:6:32Z</time></trkpt>
<trkpt lat="48.993556976318" lon="3.1586210727692"><ele></ele><time>2022-6-1T8:6:35Z</time></trkpt>
<trkpt lat="48.993556976318" lon="3.1586210727692"><ele></ele><time>2022-6-1T8:6:38Z</time></trkpt>
<trkpt lat="48.99361038208" lon="3.1585001945496"><ele></ele><time>2022-6-1T8:6:41Z</time></trkpt>
<trkpt lat="48.99361038208" lon="3.1585001945496"><ele></ele><time>2022-6-1T8:6:44Z</time></trkpt>
<trkpt lat="48.99361038208" lon="3.1585001945496"><ele></ele><time>2022-6-1T8:6:47Z</time></trkpt>
<trkpt lat="48.993686676025" lon="3.1584289073944"><ele></ele><time>2022-6-1T8:6:50Z</time></trkpt>
<trkpt lat="48.993686676025" lon="3.1584289073944"><ele></ele><time>2022-6-1T8:6:53Z</time></trkpt>
<trkpt lat="48.993686676025" lon="3.1584289073944"><ele></ele><time>2022-6-1T8:6:56Z</time></trkpt>
<trkpt lat="48.993782043457" lon="3.1585216522217"><ele></ele><time>2022-6-1T8:6:59Z</time></trkpt>
<trkpt lat="48.993782043457" lon="3.1585216522217"><ele></ele><time>2022-6-1T8:7:2Z</time></trkpt>
<trkpt lat="48.993877410889" lon="3.1586139202118"><ele></ele><time>2022-6-1T8:7:5Z</time></trkpt>
<trkpt lat="48.993877410889" lon="3.1586139202118"><ele></ele><time>2022-6-1T8:7:8Z</time></trkpt>
<trkpt lat="48.993877410889" lon="3.1586139202118"><ele></ele><time>2022-6-1T8:7:11Z</time></trkpt>
<trkpt lat="48.993976593018" lon="3.1587007045746"><ele></ele><time>2022-6-1T8:7:14Z</time></trkpt>
<trkpt lat="48.993976593018" lon="3.1587007045746"><ele></ele><time>2022-6-1T8:7:17Z</time></trkpt>
<trkpt lat="48.993976593018" lon="3.1587007045746"><ele></ele><time>2022-6-1T8:7:20Z</time></trkpt>
<trkpt lat="48.994083404541" lon="3.1587619781494"><ele></ele><time>2022-6-1T8:7:23Z</time></trkpt>
<trkpt lat="48.994148254395" lon="3.1588115692139"><ele></ele><time>2022-6-1T8:7:26Z</time></trkpt>
<trkpt lat="48.994235992432" lon="3.1588678359985"><ele></ele><time>2022-6-1T8:7:29Z</time></trkpt>
<trkpt lat="48.994235992432" lon="3.1588678359985"><ele></ele><time>2022-6-1T8:7:32Z</time></trkpt>
<trkpt lat="48.99430847168" lon="3.1589019298553"><ele></ele><time>2022-6-1T8:7:35Z</time></trkpt>
<trkpt lat="48.994388580322" lon="3.1589443683624"><ele></ele><time>2022-6-1T8:7:38Z</time></trkpt>
<trkpt lat="48.994457244873" lon="3.1589872837067"><ele></ele><time>2022-6-1T8:7:41Z</time></trkpt>
<trkpt lat="48.994457244873" lon="3.1589872837067"><ele></ele><time>2022-6-1T8:7:44Z</time></trkpt>
<trkpt lat="48.994533538818" lon="3.1590344905853"><ele></ele><time>2022-6-1T8:7:47Z</time></trkpt>
<trkpt lat="48.994598388672" lon="3.1590740680695"><ele></ele><time>2022-6-1T8:7:50Z</time></trkpt>
<trkpt lat="48.994674682617" lon="3.1591119766235"><ele></ele><time>2022-6-1T8:7:53Z</time></trkpt>
<trkpt lat="48.994674682617" lon="3.1591119766235"><ele></ele><time>2022-6-1T8:7:56Z</time></trkpt>
<trkpt lat="48.994781494141" lon="3.1591625213623"><ele></ele><time>2022-6-1T8:7:59Z</time></trkpt>
<trkpt lat="48.99488067627" lon="3.159234046936"><ele></ele><time>2022-6-1T8:8:2Z</time></trkpt>
<trkpt lat="48.994983673096" lon="3.1593127250671"><ele></ele><time>2022-6-1T8:8:5Z</time></trkpt>
<trkpt lat="48.994983673096" lon="3.1593127250671"><ele></ele><time>2022-6-1T8:8:8Z</time></trkpt>
<trkpt lat="48.995056152344" lon="3.1593987941742"><ele></ele><time>2022-6-1T8:8:11Z</time></trkpt>
<trkpt lat="48.995132446289" lon="3.1594665050507"><ele></ele><time>2022-6-1T8:8:14Z</time></trkpt>
<trkpt lat="48.995204925537" lon="3.1595437526703"><ele></ele><time>2022-6-1T8:8:17Z</time></trkpt>
<trkpt lat="48.995204925537" lon="3.1595437526703"><ele></ele><time>2022-6-1T8:8:20Z</time></trkpt>
<trkpt lat="48.995281219482" lon="3.1596248149872"><ele></ele><time>2022-6-1T8:8:23Z</time></trkpt>
<trkpt lat="48.995349884033" lon="3.1596760749817"><ele></ele><time>2022-6-1T8:8:26Z</time></trkpt>
<trkpt lat="48.995433807373" lon="3.1597509384155"><ele></ele><time>2022-6-1T8:8:29Z</time></trkpt>
<trkpt lat="48.995433807373" lon="3.1597509384155"><ele></ele><time>2022-6-1T8:8:32Z</time></trkpt>
<trkpt lat="48.995506286621" lon="3.1598126888275"><ele></ele><time>2022-6-1T8:8:35Z</time></trkpt>
<trkpt lat="48.995506286621" lon="3.1598126888275"><ele></ele><time>2022-6-1T8:8:38Z</time></trkpt>
<trkpt lat="48.995616912842" lon="3.1599061489105"><ele></ele><time>2022-6-1T8:8:41Z</time></trkpt>
<trkpt lat="48.995681762695" lon="3.1599349975586"><ele></ele><time>2022-6-1T8:8:44Z</time></trkpt>
<trkpt lat="48.995742797852" lon="3.1599595546722"><ele></ele><time>2022-6-1T8:8:47Z</time></trkpt>
<trkpt lat="48.995742797852" lon="3.1599595546722"><ele></ele><time>2022-6-1T8:8:50Z</time></trkpt>
<trkpt lat="48.995849609375" lon="3.1599948406219"><ele></ele><time>2022-6-1T8:8:53Z</time></trkpt>
<trkpt lat="48.995906829834" lon="3.1600103378296"><ele></ele><time>2022-6-1T8:8:56Z</time></trkpt>
<trkpt lat="48.995971679688" lon="3.1600325107574"><ele></ele><time>2022-6-1T8:8:59Z</time></trkpt>
<trkpt lat="48.995971679688" lon="3.1600325107574"><ele></ele><time>2022-6-1T8:9:2Z</time></trkpt>
<trkpt lat="48.996070861816" lon="3.1600525379181"><ele></ele><time>2022-6-1T8:9:5Z</time></trkpt>
<trkpt lat="48.996070861816" lon="3.1600525379181"><ele></ele><time>2022-6-1T8:9:8Z</time></trkpt>
<trkpt lat="48.996181488037" lon="3.1600661277771"><ele></ele><time>2022-6-1T8:9:11Z</time></trkpt>
<trkpt lat="48.996181488037" lon="3.1600661277771"><ele></ele><time>2022-6-1T8:9:14Z</time></trkpt>
<trkpt lat="48.996280670166" lon="3.1600770950317"><ele></ele><time>2022-6-1T8:9:17Z</time></trkpt>
<trkpt lat="48.996280670166" lon="3.1600770950317"><ele></ele><time>2022-6-1T8:9:20Z</time></trkpt>
<trkpt lat="48.996379852295" lon="3.1600914001465"><ele></ele><time>2022-6-1T8:9:23Z</time></trkpt>
<trkpt lat="48.996379852295" lon="3.1600914001465"><ele></ele><time>2022-6-1T8:9:26Z</time></trkpt>
<trkpt lat="48.996482849121" lon="3.1601130962372"><ele></ele><time>2022-6-1T8:9:29Z</time></trkpt>
<trkpt lat="48.996482849121" lon="3.1601130962372"><ele></ele><time>2022-6-1T8:9:32Z</time></trkpt>
<trkpt lat="48.99658203125" lon="3.1601202487946"><ele></ele><time>2022-6-1T8:9:35Z</time></trkpt>
<trkpt lat="48.99658203125" lon="3.1601202487946"><ele></ele><time>2022-6-1T8:9:38Z</time></trkpt>
<trkpt lat="48.996688842773" lon="3.1601457595825"><ele></ele><time>2022-6-1T8:9:41Z</time></trkpt>
<trkpt lat="48.996688842773" lon="3.1601457595825"><ele></ele><time>2022-6-1T8:9:44Z</time></trkpt>
<trkpt lat="48.996784210205" lon="3.1601762771606"><ele></ele><time>2022-6-1T8:9:47Z</time></trkpt>
<trkpt lat="48.99686050415" lon="3.1601965427399"><ele></ele><time>2022-6-1T8:9:50Z</time></trkpt>
<trkpt lat="48.99686050415" lon="3.1601965427399"><ele></ele><time>2022-6-1T8:9:53Z</time></trkpt>
<trkpt lat="48.99686050415" lon="3.1601965427399"><ele></ele><time>2022-6-1T8:9:56Z</time></trkpt>
<trkpt lat="48.996963500977" lon="3.1602301597595"><ele></ele><time>2022-6-1T8:9:59Z</time></trkpt>
<trkpt lat="48.996963500977" lon="3.1602301597595"><ele></ele><time>2022-6-1T8:10:2Z</time></trkpt>
<trkpt lat="48.997077941895" lon="3.1602725982666"><ele></ele><time>2022-6-1T8:10:5Z</time></trkpt>
<trkpt lat="48.997158050537" lon="3.1603045463562"><ele></ele><time>2022-6-1T8:10:8Z</time></trkpt>
<trkpt lat="48.997234344482" lon="3.1603302955627"><ele></ele><time>2022-6-1T8:10:11Z</time></trkpt>
<trkpt lat="48.997234344482" lon="3.1603302955627"><ele></ele><time>2022-6-1T8:10:14Z</time></trkpt>
<trkpt lat="48.997314453125" lon="3.1603651046753"><ele></ele><time>2022-6-1T8:10:17Z</time></trkpt>
<trkpt lat="48.997386932373" lon="3.1603963375092"><ele></ele><time>2022-6-1T8:10:20Z</time></trkpt>
<trkpt lat="48.997447967529" lon="3.1604251861572"><ele></ele><time>2022-6-1T8:10:23Z</time></trkpt>
<trkpt lat="48.997447967529" lon="3.1604251861572"><ele></ele><time>2022-6-1T8:10:26Z</time></trkpt>
<trkpt lat="48.997524261475" lon="3.1604509353638"><ele></ele><time>2022-6-1T8:10:29Z</time></trkpt>
<trkpt lat="48.99760055542" lon="3.1604897975922"><ele></ele><time>2022-6-1T8:10:32Z</time></trkpt>
<trkpt lat="48.997680664062" lon="3.160534620285"><ele></ele><time>2022-6-1T8:10:35Z</time></trkpt>
<trkpt lat="48.997680664062" lon="3.160534620285"><ele></ele><time>2022-6-1T8:10:38Z</time></trkpt>
<trkpt lat="48.997756958008" lon="3.1605644226074"><ele></ele><time>2022-6-1T8:10:41Z</time></trkpt>
<trkpt lat="48.997829437256" lon="3.1605970859528"><ele></ele><time>2022-6-1T8:10:44Z</time></trkpt>
<trkpt lat="48.997913360596" lon="3.1606442928314"><ele></ele><time>2022-6-1T8:10:47Z</time></trkpt>
<trkpt lat="48.997913360596" lon="3.1606442928314"><ele></ele><time>2022-6-1T8:10:50Z</time></trkpt>
<trkpt lat="48.997993469238" lon="3.1606891155243"><ele></ele><time>2022-6-1T8:10:53Z</time></trkpt>
<trkpt lat="48.998069763184" lon="3.1607260704041"><ele></ele><time>2022-6-1T8:10:56Z</time></trkpt>
<trkpt lat="48.998153686523" lon="3.1607668399811"><ele></ele><time>2022-6-1T8:10:59Z</time></trkpt>
<trkpt lat="48.998153686523" lon="3.1607668399811"><ele></ele><time>2022-6-1T8:11:2Z</time></trkpt>
<trkpt lat="48.998237609863" lon="3.1608171463013"><ele></ele><time>2022-6-1T8:11:5Z</time></trkpt>
<trkpt lat="48.998329162598" lon="3.1608583927155"><ele></ele><time>2022-6-1T8:11:8Z</time></trkpt>
<trkpt lat="48.998420715332" lon="3.1609139442444"><ele></ele><time>2022-6-1T8:11:11Z</time></trkpt>
<trkpt lat="48.998420715332" lon="3.1609139442444"><ele></ele><time>2022-6-1T8:11:14Z</time></trkpt>
<trkpt lat="48.998519897461" lon="3.1609716415405"><ele></ele><time>2022-6-1T8:11:17Z</time></trkpt>
<trkpt lat="48.99861907959" lon="3.1610064506531"><ele></ele><time>2022-6-1T8:11:20Z</time></trkpt>
<trkpt lat="48.998699188232" lon="3.1610186100006"><ele></ele><time>2022-6-1T8:11:23Z</time></trkpt>
<trkpt lat="48.998699188232" lon="3.1610186100006"><ele></ele><time>2022-6-1T8:11:26Z</time></trkpt>
<trkpt lat="48.998783111572" lon="3.1610569953918"><ele></ele><time>2022-6-1T8:11:29Z</time></trkpt>
<trkpt lat="48.998851776123" lon="3.1610903739929"><ele></ele><time>2022-6-1T8:11:32Z</time></trkpt>
<trkpt lat="48.998928070068" lon="3.1611442565918"><ele></ele><time>2022-6-1T8:11:35Z</time></trkpt>
<trkpt lat="48.998928070068" lon="3.1611442565918"><ele></ele><time>2022-6-1T8:11:38Z</time></trkpt>
<trkpt lat="48.999000549316" lon="3.1612060070038"><ele></ele><time>2022-6-1T8:11:41Z</time></trkpt>
<trkpt lat="48.999053955078" lon="3.1612598896027"><ele></ele><time>2022-6-1T8:11:44Z</time></trkpt>
<trkpt lat="48.999111175537" lon="3.1613097190857"><ele></ele><time>2022-6-1T8:11:47Z</time></trkpt>
<trkpt lat="48.999111175537" lon="3.1613097190857"><ele></ele><time>2022-6-1T8:11:50Z</time></trkpt>
<trkpt lat="48.999172210693" lon="3.1613645553589"><ele></ele><time>2022-6-1T8:11:53Z</time></trkpt>
<trkpt lat="48.999229431152" lon="3.1614196300507"><ele></ele><time>2022-6-1T8:11:56Z</time></trkpt>
<trkpt lat="48.999282836914" lon="3.1614637374878"><ele></ele><time>2022-6-1T8:11:59Z</time></trkpt>
<trkpt lat="48.999282836914" lon="3.1614637374878"><ele></ele><time>2022-6-1T8:12:2Z</time></trkpt>
<trkpt lat="48.999336242676" lon="3.1615059375763"><ele></ele><time>2022-6-1T8:12:5Z</time></trkpt>
<trkpt lat="48.999389648438" lon="3.1615509986877"><ele></ele><time>2022-6-1T8:12:8Z</time></trkpt>
<trkpt lat="48.999443054199" lon="3.1616010665894"><ele></ele><time>2022-6-1T8:12:11Z</time></trkpt>
<trkpt lat="48.999443054199" lon="3.1616010665894"><ele></ele><time>2022-6-1T8:12:14Z</time></trkpt>
<trkpt lat="48.999496459961" lon="3.1616449356079"><ele></ele><time>2022-6-1T8:12:17Z</time></trkpt>
<trkpt lat="48.999557495117" lon="3.1616883277893"><ele></ele><time>2022-6-1T8:12:20Z</time></trkpt>
<trkpt lat="48.999618530273" lon="3.1617369651794"><ele></ele><time>2022-6-1T8:12:23Z</time></trkpt>
<trkpt lat="48.999618530273" lon="3.1617369651794"><ele></ele><time>2022-6-1T8:12:26Z</time></trkpt>
<trkpt lat="48.999675750732" lon="3.1617784500122"><ele></ele><time>2022-6-1T8:12:29Z</time></trkpt>
<trkpt lat="48.999740600586" lon="3.1618278026581"><ele></ele><time>2022-6-1T8:12:32Z</time></trkpt>
<trkpt lat="48.999797821045" lon="3.161877155304"><ele></ele><time>2022-6-1T8:12:35Z</time></trkpt>
<trkpt lat="48.999797821045" lon="3.161877155304"><ele></ele><time>2022-6-1T8:12:38Z</time></trkpt>
<trkpt lat="48.999797821045" lon="3.161877155304"><ele></ele><time>2022-6-1T8:12:41Z</time></trkpt>
<trkpt lat="48.999893188477" lon="3.1619479656219"><ele></ele><time>2022-6-1T8:12:44Z</time></trkpt>
<trkpt lat="48.999946594238" lon="3.1619915962219"><ele></ele><time>2022-6-1T8:12:47Z</time></trkpt>
<trkpt lat="48.999946594238" lon="3.1619915962219"><ele></ele><time>2022-6-1T8:12:50Z</time></trkpt>
<trkpt lat="48.999946594238" lon="3.1619915962219"><ele></ele><time>2022-6-1T8:12:53Z</time></trkpt>
<trkpt lat="49.00004196167" lon="3.1620678901672"><ele></ele><time>2022-6-1T8:12:56Z</time></trkpt>
<trkpt lat="49.00004196167" lon="3.1620678901672"><ele></ele><time>2022-6-1T8:12:59Z</time></trkpt>
<trkpt lat="49.00004196167" lon="3.1620678901672"><ele></ele><time>2022-6-1T8:13:2Z</time></trkpt>
<trkpt lat="49.000122070312" lon="3.1621277332306"><ele></ele><time>2022-6-1T8:13:5Z</time></trkpt>
<trkpt lat="49.000122070312" lon="3.1621277332306"><ele></ele><time>2022-6-1T8:13:8Z</time></trkpt>
<trkpt lat="49.000205993652" lon="3.1622180938721"><ele></ele><time>2022-6-1T8:13:11Z</time></trkpt>
<trkpt lat="49.000205993652" lon="3.1622180938721"><ele></ele><time>2022-6-1T8:13:14Z</time></trkpt>
<trkpt lat="49.000221252441" lon="3.1623642444611"><ele></ele><time>2022-6-1T8:13:17Z</time></trkpt>
<trkpt lat="49.000221252441" lon="3.1623642444611"><ele></ele><time>2022-6-1T8:13:20Z</time></trkpt>
<trkpt lat="49.000183105469" lon="3.1624104976654"><ele></ele><time>2022-6-1T8:13:23Z</time></trkpt>
<trkpt lat="49.000129699707" lon="3.1624593734741"><ele></ele><time>2022-6-1T8:13:26Z</time></trkpt>
<trkpt lat="49.000072479248" lon="3.1625094413757"><ele></ele><time>2022-6-1T8:13:29Z</time></trkpt>
<trkpt lat="49.000011444092" lon="3.162567615509"><ele></ele><time>2022-6-1T8:13:32Z</time></trkpt>
<trkpt lat="48.999946594238" lon="3.1626355648041"><ele></ele><time>2022-6-1T8:13:35Z</time></trkpt>
<trkpt lat="48.999813079834" lon="3.1627917289734"><ele></ele><time>2022-6-1T8:13:38Z</time></trkpt>
<trkpt lat="48.999744415283" lon="3.1628892421722"><ele></ele><time>2022-6-1T8:13:41Z</time></trkpt>
<trkpt lat="48.999675750732" lon="3.1629981994629"><ele></ele><time>2022-6-1T8:13:44Z</time></trkpt>
<trkpt lat="48.999614715576" lon="3.1631093025208"><ele></ele><time>2022-6-1T8:13:47Z</time></trkpt>
<trkpt lat="48.999549865723" lon="3.1632208824158"><ele></ele><time>2022-6-1T8:13:50Z</time></trkpt>
<trkpt lat="48.999488830566" lon="3.163339138031"><ele></ele><time>2022-6-1T8:13:53Z</time></trkpt>
<trkpt lat="48.99942779541" lon="3.1634573936462"><ele></ele><time>2022-6-1T8:13:56Z</time></trkpt>
<trkpt lat="48.999366760254" lon="3.1635770797729"><ele></ele><time>2022-6-1T8:13:59Z</time></trkpt>
<trkpt lat="48.999305725098" lon="3.1637048721313"><ele></ele><time>2022-6-1T8:14:2Z</time></trkpt>
<trkpt lat="48.999248504639" lon="3.1638119220734"><ele></ele><time>2022-6-1T8:14:5Z</time></trkpt>
<trkpt lat="48.999202728271" lon="3.1638946533203"><ele></ele><time>2022-6-1T8:14:8Z</time></trkpt>
<trkpt lat="48.999164581299" lon="3.16397356987"><ele></ele><time>2022-6-1T8:14:11Z</time></trkpt>
<trkpt lat="48.999122619629" lon="3.164055109024"><ele></ele><time>2022-6-1T8:14:14Z</time></trkpt>
<trkpt lat="48.999122619629" lon="3.164055109024"><ele></ele><time>2022-6-1T8:14:17Z</time></trkpt>
<trkpt lat="48.999042510986" lon="3.1642024517059"><ele></ele><time>2022-6-1T8:14:20Z</time></trkpt>
<trkpt lat="48.998996734619" lon="3.1642799377441"><ele></ele><time>2022-6-1T8:14:23Z</time></trkpt>
<trkpt lat="48.998943328857" lon="3.1643652915955"><ele></ele><time>2022-6-1T8:14:26Z</time></trkpt>
<trkpt lat="48.998893737793" lon="3.1644477844238"><ele></ele><time>2022-6-1T8:14:29Z</time></trkpt>
<trkpt lat="48.998859405518" lon="3.1645205020905"><ele></ele><time>2022-6-1T8:14:32Z</time></trkpt>
<trkpt lat="48.99881362915" lon="3.164608001709"><ele></ele><time>2022-6-1T8:14:35Z</time></trkpt>
<trkpt lat="48.998764038086" lon="3.1646955013275"><ele></ele><time>2022-6-1T8:14:38Z</time></trkpt>
<trkpt lat="48.998714447021" lon="3.1647713184357"><ele></ele><time>2022-6-1T8:14:41Z</time></trkpt>
<trkpt lat="48.998668670654" lon="3.1648466587067"><ele></ele><time>2022-6-1T8:14:44Z</time></trkpt>
<trkpt lat="48.998615264893" lon="3.1649301052094"><ele></ele><time>2022-6-1T8:14:47Z</time></trkpt>
<trkpt lat="48.998565673828" lon="3.1650023460388"><ele></ele><time>2022-6-1T8:14:50Z</time></trkpt>
<trkpt lat="48.998519897461" lon="3.1650764942169"><ele></ele><time>2022-6-1T8:14:53Z</time></trkpt>
<trkpt lat="48.998474121094" lon="3.165150642395"><ele></ele><time>2022-6-1T8:14:56Z</time></trkpt>
<trkpt lat="48.998428344727" lon="3.1652226448059"><ele></ele><time>2022-6-1T8:14:59Z</time></trkpt>
<trkpt lat="48.998386383057" lon="3.1652865409851"><ele></ele><time>2022-6-1T8:15:2Z</time></trkpt>
<trkpt lat="48.998340606689" lon="3.1653571128845"><ele></ele><time>2022-6-1T8:15:5Z</time></trkpt>
<trkpt lat="48.998291015625" lon="3.1654272079468"><ele></ele><time>2022-6-1T8:15:8Z</time></trkpt>
<trkpt lat="48.998245239258" lon="3.1654958724976"><ele></ele><time>2022-6-1T8:15:11Z</time></trkpt>
<trkpt lat="48.998245239258" lon="3.1654958724976"><ele></ele><time>2022-6-1T8:15:14Z</time></trkpt>
<trkpt lat="48.998245239258" lon="3.1654958724976"><ele></ele><time>2022-6-1T8:15:17Z</time></trkpt>
<trkpt lat="48.998245239258" lon="3.1654958724976"><ele></ele><time>2022-6-1T8:15:20Z</time></trkpt>
<trkpt lat="48.998107910156" lon="3.1656341552734"><ele></ele><time>2022-6-1T8:15:23Z</time></trkpt>
<trkpt lat="48.998023986816" lon="3.1657068729401"><ele></ele><time>2022-6-1T8:15:26Z</time></trkpt>
<trkpt lat="48.997966766357" lon="3.1657547950745"><ele></ele><time>2022-6-1T8:15:29Z</time></trkpt>
<trkpt lat="48.997905731201" lon="3.1658113002777"><ele></ele><time>2022-6-1T8:15:32Z</time></trkpt>
<trkpt lat="48.997856140137" lon="3.1658642292023"><ele></ele><time>2022-6-1T8:15:35Z</time></trkpt>
<trkpt lat="48.997814178467" lon="3.1659231185913"><ele></ele><time>2022-6-1T8:15:38Z</time></trkpt>
<trkpt lat="48.997814178467" lon="3.1659231185913"><ele></ele><time>2022-6-1T8:15:41Z</time></trkpt>
<trkpt lat="48.997749328613" lon="3.166015625"><ele></ele><time>2022-6-1T8:15:44Z</time></trkpt>
<trkpt lat="48.997749328613" lon="3.166015625"><ele></ele><time>2022-6-1T8:15:47Z</time></trkpt>
<trkpt lat="48.997688293457" lon="3.166095495224"><ele></ele><time>2022-6-1T8:15:50Z</time></trkpt>
<trkpt lat="48.997688293457" lon="3.166095495224"><ele></ele><time>2022-6-1T8:15:53Z</time></trkpt>
<trkpt lat="48.997688293457" lon="3.166095495224"><ele></ele><time>2022-6-1T8:15:56Z</time></trkpt>
<trkpt lat="48.997634887695" lon="3.1661770343781"><ele></ele><time>2022-6-1T8:15:59Z</time></trkpt>
<trkpt lat="48.997634887695" lon="3.1661770343781"><ele></ele><time>2022-6-1T8:16:2Z</time></trkpt>
<trkpt lat="48.997562408447" lon="3.1662793159485"><ele></ele><time>2022-6-1T8:16:5Z</time></trkpt>
<trkpt lat="48.997562408447" lon="3.1662793159485"><ele></ele><time>2022-6-1T8:16:8Z</time></trkpt>
<trkpt lat="48.997505187988" lon="3.1663522720337"><ele></ele><time>2022-6-1T8:16:11Z</time></trkpt>
<trkpt lat="48.99743270874" lon="3.1664037704468"><ele></ele><time>2022-6-1T8:16:14Z</time></trkpt>
<trkpt lat="48.997352600098" lon="3.1664469242096"><ele></ele><time>2022-6-1T8:16:17Z</time></trkpt>
<trkpt lat="48.997352600098" lon="3.1664469242096"><ele></ele><time>2022-6-1T8:16:20Z</time></trkpt>
<trkpt lat="48.997261047363" lon="3.1664814949036"><ele></ele><time>2022-6-1T8:16:23Z</time></trkpt>
<trkpt lat="48.997089385986" lon="3.166552066803"><ele></ele><time>2022-6-1T8:16:26Z</time></trkpt>
<trkpt lat="48.997089385986" lon="3.166552066803"><ele></ele><time>2022-6-1T8:16:29Z</time></trkpt>
<trkpt lat="48.996990203857" lon="3.1666088104248"><ele></ele><time>2022-6-1T8:16:32Z</time></trkpt>
<trkpt lat="48.99690246582" lon="3.1666650772095"><ele></ele><time>2022-6-1T8:16:35Z</time></trkpt>
<trkpt lat="48.99690246582" lon="3.1666650772095"><ele></ele><time>2022-6-1T8:16:38Z</time></trkpt>
<trkpt lat="48.996799468994" lon="3.1668961048126"><ele></ele><time>2022-6-1T8:16:41Z</time></trkpt>
<trkpt lat="48.996742248535" lon="3.1670470237732"><ele></ele><time>2022-6-1T8:16:44Z</time></trkpt>
<trkpt lat="48.996692657471" lon="3.1671817302704"><ele></ele><time>2022-6-1T8:16:47Z</time></trkpt>
<trkpt lat="48.996692657471" lon="3.1671817302704"><ele></ele><time>2022-6-1T8:16:50Z</time></trkpt>
<trkpt lat="48.996601104736" lon="3.1673390865326"><ele></ele><time>2022-6-1T8:16:53Z</time></trkpt>
<trkpt lat="48.996494293213" lon="3.1674971580505"><ele></ele><time>2022-6-1T8:16:56Z</time></trkpt>
<trkpt lat="48.996387481689" lon="3.1676552295685"><ele></ele><time>2022-6-1T8:16:59Z</time></trkpt>
<trkpt lat="48.996387481689" lon="3.1676552295685"><ele></ele><time>2022-6-1T8:17:2Z</time></trkpt>
<trkpt lat="48.996265411377" lon="3.1678047180176"><ele></ele><time>2022-6-1T8:17:5Z</time></trkpt>
<trkpt lat="48.996147155762" lon="3.167941570282"><ele></ele><time>2022-6-1T8:17:8Z</time></trkpt>
<trkpt lat="48.996082305908" lon="3.1680257320404"><ele></ele><time>2022-6-1T8:17:11Z</time></trkpt>
<trkpt lat="48.996044158936" lon="3.1681342124939"><ele></ele><time>2022-6-1T8:17:14Z</time></trkpt>
<trkpt lat="48.996002197266" lon="3.1682476997375"><ele></ele><time>2022-6-1T8:17:17Z</time></trkpt>
<trkpt lat="48.995964050293" lon="3.1683542728424"><ele></ele><time>2022-6-1T8:17:20Z</time></trkpt>
<trkpt lat="48.995952606201" lon="3.1684956550598"><ele></ele><time>2022-6-1T8:17:23Z</time></trkpt>
<trkpt lat="48.995948791504" lon="3.1686494350433"><ele></ele><time>2022-6-1T8:17:26Z</time></trkpt>
<trkpt lat="48.995948791504" lon="3.16881108284"><ele></ele><time>2022-6-1T8:17:29Z</time></trkpt>
<trkpt lat="48.995948791504" lon="3.168993473053"><ele></ele><time>2022-6-1T8:17:32Z</time></trkpt>
<trkpt lat="48.995937347412" lon="3.169148683548"><ele></ele><time>2022-6-1T8:17:35Z</time></trkpt>
<trkpt lat="48.995922088623" lon="3.1693153381348"><ele></ele><time>2022-6-1T8:17:38Z</time></trkpt>
<trkpt lat="48.995933532715" lon="3.1694495677948"><ele></ele><time>2022-6-1T8:17:41Z</time></trkpt>
<trkpt lat="48.995937347412" lon="3.1695930957794"><ele></ele><time>2022-6-1T8:17:44Z</time></trkpt>
<trkpt lat="48.995941162109" lon="3.169691324234"><ele></ele><time>2022-6-1T8:17:47Z</time></trkpt>
<trkpt lat="48.995941162109" lon="3.169691324234"><ele></ele><time>2022-6-1T8:17:50Z</time></trkpt>
<trkpt lat="48.995964050293" lon="3.1698133945465"><ele></ele><time>2022-6-1T8:17:53Z</time></trkpt>
<trkpt lat="48.995964050293" lon="3.1698133945465"><ele></ele><time>2022-6-1T8:17:56Z</time></trkpt>
<trkpt lat="48.995964050293" lon="3.1698133945465"><ele></ele><time>2022-6-1T8:17:59Z</time></trkpt>
<trkpt lat="48.995964050293" lon="3.1698133945465"><ele></ele><time>2022-6-1T8:18:2Z</time></trkpt>
<trkpt lat="48.996028900146" lon="3.1699018478394"><ele></ele><time>2022-6-1T8:18:5Z</time></trkpt>
<trkpt lat="48.996028900146" lon="3.1699018478394"><ele></ele><time>2022-6-1T8:18:8Z</time></trkpt>
<trkpt lat="48.996055603027" lon="3.1699900627136"><ele></ele><time>2022-6-1T8:18:11Z</time></trkpt>
<trkpt lat="48.996055603027" lon="3.1699900627136"><ele></ele><time>2022-6-1T8:18:14Z</time></trkpt>
<trkpt lat="48.996086120605" lon="3.1700782775879"><ele></ele><time>2022-6-1T8:18:17Z</time></trkpt>
<trkpt lat="48.996086120605" lon="3.1700782775879"><ele></ele><time>2022-6-1T8:18:20Z</time></trkpt>
<trkpt lat="48.996086120605" lon="3.1700782775879"><ele></ele><time>2022-6-1T8:18:23Z</time></trkpt>
<trkpt lat="48.996086120605" lon="3.1700782775879"><ele></ele><time>2022-6-1T8:18:26Z</time></trkpt>
<trkpt lat="48.996086120605" lon="3.1700782775879"><ele></ele><time>2022-6-1T8:18:29Z</time></trkpt>
<trkpt lat="48.996086120605" lon="3.1700782775879"><ele></ele><time>2022-6-1T8:18:32Z</time></trkpt>
<trkpt lat="48.996086120605" lon="3.1700782775879"><ele></ele><time>2022-6-1T8:18:35Z</time></trkpt>
<trkpt lat="48.996109008789" lon="3.1702032089233"><ele></ele><time>2022-6-1T8:18:38Z</time></trkpt>
<trkpt lat="48.996120452881" lon="3.1702980995178"><ele></ele><time>2022-6-1T8:18:41Z</time></trkpt>
<trkpt lat="48.996120452881" lon="3.1702980995178"><ele></ele><time>2022-6-1T8:18:44Z</time></trkpt>
<trkpt lat="48.996147155762" lon="3.1704072952271"><ele></ele><time>2022-6-1T8:18:47Z</time></trkpt>
<trkpt lat="48.996147155762" lon="3.1704072952271"><ele></ele><time>2022-6-1T8:18:50Z</time></trkpt>
<trkpt lat="48.996154785156" lon="3.1705248355865"><ele></ele><time>2022-6-1T8:18:53Z</time></trkpt>
<trkpt lat="48.996158599854" lon="3.1706268787384"><ele></ele><time>2022-6-1T8:18:56Z</time></trkpt>
<trkpt lat="48.996158599854" lon="3.1706268787384"><ele></ele><time>2022-6-1T8:18:59Z</time></trkpt>
<trkpt lat="48.996158599854" lon="3.1706268787384"><ele></ele><time>2022-6-1T8:19:2Z</time></trkpt>
<trkpt lat="48.996154785156" lon="3.1707310676575"><ele></ele><time>2022-6-1T8:19:5Z</time></trkpt>
<trkpt lat="48.996154785156" lon="3.1707310676575"><ele></ele><time>2022-6-1T8:19:8Z</time></trkpt>
<trkpt lat="48.996154785156" lon="3.1707310676575"><ele></ele><time>2022-6-1T8:19:11Z</time></trkpt>
<trkpt lat="48.996150970459" lon="3.1708488464355"><ele></ele><time>2022-6-1T8:19:14Z</time></trkpt>
<trkpt lat="48.996158599854" lon="3.1709697246552"><ele></ele><time>2022-6-1T8:19:17Z</time></trkpt>
<trkpt lat="48.996158599854" lon="3.1709697246552"><ele></ele><time>2022-6-1T8:19:20Z</time></trkpt>
<trkpt lat="48.996166229248" lon="3.1710970401764"><ele></ele><time>2022-6-1T8:19:23Z</time></trkpt>
<trkpt lat="48.996166229248" lon="3.1710970401764"><ele></ele><time>2022-6-1T8:19:26Z</time></trkpt>
<trkpt lat="48.996170043945" lon="3.1711912155151"><ele></ele><time>2022-6-1T8:19:29Z</time></trkpt>
<trkpt lat="48.996170043945" lon="3.1711912155151"><ele></ele><time>2022-6-1T8:19:32Z</time></trkpt>
<trkpt lat="48.99617767334" lon="3.171323299408"><ele></ele><time>2022-6-1T8:19:35Z</time></trkpt>
<trkpt lat="48.996189117432" lon="3.171466588974"><ele></ele><time>2022-6-1T8:19:38Z</time></trkpt>
<trkpt lat="48.996189117432" lon="3.171466588974"><ele></ele><time>2022-6-1T8:19:41Z</time></trkpt>
<trkpt lat="48.996196746826" lon="3.1716113090515"><ele></ele><time>2022-6-1T8:19:44Z</time></trkpt>
<trkpt lat="48.996223449707" lon="3.1717667579651"><ele></ele><time>2022-6-1T8:19:47Z</time></trkpt>
<trkpt lat="48.996257781982" lon="3.1719200611115"><ele></ele><time>2022-6-1T8:19:50Z</time></trkpt>
<trkpt lat="48.996257781982" lon="3.1719200611115"><ele></ele><time>2022-6-1T8:19:53Z</time></trkpt>
<trkpt lat="48.996284484863" lon="3.1720519065857"><ele></ele><time>2022-6-1T8:19:56Z</time></trkpt>
<trkpt lat="48.996307373047" lon="3.1721343994141"><ele></ele><time>2022-6-1T8:19:59Z</time></trkpt>
<trkpt lat="48.99633026123" lon="3.1722207069397"><ele></ele><time>2022-6-1T8:20:2Z</time></trkpt>
<trkpt lat="48.996360778809" lon="3.1723845005035"><ele></ele><time>2022-6-1T8:20:5Z</time></trkpt>
<trkpt lat="48.996360778809" lon="3.1723845005035"><ele></ele><time>2022-6-1T8:20:8Z</time></trkpt>
<trkpt lat="48.996402740479" lon="3.1725218296051"><ele></ele><time>2022-6-1T8:20:11Z</time></trkpt>
<trkpt lat="48.996402740479" lon="3.1725218296051"><ele></ele><time>2022-6-1T8:20:14Z</time></trkpt>
<trkpt lat="48.996421813965" lon="3.1726579666138"><ele></ele><time>2022-6-1T8:20:17Z</time></trkpt>
<trkpt lat="48.996421813965" lon="3.1726579666138"><ele></ele><time>2022-6-1T8:20:20Z</time></trkpt>
<trkpt lat="48.996452331543" lon="3.1727685928345"><ele></ele><time>2022-6-1T8:20:23Z</time></trkpt>
<trkpt lat="48.996452331543" lon="3.1727685928345"><ele></ele><time>2022-6-1T8:20:26Z</time></trkpt>
<trkpt lat="48.996501922607" lon="3.1728250980377"><ele></ele><time>2022-6-1T8:20:29Z</time></trkpt>
<trkpt lat="48.996501922607" lon="3.1728250980377"><ele></ele><time>2022-6-1T8:20:32Z</time></trkpt>
<trkpt lat="48.996543884277" lon="3.1728894710541"><ele></ele><time>2022-6-1T8:20:35Z</time></trkpt>
<trkpt lat="48.996543884277" lon="3.1728894710541"><ele></ele><time>2022-6-1T8:20:38Z</time></trkpt>
<trkpt lat="48.996620178223" lon="3.1730000972748"><ele></ele><time>2022-6-1T8:20:41Z</time></trkpt>
<trkpt lat="48.996620178223" lon="3.1730000972748"><ele></ele><time>2022-6-1T8:20:44Z</time></trkpt>
<trkpt lat="48.996688842773" lon="3.1731314659119"><ele></ele><time>2022-6-1T8:20:47Z</time></trkpt>
<trkpt lat="48.996730804443" lon="3.1732075214386"><ele></ele><time>2022-6-1T8:20:50Z</time></trkpt>
<trkpt lat="48.996730804443" lon="3.1732075214386"><ele></ele><time>2022-6-1T8:20:53Z</time></trkpt>
<trkpt lat="48.996753692627" lon="3.1732559204102"><ele></ele><time>2022-6-1T8:20:56Z</time></trkpt>
<trkpt lat="48.996772766113" lon="3.1733050346375"><ele></ele><time>2022-6-1T8:20:59Z</time></trkpt>
<trkpt lat="48.996788024902" lon="3.1733448505402"><ele></ele><time>2022-6-1T8:21:2Z</time></trkpt>
<trkpt lat="48.996788024902" lon="3.1733448505402"><ele></ele><time>2022-6-1T8:21:5Z</time></trkpt>
<trkpt lat="48.996807098389" lon="3.1734149456024"><ele></ele><time>2022-6-1T8:21:8Z</time></trkpt>
<trkpt lat="48.996826171875" lon="3.1734778881073"><ele></ele><time>2022-6-1T8:21:11Z</time></trkpt>
<trkpt lat="48.996849060059" lon="3.1735382080078"><ele></ele><time>2022-6-1T8:21:14Z</time></trkpt>
<trkpt lat="48.996871948242" lon="3.1735906600952"><ele></ele><time>2022-6-1T8:21:17Z</time></trkpt>
<trkpt lat="48.996894836426" lon="3.1736414432526"><ele></ele><time>2022-6-1T8:21:20Z</time></trkpt>
<trkpt lat="48.996940612793" lon="3.1737382411957"><ele></ele><time>2022-6-1T8:21:23Z</time></trkpt>
<trkpt lat="48.996940612793" lon="3.1737382411957"><ele></ele><time>2022-6-1T8:21:26Z</time></trkpt>
<trkpt lat="48.996940612793" lon="3.1737382411957"><ele></ele><time>2022-6-1T8:21:29Z</time></trkpt>
<trkpt lat="48.996971130371" lon="3.1738340854645"><ele></ele><time>2022-6-1T8:21:32Z</time></trkpt>
<trkpt lat="48.996971130371" lon="3.1738340854645"><ele></ele><time>2022-6-1T8:21:35Z</time></trkpt>
<trkpt lat="48.996971130371" lon="3.1738340854645"><ele></ele><time>2022-6-1T8:21:38Z</time></trkpt>
<trkpt lat="48.997016906738" lon="3.1739437580109"><ele></ele><time>2022-6-1T8:21:41Z</time></trkpt>
<trkpt lat="48.997016906738" lon="3.1739437580109"><ele></ele><time>2022-6-1T8:21:44Z</time></trkpt>
<trkpt lat="48.997066497803" lon="3.1740407943726"><ele></ele><time>2022-6-1T8:21:47Z</time></trkpt>
<trkpt lat="48.997116088867" lon="3.174149274826"><ele></ele><time>2022-6-1T8:21:50Z</time></trkpt>
<trkpt lat="48.997116088867" lon="3.174149274826"><ele></ele><time>2022-6-1T8:21:53Z</time></trkpt>
<trkpt lat="48.997158050537" lon="3.1742308139801"><ele></ele><time>2022-6-1T8:21:56Z</time></trkpt>
<trkpt lat="48.997158050537" lon="3.1742308139801"><ele></ele><time>2022-6-1T8:21:59Z</time></trkpt>
<trkpt lat="48.99719619751" lon="3.1743156909943"><ele></ele><time>2022-6-1T8:22:2Z</time></trkpt>
<trkpt lat="48.997241973877" lon="3.1744427680969"><ele></ele><time>2022-6-1T8:22:5Z</time></trkpt>
<trkpt lat="48.997264862061" lon="3.1745481491089"><ele></ele><time>2022-6-1T8:22:8Z</time></trkpt>
<trkpt lat="48.997264862061" lon="3.1745481491089"><ele></ele><time>2022-6-1T8:22:11Z</time></trkpt>
<trkpt lat="48.997264862061" lon="3.1746590137482"><ele></ele><time>2022-6-1T8:22:14Z</time></trkpt>
<trkpt lat="48.997287750244" lon="3.1747760772705"><ele></ele><time>2022-6-1T8:22:17Z</time></trkpt>
<trkpt lat="48.997318267822" lon="3.1749126911163"><ele></ele><time>2022-6-1T8:22:20Z</time></trkpt>
<trkpt lat="48.997318267822" lon="3.1749126911163"><ele></ele><time>2022-6-1T8:22:23Z</time></trkpt>
<trkpt lat="48.997344970703" lon="3.1750490665436"><ele></ele><time>2022-6-1T8:22:26Z</time></trkpt>
<trkpt lat="48.9973487854" lon="3.1751997470856"><ele></ele><time>2022-6-1T8:22:29Z</time></trkpt>
<trkpt lat="48.997356414795" lon="3.1752893924713"><ele></ele><time>2022-6-1T8:22:32Z</time></trkpt>
<trkpt lat="48.997379302979" lon="3.1753838062286"><ele></ele><time>2022-6-1T8:22:35Z</time></trkpt>
<trkpt lat="48.997394561768" lon="3.1754686832428"><ele></ele><time>2022-6-1T8:22:38Z</time></trkpt>
<trkpt lat="48.997394561768" lon="3.1756150722504"><ele></ele><time>2022-6-1T8:22:41Z</time></trkpt>
<trkpt lat="48.997406005859" lon="3.1757199764252"><ele></ele><time>2022-6-1T8:22:44Z</time></trkpt>
<trkpt lat="48.99743270874" lon="3.175802230835"><ele></ele><time>2022-6-1T8:22:47Z</time></trkpt>
<trkpt lat="48.997455596924" lon="3.1758975982666"><ele></ele><time>2022-6-1T8:22:50Z</time></trkpt>
<trkpt lat="48.997455596924" lon="3.1758975982666"><ele></ele><time>2022-6-1T8:22:53Z</time></trkpt>
<trkpt lat="48.997493743896" lon="3.176025390625"><ele></ele><time>2022-6-1T8:22:56Z</time></trkpt>
<trkpt lat="48.997493743896" lon="3.176025390625"><ele></ele><time>2022-6-1T8:22:59Z</time></trkpt>
<trkpt lat="48.997524261475" lon="3.1761631965637"><ele></ele><time>2022-6-1T8:23:2Z</time></trkpt>
<trkpt lat="48.997550964355" lon="3.1763384342194"><ele></ele><time>2022-6-1T8:23:5Z</time></trkpt>
<trkpt lat="48.997562408447" lon="3.1764845848083"><ele></ele><time>2022-6-1T8:23:8Z</time></trkpt>
<trkpt lat="48.997562408447" lon="3.1764845848083"><ele></ele><time>2022-6-1T8:23:11Z</time></trkpt>
<trkpt lat="48.997562408447" lon="3.176638841629"><ele></ele><time>2022-6-1T8:23:14Z</time></trkpt>
<trkpt lat="48.997566223145" lon="3.1767957210541"><ele></ele><time>2022-6-1T8:23:17Z</time></trkpt>
<trkpt lat="48.997570037842" lon="3.1769144535065"><ele></ele><time>2022-6-1T8:23:20Z</time></trkpt>
<trkpt lat="48.997577667236" lon="3.1770424842834"><ele></ele><time>2022-6-1T8:23:23Z</time></trkpt>
<trkpt lat="48.997589111328" lon="3.1771624088287"><ele></ele><time>2022-6-1T8:23:26Z</time></trkpt>
<trkpt lat="48.997596740723" lon="3.1772637367249"><ele></ele><time>2022-6-1T8:23:29Z</time></trkpt>
<trkpt lat="48.997604370117" lon="3.1773715019226"><ele></ele><time>2022-6-1T8:23:32Z</time></trkpt>
<trkpt lat="48.997615814209" lon="3.1774754524231"><ele></ele><time>2022-6-1T8:23:35Z</time></trkpt>
<trkpt lat="48.997627258301" lon="3.1775665283203"><ele></ele><time>2022-6-1T8:23:38Z</time></trkpt>
<trkpt lat="48.99764251709" lon="3.1776764392853"><ele></ele><time>2022-6-1T8:23:41Z</time></trkpt>
<trkpt lat="48.99764251709" lon="3.1777760982513"><ele></ele><time>2022-6-1T8:23:44Z</time></trkpt>
<trkpt lat="48.99764251709" lon="3.1778745651245"><ele></ele><time>2022-6-1T8:23:47Z</time></trkpt>
<trkpt lat="48.997646331787" lon="3.1779823303223"><ele></ele><time>2022-6-1T8:23:50Z</time></trkpt>
<trkpt lat="48.997653961182" lon="3.1780898571014"><ele></ele><time>2022-6-1T8:23:53Z</time></trkpt>
<trkpt lat="48.997665405273" lon="3.178209066391"><ele></ele><time>2022-6-1T8:23:56Z</time></trkpt>
<trkpt lat="48.997665405273" lon="3.178209066391"><ele></ele><time>2022-6-1T8:23:59Z</time></trkpt>
<trkpt lat="48.997676849365" lon="3.1783978939056"><ele></ele><time>2022-6-1T8:24:2Z</time></trkpt>
<trkpt lat="48.997699737549" lon="3.1785023212433"><ele></ele><time>2022-6-1T8:24:5Z</time></trkpt>
<trkpt lat="48.997714996338" lon="3.1785869598389"><ele></ele><time>2022-6-1T8:24:8Z</time></trkpt>
<trkpt lat="48.997714996338" lon="3.1785869598389"><ele></ele><time>2022-6-1T8:24:11Z</time></trkpt>
<trkpt lat="48.997764587402" lon="3.1787333488464"><ele></ele><time>2022-6-1T8:24:14Z</time></trkpt>
<trkpt lat="48.997783660889" lon="3.1788218021393"><ele></ele><time>2022-6-1T8:24:17Z</time></trkpt>
<trkpt lat="48.997798919678" lon="3.1789150238037"><ele></ele><time>2022-6-1T8:24:20Z</time></trkpt>
<trkpt lat="48.99783706665" lon="3.1790325641632"><ele></ele><time>2022-6-1T8:24:23Z</time></trkpt>
<trkpt lat="48.997863769531" lon="3.1791269779205"><ele></ele><time>2022-6-1T8:24:26Z</time></trkpt>
<trkpt lat="48.997886657715" lon="3.1792371273041"><ele></ele><time>2022-6-1T8:24:29Z</time></trkpt>
<trkpt lat="48.997901916504" lon="3.1793789863586"><ele></ele><time>2022-6-1T8:24:32Z</time></trkpt>
<trkpt lat="48.997928619385" lon="3.1795177459717"><ele></ele><time>2022-6-1T8:24:35Z</time></trkpt>
<trkpt lat="48.997955322266" lon="3.1796324253082"><ele></ele><time>2022-6-1T8:24:38Z</time></trkpt>
<trkpt lat="48.997970581055" lon="3.1797435283661"><ele></ele><time>2022-6-1T8:24:41Z</time></trkpt>
<trkpt lat="48.997997283936" lon="3.1798732280731"><ele></ele><time>2022-6-1T8:24:44Z</time></trkpt>
<trkpt lat="48.998020172119" lon="3.17999958992"><ele></ele><time>2022-6-1T8:24:47Z</time></trkpt>
<trkpt lat="48.998039245605" lon="3.1801385879517"><ele></ele><time>2022-6-1T8:24:50Z</time></trkpt>
<trkpt lat="48.998043060303" lon="3.1802568435669"><ele></ele><time>2022-6-1T8:24:53Z</time></trkpt>
<trkpt lat="48.998043060303" lon="3.1802568435669"><ele></ele><time>2022-6-1T8:24:56Z</time></trkpt>
<trkpt lat="48.998065948486" lon="3.1804020404816"><ele></ele><time>2022-6-1T8:24:59Z</time></trkpt>
<trkpt lat="48.998096466064" lon="3.1806015968323"><ele></ele><time>2022-6-1T8:25:2Z</time></trkpt>
<trkpt lat="48.998134613037" lon="3.1808176040649"><ele></ele><time>2022-6-1T8:25:5Z</time></trkpt>
<trkpt lat="48.998134613037" lon="3.1808176040649"><ele></ele><time>2022-6-1T8:25:8Z</time></trkpt>
<trkpt lat="48.998184204102" lon="3.1810369491577"><ele></ele><time>2022-6-1T8:25:11Z</time></trkpt>
<trkpt lat="48.998252868652" lon="3.1812438964844"><ele></ele><time>2022-6-1T8:25:14Z</time></trkpt>
<trkpt lat="48.9983253479" lon="3.1814477443695"><ele></ele><time>2022-6-1T8:25:17Z</time></trkpt>
<trkpt lat="48.9983253479" lon="3.1814477443695"><ele></ele><time>2022-6-1T8:25:20Z</time></trkpt>
<trkpt lat="48.998359680176" lon="3.1816139221191"><ele></ele><time>2022-6-1T8:25:23Z</time></trkpt>
<trkpt lat="48.998378753662" lon="3.181792974472"><ele></ele><time>2022-6-1T8:25:26Z</time></trkpt>
<trkpt lat="48.998397827148" lon="3.1819412708282"><ele></ele><time>2022-6-1T8:25:29Z</time></trkpt>
<trkpt lat="48.998397827148" lon="3.1819412708282"><ele></ele><time>2022-6-1T8:25:32Z</time></trkpt>
<trkpt lat="48.998420715332" lon="3.1820945739746"><ele></ele><time>2022-6-1T8:25:35Z</time></trkpt>
<trkpt lat="48.998447418213" lon="3.1822421550751"><ele></ele><time>2022-6-1T8:25:38Z</time></trkpt>
<trkpt lat="48.998477935791" lon="3.1823811531067"><ele></ele><time>2022-6-1T8:25:41Z</time></trkpt>
<trkpt lat="48.998477935791" lon="3.1823811531067"><ele></ele><time>2022-6-1T8:25:44Z</time></trkpt>
<trkpt lat="48.998512268066" lon="3.1825277805328"><ele></ele><time>2022-6-1T8:25:47Z</time></trkpt>
<trkpt lat="48.998554229736" lon="3.1826822757721"><ele></ele><time>2022-6-1T8:25:50Z</time></trkpt>
<trkpt lat="48.998600006104" lon="3.1827850341797"><ele></ele><time>2022-6-1T8:25:53Z</time></trkpt>
<trkpt lat="48.998600006104" lon="3.1827850341797"><ele></ele><time>2022-6-1T8:25:56Z</time></trkpt>
<trkpt lat="48.998600006104" lon="3.1827850341797"><ele></ele><time>2022-6-1T8:25:59Z</time></trkpt>
<trkpt lat="48.998600006104" lon="3.1827850341797"><ele></ele><time>2022-6-1T8:26:2Z</time></trkpt>
<trkpt lat="48.998600006104" lon="3.1827850341797"><ele></ele><time>2022-6-1T8:26:5Z</time></trkpt>
<trkpt lat="48.998695373535" lon="3.1829981803894"><ele></ele><time>2022-6-1T8:26:8Z</time></trkpt>
<trkpt lat="48.998695373535" lon="3.1829981803894"><ele></ele><time>2022-6-1T8:26:11Z</time></trkpt>
<trkpt lat="48.998733520508" lon="3.1831178665161"><ele></ele><time>2022-6-1T8:26:14Z</time></trkpt>
<trkpt lat="48.998760223389" lon="3.1832058429718"><ele></ele><time>2022-6-1T8:26:17Z</time></trkpt>
<trkpt lat="48.998760223389" lon="3.1832058429718"><ele></ele><time>2022-6-1T8:26:20Z</time></trkpt>
<trkpt lat="48.998783111572" lon="3.1832892894745"><ele></ele><time>2022-6-1T8:26:23Z</time></trkpt>
<trkpt lat="48.998825073242" lon="3.1834487915039"><ele></ele><time>2022-6-1T8:26:26Z</time></trkpt>
<trkpt lat="48.998825073242" lon="3.1834487915039"><ele></ele><time>2022-6-1T8:26:29Z</time></trkpt>
<trkpt lat="48.998878479004" lon="3.1836171150208"><ele></ele><time>2022-6-1T8:26:32Z</time></trkpt>
<trkpt lat="48.998905181885" lon="3.183712720871"><ele></ele><time>2022-6-1T8:26:35Z</time></trkpt>
<trkpt lat="48.998905181885" lon="3.183712720871"><ele></ele><time>2022-6-1T8:26:38Z</time></trkpt>
<trkpt lat="48.998931884766" lon="3.1837952136993"><ele></ele><time>2022-6-1T8:26:41Z</time></trkpt>
<trkpt lat="48.998966217041" lon="3.183922290802"><ele></ele><time>2022-6-1T8:26:44Z</time></trkpt>
<trkpt lat="48.998966217041" lon="3.183922290802"><ele></ele><time>2022-6-1T8:26:47Z</time></trkpt>
<trkpt lat="48.999015808105" lon="3.1840856075287"><ele></ele><time>2022-6-1T8:26:50Z</time></trkpt>
<trkpt lat="48.999046325684" lon="3.1841766834259"><ele></ele><time>2022-6-1T8:26:53Z</time></trkpt>
<trkpt lat="48.999046325684" lon="3.1841766834259"><ele></ele><time>2022-6-1T8:26:56Z</time></trkpt>
<trkpt lat="48.999061584473" lon="3.1842658519745"><ele></ele><time>2022-6-1T8:26:59Z</time></trkpt>
<trkpt lat="48.999092102051" lon="3.1843869686127"><ele></ele><time>2022-6-1T8:27:2Z</time></trkpt>
<trkpt lat="48.999130249023" lon="3.1845092773438"><ele></ele><time>2022-6-1T8:27:5Z</time></trkpt>
<trkpt lat="48.999130249023" lon="3.1845092773438"><ele></ele><time>2022-6-1T8:27:8Z</time></trkpt>
<trkpt lat="48.999164581299" lon="3.1846213340759"><ele></ele><time>2022-6-1T8:27:11Z</time></trkpt>
<trkpt lat="48.999202728271" lon="3.1847202777863"><ele></ele><time>2022-6-1T8:27:14Z</time></trkpt>
<trkpt lat="48.999240875244" lon="3.1848368644714"><ele></ele><time>2022-6-1T8:27:17Z</time></trkpt>
<trkpt lat="48.999240875244" lon="3.1848368644714"><ele></ele><time>2022-6-1T8:27:20Z</time></trkpt>
<trkpt lat="48.999263763428" lon="3.184928894043"><ele></ele><time>2022-6-1T8:27:23Z</time></trkpt>
<trkpt lat="48.999298095703" lon="3.1850485801697"><ele></ele><time>2022-6-1T8:27:26Z</time></trkpt>
<trkpt lat="48.999298095703" lon="3.1850485801697"><ele></ele><time>2022-6-1T8:27:29Z</time></trkpt>
<trkpt lat="48.999366760254" lon="3.1851999759674"><ele></ele><time>2022-6-1T8:27:32Z</time></trkpt>
<trkpt lat="48.999404907227" lon="3.1852924823761"><ele></ele><time>2022-6-1T8:27:35Z</time></trkpt>
<trkpt lat="48.999443054199" lon="3.1853864192963"><ele></ele><time>2022-6-1T8:27:38Z</time></trkpt>
<trkpt lat="48.999485015869" lon="3.1854972839355"><ele></ele><time>2022-6-1T8:27:41Z</time></trkpt>
<trkpt lat="48.999523162842" lon="3.185595035553"><ele></ele><time>2022-6-1T8:27:44Z</time></trkpt>
<trkpt lat="48.999565124512" lon="3.1856987476349"><ele></ele><time>2022-6-1T8:27:47Z</time></trkpt>
<trkpt lat="48.99959564209" lon="3.1858012676239"><ele></ele><time>2022-6-1T8:27:50Z</time></trkpt>
<trkpt lat="48.999622344971" lon="3.185911655426"><ele></ele><time>2022-6-1T8:27:53Z</time></trkpt>
<trkpt lat="48.999664306641" lon="3.1860268115997"><ele></ele><time>2022-6-1T8:27:56Z</time></trkpt>
<trkpt lat="48.999706268311" lon="3.1861357688904"><ele></ele><time>2022-6-1T8:27:59Z</time></trkpt>
<trkpt lat="48.999744415283" lon="3.1862394809723"><ele></ele><time>2022-6-1T8:28:2Z</time></trkpt>
<trkpt lat="48.999843597412" lon="3.1864881515503"><ele></ele><time>2022-6-1T8:28:5Z</time></trkpt>
<trkpt lat="48.999908447266" lon="3.1866390705109"><ele></ele><time>2022-6-1T8:28:8Z</time></trkpt>
<trkpt lat="48.999961853027" lon="3.1868047714233"><ele></ele><time>2022-6-1T8:28:11Z</time></trkpt>
<trkpt lat="49" lon="3.1869552135468"><ele></ele><time>2022-6-1T8:28:14Z</time></trkpt>
<trkpt lat="49.00004196167" lon="3.1871469020844"><ele></ele><time>2022-6-1T8:28:17Z</time></trkpt>
<trkpt lat="49.000072479248" lon="3.187331199646"><ele></ele><time>2022-6-1T8:28:20Z</time></trkpt>
<trkpt lat="49.000087738037" lon="3.1875145435333"><ele></ele><time>2022-6-1T8:28:23Z</time></trkpt>
<trkpt lat="49.000102996826" lon="3.1877076625824"><ele></ele><time>2022-6-1T8:28:26Z</time></trkpt>
<trkpt lat="49.000122070312" lon="3.1879110336304"><ele></ele><time>2022-6-1T8:28:29Z</time></trkpt>
<trkpt lat="49.000141143799" lon="3.1881308555603"><ele></ele><time>2022-6-1T8:28:32Z</time></trkpt>
<trkpt lat="49.000164031982" lon="3.1883380413055"><ele></ele><time>2022-6-1T8:28:35Z</time></trkpt>
<trkpt lat="49.000183105469" lon="3.188538312912"><ele></ele><time>2022-6-1T8:28:38Z</time></trkpt>
<trkpt lat="49.000198364258" lon="3.188764333725"><ele></ele><time>2022-6-1T8:28:41Z</time></trkpt>
<trkpt lat="49.000213623047" lon="3.1890082359314"><ele></ele><time>2022-6-1T8:28:44Z</time></trkpt>
<trkpt lat="49.000232696533" lon="3.189252614975"><ele></ele><time>2022-6-1T8:28:47Z</time></trkpt>
<trkpt lat="49.000247955322" lon="3.1894869804382"><ele></ele><time>2022-6-1T8:28:50Z</time></trkpt>
<trkpt lat="49.000259399414" lon="3.1897025108337"><ele></ele><time>2022-6-1T8:28:53Z</time></trkpt>
<trkpt lat="49.000274658203" lon="3.1899020671844"><ele></ele><time>2022-6-1T8:28:56Z</time></trkpt>
<trkpt lat="49.000289916992" lon="3.1900849342346"><ele></ele><time>2022-6-1T8:28:59Z</time></trkpt>
<trkpt lat="49.000293731689" lon="3.190247297287"><ele></ele><time>2022-6-1T8:29:2Z</time></trkpt>
<trkpt lat="49.000293731689" lon="3.1903834342957"><ele></ele><time>2022-6-1T8:29:5Z</time></trkpt>
<trkpt lat="49.000305175781" lon="3.1905148029327"><ele></ele><time>2022-6-1T8:29:8Z</time></trkpt>
<trkpt lat="49.000328063965" lon="3.1906282901764"><ele></ele><time>2022-6-1T8:29:11Z</time></trkpt>
<trkpt lat="49.000335693359" lon="3.1907348632812"><ele></ele><time>2022-6-1T8:29:14Z</time></trkpt>
<trkpt lat="49.000335693359" lon="3.1907348632812"><ele></ele><time>2022-6-1T8:29:17Z</time></trkpt>
<trkpt lat="49.000339508057" lon="3.1908755302429"><ele></ele><time>2022-6-1T8:29:20Z</time></trkpt>
<trkpt lat="49.000339508057" lon="3.1908755302429"><ele></ele><time>2022-6-1T8:29:23Z</time></trkpt>
<trkpt lat="49.000328063965" lon="3.1912150382996"><ele></ele><time>2022-6-1T8:29:26Z</time></trkpt>
<trkpt lat="49.000335693359" lon="3.1915290355682"><ele></ele><time>2022-6-1T8:29:29Z</time></trkpt>
<trkpt lat="49.000350952148" lon="3.1916990280151"><ele></ele><time>2022-6-1T8:29:32Z</time></trkpt>
<trkpt lat="49.000385284424" lon="3.1918792724609"><ele></ele><time>2022-6-1T8:29:35Z</time></trkpt>
<trkpt lat="49.000427246094" lon="3.1920409202576"><ele></ele><time>2022-6-1T8:29:38Z</time></trkpt>
<trkpt lat="49.000450134277" lon="3.1921470165253"><ele></ele><time>2022-6-1T8:29:41Z</time></trkpt>
<trkpt lat="49.000450134277" lon="3.1921470165253"><ele></ele><time>2022-6-1T8:29:44Z</time></trkpt>
<trkpt lat="49.000469207764" lon="3.1922614574432"><ele></ele><time>2022-6-1T8:29:47Z</time></trkpt>
<trkpt lat="49.000469207764" lon="3.1922614574432"><ele></ele><time>2022-6-1T8:29:50Z</time></trkpt>
<trkpt lat="49.00053024292" lon="3.1927666664124"><ele></ele><time>2022-6-1T8:29:53Z</time></trkpt>
<trkpt lat="49.000476837158" lon="3.1929693222046"><ele></ele><time>2022-6-1T8:29:56Z</time></trkpt>
<trkpt lat="49.000476837158" lon="3.1929693222046"><ele></ele><time>2022-6-1T8:29:59Z</time></trkpt>
<trkpt lat="49.000381469727" lon="3.1931755542755"><ele></ele><time>2022-6-1T8:30:2Z</time></trkpt>
<trkpt lat="49.000274658203" lon="3.1934044361115"><ele></ele><time>2022-6-1T8:30:5Z</time></trkpt>
<trkpt lat="49.000175476074" lon="3.1936073303223"><ele></ele><time>2022-6-1T8:30:8Z</time></trkpt>
<trkpt lat="49.000175476074" lon="3.1936073303223"><ele></ele><time>2022-6-1T8:30:11Z</time></trkpt>
<trkpt lat="49.000102996826" lon="3.1937775611877"><ele></ele><time>2022-6-1T8:30:14Z</time></trkpt>
<trkpt lat="49.000057220459" lon="3.193895816803"><ele></ele><time>2022-6-1T8:30:17Z</time></trkpt>
<trkpt lat="49.000057220459" lon="3.193895816803"><ele></ele><time>2022-6-1T8:30:20Z</time></trkpt>
<trkpt lat="49.000057220459" lon="3.193895816803"><ele></ele><time>2022-6-1T8:30:23Z</time></trkpt>
<trkpt lat="48.999980926514" lon="3.1941044330597"><ele></ele><time>2022-6-1T8:30:26Z</time></trkpt>
<trkpt lat="48.999942779541" lon="3.1942524909973"><ele></ele><time>2022-6-1T8:30:29Z</time></trkpt>
<trkpt lat="48.999923706055" lon="3.1943807601929"><ele></ele><time>2022-6-1T8:30:32Z</time></trkpt>
<trkpt lat="48.999923706055" lon="3.1943807601929"><ele></ele><time>2022-6-1T8:30:35Z</time></trkpt>
<trkpt lat="48.999923706055" lon="3.1945099830627"><ele></ele><time>2022-6-1T8:30:38Z</time></trkpt>
<trkpt lat="48.999927520752" lon="3.1946358680725"><ele></ele><time>2022-6-1T8:30:41Z</time></trkpt>
<trkpt lat="48.999935150146" lon="3.1947426795959"><ele></ele><time>2022-6-1T8:30:44Z</time></trkpt>
<trkpt lat="48.999935150146" lon="3.1947426795959"><ele></ele><time>2022-6-1T8:30:47Z</time></trkpt>
<trkpt lat="48.999946594238" lon="3.1948676109314"><ele></ele><time>2022-6-1T8:30:50Z</time></trkpt>
<trkpt lat="48.999965667725" lon="3.195018529892"><ele></ele><time>2022-6-1T8:30:53Z</time></trkpt>
<trkpt lat="48.999984741211" lon="3.1951155662537"><ele></ele><time>2022-6-1T8:30:56Z</time></trkpt>
<trkpt lat="48.999984741211" lon="3.1951155662537"><ele></ele><time>2022-6-1T8:30:59Z</time></trkpt>
<trkpt lat="48.999984741211" lon="3.1951155662537"><ele></ele><time>2022-6-1T8:31:2Z</time></trkpt>
<trkpt lat="48.999996185303" lon="3.195220708847"><ele></ele><time>2022-6-1T8:31:5Z</time></trkpt>
<trkpt lat="48.999996185303" lon="3.195220708847"><ele></ele><time>2022-6-1T8:31:8Z</time></trkpt>
<trkpt lat="48.999996185303" lon="3.195220708847"><ele></ele><time>2022-6-1T8:31:11Z</time></trkpt>
<trkpt lat="48.999965667725" lon="3.1953067779541"><ele></ele><time>2022-6-1T8:31:14Z</time></trkpt>
<trkpt lat="48.999923706055" lon="3.1953918933868"><ele></ele><time>2022-6-1T8:31:17Z</time></trkpt>
<trkpt lat="48.999847412109" lon="3.1955325603485"><ele></ele><time>2022-6-1T8:31:20Z</time></trkpt>
<trkpt lat="48.999847412109" lon="3.1955325603485"><ele></ele><time>2022-6-1T8:31:23Z</time></trkpt>
<trkpt lat="48.99974822998" lon="3.1957261562347"><ele></ele><time>2022-6-1T8:31:26Z</time></trkpt>
<trkpt lat="48.999660491943" lon="3.1959118843079"><ele></ele><time>2022-6-1T8:31:29Z</time></trkpt>
<trkpt lat="48.999568939209" lon="3.196106672287"><ele></ele><time>2022-6-1T8:31:32Z</time></trkpt>
<trkpt lat="48.999568939209" lon="3.196106672287"><ele></ele><time>2022-6-1T8:31:35Z</time></trkpt>
<trkpt lat="48.99946975708" lon="3.1963112354279"><ele></ele><time>2022-6-1T8:31:38Z</time></trkpt>
<trkpt lat="48.999374389648" lon="3.1965446472168"><ele></ele><time>2022-6-1T8:31:41Z</time></trkpt>
<trkpt lat="48.999286651611" lon="3.1967821121216"><ele></ele><time>2022-6-1T8:31:44Z</time></trkpt>
<trkpt lat="48.999286651611" lon="3.1967821121216"><ele></ele><time>2022-6-1T8:31:47Z</time></trkpt>
<trkpt lat="48.999206542969" lon="3.1970376968384"><ele></ele><time>2022-6-1T8:31:50Z</time></trkpt>
<trkpt lat="48.999145507812" lon="3.1972734928131"><ele></ele><time>2022-6-1T8:31:53Z</time></trkpt>
<trkpt lat="48.999103546143" lon="3.1975157260895"><ele></ele><time>2022-6-1T8:31:56Z</time></trkpt>
<trkpt lat="48.999103546143" lon="3.1975157260895"><ele></ele><time>2022-6-1T8:31:59Z</time></trkpt>
<trkpt lat="48.99906539917" lon="3.1977751255035"><ele></ele><time>2022-6-1T8:32:2Z</time></trkpt>
<trkpt lat="48.99898147583" lon="3.1979367733002"><ele></ele><time>2022-6-1T8:32:5Z</time></trkpt>
<trkpt lat="48.998859405518" lon="3.1980571746826"><ele></ele><time>2022-6-1T8:32:8Z</time></trkpt>
<trkpt lat="48.998859405518" lon="3.1980571746826"><ele></ele><time>2022-6-1T8:32:11Z</time></trkpt>
<trkpt lat="48.998733520508" lon="3.19810795784"><ele></ele><time>2022-6-1T8:32:14Z</time></trkpt>
<trkpt lat="48.998580932617" lon="3.198162317276"><ele></ele><time>2022-6-1T8:32:17Z</time></trkpt>
<trkpt lat="48.998413085938" lon="3.1982183456421"><ele></ele><time>2022-6-1T8:32:20Z</time></trkpt>
<trkpt lat="48.998413085938" lon="3.1982183456421"><ele></ele><time>2022-6-1T8:32:23Z</time></trkpt>
<trkpt lat="48.998279571533" lon="3.1982719898224"><ele></ele><time>2022-6-1T8:32:26Z</time></trkpt>
<trkpt lat="48.998191833496" lon="3.1983413696289"><ele></ele><time>2022-6-1T8:32:29Z</time></trkpt>
<trkpt lat="48.998191833496" lon="3.1983413696289"><ele></ele><time>2022-6-1T8:32:32Z</time></trkpt>
<trkpt lat="48.998191833496" lon="3.1983413696289"><ele></ele><time>2022-6-1T8:32:35Z</time></trkpt>
<trkpt lat="48.998107910156" lon="3.198424577713"><ele></ele><time>2022-6-1T8:32:38Z</time></trkpt>
<trkpt lat="48.998107910156" lon="3.198424577713"><ele></ele><time>2022-6-1T8:32:41Z</time></trkpt>
<trkpt lat="48.998043060303" lon="3.1985039710999"><ele></ele><time>2022-6-1T8:32:44Z</time></trkpt>
<trkpt lat="48.998043060303" lon="3.1985039710999"><ele></ele><time>2022-6-1T8:32:47Z</time></trkpt>
<trkpt lat="48.998043060303" lon="3.1985039710999"><ele></ele><time>2022-6-1T8:32:50Z</time></trkpt>
<trkpt lat="48.997985839844" lon="3.1985764503479"><ele></ele><time>2022-6-1T8:32:53Z</time></trkpt>
<trkpt lat="48.997985839844" lon="3.1985764503479"><ele></ele><time>2022-6-1T8:32:56Z</time></trkpt>
<trkpt lat="48.997985839844" lon="3.1985764503479"><ele></ele><time>2022-6-1T8:32:59Z</time></trkpt>
<trkpt lat="48.997928619385" lon="3.1986536979675"><ele></ele><time>2022-6-1T8:33:2Z</time></trkpt>
<trkpt lat="48.997928619385" lon="3.1986536979675"><ele></ele><time>2022-6-1T8:33:5Z</time></trkpt>
<trkpt lat="48.997882843018" lon="3.1987252235413"><ele></ele><time>2022-6-1T8:33:8Z</time></trkpt>
<trkpt lat="48.997882843018" lon="3.1987252235413"><ele></ele><time>2022-6-1T8:33:11Z</time></trkpt>
<trkpt lat="48.99783706665" lon="3.1986515522003"><ele></ele><time>2022-6-1T8:33:14Z</time></trkpt>
<trkpt lat="48.99783706665" lon="3.1986515522003"><ele></ele><time>2022-6-1T8:33:17Z</time></trkpt>
<trkpt lat="48.997787475586" lon="3.198558807373"><ele></ele><time>2022-6-1T8:33:20Z</time></trkpt>
<trkpt lat="48.997787475586" lon="3.198558807373"><ele></ele><time>2022-6-1T8:33:23Z</time></trkpt>
<trkpt lat="48.997787475586" lon="3.198558807373"><ele></ele><time>2022-6-1T8:33:26Z</time></trkpt>
<trkpt lat="48.997821807861" lon="3.1986339092255"><ele></ele><time>2022-6-1T8:33:29Z</time></trkpt>
<trkpt lat="48.997821807861" lon="3.1986339092255"><ele></ele><time>2022-6-1T8:33:32Z</time></trkpt>
<trkpt lat="48.997756958008" lon="3.1986105442047"><ele></ele><time>2022-6-1T8:33:35Z</time></trkpt>
<trkpt lat="48.997756958008" lon="3.1986105442047"><ele></ele><time>2022-6-1T8:33:38Z</time></trkpt>
<trkpt lat="48.99768447876" lon="3.1985042095184"><ele></ele><time>2022-6-1T8:33:41Z</time></trkpt>
<trkpt lat="48.99768447876" lon="3.1985042095184"><ele></ele><time>2022-6-1T8:33:44Z</time></trkpt>
<trkpt lat="48.997619628906" lon="3.1984043121338"><ele></ele><time>2022-6-1T8:33:47Z</time></trkpt>
<trkpt lat="48.997539520264" lon="3.1983153820038"><ele></ele><time>2022-6-1T8:33:50Z</time></trkpt>
<trkpt lat="48.997539520264" lon="3.1983153820038"><ele></ele><time>2022-6-1T8:33:53Z</time></trkpt>
<trkpt lat="48.997478485107" lon="3.1982202529907"><ele></ele><time>2022-6-1T8:33:56Z</time></trkpt>
<trkpt lat="48.997478485107" lon="3.1982202529907"><ele></ele><time>2022-6-1T8:33:59Z</time></trkpt>
<trkpt lat="48.997417449951" lon="3.1981394290924"><ele></ele><time>2022-6-1T8:34:2Z</time></trkpt>
<trkpt lat="48.997352600098" lon="3.198050737381"><ele></ele><time>2022-6-1T8:34:5Z</time></trkpt>
<trkpt lat="48.997268676758" lon="3.197958946228"><ele></ele><time>2022-6-1T8:34:8Z</time></trkpt>
<trkpt lat="48.997219085693" lon="3.1979122161865"><ele></ele><time>2022-6-1T8:34:11Z</time></trkpt>
<trkpt lat="48.997123718262" lon="3.1978142261505"><ele></ele><time>2022-6-1T8:34:14Z</time></trkpt>
<trkpt lat="48.997066497803" lon="3.1977491378784"><ele></ele><time>2022-6-1T8:34:17Z</time></trkpt>
<trkpt lat="48.997001647949" lon="3.1976673603058"><ele></ele><time>2022-6-1T8:34:20Z</time></trkpt>
<trkpt lat="48.996940612793" lon="3.1975848674774"><ele></ele><time>2022-6-1T8:34:23Z</time></trkpt>
<trkpt lat="48.996879577637" lon="3.1975014209747"><ele></ele><time>2022-6-1T8:34:26Z</time></trkpt>
<trkpt lat="48.996814727783" lon="3.1974127292633"><ele></ele><time>2022-6-1T8:34:29Z</time></trkpt>
<trkpt lat="48.996761322021" lon="3.1973352432251"><ele></ele><time>2022-6-1T8:34:32Z</time></trkpt>
<trkpt lat="48.996719360352" lon="3.1972630023956"><ele></ele><time>2022-6-1T8:34:35Z</time></trkpt>
<trkpt lat="48.996719360352" lon="3.1972630023956"><ele></ele><time>2022-6-1T8:34:38Z</time></trkpt>
<trkpt lat="48.996639251709" lon="3.1971678733826"><ele></ele><time>2022-6-1T8:34:41Z</time></trkpt>
<trkpt lat="48.996639251709" lon="3.1971678733826"><ele></ele><time>2022-6-1T8:34:44Z</time></trkpt>
<trkpt lat="48.996559143066" lon="3.1970789432526"><ele></ele><time>2022-6-1T8:34:47Z</time></trkpt>
<trkpt lat="48.996501922607" lon="3.1970283985138"><ele></ele><time>2022-6-1T8:34:50Z</time></trkpt>
<trkpt lat="48.996444702148" lon="3.1969978809357"><ele></ele><time>2022-6-1T8:34:53Z</time></trkpt>
<trkpt lat="48.99634552002" lon="3.1969602108002"><ele></ele><time>2022-6-1T8:34:56Z</time></trkpt>
<trkpt lat="48.99634552002" lon="3.1969602108002"><ele></ele><time>2022-6-1T8:34:59Z</time></trkpt>
<trkpt lat="48.996269226074" lon="3.1969270706177"><ele></ele><time>2022-6-1T8:35:2Z</time></trkpt>
<trkpt lat="48.996269226074" lon="3.1969270706177"><ele></ele><time>2022-6-1T8:35:5Z</time></trkpt>
<trkpt lat="48.996185302734" lon="3.1968867778778"><ele></ele><time>2022-6-1T8:35:8Z</time></trkpt>
<trkpt lat="48.996185302734" lon="3.1968867778778"><ele></ele><time>2022-6-1T8:35:11Z</time></trkpt>
<trkpt lat="48.996116638184" lon="3.196861743927"><ele></ele><time>2022-6-1T8:35:14Z</time></trkpt>
<trkpt lat="48.996116638184" lon="3.196861743927"><ele></ele><time>2022-6-1T8:35:17Z</time></trkpt>
<trkpt lat="48.996116638184" lon="3.196861743927"><ele></ele><time>2022-6-1T8:35:20Z</time></trkpt>
<trkpt lat="48.996116638184" lon="3.196861743927"><ele></ele><time>2022-6-1T8:35:23Z</time></trkpt>
<trkpt lat="48.996006011963" lon="3.1970899105072"><ele></ele><time>2022-6-1T8:35:26Z</time></trkpt>
<trkpt lat="48.996017456055" lon="3.1972267627716"><ele></ele><time>2022-6-1T8:35:29Z</time></trkpt>
<trkpt lat="48.996017456055" lon="3.1972267627716"><ele></ele><time>2022-6-1T8:35:32Z</time></trkpt>
<trkpt lat="48.996025085449" lon="3.1973555088043"><ele></ele><time>2022-6-1T8:35:35Z</time></trkpt>
<trkpt lat="48.996025085449" lon="3.1973555088043"><ele></ele><time>2022-6-1T8:35:38Z</time></trkpt>
<trkpt lat="48.996025085449" lon="3.1973555088043"><ele></ele><time>2022-6-1T8:35:41Z</time></trkpt>
<trkpt lat="48.996021270752" lon="3.1974489688873"><ele></ele><time>2022-6-1T8:35:44Z</time></trkpt>
<trkpt lat="48.996021270752" lon="3.1974489688873"><ele></ele><time>2022-6-1T8:35:47Z</time></trkpt>
<trkpt lat="48.996021270752" lon="3.1974489688873"><ele></ele><time>2022-6-1T8:35:50Z</time></trkpt>
<trkpt lat="48.996013641357" lon="3.1975493431091"><ele></ele><time>2022-6-1T8:35:53Z</time></trkpt>
<trkpt lat="48.99600982666" lon="3.1976375579834"><ele></ele><time>2022-6-1T8:35:56Z</time></trkpt>
<trkpt lat="48.99600982666" lon="3.1976375579834"><ele></ele><time>2022-6-1T8:35:59Z</time></trkpt>
<trkpt lat="48.99600982666" lon="3.1976375579834"><ele></ele><time>2022-6-1T8:36:2Z</time></trkpt>
<trkpt lat="48.99600982666" lon="3.1976375579834"><ele></ele><time>2022-6-1T8:36:5Z</time></trkpt>
<trkpt lat="48.996013641357" lon="3.1977360248566"><ele></ele><time>2022-6-1T8:36:8Z</time></trkpt>
<trkpt lat="48.996013641357" lon="3.1977360248566"><ele></ele><time>2022-6-1T8:36:11Z</time></trkpt>
<trkpt lat="48.996013641357" lon="3.1977360248566"><ele></ele><time>2022-6-1T8:36:14Z</time></trkpt>
<trkpt lat="48.996013641357" lon="3.1977360248566"><ele></ele><time>2022-6-1T8:36:17Z</time></trkpt>
<trkpt lat="48.996013641357" lon="3.1977360248566"><ele></ele><time>2022-6-1T8:36:20Z</time></trkpt>
<trkpt lat="48.996013641357" lon="3.1978676319122"><ele></ele><time>2022-6-1T8:36:23Z</time></trkpt>
<trkpt lat="48.996032714844" lon="3.1979508399963"><ele></ele><time>2022-6-1T8:36:26Z</time></trkpt>
<trkpt lat="48.996032714844" lon="3.1979508399963"><ele></ele><time>2022-6-1T8:36:29Z</time></trkpt>
<trkpt lat="48.996067047119" lon="3.1980662345886"><ele></ele><time>2022-6-1T8:36:32Z</time></trkpt>
<trkpt lat="48.996067047119" lon="3.1980662345886"><ele></ele><time>2022-6-1T8:36:35Z</time></trkpt>
<trkpt lat="48.996067047119" lon="3.1980662345886"><ele></ele><time>2022-6-1T8:36:38Z</time></trkpt>
<trkpt lat="48.99609375" lon="3.1981594562531"><ele></ele><time>2022-6-1T8:36:41Z</time></trkpt>
<trkpt lat="48.99609375" lon="3.1981594562531"><ele></ele><time>2022-6-1T8:36:44Z</time></trkpt>
<trkpt lat="48.996131896973" lon="3.1982583999634"><ele></ele><time>2022-6-1T8:36:47Z</time></trkpt>
<trkpt lat="48.996192932129" lon="3.1983668804169"><ele></ele><time>2022-6-1T8:36:50Z</time></trkpt>
<trkpt lat="48.996227264404" lon="3.1984722614288"><ele></ele><time>2022-6-1T8:36:53Z</time></trkpt>
<trkpt lat="48.996227264404" lon="3.1984722614288"><ele></ele><time>2022-6-1T8:36:56Z</time></trkpt>
<trkpt lat="48.996250152588" lon="3.1985740661621"><ele></ele><time>2022-6-1T8:36:59Z</time></trkpt>
<trkpt lat="48.996269226074" lon="3.1986837387085"><ele></ele><time>2022-6-1T8:37:2Z</time></trkpt>
<trkpt lat="48.996276855469" lon="3.1988089084625"><ele></ele><time>2022-6-1T8:37:5Z</time></trkpt>
<trkpt lat="48.996276855469" lon="3.1988089084625"><ele></ele><time>2022-6-1T8:37:8Z</time></trkpt>
<trkpt lat="48.996269226074" lon="3.1989059448242"><ele></ele><time>2022-6-1T8:37:11Z</time></trkpt>
<trkpt lat="48.996269226074" lon="3.1989059448242"><ele></ele><time>2022-6-1T8:37:14Z</time></trkpt>
<trkpt lat="48.996257781982" lon="3.1990203857422"><ele></ele><time>2022-6-1T8:37:17Z</time></trkpt>
<trkpt lat="48.996257781982" lon="3.1990203857422"><ele></ele><time>2022-6-1T8:37:20Z</time></trkpt>
<trkpt lat="48.996242523193" lon="3.1991205215454"><ele></ele><time>2022-6-1T8:37:23Z</time></trkpt>
<trkpt lat="48.996242523193" lon="3.1991205215454"><ele></ele><time>2022-6-1T8:37:26Z</time></trkpt>
<trkpt lat="48.996231079102" lon="3.1992170810699"><ele></ele><time>2022-6-1T8:37:29Z</time></trkpt>
<trkpt lat="48.996231079102" lon="3.1992170810699"><ele></ele><time>2022-6-1T8:37:32Z</time></trkpt>
<trkpt lat="48.996215820312" lon="3.1993186473846"><ele></ele><time>2022-6-1T8:37:35Z</time></trkpt>
<trkpt lat="48.996196746826" lon="3.1994256973267"><ele></ele><time>2022-6-1T8:37:38Z</time></trkpt>
<trkpt lat="48.996196746826" lon="3.1994256973267"><ele></ele><time>2022-6-1T8:37:41Z</time></trkpt>
<trkpt lat="48.99617767334" lon="3.199517250061"><ele></ele><time>2022-6-1T8:37:44Z</time></trkpt>
<trkpt lat="48.99617767334" lon="3.199517250061"><ele></ele><time>2022-6-1T8:37:47Z</time></trkpt>
<trkpt lat="48.996154785156" lon="3.1995956897736"><ele></ele><time>2022-6-1T8:37:50Z</time></trkpt>
<trkpt lat="48.996154785156" lon="3.1995956897736"><ele></ele><time>2022-6-1T8:37:53Z</time></trkpt>
<trkpt lat="48.996128082275" lon="3.1996791362762"><ele></ele><time>2022-6-1T8:37:56Z</time></trkpt>
<trkpt lat="48.996128082275" lon="3.1996791362762"><ele></ele><time>2022-6-1T8:37:59Z</time></trkpt>
<trkpt lat="48.996128082275" lon="3.1996791362762"><ele></ele><time>2022-6-1T8:38:2Z</time></trkpt>
<trkpt lat="48.996112823486" lon="3.1997392177582"><ele></ele><time>2022-6-1T8:38:5Z</time></trkpt>
<trkpt lat="48.996097564697" lon="3.1997957229614"><ele></ele><time>2022-6-1T8:38:8Z</time></trkpt>
<trkpt lat="48.996086120605" lon="3.1998479366302"><ele></ele><time>2022-6-1T8:38:11Z</time></trkpt>
<trkpt lat="48.996070861816" lon="3.1998934745789"><ele></ele><time>2022-6-1T8:38:14Z</time></trkpt>
<trkpt lat="48.996059417725" lon="3.1999390125275"><ele></ele><time>2022-6-1T8:38:17Z</time></trkpt>
<trkpt lat="48.996028900146" lon="3.2000284194946"><ele></ele><time>2022-6-1T8:38:20Z</time></trkpt>
<trkpt lat="48.995986938477" lon="3.2000980377197"><ele></ele><time>2022-6-1T8:38:23Z</time></trkpt>
<trkpt lat="48.995952606201" lon="3.2001714706421"><ele></ele><time>2022-6-1T8:38:26Z</time></trkpt>
<trkpt lat="48.995952606201" lon="3.2001714706421"><ele></ele><time>2022-6-1T8:38:29Z</time></trkpt>
<trkpt lat="48.995914459229" lon="3.200248003006"><ele></ele><time>2022-6-1T8:38:32Z</time></trkpt>
<trkpt lat="48.995876312256" lon="3.200320482254"><ele></ele><time>2022-6-1T8:38:35Z</time></trkpt>
<trkpt lat="48.99584197998" lon="3.200394153595"><ele></ele><time>2022-6-1T8:38:38Z</time></trkpt>
<trkpt lat="48.99584197998" lon="3.200394153595"><ele></ele><time>2022-6-1T8:38:41Z</time></trkpt>
<trkpt lat="48.99584197998" lon="3.200394153595"><ele></ele><time>2022-6-1T8:38:44Z</time></trkpt>
<trkpt lat="48.995807647705" lon="3.2004928588867"><ele></ele><time>2022-6-1T8:38:47Z</time></trkpt>
<trkpt lat="48.995807647705" lon="3.2004928588867"><ele></ele><time>2022-6-1T8:38:50Z</time></trkpt>
<trkpt lat="48.995807647705" lon="3.2004928588867"><ele></ele><time>2022-6-1T8:38:53Z</time></trkpt>
<trkpt lat="48.995788574219" lon="3.2005836963654"><ele></ele><time>2022-6-1T8:38:56Z</time></trkpt>
<trkpt lat="48.995788574219" lon="3.2005836963654"><ele></ele><time>2022-6-1T8:38:59Z</time></trkpt>
<trkpt lat="48.995777130127" lon="3.2006709575653"><ele></ele><time>2022-6-1T8:39:2Z</time></trkpt>
<trkpt lat="48.995784759521" lon="3.20077252388"><ele></ele><time>2022-6-1T8:39:5Z</time></trkpt>
<trkpt lat="48.995780944824" lon="3.200865983963"><ele></ele><time>2022-6-1T8:39:8Z</time></trkpt>
<trkpt lat="48.995780944824" lon="3.200865983963"><ele></ele><time>2022-6-1T8:39:11Z</time></trkpt>
<trkpt lat="48.995738983154" lon="3.2007913589478"><ele></ele><time>2022-6-1T8:39:14Z</time></trkpt>
<trkpt lat="48.995738983154" lon="3.2007913589478"><ele></ele><time>2022-6-1T8:39:17Z</time></trkpt>
<trkpt lat="48.995738983154" lon="3.2007913589478"><ele></ele><time>2022-6-1T8:39:20Z</time></trkpt>
<trkpt lat="48.995697021484" lon="3.2006568908691"><ele></ele><time>2022-6-1T8:39:23Z</time></trkpt>
<trkpt lat="48.995697021484" lon="3.2006568908691"><ele></ele><time>2022-6-1T8:39:26Z</time></trkpt>
<trkpt lat="48.99564743042" lon="3.2005107402802"><ele></ele><time>2022-6-1T8:39:29Z</time></trkpt>
<trkpt lat="48.995590209961" lon="3.200355052948"><ele></ele><time>2022-6-1T8:39:32Z</time></trkpt>
<trkpt lat="48.995590209961" lon="3.200355052948"><ele></ele><time>2022-6-1T8:39:35Z</time></trkpt>
<trkpt lat="48.995552062988" lon="3.2002711296082"><ele></ele><time>2022-6-1T8:39:38Z</time></trkpt>
<trkpt lat="48.99547958374" lon="3.200115442276"><ele></ele><time>2022-6-1T8:39:41Z</time></trkpt>
<trkpt lat="48.99547958374" lon="3.200115442276"><ele></ele><time>2022-6-1T8:39:44Z</time></trkpt>
<trkpt lat="48.995422363281" lon="3.2000105381012"><ele></ele><time>2022-6-1T8:39:47Z</time></trkpt>
<trkpt lat="48.995372772217" lon="3.1999063491821"><ele></ele><time>2022-6-1T8:39:50Z</time></trkpt>
<trkpt lat="48.995319366455" lon="3.1998059749603"><ele></ele><time>2022-6-1T8:39:53Z</time></trkpt>
<trkpt lat="48.995319366455" lon="3.1998059749603"><ele></ele><time>2022-6-1T8:39:56Z</time></trkpt>
<trkpt lat="48.995273590088" lon="3.1997146606445"><ele></ele><time>2022-6-1T8:39:59Z</time></trkpt>
<trkpt lat="48.995216369629" lon="3.1995913982391"><ele></ele><time>2022-6-1T8:40:2Z</time></trkpt>
<trkpt lat="48.995216369629" lon="3.1995913982391"><ele></ele><time>2022-6-1T8:40:5Z</time></trkpt>
<trkpt lat="48.995166778564" lon="3.1995208263397"><ele></ele><time>2022-6-1T8:40:8Z</time></trkpt>
<trkpt lat="48.9951171875" lon="3.1994380950928"><ele></ele><time>2022-6-1T8:40:11Z</time></trkpt>
<trkpt lat="48.995071411133" lon="3.1993622779846"><ele></ele><time>2022-6-1T8:40:14Z</time></trkpt>
<trkpt lat="48.995071411133" lon="3.1993622779846"><ele></ele><time>2022-6-1T8:40:17Z</time></trkpt>
<trkpt lat="48.994941711426" lon="3.1992137432098"><ele></ele><time>2022-6-1T8:40:20Z</time></trkpt>
<trkpt lat="48.994941711426" lon="3.1992137432098"><ele></ele><time>2022-6-1T8:40:23Z</time></trkpt>
<trkpt lat="48.994823455811" lon="3.1990694999695"><ele></ele><time>2022-6-1T8:40:26Z</time></trkpt>
<trkpt lat="48.99475479126" lon="3.1989893913269"><ele></ele><time>2022-6-1T8:40:29Z</time></trkpt>
<trkpt lat="48.99475479126" lon="3.1989893913269"><ele></ele><time>2022-6-1T8:40:32Z</time></trkpt>
<trkpt lat="48.994632720947" lon="3.1988339424133"><ele></ele><time>2022-6-1T8:40:35Z</time></trkpt>
<trkpt lat="48.994632720947" lon="3.1988339424133"><ele></ele><time>2022-6-1T8:40:38Z</time></trkpt>
<trkpt lat="48.994567871094" lon="3.1987352371216"><ele></ele><time>2022-6-1T8:40:41Z</time></trkpt>
<trkpt lat="48.994567871094" lon="3.1987352371216"><ele></ele><time>2022-6-1T8:40:44Z</time></trkpt>
<trkpt lat="48.994567871094" lon="3.1987352371216"><ele></ele><time>2022-6-1T8:40:47Z</time></trkpt>
<trkpt lat="48.994567871094" lon="3.1987352371216"><ele></ele><time>2022-6-1T8:40:50Z</time></trkpt>
<trkpt lat="48.994567871094" lon="3.1987352371216"><ele></ele><time>2022-6-1T8:40:53Z</time></trkpt>
<trkpt lat="48.994567871094" lon="3.1987352371216"><ele></ele><time>2022-6-1T8:40:56Z</time></trkpt>
<trkpt lat="48.994487762451" lon="3.1986951828003"><ele></ele><time>2022-6-1T8:40:59Z</time></trkpt>
<trkpt lat="48.994487762451" lon="3.1986951828003"><ele></ele><time>2022-6-1T8:41:2Z</time></trkpt>
<trkpt lat="48.994487762451" lon="3.1986951828003"><ele></ele><time>2022-6-1T8:41:5Z</time></trkpt>
<trkpt lat="48.994487762451" lon="3.1986951828003"><ele></ele><time>2022-6-1T8:41:8Z</time></trkpt>
<trkpt lat="48.994487762451" lon="3.1986951828003"><ele></ele><time>2022-6-1T8:41:11Z</time></trkpt>
<trkpt lat="48.994487762451" lon="3.1986951828003"><ele></ele><time>2022-6-1T8:41:14Z</time></trkpt>
<trkpt lat="48.994487762451" lon="3.1986951828003"><ele></ele><time>2022-6-1T8:41:17Z</time></trkpt>
<trkpt lat="48.994487762451" lon="3.1986951828003"><ele></ele><time>2022-6-1T8:41:20Z</time></trkpt>
<trkpt lat="48.994304656982" lon="3.1987700462341"><ele></ele><time>2022-6-1T8:41:23Z</time></trkpt>
<trkpt lat="48.994304656982" lon="3.1987700462341"><ele></ele><time>2022-6-1T8:41:26Z</time></trkpt>
<trkpt lat="48.994304656982" lon="3.1987700462341"><ele></ele><time>2022-6-1T8:41:29Z</time></trkpt>
<trkpt lat="48.994304656982" lon="3.1987700462341"><ele></ele><time>2022-6-1T8:41:32Z</time></trkpt>
<trkpt lat="48.994243621826" lon="3.1989006996155"><ele></ele><time>2022-6-1T8:41:35Z</time></trkpt>
<trkpt lat="48.994243621826" lon="3.1989006996155"><ele></ele><time>2022-6-1T8:41:38Z</time></trkpt>
<trkpt lat="48.994243621826" lon="3.1989006996155"><ele></ele><time>2022-6-1T8:41:41Z</time></trkpt>
<trkpt lat="48.994274139404" lon="3.1987292766571"><ele></ele><time>2022-6-1T8:41:44Z</time></trkpt>
<trkpt lat="48.99426651001" lon="3.198894739151"><ele></ele><time>2022-6-1T8:41:47Z</time></trkpt>
<trkpt lat="48.99426651001" lon="3.198894739151"><ele></ele><time>2022-6-1T8:41:50Z</time></trkpt>
<trkpt lat="48.99426651001" lon="3.198894739151"><ele></ele><time>2022-6-1T8:41:53Z</time></trkpt>
<trkpt lat="48.99426651001" lon="3.198894739151"><ele></ele><time>2022-6-1T8:41:56Z</time></trkpt>
<trkpt lat="48.99426651001" lon="3.198894739151"><ele></ele><time>2022-6-1T8:41:59Z</time></trkpt>
<trkpt lat="48.99426651001" lon="3.198894739151"><ele></ele><time>2022-6-1T8:42:2Z</time></trkpt>
<trkpt lat="48.99426651001" lon="3.198894739151"><ele></ele><time>2022-6-1T8:42:5Z</time></trkpt>
<trkpt lat="48.99426651001" lon="3.198894739151"><ele></ele><time>2022-6-1T8:42:8Z</time></trkpt>
<trkpt lat="48.994167327881" lon="3.1990301609039"><ele></ele><time>2022-6-1T8:42:11Z</time></trkpt>
<trkpt lat="48.994167327881" lon="3.1990301609039"><ele></ele><time>2022-6-1T8:42:14Z</time></trkpt>
<trkpt lat="48.994167327881" lon="3.1990301609039"><ele></ele><time>2022-6-1T8:42:17Z</time></trkpt>
<trkpt lat="48.994167327881" lon="3.1990301609039"><ele></ele><time>2022-6-1T8:42:20Z</time></trkpt>
<trkpt lat="48.994167327881" lon="3.1990301609039"><ele></ele><time>2022-6-1T8:42:23Z</time></trkpt>
<trkpt lat="48.993518829346" lon="3.1993551254272"><ele></ele><time>2022-6-1T8:42:26Z</time></trkpt>
<trkpt lat="48.993518829346" lon="3.1993551254272"><ele></ele><time>2022-6-1T8:42:29Z</time></trkpt>
<trkpt lat="48.993518829346" lon="3.1993551254272"><ele></ele><time>2022-6-1T8:42:32Z</time></trkpt>
<trkpt lat="48.993518829346" lon="3.1993551254272"><ele></ele><time>2022-6-1T8:42:35Z</time></trkpt>
<trkpt lat="48.993453979492" lon="3.1994659900665"><ele></ele><time>2022-6-1T8:42:38Z</time></trkpt>
<trkpt lat="48.993453979492" lon="3.1994659900665"><ele></ele><time>2022-6-1T8:42:41Z</time></trkpt>
<trkpt lat="48.993453979492" lon="3.1994659900665"><ele></ele><time>2022-6-1T8:42:44Z</time></trkpt>
<trkpt lat="48.993244171143" lon="3.1996824741364"><ele></ele><time>2022-6-1T8:42:47Z</time></trkpt>
<trkpt lat="48.993198394775" lon="3.1997494697571"><ele></ele><time>2022-6-1T8:42:50Z</time></trkpt>
<trkpt lat="48.993198394775" lon="3.1997494697571"><ele></ele><time>2022-6-1T8:42:53Z</time></trkpt>
<trkpt lat="48.993144989014" lon="3.1998126506805"><ele></ele><time>2022-6-1T8:42:56Z</time></trkpt>
<trkpt lat="48.993106842041" lon="3.1998946666718"><ele></ele><time>2022-6-1T8:42:59Z</time></trkpt>
<trkpt lat="48.993106842041" lon="3.1998946666718"><ele></ele><time>2022-6-1T8:43:2Z</time></trkpt>
<trkpt lat="48.993053436279" lon="3.1999590396881"><ele></ele><time>2022-6-1T8:43:5Z</time></trkpt>
<trkpt lat="48.993053436279" lon="3.1999590396881"><ele></ele><time>2022-6-1T8:43:8Z</time></trkpt>
<trkpt lat="48.993053436279" lon="3.1999590396881"><ele></ele><time>2022-6-1T8:43:11Z</time></trkpt>
<trkpt lat="48.993007659912" lon="3.2000107765198"><ele></ele><time>2022-6-1T8:43:14Z</time></trkpt>
<trkpt lat="48.993007659912" lon="3.2000107765198"><ele></ele><time>2022-6-1T8:43:17Z</time></trkpt>
<trkpt lat="48.99295425415" lon="3.2000753879547"><ele></ele><time>2022-6-1T8:43:20Z</time></trkpt>
<trkpt lat="48.992904663086" lon="3.2001526355743"><ele></ele><time>2022-6-1T8:43:23Z</time></trkpt>
<trkpt lat="48.992851257324" lon="3.2002389431"><ele></ele><time>2022-6-1T8:43:26Z</time></trkpt>
<trkpt lat="48.992797851562" lon="3.2002844810486"><ele></ele><time>2022-6-1T8:43:29Z</time></trkpt>
<trkpt lat="48.992748260498" lon="3.2003281116486"><ele></ele><time>2022-6-1T8:43:32Z</time></trkpt>
<trkpt lat="48.992698669434" lon="3.2003717422485"><ele></ele><time>2022-6-1T8:43:35Z</time></trkpt>
<trkpt lat="48.992649078369" lon="3.200430393219"><ele></ele><time>2022-6-1T8:43:38Z</time></trkpt>
<trkpt lat="48.992626190186" lon="3.2004795074463"><ele></ele><time>2022-6-1T8:43:41Z</time></trkpt>
<trkpt lat="48.992603302002" lon="3.2005178928375"><ele></ele><time>2022-6-1T8:43:44Z</time></trkpt>
<trkpt lat="48.992584228516" lon="3.2005498409271"><ele></ele><time>2022-6-1T8:43:47Z</time></trkpt>
<trkpt lat="48.992584228516" lon="3.2005498409271"><ele></ele><time>2022-6-1T8:43:50Z</time></trkpt>
<trkpt lat="48.99254989624" lon="3.2005939483643"><ele></ele><time>2022-6-1T8:43:53Z</time></trkpt>
<trkpt lat="48.992519378662" lon="3.2006330490112"><ele></ele><time>2022-6-1T8:43:56Z</time></trkpt>
<trkpt lat="48.992496490479" lon="3.2006721496582"><ele></ele><time>2022-6-1T8:43:59Z</time></trkpt>
<trkpt lat="48.992477416992" lon="3.2007105350494"><ele></ele><time>2022-6-1T8:44:2Z</time></trkpt>
<trkpt lat="48.992454528809" lon="3.2007427215576"><ele></ele><time>2022-6-1T8:44:5Z</time></trkpt>
<trkpt lat="48.992454528809" lon="3.2007427215576"><ele></ele><time>2022-6-1T8:44:8Z</time></trkpt>
<trkpt lat="48.992393493652" lon="3.2008280754089"><ele></ele><time>2022-6-1T8:44:11Z</time></trkpt>
<trkpt lat="48.992393493652" lon="3.2008280754089"><ele></ele><time>2022-6-1T8:44:14Z</time></trkpt>
<trkpt lat="48.992347717285" lon="3.2008845806122"><ele></ele><time>2022-6-1T8:44:17Z</time></trkpt>
<trkpt lat="48.992290496826" lon="3.2009544372559"><ele></ele><time>2022-6-1T8:44:20Z</time></trkpt>
<trkpt lat="48.992240905762" lon="3.2010140419006"><ele></ele><time>2022-6-1T8:44:23Z</time></trkpt>
<trkpt lat="48.992240905762" lon="3.2010140419006"><ele></ele><time>2022-6-1T8:44:26Z</time></trkpt>
<trkpt lat="48.992206573486" lon="3.2010850906372"><ele></ele><time>2022-6-1T8:44:29Z</time></trkpt>
<trkpt lat="48.992206573486" lon="3.2010850906372"><ele></ele><time>2022-6-1T8:44:32Z</time></trkpt>
<trkpt lat="48.992160797119" lon="3.2011623382568"><ele></ele><time>2022-6-1T8:44:35Z</time></trkpt>
<trkpt lat="48.992111206055" lon="3.201235294342"><ele></ele><time>2022-6-1T8:44:38Z</time></trkpt>
<trkpt lat="48.992050170898" lon="3.2013027667999"><ele></ele><time>2022-6-1T8:44:41Z</time></trkpt>
<trkpt lat="48.991989135742" lon="3.2013714313507"><ele></ele><time>2022-6-1T8:44:44Z</time></trkpt>
<trkpt lat="48.991943359375" lon="3.2014508247375"><ele></ele><time>2022-6-1T8:44:47Z</time></trkpt>
<trkpt lat="48.991943359375" lon="3.2014508247375"><ele></ele><time>2022-6-1T8:44:50Z</time></trkpt>
<trkpt lat="48.991943359375" lon="3.2014508247375"><ele></ele><time>2022-6-1T8:44:53Z</time></trkpt>
<trkpt lat="48.991905212402" lon="3.2015581130981"><ele></ele><time>2022-6-1T8:44:56Z</time></trkpt>
<trkpt lat="48.991855621338" lon="3.2016229629517"><ele></ele><time>2022-6-1T8:44:59Z</time></trkpt>
<trkpt lat="48.991809844971" lon="3.2016792297363"><ele></ele><time>2022-6-1T8:45:2Z</time></trkpt>
<trkpt lat="48.991809844971" lon="3.2016792297363"><ele></ele><time>2022-6-1T8:45:5Z</time></trkpt>
<trkpt lat="48.991771697998" lon="3.2017509937286"><ele></ele><time>2022-6-1T8:45:8Z</time></trkpt>
<trkpt lat="48.991771697998" lon="3.2017509937286"><ele></ele><time>2022-6-1T8:45:11Z</time></trkpt>
<trkpt lat="48.991722106934" lon="3.2018122673035"><ele></ele><time>2022-6-1T8:45:14Z</time></trkpt>
<trkpt lat="48.991672515869" lon="3.2019240856171"><ele></ele><time>2022-6-1T8:45:17Z</time></trkpt>
<trkpt lat="48.991672515869" lon="3.2019240856171"><ele></ele><time>2022-6-1T8:45:20Z</time></trkpt>
<trkpt lat="48.991645812988" lon="3.2020177841187"><ele></ele><time>2022-6-1T8:45:23Z</time></trkpt>
<trkpt lat="48.991645812988" lon="3.2020177841187"><ele></ele><time>2022-6-1T8:45:26Z</time></trkpt>
<trkpt lat="48.991596221924" lon="3.20210313797"><ele></ele><time>2022-6-1T8:45:29Z</time></trkpt>
<trkpt lat="48.991554260254" lon="3.2021908760071"><ele></ele><time>2022-6-1T8:45:32Z</time></trkpt>
<trkpt lat="48.991508483887" lon="3.2022688388824"><ele></ele><time>2022-6-1T8:45:35Z</time></trkpt>
<trkpt lat="48.991508483887" lon="3.2022688388824"><ele></ele><time>2022-6-1T8:45:38Z</time></trkpt>
<trkpt lat="48.991470336914" lon="3.2023532390594"><ele></ele><time>2022-6-1T8:45:41Z</time></trkpt>
<trkpt lat="48.991436004639" lon="3.2024643421173"><ele></ele><time>2022-6-1T8:45:44Z</time></trkpt>
<trkpt lat="48.991371154785" lon="3.2025392055511"><ele></ele><time>2022-6-1T8:45:47Z</time></trkpt>
<trkpt lat="48.991333007812" lon="3.2026169300079"><ele></ele><time>2022-6-1T8:45:50Z</time></trkpt>
<trkpt lat="48.991260528564" lon="3.2027816772461"><ele></ele><time>2022-6-1T8:45:53Z</time></trkpt>
<trkpt lat="48.991226196289" lon="3.2028489112854"><ele></ele><time>2022-6-1T8:45:56Z</time></trkpt>
<trkpt lat="48.991157531738" lon="3.2029688358307"><ele></ele><time>2022-6-1T8:45:59Z</time></trkpt>
<trkpt lat="48.991130828857" lon="3.2030513286591"><ele></ele><time>2022-6-1T8:46:2Z</time></trkpt>
<trkpt lat="48.991088867188" lon="3.2031464576721"><ele></ele><time>2022-6-1T8:46:5Z</time></trkpt>
<trkpt lat="48.991050720215" lon="3.2032287120819"><ele></ele><time>2022-6-1T8:46:8Z</time></trkpt>
<trkpt lat="48.991004943848" lon="3.2033207416534"><ele></ele><time>2022-6-1T8:46:11Z</time></trkpt>
<trkpt lat="48.991004943848" lon="3.2033207416534"><ele></ele><time>2022-6-1T8:46:14Z</time></trkpt>
<trkpt lat="48.990978240967" lon="3.2033665180206"><ele></ele><time>2022-6-1T8:46:17Z</time></trkpt>
<trkpt lat="48.990955352783" lon="3.2034103870392"><ele></ele><time>2022-6-1T8:46:20Z</time></trkpt>
<trkpt lat="48.9909324646" lon="3.2034473419189"><ele></ele><time>2022-6-1T8:46:23Z</time></trkpt>
<trkpt lat="48.990917205811" lon="3.2034816741943"><ele></ele><time>2022-6-1T8:46:26Z</time></trkpt>
<trkpt lat="48.990898132324" lon="3.2035229206085"><ele></ele><time>2022-6-1T8:46:29Z</time></trkpt>
<trkpt lat="48.990898132324" lon="3.2035229206085"><ele></ele><time>2022-6-1T8:46:32Z</time></trkpt>
<trkpt lat="48.990863800049" lon="3.2036538124084"><ele></ele><time>2022-6-1T8:46:35Z</time></trkpt>
<trkpt lat="48.990863800049" lon="3.2036538124084"><ele></ele><time>2022-6-1T8:46:38Z</time></trkpt>
<trkpt lat="48.990844726562" lon="3.2037460803986"><ele></ele><time>2022-6-1T8:46:41Z</time></trkpt>
<trkpt lat="48.990844726562" lon="3.2037460803986"><ele></ele><time>2022-6-1T8:46:44Z</time></trkpt>
<trkpt lat="48.990814208984" lon="3.2038300037384"><ele></ele><time>2022-6-1T8:46:47Z</time></trkpt>
<trkpt lat="48.990814208984" lon="3.2038300037384"><ele></ele><time>2022-6-1T8:46:50Z</time></trkpt>
<trkpt lat="48.990814208984" lon="3.2038300037384"><ele></ele><time>2022-6-1T8:46:53Z</time></trkpt>
<trkpt lat="48.990753173828" lon="3.2039287090302"><ele></ele><time>2022-6-1T8:46:56Z</time></trkpt>
<trkpt lat="48.990753173828" lon="3.2039287090302"><ele></ele><time>2022-6-1T8:46:59Z</time></trkpt>
<trkpt lat="48.99063873291" lon="3.2041022777557"><ele></ele><time>2022-6-1T8:47:2Z</time></trkpt>
<trkpt lat="48.99048614502" lon="3.2041289806366"><ele></ele><time>2022-6-1T8:47:5Z</time></trkpt>
<trkpt lat="48.990425109863" lon="3.2041015625"><ele></ele><time>2022-6-1T8:47:8Z</time></trkpt>
<trkpt lat="48.990356445312" lon="3.204071521759"><ele></ele><time>2022-6-1T8:47:11Z</time></trkpt>
<trkpt lat="48.990291595459" lon="3.2040569782257"><ele></ele><time>2022-6-1T8:47:14Z</time></trkpt>
<trkpt lat="48.990230560303" lon="3.2040579319"><ele></ele><time>2022-6-1T8:47:17Z</time></trkpt>
<trkpt lat="48.990127563477" lon="3.2040588855743"><ele></ele><time>2022-6-1T8:47:20Z</time></trkpt>
<trkpt lat="48.99002456665" lon="3.2040917873383"><ele></ele><time>2022-6-1T8:47:23Z</time></trkpt>
<trkpt lat="48.989944458008" lon="3.2041263580322"><ele></ele><time>2022-6-1T8:47:26Z</time></trkpt>
<trkpt lat="48.989864349365" lon="3.2041883468628"><ele></ele><time>2022-6-1T8:47:29Z</time></trkpt>
<trkpt lat="48.989864349365" lon="3.2041883468628"><ele></ele><time>2022-6-1T8:47:32Z</time></trkpt>
<trkpt lat="48.989772796631" lon="3.2042362689972"><ele></ele><time>2022-6-1T8:47:35Z</time></trkpt>
<trkpt lat="48.989772796631" lon="3.2042362689972"><ele></ele><time>2022-6-1T8:47:38Z</time></trkpt>
<trkpt lat="48.989700317383" lon="3.2043170928955"><ele></ele><time>2022-6-1T8:47:41Z</time></trkpt>
<trkpt lat="48.989700317383" lon="3.2043170928955"><ele></ele><time>2022-6-1T8:47:44Z</time></trkpt>
<trkpt lat="48.98962020874" lon="3.2043602466583"><ele></ele><time>2022-6-1T8:47:47Z</time></trkpt>
<trkpt lat="48.989562988281" lon="3.2043998241425"><ele></ele><time>2022-6-1T8:47:50Z</time></trkpt>
<trkpt lat="48.989517211914" lon="3.2044513225555"><ele></ele><time>2022-6-1T8:47:53Z</time></trkpt>
<trkpt lat="48.98946762085" lon="3.2045211791992"><ele></ele><time>2022-6-1T8:47:56Z</time></trkpt>
<trkpt lat="48.989406585693" lon="3.2046449184418"><ele></ele><time>2022-6-1T8:47:59Z</time></trkpt>
<trkpt lat="48.989360809326" lon="3.2047638893127"><ele></ele><time>2022-6-1T8:48:2Z</time></trkpt>
<trkpt lat="48.989326477051" lon="3.2048578262329"><ele></ele><time>2022-6-1T8:48:5Z</time></trkpt>
<trkpt lat="48.989326477051" lon="3.2048578262329"><ele></ele><time>2022-6-1T8:48:8Z</time></trkpt>
<trkpt lat="48.989311218262" lon="3.2049958705902"><ele></ele><time>2022-6-1T8:48:11Z</time></trkpt>
<trkpt lat="48.989311218262" lon="3.2050907611847"><ele></ele><time>2022-6-1T8:48:14Z</time></trkpt>
<trkpt lat="48.989311218262" lon="3.2050907611847"><ele></ele><time>2022-6-1T8:48:17Z</time></trkpt>
<trkpt lat="48.989269256592" lon="3.2051899433136"><ele></ele><time>2022-6-1T8:48:20Z</time></trkpt>
<trkpt lat="48.989269256592" lon="3.2051899433136"><ele></ele><time>2022-6-1T8:48:23Z</time></trkpt>
<trkpt lat="48.989200592041" lon="3.2052881717682"><ele></ele><time>2022-6-1T8:48:26Z</time></trkpt>
<trkpt lat="48.989154815674" lon="3.2054150104523"><ele></ele><time>2022-6-1T8:48:29Z</time></trkpt>
<trkpt lat="48.989109039307" lon="3.205493927002"><ele></ele><time>2022-6-1T8:48:32Z</time></trkpt>
<trkpt lat="48.989109039307" lon="3.205493927002"><ele></ele><time>2022-6-1T8:48:35Z</time></trkpt>
<trkpt lat="48.989109039307" lon="3.205493927002"><ele></ele><time>2022-6-1T8:48:38Z</time></trkpt>
<trkpt lat="48.989059448242" lon="3.2056393623352"><ele></ele><time>2022-6-1T8:48:41Z</time></trkpt>
<trkpt lat="48.989059448242" lon="3.2056393623352"><ele></ele><time>2022-6-1T8:48:44Z</time></trkpt>
<trkpt lat="48.989009857178" lon="3.2057695388794"><ele></ele><time>2022-6-1T8:48:47Z</time></trkpt>
<trkpt lat="48.989009857178" lon="3.2057695388794"><ele></ele><time>2022-6-1T8:48:50Z</time></trkpt>
<trkpt lat="48.988971710205" lon="3.2059063911438"><ele></ele><time>2022-6-1T8:48:53Z</time></trkpt>
<trkpt lat="48.988971710205" lon="3.2059063911438"><ele></ele><time>2022-6-1T8:48:56Z</time></trkpt>
<trkpt lat="48.988964080811" lon="3.2059562206268"><ele></ele><time>2022-6-1T8:48:59Z</time></trkpt>
<trkpt lat="48.988952636719" lon="3.2059993743896"><ele></ele><time>2022-6-1T8:49:2Z</time></trkpt>
<trkpt lat="48.988952636719" lon="3.2059993743896"><ele></ele><time>2022-6-1T8:49:5Z</time></trkpt>
<trkpt lat="48.988933563232" lon="3.206059217453"><ele></ele><time>2022-6-1T8:49:8Z</time></trkpt>
<trkpt lat="48.988914489746" lon="3.2061240673065"><ele></ele><time>2022-6-1T8:49:11Z</time></trkpt>
<trkpt lat="48.988903045654" lon="3.2062067985535"><ele></ele><time>2022-6-1T8:49:14Z</time></trkpt>
<trkpt lat="48.988883972168" lon="3.206294298172"><ele></ele><time>2022-6-1T8:49:17Z</time></trkpt>
<trkpt lat="48.988849639893" lon="3.2063846588135"><ele></ele><time>2022-6-1T8:49:20Z</time></trkpt>
<trkpt lat="48.988773345947" lon="3.2065796852112"><ele></ele><time>2022-6-1T8:49:23Z</time></trkpt>
<trkpt lat="48.988681793213" lon="3.2067618370056"><ele></ele><time>2022-6-1T8:49:26Z</time></trkpt>
<trkpt lat="48.988555908203" lon="3.2069902420044"><ele></ele><time>2022-6-1T8:49:29Z</time></trkpt>
<trkpt lat="48.988513946533" lon="3.207058429718"><ele></ele><time>2022-6-1T8:49:32Z</time></trkpt>
<trkpt lat="48.98844909668" lon="3.2071590423584"><ele></ele><time>2022-6-1T8:49:35Z</time></trkpt>
<trkpt lat="48.988391876221" lon="3.2072851657867"><ele></ele><time>2022-6-1T8:49:38Z</time></trkpt>
<trkpt lat="48.988338470459" lon="3.2073693275452"><ele></ele><time>2022-6-1T8:49:41Z</time></trkpt>
<trkpt lat="48.988300323486" lon="3.2074427604675"><ele></ele><time>2022-6-1T8:49:44Z</time></trkpt>
<trkpt lat="48.988250732422" lon="3.2075436115265"><ele></ele><time>2022-6-1T8:49:47Z</time></trkpt>
<trkpt lat="48.988224029541" lon="3.2076721191406"><ele></ele><time>2022-6-1T8:49:50Z</time></trkpt>
<trkpt lat="48.988216400146" lon="3.2078261375427"><ele></ele><time>2022-6-1T8:49:53Z</time></trkpt>
<trkpt lat="48.988201141357" lon="3.2079794406891"><ele></ele><time>2022-6-1T8:49:56Z</time></trkpt>
<trkpt lat="48.988178253174" lon="3.2080972194672"><ele></ele><time>2022-6-1T8:49:59Z</time></trkpt>
<trkpt lat="48.988143920898" lon="3.2082648277283"><ele></ele><time>2022-6-1T8:50:2Z</time></trkpt>
<trkpt lat="48.98811340332" lon="3.2084150314331"><ele></ele><time>2022-6-1T8:50:5Z</time></trkpt>
<trkpt lat="48.988090515137" lon="3.2085192203522"><ele></ele><time>2022-6-1T8:50:8Z</time></trkpt>
<trkpt lat="48.988090515137" lon="3.2085192203522"><ele></ele><time>2022-6-1T8:50:11Z</time></trkpt>
<trkpt lat="48.988052368164" lon="3.2086246013641"><ele></ele><time>2022-6-1T8:50:14Z</time></trkpt>
<trkpt lat="48.988052368164" lon="3.2086246013641"><ele></ele><time>2022-6-1T8:50:17Z</time></trkpt>
<trkpt lat="48.988052368164" lon="3.2086246013641"><ele></ele><time>2022-6-1T8:50:20Z</time></trkpt>
<trkpt lat="48.987945556641" lon="3.2087340354919"><ele></ele><time>2022-6-1T8:50:23Z</time></trkpt>
<trkpt lat="48.987945556641" lon="3.2087340354919"><ele></ele><time>2022-6-1T8:50:26Z</time></trkpt>
<trkpt lat="48.987945556641" lon="3.2087340354919"><ele></ele><time>2022-6-1T8:50:29Z</time></trkpt>
<trkpt lat="48.987800598145" lon="3.2087042331696"><ele></ele><time>2022-6-1T8:50:32Z</time></trkpt>
<trkpt lat="48.987728118896" lon="3.2086029052734"><ele></ele><time>2022-6-1T8:50:35Z</time></trkpt>
<trkpt lat="48.987670898438" lon="3.2085146903992"><ele></ele><time>2022-6-1T8:50:38Z</time></trkpt>
<trkpt lat="48.987579345703" lon="3.2084395885468"><ele></ele><time>2022-6-1T8:50:41Z</time></trkpt>
<trkpt lat="48.987480163574" lon="3.2083473205566"><ele></ele><time>2022-6-1T8:50:44Z</time></trkpt>
<trkpt lat="48.987361907959" lon="3.2082438468933"><ele></ele><time>2022-6-1T8:50:47Z</time></trkpt>
<trkpt lat="48.987216949463" lon="3.2081255912781"><ele></ele><time>2022-6-1T8:50:50Z</time></trkpt>
<trkpt lat="48.987087249756" lon="3.2080090045929"><ele></ele><time>2022-6-1T8:50:53Z</time></trkpt>
<trkpt lat="48.986972808838" lon="3.2079131603241"><ele></ele><time>2022-6-1T8:50:56Z</time></trkpt>
<trkpt lat="48.986869812012" lon="3.2078440189362"><ele></ele><time>2022-6-1T8:50:59Z</time></trkpt>
<trkpt lat="48.986778259277" lon="3.2078216075897"><ele></ele><time>2022-6-1T8:51:2Z</time></trkpt>
<trkpt lat="48.986713409424" lon="3.2078351974487"><ele></ele><time>2022-6-1T8:51:5Z</time></trkpt>
<trkpt lat="48.986629486084" lon="3.2078998088837"><ele></ele><time>2022-6-1T8:51:8Z</time></trkpt>
<trkpt lat="48.986541748047" lon="3.2080223560333"><ele></ele><time>2022-6-1T8:51:11Z</time></trkpt>
<trkpt lat="48.986427307129" lon="3.2081387042999"><ele></ele><time>2022-6-1T8:51:14Z</time></trkpt>
<trkpt lat="48.986343383789" lon="3.2081897258759"><ele></ele><time>2022-6-1T8:51:17Z</time></trkpt>
<trkpt lat="48.986259460449" lon="3.2081894874573"><ele></ele><time>2022-6-1T8:51:20Z</time></trkpt>
<trkpt lat="48.986183166504" lon="3.2081837654114"><ele></ele><time>2022-6-1T8:51:23Z</time></trkpt>
<trkpt lat="48.986103057861" lon="3.2081739902496"><ele></ele><time>2022-6-1T8:51:26Z</time></trkpt>
<trkpt lat="48.986019134521" lon="3.2081644535065"><ele></ele><time>2022-6-1T8:51:29Z</time></trkpt>
<trkpt lat="48.98592376709" lon="3.2081346511841"><ele></ele><time>2022-6-1T8:51:32Z</time></trkpt>
<trkpt lat="48.985820770264" lon="3.2081007957458"><ele></ele><time>2022-6-1T8:51:35Z</time></trkpt>
<trkpt lat="48.985710144043" lon="3.2080574035645"><ele></ele><time>2022-6-1T8:51:38Z</time></trkpt>
<trkpt lat="48.985580444336" lon="3.2080166339874"><ele></ele><time>2022-6-1T8:51:41Z</time></trkpt>
<trkpt lat="48.985466003418" lon="3.2079818248749"><ele></ele><time>2022-6-1T8:51:44Z</time></trkpt>
<trkpt lat="48.985355377197" lon="3.207946062088"><ele></ele><time>2022-6-1T8:51:47Z</time></trkpt>
<trkpt lat="48.985237121582" lon="3.2079131603241"><ele></ele><time>2022-6-1T8:51:50Z</time></trkpt>
<trkpt lat="48.985095977783" lon="3.2078850269318"><ele></ele><time>2022-6-1T8:51:53Z</time></trkpt>
<trkpt lat="48.984962463379" lon="3.2078685760498"><ele></ele><time>2022-6-1T8:51:56Z</time></trkpt>
<trkpt lat="48.984859466553" lon="3.2078635692596"><ele></ele><time>2022-6-1T8:51:59Z</time></trkpt>
<trkpt lat="48.984760284424" lon="3.2078495025635"><ele></ele><time>2022-6-1T8:52:2Z</time></trkpt>
<trkpt lat="48.984676361084" lon="3.2078449726105"><ele></ele><time>2022-6-1T8:52:5Z</time></trkpt>
<trkpt lat="48.984596252441" lon="3.2078371047974"><ele></ele><time>2022-6-1T8:52:8Z</time></trkpt>
<trkpt lat="48.984519958496" lon="3.207820892334"><ele></ele><time>2022-6-1T8:52:11Z</time></trkpt>
<trkpt lat="48.984519958496" lon="3.207820892334"><ele></ele><time>2022-6-1T8:52:14Z</time></trkpt>
<trkpt lat="48.984409332275" lon="3.2077789306641"><ele></ele><time>2022-6-1T8:52:17Z</time></trkpt>
<trkpt lat="48.984409332275" lon="3.2077789306641"><ele></ele><time>2022-6-1T8:52:20Z</time></trkpt>
<trkpt lat="48.984252929688" lon="3.2077131271362"><ele></ele><time>2022-6-1T8:52:23Z</time></trkpt>
<trkpt lat="48.98416519165" lon="3.2076752185822"><ele></ele><time>2022-6-1T8:52:26Z</time></trkpt>
<trkpt lat="48.984020233154" lon="3.2076413631439"><ele></ele><time>2022-6-1T8:52:29Z</time></trkpt>
<trkpt lat="48.983963012695" lon="3.2076351642609"><ele></ele><time>2022-6-1T8:52:32Z</time></trkpt>
<trkpt lat="48.983898162842" lon="3.2076315879822"><ele></ele><time>2022-6-1T8:52:35Z</time></trkpt>
<trkpt lat="48.983833312988" lon="3.2076325416565"><ele></ele><time>2022-6-1T8:52:38Z</time></trkpt>
<trkpt lat="48.983772277832" lon="3.2076239585876"><ele></ele><time>2022-6-1T8:52:41Z</time></trkpt>
<trkpt lat="48.983692169189" lon="3.207599401474"><ele></ele><time>2022-6-1T8:52:44Z</time></trkpt>
<trkpt lat="48.983623504639" lon="3.2075781822205"><ele></ele><time>2022-6-1T8:52:47Z</time></trkpt>
<trkpt lat="48.98356628418" lon="3.2075581550598"><ele></ele><time>2022-6-1T8:52:50Z</time></trkpt>
<trkpt lat="48.98356628418" lon="3.2075581550598"><ele></ele><time>2022-6-1T8:52:53Z</time></trkpt>
<trkpt lat="48.983451843262" lon="3.2075085639954"><ele></ele><time>2022-6-1T8:52:56Z</time></trkpt>
<trkpt lat="48.983390808105" lon="3.2074952125549"><ele></ele><time>2022-6-1T8:52:59Z</time></trkpt>
<trkpt lat="48.983322143555" lon="3.2074842453003"><ele></ele><time>2022-6-1T8:53:2Z</time></trkpt>
<trkpt lat="48.983322143555" lon="3.2074842453003"><ele></ele><time>2022-6-1T8:53:5Z</time></trkpt>
<trkpt lat="48.983226776123" lon="3.2074615955353"><ele></ele><time>2022-6-1T8:53:8Z</time></trkpt>
<trkpt lat="48.983226776123" lon="3.2074615955353"><ele></ele><time>2022-6-1T8:53:11Z</time></trkpt>
<trkpt lat="48.98314666748" lon="3.2074401378632"><ele></ele><time>2022-6-1T8:53:14Z</time></trkpt>
<trkpt lat="48.98314666748" lon="3.2074401378632"><ele></ele><time>2022-6-1T8:53:17Z</time></trkpt>
<trkpt lat="48.983066558838" lon="3.2074236869812"><ele></ele><time>2022-6-1T8:53:20Z</time></trkpt>
<trkpt lat="48.982959747314" lon="3.2074048519135"><ele></ele><time>2022-6-1T8:53:23Z</time></trkpt>
<trkpt lat="48.982894897461" lon="3.2073957920074"><ele></ele><time>2022-6-1T8:53:26Z</time></trkpt>
<trkpt lat="48.982833862305" lon="3.2073829174042"><ele></ele><time>2022-6-1T8:53:29Z</time></trkpt>
<trkpt lat="48.98274230957" lon="3.2073585987091"><ele></ele><time>2022-6-1T8:53:32Z</time></trkpt>
<trkpt lat="48.98274230957" lon="3.2073585987091"><ele></ele><time>2022-6-1T8:53:35Z</time></trkpt>
<trkpt lat="48.982662200928" lon="3.2073299884796"><ele></ele><time>2022-6-1T8:53:38Z</time></trkpt>
<trkpt lat="48.982662200928" lon="3.2073299884796"><ele></ele><time>2022-6-1T8:53:41Z</time></trkpt>
<trkpt lat="48.982593536377" lon="3.207316160202"><ele></ele><time>2022-6-1T8:53:44Z</time></trkpt>
<trkpt lat="48.982509613037" lon="3.2072913646698"><ele></ele><time>2022-6-1T8:53:47Z</time></trkpt>
<trkpt lat="48.982429504395" lon="3.2072696685791"><ele></ele><time>2022-6-1T8:53:50Z</time></trkpt>
<trkpt lat="48.982429504395" lon="3.2072696685791"><ele></ele><time>2022-6-1T8:53:53Z</time></trkpt>
<trkpt lat="48.982341766357" lon="3.2072379589081"><ele></ele><time>2022-6-1T8:53:56Z</time></trkpt>
<trkpt lat="48.982341766357" lon="3.2072379589081"><ele></ele><time>2022-6-1T8:53:59Z</time></trkpt>
<trkpt lat="48.982242584229" lon="3.2072038650513"><ele></ele><time>2022-6-1T8:54:2Z</time></trkpt>
<trkpt lat="48.982242584229" lon="3.2072038650513"><ele></ele><time>2022-6-1T8:54:5Z</time></trkpt>
<trkpt lat="48.982177734375" lon="3.2071950435638"><ele></ele><time>2022-6-1T8:54:8Z</time></trkpt>
<trkpt lat="48.982177734375" lon="3.2071950435638"><ele></ele><time>2022-6-1T8:54:11Z</time></trkpt>
<trkpt lat="48.982089996338" lon="3.2071743011475"><ele></ele><time>2022-6-1T8:54:14Z</time></trkpt>
<trkpt lat="48.981990814209" lon="3.2071373462677"><ele></ele><time>2022-6-1T8:54:17Z</time></trkpt>
<trkpt lat="48.98193359375" lon="3.2071280479431"><ele></ele><time>2022-6-1T8:54:20Z</time></trkpt>
<trkpt lat="48.981830596924" lon="3.2071063518524"><ele></ele><time>2022-6-1T8:54:23Z</time></trkpt>
<trkpt lat="48.981830596924" lon="3.2071063518524"><ele></ele><time>2022-6-1T8:54:26Z</time></trkpt>
<trkpt lat="48.981746673584" lon="3.2070782184601"><ele></ele><time>2022-6-1T8:54:29Z</time></trkpt>
<trkpt lat="48.981746673584" lon="3.2070782184601"><ele></ele><time>2022-6-1T8:54:32Z</time></trkpt>
<trkpt lat="48.98168182373" lon="3.2070639133453"><ele></ele><time>2022-6-1T8:54:35Z</time></trkpt>
<trkpt lat="48.981597900391" lon="3.2070446014404"><ele></ele><time>2022-6-1T8:54:38Z</time></trkpt>
<trkpt lat="48.981533050537" lon="3.2070374488831"><ele></ele><time>2022-6-1T8:54:41Z</time></trkpt>
<trkpt lat="48.981472015381" lon="3.2070260047913"><ele></ele><time>2022-6-1T8:54:44Z</time></trkpt>
<trkpt lat="48.981414794922" lon="3.2070119380951"><ele></ele><time>2022-6-1T8:54:47Z</time></trkpt>
<trkpt lat="48.981315612793" lon="3.206995010376"><ele></ele><time>2022-6-1T8:54:50Z</time></trkpt>
<trkpt lat="48.981227874756" lon="3.2069706916809"><ele></ele><time>2022-6-1T8:54:53Z</time></trkpt>
<trkpt lat="48.981132507324" lon="3.2069277763367"><ele></ele><time>2022-6-1T8:54:56Z</time></trkpt>
<trkpt lat="48.981075286865" lon="3.2069087028503"><ele></ele><time>2022-6-1T8:54:59Z</time></trkpt>
<trkpt lat="48.981018066406" lon="3.20689702034"><ele></ele><time>2022-6-1T8:55:2Z</time></trkpt>
<trkpt lat="48.980922698975" lon="3.2068707942963"><ele></ele><time>2022-6-1T8:55:5Z</time></trkpt>
<trkpt lat="48.980922698975" lon="3.2068707942963"><ele></ele><time>2022-6-1T8:55:8Z</time></trkpt>
<trkpt lat="48.980812072754" lon="3.2068438529968"><ele></ele><time>2022-6-1T8:55:11Z</time></trkpt>
<trkpt lat="48.980812072754" lon="3.2068438529968"><ele></ele><time>2022-6-1T8:55:14Z</time></trkpt>
<trkpt lat="48.980693817139" lon="3.2068161964417"><ele></ele><time>2022-6-1T8:55:17Z</time></trkpt>
<trkpt lat="48.98063659668" lon="3.2068054676056"><ele></ele><time>2022-6-1T8:55:20Z</time></trkpt>
<trkpt lat="48.98063659668" lon="3.2068054676056"><ele></ele><time>2022-6-1T8:55:23Z</time></trkpt>
<trkpt lat="48.980545043945" lon="3.2067770957947"><ele></ele><time>2022-6-1T8:55:26Z</time></trkpt>
<trkpt lat="48.980545043945" lon="3.2067770957947"><ele></ele><time>2022-6-1T8:55:29Z</time></trkpt>
<trkpt lat="48.980495452881" lon="3.2067503929138"><ele></ele><time>2022-6-1T8:55:32Z</time></trkpt>
<trkpt lat="48.980438232422" lon="3.2067279815674"><ele></ele><time>2022-6-1T8:55:35Z</time></trkpt>
<trkpt lat="48.980373382568" lon="3.2067098617554"><ele></ele><time>2022-6-1T8:55:38Z</time></trkpt>
<trkpt lat="48.980319976807" lon="3.2066969871521"><ele></ele><time>2022-6-1T8:55:41Z</time></trkpt>
<trkpt lat="48.980266571045" lon="3.2066853046417"><ele></ele><time>2022-6-1T8:55:44Z</time></trkpt>
<trkpt lat="48.98014831543" lon="3.2066662311554"><ele></ele><time>2022-6-1T8:55:47Z</time></trkpt>
<trkpt lat="48.980068206787" lon="3.2066557407379"><ele></ele><time>2022-6-1T8:55:50Z</time></trkpt>
<trkpt lat="48.980003356934" lon="3.2066540718079"><ele></ele><time>2022-6-1T8:55:53Z</time></trkpt>
<trkpt lat="48.980003356934" lon="3.2066540718079"><ele></ele><time>2022-6-1T8:55:56Z</time></trkpt>
<trkpt lat="48.979888916016" lon="3.2066264152527"><ele></ele><time>2022-6-1T8:55:59Z</time></trkpt>
<trkpt lat="48.979816436768" lon="3.2066142559052"><ele></ele><time>2022-6-1T8:56:2Z</time></trkpt>
<trkpt lat="48.97974395752" lon="3.2065784931183"><ele></ele><time>2022-6-1T8:56:5Z</time></trkpt>
<trkpt lat="48.979675292969" lon="3.2065412998199"><ele></ele><time>2022-6-1T8:56:8Z</time></trkpt>
<trkpt lat="48.979606628418" lon="3.2065060138702"><ele></ele><time>2022-6-1T8:56:11Z</time></trkpt>
<trkpt lat="48.979545593262" lon="3.2064702510834"><ele></ele><time>2022-6-1T8:56:14Z</time></trkpt>
<trkpt lat="48.979480743408" lon="3.2064347267151"><ele></ele><time>2022-6-1T8:56:17Z</time></trkpt>
<trkpt lat="48.979419708252" lon="3.2063941955566"><ele></ele><time>2022-6-1T8:56:20Z</time></trkpt>
<trkpt lat="48.979362487793" lon="3.2063465118408"><ele></ele><time>2022-6-1T8:56:23Z</time></trkpt>
<trkpt lat="48.97928237915" lon="3.2062754631042"><ele></ele><time>2022-6-1T8:56:26Z</time></trkpt>
<trkpt lat="48.979198455811" lon="3.2062122821808"><ele></ele><time>2022-6-1T8:56:29Z</time></trkpt>
<trkpt lat="48.979103088379" lon="3.2061712741852"><ele></ele><time>2022-6-1T8:56:32Z</time></trkpt>
<trkpt lat="48.978996276855" lon="3.206134557724"><ele></ele><time>2022-6-1T8:56:35Z</time></trkpt>
<trkpt lat="48.978889465332" lon="3.2061173915863"><ele></ele><time>2022-6-1T8:56:38Z</time></trkpt>
<trkpt lat="48.978816986084" lon="3.2061405181885"><ele></ele><time>2022-6-1T8:56:41Z</time></trkpt>
<trkpt lat="48.978816986084" lon="3.2061405181885"><ele></ele><time>2022-6-1T8:56:44Z</time></trkpt>
<trkpt lat="48.978744506836" lon="3.206191778183"><ele></ele><time>2022-6-1T8:56:47Z</time></trkpt>
<trkpt lat="48.97868347168" lon="3.2062253952026"><ele></ele><time>2022-6-1T8:56:50Z</time></trkpt>
<trkpt lat="48.978614807129" lon="3.206244468689"><ele></ele><time>2022-6-1T8:56:53Z</time></trkpt>
<trkpt lat="48.978546142578" lon="3.2062706947327"><ele></ele><time>2022-6-1T8:56:56Z</time></trkpt>
<trkpt lat="48.978481292725" lon="3.2062854766846"><ele></ele><time>2022-6-1T8:56:59Z</time></trkpt>
<trkpt lat="48.978404998779" lon="3.2062926292419"><ele></ele><time>2022-6-1T8:57:2Z</time></trkpt>
<trkpt lat="48.978321075439" lon="3.2062878608704"><ele></ele><time>2022-6-1T8:57:5Z</time></trkpt>
<trkpt lat="48.978229522705" lon="3.2062723636627"><ele></ele><time>2022-6-1T8:57:8Z</time></trkpt>
<trkpt lat="48.978141784668" lon="3.2062711715698"><ele></ele><time>2022-6-1T8:57:11Z</time></trkpt>
<trkpt lat="48.978038787842" lon="3.2062859535217"><ele></ele><time>2022-6-1T8:57:14Z</time></trkpt>
<trkpt lat="48.977939605713" lon="3.206316947937"><ele></ele><time>2022-6-1T8:57:17Z</time></trkpt>
<trkpt lat="48.977863311768" lon="3.2063319683075"><ele></ele><time>2022-6-1T8:57:20Z</time></trkpt>
<trkpt lat="48.977767944336" lon="3.2063412666321"><ele></ele><time>2022-6-1T8:57:23Z</time></trkpt>
<trkpt lat="48.977668762207" lon="3.206344127655"><ele></ele><time>2022-6-1T8:57:26Z</time></trkpt>
<trkpt lat="48.977577209473" lon="3.2063388824463"><ele></ele><time>2022-6-1T8:57:29Z</time></trkpt>
<trkpt lat="48.977481842041" lon="3.2063310146332"><ele></ele><time>2022-6-1T8:57:32Z</time></trkpt>
<trkpt lat="48.977394104004" lon="3.2063295841217"><ele></ele><time>2022-6-1T8:57:35Z</time></trkpt>
<trkpt lat="48.977294921875" lon="3.2063310146332"><ele></ele><time>2022-6-1T8:57:38Z</time></trkpt>
<trkpt lat="48.977199554443" lon="3.2063367366791"><ele></ele><time>2022-6-1T8:57:41Z</time></trkpt>
<trkpt lat="48.977104187012" lon="3.2063553333282"><ele></ele><time>2022-6-1T8:57:44Z</time></trkpt>
<trkpt lat="48.976997375488" lon="3.2063727378845"><ele></ele><time>2022-6-1T8:57:47Z</time></trkpt>
<trkpt lat="48.976909637451" lon="3.2063500881195"><ele></ele><time>2022-6-1T8:57:50Z</time></trkpt>
<trkpt lat="48.976818084717" lon="3.2063171863556"><ele></ele><time>2022-6-1T8:57:53Z</time></trkpt>
<trkpt lat="48.976722717285" lon="3.2062678337097"><ele></ele><time>2022-6-1T8:57:56Z</time></trkpt>
<trkpt lat="48.976638793945" lon="3.2062311172485"><ele></ele><time>2022-6-1T8:57:59Z</time></trkpt>
<trkpt lat="48.976535797119" lon="3.2061879634857"><ele></ele><time>2022-6-1T8:58:2Z</time></trkpt>
<trkpt lat="48.976413726807" lon="3.2061343193054"><ele></ele><time>2022-6-1T8:58:5Z</time></trkpt>
<trkpt lat="48.976291656494" lon="3.2060840129852"><ele></ele><time>2022-6-1T8:58:8Z</time></trkpt>
<trkpt lat="48.976154327393" lon="3.2060189247131"><ele></ele><time>2022-6-1T8:58:11Z</time></trkpt>
<trkpt lat="48.976020812988" lon="3.2059423923492"><ele></ele><time>2022-6-1T8:58:14Z</time></trkpt>
<trkpt lat="48.97590637207" lon="3.2058591842651"><ele></ele><time>2022-6-1T8:58:17Z</time></trkpt>
<trkpt lat="48.975769042969" lon="3.2057776451111"><ele></ele><time>2022-6-1T8:58:20Z</time></trkpt>
<trkpt lat="48.975639343262" lon="3.2056875228882"><ele></ele><time>2022-6-1T8:58:23Z</time></trkpt>
<trkpt lat="48.97550201416" lon="3.2056083679199"><ele></ele><time>2022-6-1T8:58:26Z</time></trkpt>
<trkpt lat="48.975379943848" lon="3.2055637836456"><ele></ele><time>2022-6-1T8:58:29Z</time></trkpt>
<trkpt lat="48.975379943848" lon="3.2055637836456"><ele></ele><time>2022-6-1T8:58:32Z</time></trkpt>
<trkpt lat="48.975368499756" lon="3.2054398059845"><ele></ele><time>2022-6-1T8:58:35Z</time></trkpt>
<trkpt lat="48.975368499756" lon="3.2054398059845"><ele></ele><time>2022-6-1T8:58:38Z</time></trkpt>
<trkpt lat="48.975368499756" lon="3.2054398059845"><ele></ele><time>2022-6-1T8:58:41Z</time></trkpt>
<trkpt lat="48.975391387939" lon="3.2056982517242"><ele></ele><time>2022-6-1T8:58:44Z</time></trkpt>
<trkpt lat="48.975391387939" lon="3.2056982517242"><ele></ele><time>2022-6-1T8:58:47Z</time></trkpt>
<trkpt lat="48.975391387939" lon="3.2056982517242"><ele></ele><time>2022-6-1T8:58:50Z</time></trkpt>
<trkpt lat="48.975269317627" lon="3.2055912017822"><ele></ele><time>2022-6-1T8:58:53Z</time></trkpt>
<trkpt lat="48.97522354126" lon="3.2055218219757"><ele></ele><time>2022-6-1T8:58:56Z</time></trkpt>
<trkpt lat="48.975170135498" lon="3.2054252624512"><ele></ele><time>2022-6-1T8:58:59Z</time></trkpt>
<trkpt lat="48.975124359131" lon="3.2053418159485"><ele></ele><time>2022-6-1T8:59:2Z</time></trkpt>
<trkpt lat="48.975074768066" lon="3.2052249908447"><ele></ele><time>2022-6-1T8:59:5Z</time></trkpt>
<trkpt lat="48.975006103516" lon="3.2050893306732"><ele></ele><time>2022-6-1T8:59:8Z</time></trkpt>
<trkpt lat="48.97492980957" lon="3.2049705982208"><ele></ele><time>2022-6-1T8:59:11Z</time></trkpt>
<trkpt lat="48.974868774414" lon="3.2048695087433"><ele></ele><time>2022-6-1T8:59:14Z</time></trkpt>
<trkpt lat="48.974792480469" lon="3.20476603508"><ele></ele><time>2022-6-1T8:59:17Z</time></trkpt>
<trkpt lat="48.97469329834" lon="3.2046740055084"><ele></ele><time>2022-6-1T8:59:20Z</time></trkpt>
<trkpt lat="48.974594116211" lon="3.2046067714691"><ele></ele><time>2022-6-1T8:59:23Z</time></trkpt>
<trkpt lat="48.974491119385" lon="3.2045555114746"><ele></ele><time>2022-6-1T8:59:26Z</time></trkpt>
<trkpt lat="48.974380493164" lon="3.2045080661774"><ele></ele><time>2022-6-1T8:59:29Z</time></trkpt>
<trkpt lat="48.974281311035" lon="3.204470872879"><ele></ele><time>2022-6-1T8:59:32Z</time></trkpt>
<trkpt lat="48.974189758301" lon="3.2044448852539"><ele></ele><time>2022-6-1T8:59:35Z</time></trkpt>
<trkpt lat="48.974117279053" lon="3.2044224739075"><ele></ele><time>2022-6-1T8:59:38Z</time></trkpt>
<trkpt lat="48.974060058594" lon="3.2043941020966"><ele></ele><time>2022-6-1T8:59:41Z</time></trkpt>
<trkpt lat="48.974060058594" lon="3.2043941020966"><ele></ele><time>2022-6-1T8:59:44Z</time></trkpt>
<trkpt lat="48.974060058594" lon="3.2043941020966"><ele></ele><time>2022-6-1T8:59:47Z</time></trkpt>
<trkpt lat="48.974060058594" lon="3.2043941020966"><ele></ele><time>2022-6-1T8:59:50Z</time></trkpt>
<trkpt lat="48.974060058594" lon="3.2043941020966"><ele></ele><time>2022-6-1T8:59:53Z</time></trkpt>
<trkpt lat="48.973937988281" lon="3.2044334411621"><ele></ele><time>2022-6-1T8:59:56Z</time></trkpt>
<trkpt lat="48.973903656006" lon="3.2045817375183"><ele></ele><time>2022-6-1T8:59:59Z</time></trkpt>
<trkpt lat="48.973873138428" lon="3.2046654224396"><ele></ele><time>2022-6-1T9:0:2Z</time></trkpt>
<trkpt lat="48.973812103271" lon="3.204799413681"><ele></ele><time>2022-6-1T9:0:5Z</time></trkpt>
<trkpt lat="48.973777770996" lon="3.204874753952"><ele></ele><time>2022-6-1T9:0:8Z</time></trkpt>
<trkpt lat="48.973751068115" lon="3.204950094223"><ele></ele><time>2022-6-1T9:0:11Z</time></trkpt>
<trkpt lat="48.97371673584" lon="3.2050216197968"><ele></ele><time>2022-6-1T9:0:14Z</time></trkpt>
<trkpt lat="48.973648071289" lon="3.2051556110382"><ele></ele><time>2022-6-1T9:0:17Z</time></trkpt>
<trkpt lat="48.973609924316" lon="3.2052247524261"><ele></ele><time>2022-6-1T9:0:20Z</time></trkpt>
<trkpt lat="48.973564147949" lon="3.2052903175354"><ele></ele><time>2022-6-1T9:0:23Z</time></trkpt>
<trkpt lat="48.973514556885" lon="3.2053663730621"><ele></ele><time>2022-6-1T9:0:26Z</time></trkpt>
<trkpt lat="48.973434448242" lon="3.2054855823517"><ele></ele><time>2022-6-1T9:0:29Z</time></trkpt>
<trkpt lat="48.973373413086" lon="3.205598115921"><ele></ele><time>2022-6-1T9:0:32Z</time></trkpt>
<trkpt lat="48.973339080811" lon="3.2056651115417"><ele></ele><time>2022-6-1T9:0:35Z</time></trkpt>
<trkpt lat="48.973339080811" lon="3.2056651115417"><ele></ele><time>2022-6-1T9:0:38Z</time></trkpt>
<trkpt lat="48.973274230957" lon="3.2058174610138"><ele></ele><time>2022-6-1T9:0:41Z</time></trkpt>
<trkpt lat="48.973239898682" lon="3.2058937549591"><ele></ele><time>2022-6-1T9:0:44Z</time></trkpt>
<trkpt lat="48.973239898682" lon="3.2058937549591"><ele></ele><time>2022-6-1T9:0:47Z</time></trkpt>
<trkpt lat="48.973175048828" lon="3.2059695720673"><ele></ele><time>2022-6-1T9:0:50Z</time></trkpt>
<trkpt lat="48.973175048828" lon="3.2059695720673"><ele></ele><time>2022-6-1T9:0:53Z</time></trkpt>
<trkpt lat="48.973175048828" lon="3.2059695720673"><ele></ele><time>2022-6-1T9:0:56Z</time></trkpt>
<trkpt lat="48.97310256958" lon="3.2058198451996"><ele></ele><time>2022-6-1T9:0:59Z</time></trkpt>
<trkpt lat="48.972957611084" lon="3.2056238651276"><ele></ele><time>2022-6-1T9:1:2Z</time></trkpt>
<trkpt lat="48.972835540771" lon="3.205512046814"><ele></ele><time>2022-6-1T9:1:5Z</time></trkpt>
<trkpt lat="48.972709655762" lon="3.2054421901703"><ele></ele><time>2022-6-1T9:1:8Z</time></trkpt>
<trkpt lat="48.972587585449" lon="3.2053546905518"><ele></ele><time>2022-6-1T9:1:11Z</time></trkpt>
<trkpt lat="48.97244644165" lon="3.2052636146545"><ele></ele><time>2022-6-1T9:1:14Z</time></trkpt>
<trkpt lat="48.972316741943" lon="3.2051999568939"><ele></ele><time>2022-6-1T9:1:17Z</time></trkpt>
<trkpt lat="48.972175598145" lon="3.2051372528076"><ele></ele><time>2022-6-1T9:1:20Z</time></trkpt>
<trkpt lat="48.972034454346" lon="3.2050621509552"><ele></ele><time>2022-6-1T9:1:23Z</time></trkpt>
<trkpt lat="48.971900939941" lon="3.2049241065979"><ele></ele><time>2022-6-1T9:1:26Z</time></trkpt>
<trkpt lat="48.971759796143" lon="3.2047965526581"><ele></ele><time>2022-6-1T9:1:29Z</time></trkpt>
<trkpt lat="48.97159576416" lon="3.2046725749969"><ele></ele><time>2022-6-1T9:1:32Z</time></trkpt>
<trkpt lat="48.971420288086" lon="3.2045488357544"><ele></ele><time>2022-6-1T9:1:35Z</time></trkpt>
<trkpt lat="48.971260070801" lon="3.2044382095337"><ele></ele><time>2022-6-1T9:1:38Z</time></trkpt>
<trkpt lat="48.971141815186" lon="3.204354763031"><ele></ele><time>2022-6-1T9:1:41Z</time></trkpt>
<trkpt lat="48.971061706543" lon="3.2042562961578"><ele></ele><time>2022-6-1T9:1:44Z</time></trkpt>
<trkpt lat="48.971057891846" lon="3.2041299343109"><ele></ele><time>2022-6-1T9:1:47Z</time></trkpt>
<trkpt lat="48.97110748291" lon="3.2039637565613"><ele></ele><time>2022-6-1T9:1:50Z</time></trkpt>
<trkpt lat="48.971153259277" lon="3.2038416862488"><ele></ele><time>2022-6-1T9:1:53Z</time></trkpt>
<trkpt lat="48.971179962158" lon="3.2037615776062"><ele></ele><time>2022-6-1T9:1:56Z</time></trkpt>
<trkpt lat="48.971179962158" lon="3.2037615776062"><ele></ele><time>2022-6-1T9:1:59Z</time></trkpt>
<trkpt lat="48.971118927002" lon="3.2037525177002"><ele></ele><time>2022-6-1T9:2:2Z</time></trkpt>
<trkpt lat="48.971042633057" lon="3.2037627696991"><ele></ele><time>2022-6-1T9:2:5Z</time></trkpt>
<trkpt lat="48.970951080322" lon="3.2037649154663"><ele></ele><time>2022-6-1T9:2:8Z</time></trkpt>
<trkpt lat="48.970859527588" lon="3.2037749290466"><ele></ele><time>2022-6-1T9:2:11Z</time></trkpt>
<trkpt lat="48.970779418945" lon="3.2037842273712"><ele></ele><time>2022-6-1T9:2:14Z</time></trkpt>
<trkpt lat="48.970706939697" lon="3.2037799358368"><ele></ele><time>2022-6-1T9:2:17Z</time></trkpt>
<trkpt lat="48.970638275146" lon="3.2037765979767"><ele></ele><time>2022-6-1T9:2:20Z</time></trkpt>
<trkpt lat="48.970550537109" lon="3.2037811279297"><ele></ele><time>2022-6-1T9:2:23Z</time></trkpt>
<trkpt lat="48.9704246521" lon="3.2037742137909"><ele></ele><time>2022-6-1T9:2:26Z</time></trkpt>
<trkpt lat="48.970272064209" lon="3.2037427425385"><ele></ele><time>2022-6-1T9:2:29Z</time></trkpt>
<trkpt lat="48.970111846924" lon="3.2036943435669"><ele></ele><time>2022-6-1T9:2:32Z</time></trkpt>
<trkpt lat="48.96993637085" lon="3.203620672226"><ele></ele><time>2022-6-1T9:2:35Z</time></trkpt>
<trkpt lat="48.96976852417" lon="3.2035315036774"><ele></ele><time>2022-6-1T9:2:38Z</time></trkpt>
<trkpt lat="48.969596862793" lon="3.2034232616425"><ele></ele><time>2022-6-1T9:2:41Z</time></trkpt>
<trkpt lat="48.969417572021" lon="3.2033030986786"><ele></ele><time>2022-6-1T9:2:44Z</time></trkpt>
<trkpt lat="48.969230651855" lon="3.2031738758087"><ele></ele><time>2022-6-1T9:2:47Z</time></trkpt>
<trkpt lat="48.969055175781" lon="3.2030596733093"><ele></ele><time>2022-6-1T9:2:50Z</time></trkpt>
<trkpt lat="48.968921661377" lon="3.2029459476471"><ele></ele><time>2022-6-1T9:2:53Z</time></trkpt>
<trkpt lat="48.968971252441" lon="3.2027344703674"><ele></ele><time>2022-6-1T9:2:56Z</time></trkpt>
<trkpt lat="48.96900177002" lon="3.2026567459106"><ele></ele><time>2022-6-1T9:2:59Z</time></trkpt>
<trkpt lat="48.969043731689" lon="3.2025694847107"><ele></ele><time>2022-6-1T9:3:2Z</time></trkpt>
<trkpt lat="48.969085693359" lon="3.2024745941162"><ele></ele><time>2022-6-1T9:3:5Z</time></trkpt>
<trkpt lat="48.969116210938" lon="3.2023677825928"><ele></ele><time>2022-6-1T9:3:8Z</time></trkpt>
<trkpt lat="48.969161987305" lon="3.2022361755371"><ele></ele><time>2022-6-1T9:3:11Z</time></trkpt>
<trkpt lat="48.969226837158" lon="3.2020876407623"><ele></ele><time>2022-6-1T9:3:14Z</time></trkpt>
<trkpt lat="48.969264984131" lon="3.201993227005"><ele></ele><time>2022-6-1T9:3:17Z</time></trkpt>
<trkpt lat="48.969303131104" lon="3.2018911838531"><ele></ele><time>2022-6-1T9:3:20Z</time></trkpt>
<trkpt lat="48.969341278076" lon="3.201774597168"><ele></ele><time>2022-6-1T9:3:23Z</time></trkpt>
<trkpt lat="48.969375610352" lon="3.2016682624817"><ele></ele><time>2022-6-1T9:3:26Z</time></trkpt>
<trkpt lat="48.969409942627" lon="3.2015333175659"><ele></ele><time>2022-6-1T9:3:29Z</time></trkpt>
<trkpt lat="48.969436645508" lon="3.2013969421387"><ele></ele><time>2022-6-1T9:3:32Z</time></trkpt>
<trkpt lat="48.969463348389" lon="3.2012536525726"><ele></ele><time>2022-6-1T9:3:35Z</time></trkpt>
<trkpt lat="48.969493865967" lon="3.2011046409607"><ele></ele><time>2022-6-1T9:3:38Z</time></trkpt>
<trkpt lat="48.969524383545" lon="3.2009546756744"><ele></ele><time>2022-6-1T9:3:41Z</time></trkpt>
<trkpt lat="48.96955871582" lon="3.200795173645"><ele></ele><time>2022-6-1T9:3:44Z</time></trkpt>
<trkpt lat="48.969593048096" lon="3.2006204128265"><ele></ele><time>2022-6-1T9:3:47Z</time></trkpt>
<trkpt lat="48.969627380371" lon="3.2004451751709"><ele></ele><time>2022-6-1T9:3:50Z</time></trkpt>
<trkpt lat="48.969661712646" lon="3.2002620697021"><ele></ele><time>2022-6-1T9:3:53Z</time></trkpt>
<trkpt lat="48.969696044922" lon="3.2000708580017"><ele></ele><time>2022-6-1T9:3:56Z</time></trkpt>
<trkpt lat="48.969730377197" lon="3.1998858451843"><ele></ele><time>2022-6-1T9:3:59Z</time></trkpt>
<trkpt lat="48.96976852417" lon="3.1997017860413"><ele></ele><time>2022-6-1T9:4:2Z</time></trkpt>
<trkpt lat="48.969806671143" lon="3.199503660202"><ele></ele><time>2022-6-1T9:4:5Z</time></trkpt>
<trkpt lat="48.969848632812" lon="3.1993062496185"><ele></ele><time>2022-6-1T9:4:8Z</time></trkpt>
<trkpt lat="48.96989440918" lon="3.1991009712219"><ele></ele><time>2022-6-1T9:4:11Z</time></trkpt>
<trkpt lat="48.969944000244" lon="3.198885679245"><ele></ele><time>2022-6-1T9:4:14Z</time></trkpt>
<trkpt lat="48.969985961914" lon="3.1986725330353"><ele></ele><time>2022-6-1T9:4:17Z</time></trkpt>
<trkpt lat="48.970027923584" lon="3.1984584331512"><ele></ele><time>2022-6-1T9:4:20Z</time></trkpt>
<trkpt lat="48.970062255859" lon="3.198255777359"><ele></ele><time>2022-6-1T9:4:23Z</time></trkpt>
<trkpt lat="48.970096588135" lon="3.1980731487274"><ele></ele><time>2022-6-1T9:4:26Z</time></trkpt>
<trkpt lat="48.970123291016" lon="3.197895526886"><ele></ele><time>2022-6-1T9:4:29Z</time></trkpt>
<trkpt lat="48.970134735107" lon="3.1977157592773"><ele></ele><time>2022-6-1T9:4:32Z</time></trkpt>
<trkpt lat="48.970138549805" lon="3.1975252628326"><ele></ele><time>2022-6-1T9:4:35Z</time></trkpt>
<trkpt lat="48.970142364502" lon="3.1973369121552"><ele></ele><time>2022-6-1T9:4:38Z</time></trkpt>
<trkpt lat="48.970138549805" lon="3.19713139534"><ele></ele><time>2022-6-1T9:4:41Z</time></trkpt>
<trkpt lat="48.970123291016" lon="3.1969156265259"><ele></ele><time>2022-6-1T9:4:44Z</time></trkpt>
<trkpt lat="48.970108032227" lon="3.1967055797577"><ele></ele><time>2022-6-1T9:4:47Z</time></trkpt>
<trkpt lat="48.97008895874" lon="3.1964845657349"><ele></ele><time>2022-6-1T9:4:50Z</time></trkpt>
<trkpt lat="48.970066070557" lon="3.196249961853"><ele></ele><time>2022-6-1T9:4:53Z</time></trkpt>
<trkpt lat="48.970039367676" lon="3.1960003376007"><ele></ele><time>2022-6-1T9:4:56Z</time></trkpt>
<trkpt lat="48.970012664795" lon="3.1957321166992"><ele></ele><time>2022-6-1T9:4:59Z</time></trkpt>
<trkpt lat="48.969982147217" lon="3.1954576969147"><ele></ele><time>2022-6-1T9:5:2Z</time></trkpt>
<trkpt lat="48.969947814941" lon="3.1951911449432"><ele></ele><time>2022-6-1T9:5:5Z</time></trkpt>
<trkpt lat="48.969932556152" lon="3.1949234008789"><ele></ele><time>2022-6-1T9:5:8Z</time></trkpt>
<trkpt lat="48.969940185547" lon="3.1946065425873"><ele></ele><time>2022-6-1T9:5:11Z</time></trkpt>
<trkpt lat="48.969974517822" lon="3.1942555904388"><ele></ele><time>2022-6-1T9:5:14Z</time></trkpt>
<trkpt lat="48.970077514648" lon="3.1939444541931"><ele></ele><time>2022-6-1T9:5:17Z</time></trkpt>
<trkpt lat="48.97017288208" lon="3.1936295032501"><ele></ele><time>2022-6-1T9:5:20Z</time></trkpt>
<trkpt lat="48.970260620117" lon="3.1932284832001"><ele></ele><time>2022-6-1T9:5:23Z</time></trkpt>
<trkpt lat="48.970260620117" lon="3.1931297779083"><ele></ele><time>2022-6-1T9:5:26Z</time></trkpt>
<trkpt lat="48.970279693604" lon="3.1930437088013"><ele></ele><time>2022-6-1T9:5:29Z</time></trkpt>
<trkpt lat="48.970348358154" lon="3.1929361820221"><ele></ele><time>2022-6-1T9:5:32Z</time></trkpt>
<trkpt lat="48.9704246521" lon="3.1928033828735"><ele></ele><time>2022-6-1T9:5:35Z</time></trkpt>
<trkpt lat="48.970497131348" lon="3.1926507949829"><ele></ele><time>2022-6-1T9:5:38Z</time></trkpt>
<trkpt lat="48.970561981201" lon="3.1924829483032"><ele></ele><time>2022-6-1T9:5:41Z</time></trkpt>
<trkpt lat="48.970626831055" lon="3.1923246383667"><ele></ele><time>2022-6-1T9:5:44Z</time></trkpt>
<trkpt lat="48.970653533936" lon="3.1921684741974"><ele></ele><time>2022-6-1T9:5:47Z</time></trkpt>
<trkpt lat="48.97066116333" lon="3.1920101642609"><ele></ele><time>2022-6-1T9:5:50Z</time></trkpt>
<trkpt lat="48.970672607422" lon="3.1918783187866"><ele></ele><time>2022-6-1T9:5:53Z</time></trkpt>
<trkpt lat="48.970687866211" lon="3.1917963027954"><ele></ele><time>2022-6-1T9:5:56Z</time></trkpt>
<trkpt lat="48.970718383789" lon="3.1916859149933"><ele></ele><time>2022-6-1T9:5:59Z</time></trkpt>
<trkpt lat="48.970752716064" lon="3.1915814876556"><ele></ele><time>2022-6-1T9:6:2Z</time></trkpt>
<trkpt lat="48.970779418945" lon="3.191478729248"><ele></ele><time>2022-6-1T9:6:5Z</time></trkpt>
<trkpt lat="48.970813751221" lon="3.1913669109344"><ele></ele><time>2022-6-1T9:6:8Z</time></trkpt>
<trkpt lat="48.970848083496" lon="3.1912484169006"><ele></ele><time>2022-6-1T9:6:11Z</time></trkpt>
<trkpt lat="48.970886230469" lon="3.191123008728"><ele></ele><time>2022-6-1T9:6:14Z</time></trkpt>
<trkpt lat="48.970920562744" lon="3.1909968852997"><ele></ele><time>2022-6-1T9:6:17Z</time></trkpt>
<trkpt lat="48.970962524414" lon="3.1908640861511"><ele></ele><time>2022-6-1T9:6:20Z</time></trkpt>
<trkpt lat="48.971004486084" lon="3.1907377243042"><ele></ele><time>2022-6-1T9:6:23Z</time></trkpt>
<trkpt lat="48.971019744873" lon="3.1906304359436"><ele></ele><time>2022-6-1T9:6:26Z</time></trkpt>
<trkpt lat="48.971019744873" lon="3.1906304359436"><ele></ele><time>2022-6-1T9:6:29Z</time></trkpt>
<trkpt lat="48.97095489502" lon="3.1905624866486"><ele></ele><time>2022-6-1T9:6:32Z</time></trkpt>
<trkpt lat="48.97095489502" lon="3.1905624866486"><ele></ele><time>2022-6-1T9:6:35Z</time></trkpt>
<trkpt lat="48.97095489502" lon="3.1905624866486"><ele></ele><time>2022-6-1T9:6:38Z</time></trkpt>
<trkpt lat="48.970897674561" lon="3.1905763149261"><ele></ele><time>2022-6-1T9:6:41Z</time></trkpt>
<trkpt lat="48.970935821533" lon="3.1905057430267"><ele></ele><time>2022-6-1T9:6:44Z</time></trkpt>
<trkpt lat="48.970848083496" lon="3.1905748844147"><ele></ele><time>2022-6-1T9:6:47Z</time></trkpt>
<trkpt lat="48.970848083496" lon="3.1905748844147"><ele></ele><time>2022-6-1T9:6:50Z</time></trkpt>
<trkpt lat="48.970771789551" lon="3.1906011104584"><ele></ele><time>2022-6-1T9:6:53Z</time></trkpt>
<trkpt lat="48.970771789551" lon="3.1906011104584"><ele></ele><time>2022-6-1T9:6:56Z</time></trkpt>
<trkpt lat="48.970680236816" lon="3.1905574798584"><ele></ele><time>2022-6-1T9:6:59Z</time></trkpt>
<trkpt lat="48.97061920166" lon="3.1905193328857"><ele></ele><time>2022-6-1T9:7:2Z</time></trkpt>
<trkpt lat="48.970550537109" lon="3.1904728412628"><ele></ele><time>2022-6-1T9:7:5Z</time></trkpt>
<trkpt lat="48.970462799072" lon="3.1904137134552"><ele></ele><time>2022-6-1T9:7:8Z</time></trkpt>
<trkpt lat="48.970371246338" lon="3.1903479099274"><ele></ele><time>2022-6-1T9:7:11Z</time></trkpt>
<trkpt lat="48.970291137695" lon="3.1902899742126"><ele></ele><time>2022-6-1T9:7:14Z</time></trkpt>
<trkpt lat="48.970222473145" lon="3.1902112960815"><ele></ele><time>2022-6-1T9:7:17Z</time></trkpt>
<trkpt lat="48.970188140869" lon="3.1900842189789"><ele></ele><time>2022-6-1T9:7:20Z</time></trkpt>
<trkpt lat="48.970199584961" lon="3.1899235248566"><ele></ele><time>2022-6-1T9:7:23Z</time></trkpt>
<trkpt lat="48.970222473145" lon="3.1897690296173"><ele></ele><time>2022-6-1T9:7:26Z</time></trkpt>
<trkpt lat="48.970245361328" lon="3.1896305084229"><ele></ele><time>2022-6-1T9:7:29Z</time></trkpt>
<trkpt lat="48.970268249512" lon="3.1894953250885"><ele></ele><time>2022-6-1T9:7:32Z</time></trkpt>
<trkpt lat="48.970291137695" lon="3.1893656253815"><ele></ele><time>2022-6-1T9:7:35Z</time></trkpt>
<trkpt lat="48.970317840576" lon="3.1892304420471"><ele></ele><time>2022-6-1T9:7:38Z</time></trkpt>
<trkpt lat="48.97034072876" lon="3.1890885829926"><ele></ele><time>2022-6-1T9:7:41Z</time></trkpt>
<trkpt lat="48.970363616943" lon="3.1889588832855"><ele></ele><time>2022-6-1T9:7:44Z</time></trkpt>
<trkpt lat="48.97038269043" lon="3.1888382434845"><ele></ele><time>2022-6-1T9:7:47Z</time></trkpt>
<trkpt lat="48.970405578613" lon="3.1887269020081"><ele></ele><time>2022-6-1T9:7:50Z</time></trkpt>
<trkpt lat="48.9704246521" lon="3.1886203289032"><ele></ele><time>2022-6-1T9:7:53Z</time></trkpt>
<trkpt lat="48.970447540283" lon="3.1885116100311"><ele></ele><time>2022-6-1T9:7:56Z</time></trkpt>
<trkpt lat="48.970470428467" lon="3.1883955001831"><ele></ele><time>2022-6-1T9:7:59Z</time></trkpt>
<trkpt lat="48.970489501953" lon="3.1882858276367"><ele></ele><time>2022-6-1T9:8:2Z</time></trkpt>
<trkpt lat="48.970508575439" lon="3.1881792545319"><ele></ele><time>2022-6-1T9:8:5Z</time></trkpt>
<trkpt lat="48.970527648926" lon="3.1880693435669"><ele></ele><time>2022-6-1T9:8:8Z</time></trkpt>
<trkpt lat="48.970546722412" lon="3.1879584789276"><ele></ele><time>2022-6-1T9:8:11Z</time></trkpt>
<trkpt lat="48.970558166504" lon="3.1878533363342"><ele></ele><time>2022-6-1T9:8:14Z</time></trkpt>
<trkpt lat="48.97057723999" lon="3.18776512146"><ele></ele><time>2022-6-1T9:8:17Z</time></trkpt>
<trkpt lat="48.970600128174" lon="3.187673330307"><ele></ele><time>2022-6-1T9:8:20Z</time></trkpt>
<trkpt lat="48.970615386963" lon="3.1875762939453"><ele></ele><time>2022-6-1T9:8:23Z</time></trkpt>
<trkpt lat="48.970615386963" lon="3.1875762939453"><ele></ele><time>2022-6-1T9:8:26Z</time></trkpt>
<trkpt lat="48.970657348633" lon="3.1873948574066"><ele></ele><time>2022-6-1T9:8:29Z</time></trkpt>
<trkpt lat="48.970672607422" lon="3.1873121261597"><ele></ele><time>2022-6-1T9:8:32Z</time></trkpt>
<trkpt lat="48.970672607422" lon="3.1873121261597"><ele></ele><time>2022-6-1T9:8:35Z</time></trkpt>
<trkpt lat="48.970687866211" lon="3.1871733665466"><ele></ele><time>2022-6-1T9:8:38Z</time></trkpt>
<trkpt lat="48.970687866211" lon="3.1871733665466"><ele></ele><time>2022-6-1T9:8:41Z</time></trkpt>
<trkpt lat="48.970695495605" lon="3.1870317459106"><ele></ele><time>2022-6-1T9:8:44Z</time></trkpt>
<trkpt lat="48.970695495605" lon="3.1870317459106"><ele></ele><time>2022-6-1T9:8:47Z</time></trkpt>
<trkpt lat="48.970691680908" lon="3.1868963241577"><ele></ele><time>2022-6-1T9:8:50Z</time></trkpt>
<trkpt lat="48.970691680908" lon="3.1868963241577"><ele></ele><time>2022-6-1T9:8:53Z</time></trkpt>
<trkpt lat="48.970691680908" lon="3.1867752075195"><ele></ele><time>2022-6-1T9:8:56Z</time></trkpt>
<trkpt lat="48.970691680908" lon="3.1867752075195"><ele></ele><time>2022-6-1T9:8:59Z</time></trkpt>
<trkpt lat="48.970687866211" lon="3.1866478919983"><ele></ele><time>2022-6-1T9:9:2Z</time></trkpt>
<trkpt lat="48.970687866211" lon="3.1866478919983"><ele></ele><time>2022-6-1T9:9:5Z</time></trkpt>
<trkpt lat="48.970680236816" lon="3.1865084171295"><ele></ele><time>2022-6-1T9:9:8Z</time></trkpt>
<trkpt lat="48.970680236816" lon="3.1865084171295"><ele></ele><time>2022-6-1T9:9:11Z</time></trkpt>
<trkpt lat="48.970676422119" lon="3.1864149570465"><ele></ele><time>2022-6-1T9:9:14Z</time></trkpt>
<trkpt lat="48.970676422119" lon="3.1864149570465"><ele></ele><time>2022-6-1T9:9:17Z</time></trkpt>
<trkpt lat="48.970668792725" lon="3.186318397522"><ele></ele><time>2022-6-1T9:9:20Z</time></trkpt>
<trkpt lat="48.970657348633" lon="3.186206817627"><ele></ele><time>2022-6-1T9:9:23Z</time></trkpt>
<trkpt lat="48.970645904541" lon="3.1861045360565"><ele></ele><time>2022-6-1T9:9:26Z</time></trkpt>
<trkpt lat="48.970630645752" lon="3.1859760284424"><ele></ele><time>2022-6-1T9:9:29Z</time></trkpt>
<trkpt lat="48.970634460449" lon="3.1858670711517"><ele></ele><time>2022-6-1T9:9:32Z</time></trkpt>
<trkpt lat="48.970634460449" lon="3.1858670711517"><ele></ele><time>2022-6-1T9:9:35Z</time></trkpt>
<trkpt lat="48.970630645752" lon="3.1857686042786"><ele></ele><time>2022-6-1T9:9:38Z</time></trkpt>
<trkpt lat="48.970630645752" lon="3.1857686042786"><ele></ele><time>2022-6-1T9:9:41Z</time></trkpt>
<trkpt lat="48.970623016357" lon="3.1856796741486"><ele></ele><time>2022-6-1T9:9:44Z</time></trkpt>
<trkpt lat="48.970623016357" lon="3.1856796741486"><ele></ele><time>2022-6-1T9:9:47Z</time></trkpt>
<trkpt lat="48.970623016357" lon="3.1855652332306"><ele></ele><time>2022-6-1T9:9:50Z</time></trkpt>
<trkpt lat="48.970623016357" lon="3.1855652332306"><ele></ele><time>2022-6-1T9:9:53Z</time></trkpt>
<trkpt lat="48.970623016357" lon="3.185462474823"><ele></ele><time>2022-6-1T9:9:56Z</time></trkpt>
<trkpt lat="48.970615386963" lon="3.1853642463684"><ele></ele><time>2022-6-1T9:9:59Z</time></trkpt>
<trkpt lat="48.970653533936" lon="3.1852650642395"><ele></ele><time>2022-6-1T9:10:2Z</time></trkpt>
<trkpt lat="48.970653533936" lon="3.1852650642395"><ele></ele><time>2022-6-1T9:10:5Z</time></trkpt>
<trkpt lat="48.970691680908" lon="3.1851918697357"><ele></ele><time>2022-6-1T9:10:8Z</time></trkpt>
<trkpt lat="48.970756530762" lon="3.1851055622101"><ele></ele><time>2022-6-1T9:10:11Z</time></trkpt>
<trkpt lat="48.970806121826" lon="3.1850175857544"><ele></ele><time>2022-6-1T9:10:14Z</time></trkpt>
<trkpt lat="48.970806121826" lon="3.1850175857544"><ele></ele><time>2022-6-1T9:10:17Z</time></trkpt>
<trkpt lat="48.970844268799" lon="3.1849410533905"><ele></ele><time>2022-6-1T9:10:20Z</time></trkpt>
<trkpt lat="48.970844268799" lon="3.1849410533905"><ele></ele><time>2022-6-1T9:10:23Z</time></trkpt>
<trkpt lat="48.970886230469" lon="3.1848793029785"><ele></ele><time>2022-6-1T9:10:26Z</time></trkpt>
<trkpt lat="48.970886230469" lon="3.1848793029785"><ele></ele><time>2022-6-1T9:10:29Z</time></trkpt>
<trkpt lat="48.970932006836" lon="3.1848199367523"><ele></ele><time>2022-6-1T9:10:32Z</time></trkpt>
<trkpt lat="48.970932006836" lon="3.1848199367523"><ele></ele><time>2022-6-1T9:10:35Z</time></trkpt>
<trkpt lat="48.970901489258" lon="3.1847558021545"><ele></ele><time>2022-6-1T9:10:38Z</time></trkpt>
<trkpt lat="48.97087097168" lon="3.1847050189972"><ele></ele><time>2022-6-1T9:10:41Z</time></trkpt>
<trkpt lat="48.970836639404" lon="3.1846673488617"><ele></ele><time>2022-6-1T9:10:44Z</time></trkpt>
<trkpt lat="48.970802307129" lon="3.1846394538879"><ele></ele><time>2022-6-1T9:10:47Z</time></trkpt>
<trkpt lat="48.970775604248" lon="3.1846170425415"><ele></ele><time>2022-6-1T9:10:50Z</time></trkpt>
<trkpt lat="48.970718383789" lon="3.1845667362213"><ele></ele><time>2022-6-1T9:10:53Z</time></trkpt>
<trkpt lat="48.970653533936" lon="3.184494972229"><ele></ele><time>2022-6-1T9:10:56Z</time></trkpt>
<trkpt lat="48.970653533936" lon="3.184494972229"><ele></ele><time>2022-6-1T9:10:59Z</time></trkpt>
<trkpt lat="48.970653533936" lon="3.184494972229"><ele></ele><time>2022-6-1T9:11:2Z</time></trkpt>
<trkpt lat="48.970588684082" lon="3.1844272613525"><ele></ele><time>2022-6-1T9:11:5Z</time></trkpt>
<trkpt lat="48.970588684082" lon="3.1844272613525"><ele></ele><time>2022-6-1T9:11:8Z</time></trkpt>
<trkpt lat="48.970539093018" lon="3.1843585968018"><ele></ele><time>2022-6-1T9:11:11Z</time></trkpt>
<trkpt lat="48.970539093018" lon="3.1843585968018"><ele></ele><time>2022-6-1T9:11:14Z</time></trkpt>
<trkpt lat="48.970497131348" lon="3.184287071228"><ele></ele><time>2022-6-1T9:11:17Z</time></trkpt>
<trkpt lat="48.970447540283" lon="3.1842195987701"><ele></ele><time>2022-6-1T9:11:20Z</time></trkpt>
<trkpt lat="48.970409393311" lon="3.1841371059418"><ele></ele><time>2022-6-1T9:11:23Z</time></trkpt>
<trkpt lat="48.970371246338" lon="3.184056520462"><ele></ele><time>2022-6-1T9:11:26Z</time></trkpt>
<trkpt lat="48.970371246338" lon="3.184056520462"><ele></ele><time>2022-6-1T9:11:29Z</time></trkpt>
<trkpt lat="48.970371246338" lon="3.184056520462"><ele></ele><time>2022-6-1T9:11:32Z</time></trkpt>
<trkpt lat="48.970314025879" lon="3.183981180191"><ele></ele><time>2022-6-1T9:11:35Z</time></trkpt>
<trkpt lat="48.970314025879" lon="3.183981180191"><ele></ele><time>2022-6-1T9:11:38Z</time></trkpt>
<trkpt lat="48.970314025879" lon="3.183981180191"><ele></ele><time>2022-6-1T9:11:41Z</time></trkpt>
<trkpt lat="48.970237731934" lon="3.1839072704315"><ele></ele><time>2022-6-1T9:11:44Z</time></trkpt>
<trkpt lat="48.970237731934" lon="3.1839072704315"><ele></ele><time>2022-6-1T9:11:47Z</time></trkpt>
<trkpt lat="48.970180511475" lon="3.1838710308075"><ele></ele><time>2022-6-1T9:11:50Z</time></trkpt>
<trkpt lat="48.970115661621" lon="3.1838722229004"><ele></ele><time>2022-6-1T9:11:53Z</time></trkpt>
<trkpt lat="48.970054626465" lon="3.1839129924774"><ele></ele><time>2022-6-1T9:11:56Z</time></trkpt>
<trkpt lat="48.96997833252" lon="3.1839661598206"><ele></ele><time>2022-6-1T9:11:59Z</time></trkpt>
<trkpt lat="48.969879150391" lon="3.1840150356293"><ele></ele><time>2022-6-1T9:12:2Z</time></trkpt>
<trkpt lat="48.969825744629" lon="3.1840476989746"><ele></ele><time>2022-6-1T9:12:5Z</time></trkpt>
<trkpt lat="48.969738006592" lon="3.1841061115265"><ele></ele><time>2022-6-1T9:12:8Z</time></trkpt>
<trkpt lat="48.969680786133" lon="3.1841387748718"><ele></ele><time>2022-6-1T9:12:11Z</time></trkpt>
<trkpt lat="48.969589233398" lon="3.1841726303101"><ele></ele><time>2022-6-1T9:12:14Z</time></trkpt>
<trkpt lat="48.969589233398" lon="3.1841726303101"><ele></ele><time>2022-6-1T9:12:17Z</time></trkpt>
<trkpt lat="48.969509124756" lon="3.1841766834259"><ele></ele><time>2022-6-1T9:12:20Z</time></trkpt>
<trkpt lat="48.969509124756" lon="3.1841766834259"><ele></ele><time>2022-6-1T9:12:23Z</time></trkpt>
<trkpt lat="48.969421386719" lon="3.184211730957"><ele></ele><time>2022-6-1T9:12:26Z</time></trkpt>
<trkpt lat="48.969421386719" lon="3.184211730957"><ele></ele><time>2022-6-1T9:12:29Z</time></trkpt>
<trkpt lat="48.969333648682" lon="3.1842551231384"><ele></ele><time>2022-6-1T9:12:32Z</time></trkpt>
<trkpt lat="48.969333648682" lon="3.1842551231384"><ele></ele><time>2022-6-1T9:12:35Z</time></trkpt>
<trkpt lat="48.969264984131" lon="3.1842772960663"><ele></ele><time>2022-6-1T9:12:38Z</time></trkpt>
<trkpt lat="48.969264984131" lon="3.1842772960663"><ele></ele><time>2022-6-1T9:12:41Z</time></trkpt>
<trkpt lat="48.969184875488" lon="3.1843137741089"><ele></ele><time>2022-6-1T9:12:44Z</time></trkpt>
<trkpt lat="48.969184875488" lon="3.1843137741089"><ele></ele><time>2022-6-1T9:12:47Z</time></trkpt>
<trkpt lat="48.969108581543" lon="3.184356212616"><ele></ele><time>2022-6-1T9:12:50Z</time></trkpt>
<trkpt lat="48.969108581543" lon="3.184356212616"><ele></ele><time>2022-6-1T9:12:53Z</time></trkpt>
<trkpt lat="48.969108581543" lon="3.184356212616"><ele></ele><time>2022-6-1T9:12:56Z</time></trkpt>
<trkpt lat="48.9690284729" lon="3.1843867301941"><ele></ele><time>2022-6-1T9:12:59Z</time></trkpt>
<trkpt lat="48.9690284729" lon="3.1843867301941"><ele></ele><time>2022-6-1T9:13:2Z</time></trkpt>
<trkpt lat="48.968933105469" lon="3.1844155788422"><ele></ele><time>2022-6-1T9:13:5Z</time></trkpt>
<trkpt lat="48.968933105469" lon="3.1844155788422"><ele></ele><time>2022-6-1T9:13:8Z</time></trkpt>
<trkpt lat="48.968849182129" lon="3.1844637393951"><ele></ele><time>2022-6-1T9:13:11Z</time></trkpt>
<trkpt lat="48.968849182129" lon="3.1844637393951"><ele></ele><time>2022-6-1T9:13:14Z</time></trkpt>
<trkpt lat="48.968807220459" lon="3.1844866275787"><ele></ele><time>2022-6-1T9:13:17Z</time></trkpt>
<trkpt lat="48.968772888184" lon="3.184508562088"><ele></ele><time>2022-6-1T9:13:20Z</time></trkpt>
<trkpt lat="48.968742370605" lon="3.184531211853"><ele></ele><time>2022-6-1T9:13:23Z</time></trkpt>
<trkpt lat="48.968711853027" lon="3.1845555305481"><ele></ele><time>2022-6-1T9:13:26Z</time></trkpt>
<trkpt lat="48.968685150146" lon="3.1845803260803"><ele></ele><time>2022-6-1T9:13:29Z</time></trkpt>
<trkpt lat="48.968685150146" lon="3.1845803260803"><ele></ele><time>2022-6-1T9:13:32Z</time></trkpt>
<trkpt lat="48.968620300293" lon="3.1846430301666"><ele></ele><time>2022-6-1T9:13:35Z</time></trkpt>
<trkpt lat="48.968620300293" lon="3.1846430301666"><ele></ele><time>2022-6-1T9:13:38Z</time></trkpt>
<trkpt lat="48.968620300293" lon="3.1846430301666"><ele></ele><time>2022-6-1T9:13:41Z</time></trkpt>
<trkpt lat="48.968563079834" lon="3.1846985816956"><ele></ele><time>2022-6-1T9:13:44Z</time></trkpt>
<trkpt lat="48.968563079834" lon="3.1846985816956"><ele></ele><time>2022-6-1T9:13:47Z</time></trkpt>
<trkpt lat="48.968509674072" lon="3.1847422122955"><ele></ele><time>2022-6-1T9:13:50Z</time></trkpt>
<trkpt lat="48.968509674072" lon="3.1847422122955"><ele></ele><time>2022-6-1T9:13:53Z</time></trkpt>
<trkpt lat="48.968437194824" lon="3.1847910881042"><ele></ele><time>2022-6-1T9:13:56Z</time></trkpt>
<trkpt lat="48.968437194824" lon="3.1847910881042"><ele></ele><time>2022-6-1T9:13:59Z</time></trkpt>
<trkpt lat="48.968437194824" lon="3.1847910881042"><ele></ele><time>2022-6-1T9:14:2Z</time></trkpt>
<trkpt lat="48.968364715576" lon="3.1848366260529"><ele></ele><time>2022-6-1T9:14:5Z</time></trkpt>
<trkpt lat="48.968364715576" lon="3.1848366260529"><ele></ele><time>2022-6-1T9:14:8Z</time></trkpt>
<trkpt lat="48.968364715576" lon="3.1848366260529"><ele></ele><time>2022-6-1T9:14:11Z</time></trkpt>
<trkpt lat="48.968296051025" lon="3.184871673584"><ele></ele><time>2022-6-1T9:14:14Z</time></trkpt>
<trkpt lat="48.968296051025" lon="3.184871673584"><ele></ele><time>2022-6-1T9:14:17Z</time></trkpt>
<trkpt lat="48.968296051025" lon="3.184871673584"><ele></ele><time>2022-6-1T9:14:20Z</time></trkpt>
<trkpt lat="48.968227386475" lon="3.1849048137665"><ele></ele><time>2022-6-1T9:14:23Z</time></trkpt>
<trkpt lat="48.968227386475" lon="3.1849048137665"><ele></ele><time>2022-6-1T9:14:26Z</time></trkpt>
<trkpt lat="48.968227386475" lon="3.1849048137665"><ele></ele><time>2022-6-1T9:14:29Z</time></trkpt>
<trkpt lat="48.968154907227" lon="3.1849112510681"><ele></ele><time>2022-6-1T9:14:32Z</time></trkpt>
<trkpt lat="48.968154907227" lon="3.1849112510681"><ele></ele><time>2022-6-1T9:14:35Z</time></trkpt>
<trkpt lat="48.96809387207" lon="3.184916973114"><ele></ele><time>2022-6-1T9:14:38Z</time></trkpt>
<trkpt lat="48.96809387207" lon="3.184916973114"><ele></ele><time>2022-6-1T9:14:41Z</time></trkpt>
<trkpt lat="48.96809387207" lon="3.184916973114"><ele></ele><time>2022-6-1T9:14:44Z</time></trkpt>
<trkpt lat="48.968002319336" lon="3.1849310398102"><ele></ele><time>2022-6-1T9:14:47Z</time></trkpt>
<trkpt lat="48.968002319336" lon="3.1849310398102"><ele></ele><time>2022-6-1T9:14:50Z</time></trkpt>
<trkpt lat="48.967903137207" lon="3.1849179267883"><ele></ele><time>2022-6-1T9:14:53Z</time></trkpt>
<trkpt lat="48.967819213867" lon="3.184903383255"><ele></ele><time>2022-6-1T9:14:56Z</time></trkpt>
<trkpt lat="48.967735290527" lon="3.1848928928375"><ele></ele><time>2022-6-1T9:14:59Z</time></trkpt>
<trkpt lat="48.967651367188" lon="3.1848866939545"><ele></ele><time>2022-6-1T9:15:2Z</time></trkpt>
<trkpt lat="48.967567443848" lon="3.1848771572113"><ele></ele><time>2022-6-1T9:15:5Z</time></trkpt>
<trkpt lat="48.967479705811" lon="3.1848604679108"><ele></ele><time>2022-6-1T9:15:8Z</time></trkpt>
<trkpt lat="48.967479705811" lon="3.1848604679108"><ele></ele><time>2022-6-1T9:15:11Z</time></trkpt>
<trkpt lat="48.967391967773" lon="3.1848418712616"><ele></ele><time>2022-6-1T9:15:14Z</time></trkpt>
<trkpt lat="48.967391967773" lon="3.1848418712616"><ele></ele><time>2022-6-1T9:15:17Z</time></trkpt>
<trkpt lat="48.967323303223" lon="3.1848294734955"><ele></ele><time>2022-6-1T9:15:20Z</time></trkpt>
<trkpt lat="48.967323303223" lon="3.1848294734955"><ele></ele><time>2022-6-1T9:15:23Z</time></trkpt>
<trkpt lat="48.967250823975" lon="3.1848206520081"><ele></ele><time>2022-6-1T9:15:26Z</time></trkpt>
<trkpt lat="48.967250823975" lon="3.1848206520081"><ele></ele><time>2022-6-1T9:15:29Z</time></trkpt>
<trkpt lat="48.967174530029" lon="3.1848104000092"><ele></ele><time>2022-6-1T9:15:32Z</time></trkpt>
<trkpt lat="48.967174530029" lon="3.1848104000092"><ele></ele><time>2022-6-1T9:15:35Z</time></trkpt>
<trkpt lat="48.967105865479" lon="3.1848022937775"><ele></ele><time>2022-6-1T9:15:38Z</time></trkpt>
<trkpt lat="48.967105865479" lon="3.1848022937775"><ele></ele><time>2022-6-1T9:15:41Z</time></trkpt>
<trkpt lat="48.967105865479" lon="3.1848022937775"><ele></ele><time>2022-6-1T9:15:44Z</time></trkpt>
<trkpt lat="48.967067718506" lon="3.184796333313"><ele></ele><time>2022-6-1T9:15:47Z</time></trkpt>
<trkpt lat="48.967029571533" lon="3.1847884654999"><ele></ele><time>2022-6-1T9:15:50Z</time></trkpt>
<trkpt lat="48.967002868652" lon="3.1847803592682"><ele></ele><time>2022-6-1T9:15:53Z</time></trkpt>
<trkpt lat="48.966968536377" lon="3.1847727298737"><ele></ele><time>2022-6-1T9:15:56Z</time></trkpt>
<trkpt lat="48.966938018799" lon="3.1847629547119"><ele></ele><time>2022-6-1T9:15:59Z</time></trkpt>
<trkpt lat="48.966873168945" lon="3.1847393512726"><ele></ele><time>2022-6-1T9:16:2Z</time></trkpt>
<trkpt lat="48.966873168945" lon="3.1847393512726"><ele></ele><time>2022-6-1T9:16:5Z</time></trkpt>
<trkpt lat="48.966873168945" lon="3.1847393512726"><ele></ele><time>2022-6-1T9:16:8Z</time></trkpt>
<trkpt lat="48.966796875" lon="3.184689283371"><ele></ele><time>2022-6-1T9:16:11Z</time></trkpt>
<trkpt lat="48.966796875" lon="3.184689283371"><ele></ele><time>2022-6-1T9:16:14Z</time></trkpt>
<trkpt lat="48.966747283936" lon="3.1846420764923"><ele></ele><time>2022-6-1T9:16:17Z</time></trkpt>
<trkpt lat="48.966747283936" lon="3.1846420764923"><ele></ele><time>2022-6-1T9:16:20Z</time></trkpt>
<trkpt lat="48.966686248779" lon="3.1845834255219"><ele></ele><time>2022-6-1T9:16:23Z</time></trkpt>
<trkpt lat="48.966621398926" lon="3.1845166683197"><ele></ele><time>2022-6-1T9:16:26Z</time></trkpt>
<trkpt lat="48.966567993164" lon="3.1844854354858"><ele></ele><time>2022-6-1T9:16:29Z</time></trkpt>
<trkpt lat="48.966491699219" lon="3.1844489574432"><ele></ele><time>2022-6-1T9:16:32Z</time></trkpt>
<trkpt lat="48.96639251709" lon="3.1844103336334"><ele></ele><time>2022-6-1T9:16:35Z</time></trkpt>
<trkpt lat="48.966327667236" lon="3.1843779087067"><ele></ele><time>2022-6-1T9:16:38Z</time></trkpt>
<trkpt lat="48.966239929199" lon="3.1843404769897"><ele></ele><time>2022-6-1T9:16:41Z</time></trkpt>
<trkpt lat="48.966148376465" lon="3.1842715740204"><ele></ele><time>2022-6-1T9:16:44Z</time></trkpt>
<trkpt lat="48.96605682373" lon="3.1842000484467"><ele></ele><time>2022-6-1T9:16:47Z</time></trkpt>
<trkpt lat="48.965976715088" lon="3.1841490268707"><ele></ele><time>2022-6-1T9:16:50Z</time></trkpt>
<trkpt lat="48.965881347656" lon="3.1840796470642"><ele></ele><time>2022-6-1T9:16:53Z</time></trkpt>
<trkpt lat="48.965881347656" lon="3.1840796470642"><ele></ele><time>2022-6-1T9:16:56Z</time></trkpt>
<trkpt lat="48.965801239014" lon="3.1840348243713"><ele></ele><time>2022-6-1T9:16:59Z</time></trkpt>
<trkpt lat="48.965801239014" lon="3.1840348243713"><ele></ele><time>2022-6-1T9:17:2Z</time></trkpt>
<trkpt lat="48.965724945068" lon="3.1839854717255"><ele></ele><time>2022-6-1T9:17:5Z</time></trkpt>
<trkpt lat="48.965724945068" lon="3.1839854717255"><ele></ele><time>2022-6-1T9:17:8Z</time></trkpt>
<trkpt lat="48.965648651123" lon="3.1839287281036"><ele></ele><time>2022-6-1T9:17:11Z</time></trkpt>
<trkpt lat="48.965648651123" lon="3.1839287281036"><ele></ele><time>2022-6-1T9:17:14Z</time></trkpt>
<trkpt lat="48.965587615967" lon="3.1838715076447"><ele></ele><time>2022-6-1T9:17:17Z</time></trkpt>
<trkpt lat="48.965587615967" lon="3.1838715076447"><ele></ele><time>2022-6-1T9:17:20Z</time></trkpt>
<trkpt lat="48.965534210205" lon="3.1837992668152"><ele></ele><time>2022-6-1T9:17:23Z</time></trkpt>
<trkpt lat="48.965534210205" lon="3.1837992668152"><ele></ele><time>2022-6-1T9:17:26Z</time></trkpt>
<trkpt lat="48.965465545654" lon="3.1837115287781"><ele></ele><time>2022-6-1T9:17:29Z</time></trkpt>
<trkpt lat="48.965465545654" lon="3.1837115287781"><ele></ele><time>2022-6-1T9:17:32Z</time></trkpt>
<trkpt lat="48.965393066406" lon="3.1836252212524"><ele></ele><time>2022-6-1T9:17:35Z</time></trkpt>
<trkpt lat="48.965316772461" lon="3.1835868358612"><ele></ele><time>2022-6-1T9:17:38Z</time></trkpt>
<trkpt lat="48.965316772461" lon="3.1835868358612"><ele></ele><time>2022-6-1T9:17:41Z</time></trkpt>
<trkpt lat="48.965232849121" lon="3.1834995746613"><ele></ele><time>2022-6-1T9:17:44Z</time></trkpt>
<trkpt lat="48.965156555176" lon="3.18341588974"><ele></ele><time>2022-6-1T9:17:47Z</time></trkpt>
<trkpt lat="48.96508026123" lon="3.1833620071411"><ele></ele><time>2022-6-1T9:17:50Z</time></trkpt>
<trkpt lat="48.964984893799" lon="3.1833229064941"><ele></ele><time>2022-6-1T9:17:53Z</time></trkpt>
<trkpt lat="48.96492767334" lon="3.1833076477051"><ele></ele><time>2022-6-1T9:17:56Z</time></trkpt>
<trkpt lat="48.964859008789" lon="3.1832804679871"><ele></ele><time>2022-6-1T9:17:59Z</time></trkpt>
<trkpt lat="48.964790344238" lon="3.1832575798035"><ele></ele><time>2022-6-1T9:18:2Z</time></trkpt>
<trkpt lat="48.964687347412" lon="3.1832363605499"><ele></ele><time>2022-6-1T9:18:5Z</time></trkpt>
<trkpt lat="48.9645652771" lon="3.1831951141357"><ele></ele><time>2022-6-1T9:18:8Z</time></trkpt>
<trkpt lat="48.96448135376" lon="3.1831769943237"><ele></ele><time>2022-6-1T9:18:11Z</time></trkpt>
<trkpt lat="48.964420318604" lon="3.1831471920013"><ele></ele><time>2022-6-1T9:18:14Z</time></trkpt>
<trkpt lat="48.96435546875" lon="3.1831109523773"><ele></ele><time>2022-6-1T9:18:17Z</time></trkpt>
<trkpt lat="48.964290618896" lon="3.1830756664276"><ele></ele><time>2022-6-1T9:18:20Z</time></trkpt>
<trkpt lat="48.964206695557" lon="3.183048248291"><ele></ele><time>2022-6-1T9:18:23Z</time></trkpt>
<trkpt lat="48.964092254639" lon="3.1830351352692"><ele></ele><time>2022-6-1T9:18:26Z</time></trkpt>
<trkpt lat="48.963970184326" lon="3.183070898056"><ele></ele><time>2022-6-1T9:18:29Z</time></trkpt>
<trkpt lat="48.963882446289" lon="3.1830675601959"><ele></ele><time>2022-6-1T9:18:32Z</time></trkpt>
<trkpt lat="48.963802337646" lon="3.1830480098724"><ele></ele><time>2022-6-1T9:18:35Z</time></trkpt>
<trkpt lat="48.963703155518" lon="3.1830224990845"><ele></ele><time>2022-6-1T9:18:38Z</time></trkpt>
<trkpt lat="48.963611602783" lon="3.1829962730408"><ele></ele><time>2022-6-1T9:18:41Z</time></trkpt>
<trkpt lat="48.963497161865" lon="3.1829540729523"><ele></ele><time>2022-6-1T9:18:44Z</time></trkpt>
<trkpt lat="48.963394165039" lon="3.1829209327698"><ele></ele><time>2022-6-1T9:18:47Z</time></trkpt>
<trkpt lat="48.963272094727" lon="3.1828906536102"><ele></ele><time>2022-6-1T9:18:50Z</time></trkpt>
<trkpt lat="48.963165283203" lon="3.1828651428223"><ele></ele><time>2022-6-1T9:18:53Z</time></trkpt>
<trkpt lat="48.963085174561" lon="3.1828141212463"><ele></ele><time>2022-6-1T9:18:56Z</time></trkpt>
<trkpt lat="48.963001251221" lon="3.1827447414398"><ele></ele><time>2022-6-1T9:18:59Z</time></trkpt>
<trkpt lat="48.962947845459" lon="3.1826548576355"><ele></ele><time>2022-6-1T9:19:2Z</time></trkpt>
<trkpt lat="48.962902069092" lon="3.1825485229492"><ele></ele><time>2022-6-1T9:19:5Z</time></trkpt>
<trkpt lat="48.962856292725" lon="3.1824266910553"><ele></ele><time>2022-6-1T9:19:8Z</time></trkpt>
<trkpt lat="48.96280670166" lon="3.1823167800903"><ele></ele><time>2022-6-1T9:19:11Z</time></trkpt>
<trkpt lat="48.96276473999" lon="3.1822202205658"><ele></ele><time>2022-6-1T9:19:14Z</time></trkpt>
<trkpt lat="48.962726593018" lon="3.1821463108063"><ele></ele><time>2022-6-1T9:19:17Z</time></trkpt>
<trkpt lat="48.962684631348" lon="3.1820757389069"><ele></ele><time>2022-6-1T9:19:20Z</time></trkpt>
<trkpt lat="48.962627410889" lon="3.1820216178894"><ele></ele><time>2022-6-1T9:19:23Z</time></trkpt>
<trkpt lat="48.962627410889" lon="3.1820216178894"><ele></ele><time>2022-6-1T9:19:26Z</time></trkpt>
<trkpt lat="48.962551116943" lon="3.1819789409637"><ele></ele><time>2022-6-1T9:19:29Z</time></trkpt>
<trkpt lat="48.962551116943" lon="3.1819789409637"><ele></ele><time>2022-6-1T9:19:32Z</time></trkpt>
<trkpt lat="48.96248626709" lon="3.181973695755"><ele></ele><time>2022-6-1T9:19:35Z</time></trkpt>
<trkpt lat="48.96248626709" lon="3.181973695755"><ele></ele><time>2022-6-1T9:19:38Z</time></trkpt>
<trkpt lat="48.962440490723" lon="3.1819722652435"><ele></ele><time>2022-6-1T9:19:41Z</time></trkpt>
<trkpt lat="48.962387084961" lon="3.1819775104523"><ele></ele><time>2022-6-1T9:19:44Z</time></trkpt>
<trkpt lat="48.962329864502" lon="3.1819939613342"><ele></ele><time>2022-6-1T9:19:47Z</time></trkpt>
<trkpt lat="48.962268829346" lon="3.1820244789124"><ele></ele><time>2022-6-1T9:19:50Z</time></trkpt>
<trkpt lat="48.9621925354" lon="3.1820497512817"><ele></ele><time>2022-6-1T9:19:53Z</time></trkpt>
<trkpt lat="48.962020874023" lon="3.1820833683014"><ele></ele><time>2022-6-1T9:19:56Z</time></trkpt>
<trkpt lat="48.961944580078" lon="3.182071685791"><ele></ele><time>2022-6-1T9:19:59Z</time></trkpt>
<trkpt lat="48.961879730225" lon="3.1820328235626"><ele></ele><time>2022-6-1T9:20:2Z</time></trkpt>
<trkpt lat="48.961807250977" lon="3.1819798946381"><ele></ele><time>2022-6-1T9:20:5Z</time></trkpt>
<trkpt lat="48.961738586426" lon="3.1819133758545"><ele></ele><time>2022-6-1T9:20:8Z</time></trkpt>
<trkpt lat="48.961688995361" lon="3.1818554401398"><ele></ele><time>2022-6-1T9:20:11Z</time></trkpt>
<trkpt lat="48.961605072021" lon="3.1817388534546"><ele></ele><time>2022-6-1T9:20:14Z</time></trkpt>
<trkpt lat="48.961540222168" lon="3.1816711425781"><ele></ele><time>2022-6-1T9:20:17Z</time></trkpt>
<trkpt lat="48.961490631104" lon="3.1816017627716"><ele></ele><time>2022-6-1T9:20:20Z</time></trkpt>
<trkpt lat="48.961429595947" lon="3.1815173625946"><ele></ele><time>2022-6-1T9:20:23Z</time></trkpt>
<trkpt lat="48.961349487305" lon="3.1814532279968"><ele></ele><time>2022-6-1T9:20:26Z</time></trkpt>
<trkpt lat="48.961284637451" lon="3.1814353466034"><ele></ele><time>2022-6-1T9:20:29Z</time></trkpt>
<trkpt lat="48.961284637451" lon="3.1814353466034"><ele></ele><time>2022-6-1T9:20:32Z</time></trkpt>
<trkpt lat="48.961193084717" lon="3.1814036369324"><ele></ele><time>2022-6-1T9:20:35Z</time></trkpt>
<trkpt lat="48.961193084717" lon="3.1814036369324"><ele></ele><time>2022-6-1T9:20:38Z</time></trkpt>
<trkpt lat="48.961128234863" lon="3.1813631057739"><ele></ele><time>2022-6-1T9:20:41Z</time></trkpt>
<trkpt lat="48.961128234863" lon="3.1813631057739"><ele></ele><time>2022-6-1T9:20:44Z</time></trkpt>
<trkpt lat="48.961051940918" lon="3.1812715530396"><ele></ele><time>2022-6-1T9:20:47Z</time></trkpt>
<trkpt lat="48.961051940918" lon="3.1812715530396"><ele></ele><time>2022-6-1T9:20:50Z</time></trkpt>
<trkpt lat="48.960994720459" lon="3.1812272071838"><ele></ele><time>2022-6-1T9:20:53Z</time></trkpt>
<trkpt lat="48.960994720459" lon="3.1812272071838"><ele></ele><time>2022-6-1T9:20:56Z</time></trkpt>
<trkpt lat="48.960918426514" lon="3.181188583374"><ele></ele><time>2022-6-1T9:20:59Z</time></trkpt>
<trkpt lat="48.96085357666" lon="3.1811654567719"><ele></ele><time>2022-6-1T9:21:2Z</time></trkpt>
<trkpt lat="48.960784912109" lon="3.1811399459839"><ele></ele><time>2022-6-1T9:21:5Z</time></trkpt>
<trkpt lat="48.96068572998" lon="3.1811089515686"><ele></ele><time>2022-6-1T9:21:8Z</time></trkpt>
<trkpt lat="48.960590362549" lon="3.1810863018036"><ele></ele><time>2022-6-1T9:21:11Z</time></trkpt>
<trkpt lat="48.960498809814" lon="3.1810586452484"><ele></ele><time>2022-6-1T9:21:14Z</time></trkpt>
<trkpt lat="48.960380554199" lon="3.1810035705566"><ele></ele><time>2022-6-1T9:21:17Z</time></trkpt>
<trkpt lat="48.960308074951" lon="3.1809675693512"><ele></ele><time>2022-6-1T9:21:20Z</time></trkpt>
<trkpt lat="48.960308074951" lon="3.1809675693512"><ele></ele><time>2022-6-1T9:21:23Z</time></trkpt>
<trkpt lat="48.960227966309" lon="3.1808891296387"><ele></ele><time>2022-6-1T9:21:26Z</time></trkpt>
<trkpt lat="48.960227966309" lon="3.1808891296387"><ele></ele><time>2022-6-1T9:21:29Z</time></trkpt>
<trkpt lat="48.960174560547" lon="3.1808381080627"><ele></ele><time>2022-6-1T9:21:32Z</time></trkpt>
<trkpt lat="48.960174560547" lon="3.1808381080627"><ele></ele><time>2022-6-1T9:21:35Z</time></trkpt>
<trkpt lat="48.960124969482" lon="3.1807749271393"><ele></ele><time>2022-6-1T9:21:38Z</time></trkpt>
<trkpt lat="48.960124969482" lon="3.1807749271393"><ele></ele><time>2022-6-1T9:21:41Z</time></trkpt>
<trkpt lat="48.960124969482" lon="3.1807749271393"><ele></ele><time>2022-6-1T9:21:44Z</time></trkpt>
<trkpt lat="48.960227966309" lon="3.1803650856018"><ele></ele><time>2022-6-1T9:21:47Z</time></trkpt>
<trkpt lat="48.960227966309" lon="3.1803650856018"><ele></ele><time>2022-6-1T9:21:50Z</time></trkpt>
<trkpt lat="48.960227966309" lon="3.1803650856018"><ele></ele><time>2022-6-1T9:21:53Z</time></trkpt>
<trkpt lat="48.960155487061" lon="3.1804940700531"><ele></ele><time>2022-6-1T9:21:56Z</time></trkpt>
<trkpt lat="48.960136413574" lon="3.1807858943939"><ele></ele><time>2022-6-1T9:21:59Z</time></trkpt>
<trkpt lat="48.960201263428" lon="3.1808021068573"><ele></ele><time>2022-6-1T9:22:2Z</time></trkpt>
<trkpt lat="48.960308074951" lon="3.1808657646179"><ele></ele><time>2022-6-1T9:22:5Z</time></trkpt>
<trkpt lat="48.960372924805" lon="3.1808905601501"><ele></ele><time>2022-6-1T9:22:8Z</time></trkpt>
<trkpt lat="48.960426330566" lon="3.180921792984"><ele></ele><time>2022-6-1T9:22:11Z</time></trkpt>
<trkpt lat="48.960525512695" lon="3.180956363678"><ele></ele><time>2022-6-1T9:22:14Z</time></trkpt>
<trkpt lat="48.960613250732" lon="3.1809656620026"><ele></ele><time>2022-6-1T9:22:17Z</time></trkpt>
<trkpt lat="48.960613250732" lon="3.1809656620026"><ele></ele><time>2022-6-1T9:22:20Z</time></trkpt>
<trkpt lat="48.960693359375" lon="3.1809732913971"><ele></ele><time>2022-6-1T9:22:23Z</time></trkpt>
<trkpt lat="48.960693359375" lon="3.1809732913971"><ele></ele><time>2022-6-1T9:22:26Z</time></trkpt>
<trkpt lat="48.960758209229" lon="3.1810190677643"><ele></ele><time>2022-6-1T9:22:29Z</time></trkpt>
<trkpt lat="48.960758209229" lon="3.1810190677643"><ele></ele><time>2022-6-1T9:22:32Z</time></trkpt>
<trkpt lat="48.960834503174" lon="3.1811089515686"><ele></ele><time>2022-6-1T9:22:35Z</time></trkpt>
<trkpt lat="48.960884094238" lon="3.1811850070953"><ele></ele><time>2022-6-1T9:22:38Z</time></trkpt>
<trkpt lat="48.960960388184" lon="3.1812586784363"><ele></ele><time>2022-6-1T9:22:41Z</time></trkpt>
<trkpt lat="48.961044311523" lon="3.1813147068024"><ele></ele><time>2022-6-1T9:22:44Z</time></trkpt>
<trkpt lat="48.961132049561" lon="3.181369304657"><ele></ele><time>2022-6-1T9:22:47Z</time></trkpt>
<trkpt lat="48.961219787598" lon="3.1814370155334"><ele></ele><time>2022-6-1T9:22:50Z</time></trkpt>
<trkpt lat="48.96129989624" lon="3.1815190315247"><ele></ele><time>2022-6-1T9:22:53Z</time></trkpt>
<trkpt lat="48.961376190186" lon="3.1816141605377"><ele></ele><time>2022-6-1T9:22:56Z</time></trkpt>
<trkpt lat="48.961456298828" lon="3.1817150115967"><ele></ele><time>2022-6-1T9:22:59Z</time></trkpt>
<trkpt lat="48.961547851562" lon="3.1818099021912"><ele></ele><time>2022-6-1T9:23:2Z</time></trkpt>
<trkpt lat="48.961616516113" lon="3.1818909645081"><ele></ele><time>2022-6-1T9:23:5Z</time></trkpt>
<trkpt lat="48.961700439453" lon="3.1819574832916"><ele></ele><time>2022-6-1T9:23:8Z</time></trkpt>
<trkpt lat="48.961776733398" lon="3.1819913387299"><ele></ele><time>2022-6-1T9:23:11Z</time></trkpt>
<trkpt lat="48.961864471436" lon="3.1820001602173"><ele></ele><time>2022-6-1T9:23:14Z</time></trkpt>
<trkpt lat="48.961948394775" lon="3.1819972991943"><ele></ele><time>2022-6-1T9:23:17Z</time></trkpt>
<trkpt lat="48.962028503418" lon="3.1819958686829"><ele></ele><time>2022-6-1T9:23:20Z</time></trkpt>
<trkpt lat="48.962112426758" lon="3.1819770336151"><ele></ele><time>2022-6-1T9:23:23Z</time></trkpt>
<trkpt lat="48.962184906006" lon="3.1819548606873"><ele></ele><time>2022-6-1T9:23:26Z</time></trkpt>
<trkpt lat="48.962249755859" lon="3.18195104599"><ele></ele><time>2022-6-1T9:23:29Z</time></trkpt>
<trkpt lat="48.96231842041" lon="3.1819469928741"><ele></ele><time>2022-6-1T9:23:32Z</time></trkpt>
<trkpt lat="48.962379455566" lon="3.1819415092468"><ele></ele><time>2022-6-1T9:23:35Z</time></trkpt>
<trkpt lat="48.962379455566" lon="3.1819415092468"><ele></ele><time>2022-6-1T9:23:38Z</time></trkpt>
<trkpt lat="48.96248626709" lon="3.1820094585419"><ele></ele><time>2022-6-1T9:23:41Z</time></trkpt>
<trkpt lat="48.962551116943" lon="3.1821300983429"><ele></ele><time>2022-6-1T9:23:44Z</time></trkpt>
<trkpt lat="48.962669372559" lon="3.1824243068695"><ele></ele><time>2022-6-1T9:23:47Z</time></trkpt>
<trkpt lat="48.962741851807" lon="3.1825816631317"><ele></ele><time>2022-6-1T9:23:50Z</time></trkpt>
<trkpt lat="48.962841033936" lon="3.1827132701874"><ele></ele><time>2022-6-1T9:23:53Z</time></trkpt>
<trkpt lat="48.962921142578" lon="3.1827788352966"><ele></ele><time>2022-6-1T9:23:56Z</time></trkpt>
<trkpt lat="48.962993621826" lon="3.1827940940857"><ele></ele><time>2022-6-1T9:23:59Z</time></trkpt>
<trkpt lat="48.96305847168" lon="3.1827974319458"><ele></ele><time>2022-6-1T9:24:2Z</time></trkpt>
<trkpt lat="48.96314239502" lon="3.1828196048737"><ele></ele><time>2022-6-1T9:24:5Z</time></trkpt>
<trkpt lat="48.96314239502" lon="3.1828196048737"><ele></ele><time>2022-6-1T9:24:8Z</time></trkpt>
<trkpt lat="48.96325302124" lon="3.1828472614288"><ele></ele><time>2022-6-1T9:24:11Z</time></trkpt>
<trkpt lat="48.963317871094" lon="3.1828544139862"><ele></ele><time>2022-6-1T9:24:14Z</time></trkpt>
<trkpt lat="48.963394165039" lon="3.1828804016113"><ele></ele><time>2022-6-1T9:24:17Z</time></trkpt>
<trkpt lat="48.963481903076" lon="3.1829102039337"><ele></ele><time>2022-6-1T9:24:20Z</time></trkpt>
<trkpt lat="48.963573455811" lon="3.1829352378845"><ele></ele><time>2022-6-1T9:24:23Z</time></trkpt>
<trkpt lat="48.96363067627" lon="3.1829555034637"><ele></ele><time>2022-6-1T9:24:26Z</time></trkpt>
<trkpt lat="48.963703155518" lon="3.182975769043"><ele></ele><time>2022-6-1T9:24:29Z</time></trkpt>
<trkpt lat="48.963775634766" lon="3.1829903125763"><ele></ele><time>2022-6-1T9:24:32Z</time></trkpt>
<trkpt lat="48.963832855225" lon="3.1830096244812"><ele></ele><time>2022-6-1T9:24:35Z</time></trkpt>
<trkpt lat="48.963832855225" lon="3.1830096244812"><ele></ele><time>2022-6-1T9:24:38Z</time></trkpt>
<trkpt lat="48.963954925537" lon="3.1830444335938"><ele></ele><time>2022-6-1T9:24:41Z</time></trkpt>
<trkpt lat="48.963954925537" lon="3.1830444335938"><ele></ele><time>2022-6-1T9:24:44Z</time></trkpt>
<trkpt lat="48.964061737061" lon="3.1830582618713"><ele></ele><time>2022-6-1T9:24:47Z</time></trkpt>
<trkpt lat="48.964134216309" lon="3.1830680370331"><ele></ele><time>2022-6-1T9:24:50Z</time></trkpt>
<trkpt lat="48.964199066162" lon="3.1830863952637"><ele></ele><time>2022-6-1T9:24:53Z</time></trkpt>
<trkpt lat="48.964302062988" lon="3.1831245422363"><ele></ele><time>2022-6-1T9:24:56Z</time></trkpt>
<trkpt lat="48.964302062988" lon="3.1831245422363"><ele></ele><time>2022-6-1T9:24:59Z</time></trkpt>
<trkpt lat="48.964385986328" lon="3.1831729412079"><ele></ele><time>2022-6-1T9:25:2Z</time></trkpt>
<trkpt lat="48.964443206787" lon="3.1831936836243"><ele></ele><time>2022-6-1T9:25:5Z</time></trkpt>
<trkpt lat="48.964443206787" lon="3.1831936836243"><ele></ele><time>2022-6-1T9:25:8Z</time></trkpt>
<trkpt lat="48.964534759521" lon="3.1831974983215"><ele></ele><time>2022-6-1T9:25:11Z</time></trkpt>
<trkpt lat="48.964599609375" lon="3.1832082271576"><ele></ele><time>2022-6-1T9:25:14Z</time></trkpt>
<trkpt lat="48.964668273926" lon="3.183217048645"><ele></ele><time>2022-6-1T9:25:17Z</time></trkpt>
<trkpt lat="48.964733123779" lon="3.183230638504"><ele></ele><time>2022-6-1T9:25:20Z</time></trkpt>
<trkpt lat="48.964790344238" lon="3.1832540035248"><ele></ele><time>2022-6-1T9:25:23Z</time></trkpt>
<trkpt lat="48.964790344238" lon="3.1832540035248"><ele></ele><time>2022-6-1T9:25:26Z</time></trkpt>
<trkpt lat="48.964893341064" lon="3.183317899704"><ele></ele><time>2022-6-1T9:25:29Z</time></trkpt>
<trkpt lat="48.964965820312" lon="3.1833820343018"><ele></ele><time>2022-6-1T9:25:32Z</time></trkpt>
<trkpt lat="48.96505355835" lon="3.1834664344788"><ele></ele><time>2022-6-1T9:25:35Z</time></trkpt>
<trkpt lat="48.965133666992" lon="3.1835453510284"><ele></ele><time>2022-6-1T9:25:38Z</time></trkpt>
<trkpt lat="48.965209960938" lon="3.1836347579956"><ele></ele><time>2022-6-1T9:25:41Z</time></trkpt>
<trkpt lat="48.965301513672" lon="3.1837198734283"><ele></ele><time>2022-6-1T9:25:44Z</time></trkpt>
<trkpt lat="48.965366363525" lon="3.1837887763977"><ele></ele><time>2022-6-1T9:25:47Z</time></trkpt>
<trkpt lat="48.965473175049" lon="3.1838788986206"><ele></ele><time>2022-6-1T9:25:50Z</time></trkpt>
<trkpt lat="48.965473175049" lon="3.1838788986206"><ele></ele><time>2022-6-1T9:25:53Z</time></trkpt>
<trkpt lat="48.965587615967" lon="3.1839740276337"><ele></ele><time>2022-6-1T9:25:56Z</time></trkpt>
<trkpt lat="48.965648651123" lon="3.1840069293976"><ele></ele><time>2022-6-1T9:25:59Z</time></trkpt>
<trkpt lat="48.96573638916" lon="3.1840386390686"><ele></ele><time>2022-6-1T9:26:2Z</time></trkpt>
<trkpt lat="48.965808868408" lon="3.184065580368"><ele></ele><time>2022-6-1T9:26:5Z</time></trkpt>
<trkpt lat="48.965896606445" lon="3.1841161251068"><ele></ele><time>2022-6-1T9:26:8Z</time></trkpt>
<trkpt lat="48.96598815918" lon="3.1841683387756"><ele></ele><time>2022-6-1T9:26:11Z</time></trkpt>
<trkpt lat="48.966083526611" lon="3.184229850769"><ele></ele><time>2022-6-1T9:26:14Z</time></trkpt>
<trkpt lat="48.96618270874" lon="3.1842985153198"><ele></ele><time>2022-6-1T9:26:17Z</time></trkpt>
<trkpt lat="48.966281890869" lon="3.1843655109406"><ele></ele><time>2022-6-1T9:26:20Z</time></trkpt>
<trkpt lat="48.966365814209" lon="3.1844019889832"><ele></ele><time>2022-6-1T9:26:23Z</time></trkpt>
<trkpt lat="48.96643447876" lon="3.1844298839569"><ele></ele><time>2022-6-1T9:26:26Z</time></trkpt>
<trkpt lat="48.966503143311" lon="3.1844589710236"><ele></ele><time>2022-6-1T9:26:29Z</time></trkpt>
<trkpt lat="48.96658706665" lon="3.1845192909241"><ele></ele><time>2022-6-1T9:26:32Z</time></trkpt>
<trkpt lat="48.966682434082" lon="3.1845881938934"><ele></ele><time>2022-6-1T9:26:35Z</time></trkpt>
<trkpt lat="48.966789245605" lon="3.1846575737"><ele></ele><time>2022-6-1T9:26:38Z</time></trkpt>
<trkpt lat="48.966903686523" lon="3.1847128868103"><ele></ele><time>2022-6-1T9:26:41Z</time></trkpt>
<trkpt lat="48.967014312744" lon="3.1847522258759"><ele></ele><time>2022-6-1T9:26:44Z</time></trkpt>
<trkpt lat="48.96715927124" lon="3.1847891807556"><ele></ele><time>2022-6-1T9:26:47Z</time></trkpt>
<trkpt lat="48.967296600342" lon="3.1848323345184"><ele></ele><time>2022-6-1T9:26:50Z</time></trkpt>
<trkpt lat="48.967445373535" lon="3.1848647594452"><ele></ele><time>2022-6-1T9:26:53Z</time></trkpt>
<trkpt lat="48.96760559082" lon="3.1848969459534"><ele></ele><time>2022-6-1T9:26:56Z</time></trkpt>
<trkpt lat="48.967765808105" lon="3.184910774231"><ele></ele><time>2022-6-1T9:26:59Z</time></trkpt>
<trkpt lat="48.967903137207" lon="3.1849122047424"><ele></ele><time>2022-6-1T9:27:2Z</time></trkpt>
<trkpt lat="48.968032836914" lon="3.1849021911621"><ele></ele><time>2022-6-1T9:27:5Z</time></trkpt>
<trkpt lat="48.968189239502" lon="3.184873342514"><ele></ele><time>2022-6-1T9:27:8Z</time></trkpt>
<trkpt lat="48.968326568604" lon="3.1848244667053"><ele></ele><time>2022-6-1T9:27:11Z</time></trkpt>
<trkpt lat="48.968456268311" lon="3.1847534179688"><ele></ele><time>2022-6-1T9:27:14Z</time></trkpt>
<trkpt lat="48.968605041504" lon="3.1846652030945"><ele></ele><time>2022-6-1T9:27:17Z</time></trkpt>
<trkpt lat="48.968746185303" lon="3.184579372406"><ele></ele><time>2022-6-1T9:27:20Z</time></trkpt>
<trkpt lat="48.968891143799" lon="3.1844923496246"><ele></ele><time>2022-6-1T9:27:23Z</time></trkpt>
<trkpt lat="48.969009399414" lon="3.1844387054443"><ele></ele><time>2022-6-1T9:27:26Z</time></trkpt>
<trkpt lat="48.969165802002" lon="3.1843514442444"><ele></ele><time>2022-6-1T9:27:29Z</time></trkpt>
<trkpt lat="48.969314575195" lon="3.1842713356018"><ele></ele><time>2022-6-1T9:27:32Z</time></trkpt>
<trkpt lat="48.969455718994" lon="3.1842157840729"><ele></ele><time>2022-6-1T9:27:35Z</time></trkpt>
<trkpt lat="48.969593048096" lon="3.184191942215"><ele></ele><time>2022-6-1T9:27:38Z</time></trkpt>
<trkpt lat="48.969715118408" lon="3.1841511726379"><ele></ele><time>2022-6-1T9:27:41Z</time></trkpt>
<trkpt lat="48.969841003418" lon="3.1840918064117"><ele></ele><time>2022-6-1T9:27:44Z</time></trkpt>
<trkpt lat="48.96996307373" lon="3.1840291023254"><ele></ele><time>2022-6-1T9:27:47Z</time></trkpt>
<trkpt lat="48.970069885254" lon="3.1839685440063"><ele></ele><time>2022-6-1T9:27:50Z</time></trkpt>
<trkpt lat="48.970146179199" lon="3.1839194297791"><ele></ele><time>2022-6-1T9:27:53Z</time></trkpt>
<trkpt lat="48.970203399658" lon="3.1839020252228"><ele></ele><time>2022-6-1T9:27:56Z</time></trkpt>
<trkpt lat="48.970203399658" lon="3.1839020252228"><ele></ele><time>2022-6-1T9:27:59Z</time></trkpt>
<trkpt lat="48.970432281494" lon="3.1841747760773"><ele></ele><time>2022-6-1T9:28:2Z</time></trkpt>
<trkpt lat="48.970508575439" lon="3.1842834949493"><ele></ele><time>2022-6-1T9:28:5Z</time></trkpt>
<trkpt lat="48.97057723999" lon="3.1843633651733"><ele></ele><time>2022-6-1T9:28:8Z</time></trkpt>
<trkpt lat="48.97057723999" lon="3.1843633651733"><ele></ele><time>2022-6-1T9:28:11Z</time></trkpt>
<trkpt lat="48.970642089844" lon="3.1844730377197"><ele></ele><time>2022-6-1T9:28:14Z</time></trkpt>
<trkpt lat="48.970699310303" lon="3.1845414638519"><ele></ele><time>2022-6-1T9:28:17Z</time></trkpt>
<trkpt lat="48.97078704834" lon="3.1846170425415"><ele></ele><time>2022-6-1T9:28:20Z</time></trkpt>
<trkpt lat="48.970882415771" lon="3.1847081184387"><ele></ele><time>2022-6-1T9:28:23Z</time></trkpt>
<trkpt lat="48.970947265625" lon="3.1847710609436"><ele></ele><time>2022-6-1T9:28:26Z</time></trkpt>
<trkpt lat="48.970977783203" lon="3.1848599910736"><ele></ele><time>2022-6-1T9:28:29Z</time></trkpt>
<trkpt lat="48.970966339111" lon="3.1849546432495"><ele></ele><time>2022-6-1T9:28:32Z</time></trkpt>
<trkpt lat="48.970905303955" lon="3.1850068569183"><ele></ele><time>2022-6-1T9:28:35Z</time></trkpt>
<trkpt lat="48.970851898193" lon="3.1850736141205"><ele></ele><time>2022-6-1T9:28:38Z</time></trkpt>
<trkpt lat="48.970851898193" lon="3.1850736141205"><ele></ele><time>2022-6-1T9:28:41Z</time></trkpt>
<trkpt lat="48.970760345459" lon="3.1851849555969"><ele></ele><time>2022-6-1T9:28:44Z</time></trkpt>
<trkpt lat="48.970706939697" lon="3.185239315033"><ele></ele><time>2022-6-1T9:28:47Z</time></trkpt>
<trkpt lat="48.970706939697" lon="3.185239315033"><ele></ele><time>2022-6-1T9:28:50Z</time></trkpt>
<trkpt lat="48.970657348633" lon="3.1853103637695"><ele></ele><time>2022-6-1T9:28:53Z</time></trkpt>
<trkpt lat="48.970657348633" lon="3.1853103637695"><ele></ele><time>2022-6-1T9:28:56Z</time></trkpt>
<trkpt lat="48.970718383789" lon="3.1852543354034"><ele></ele><time>2022-6-1T9:28:59Z</time></trkpt>
<trkpt lat="48.970771789551" lon="3.1851961612701"><ele></ele><time>2022-6-1T9:29:2Z</time></trkpt>
<trkpt lat="48.970802307129" lon="3.1851408481598"><ele></ele><time>2022-6-1T9:29:5Z</time></trkpt>
<trkpt lat="48.970832824707" lon="3.1850807666779"><ele></ele><time>2022-6-1T9:29:8Z</time></trkpt>
<trkpt lat="48.970867156982" lon="3.1850121021271"><ele></ele><time>2022-6-1T9:29:11Z</time></trkpt>
<trkpt lat="48.970905303955" lon="3.184937953949"><ele></ele><time>2022-6-1T9:29:14Z</time></trkpt>
<trkpt lat="48.970928192139" lon="3.1848683357239"><ele></ele><time>2022-6-1T9:29:17Z</time></trkpt>
<trkpt lat="48.97093963623" lon="3.1847484111786"><ele></ele><time>2022-6-1T9:29:20Z</time></trkpt>
<trkpt lat="48.97093963623" lon="3.1847484111786"><ele></ele><time>2022-6-1T9:29:23Z</time></trkpt>
<trkpt lat="48.97087097168" lon="3.1846895217896"><ele></ele><time>2022-6-1T9:29:26Z</time></trkpt>
<trkpt lat="48.97087097168" lon="3.1846895217896"><ele></ele><time>2022-6-1T9:29:29Z</time></trkpt>
<trkpt lat="48.970821380615" lon="3.1846494674683"><ele></ele><time>2022-6-1T9:29:32Z</time></trkpt>
<trkpt lat="48.970821380615" lon="3.1846494674683"><ele></ele><time>2022-6-1T9:29:35Z</time></trkpt>
<trkpt lat="48.970760345459" lon="3.1846022605896"><ele></ele><time>2022-6-1T9:29:38Z</time></trkpt>
<trkpt lat="48.970760345459" lon="3.1846022605896"><ele></ele><time>2022-6-1T9:29:41Z</time></trkpt>
<trkpt lat="48.970695495605" lon="3.1845362186432"><ele></ele><time>2022-6-1T9:29:44Z</time></trkpt>
<trkpt lat="48.970695495605" lon="3.1845362186432"><ele></ele><time>2022-6-1T9:29:47Z</time></trkpt>
<trkpt lat="48.970645904541" lon="3.1844856739044"><ele></ele><time>2022-6-1T9:29:50Z</time></trkpt>
<trkpt lat="48.970645904541" lon="3.1844856739044"><ele></ele><time>2022-6-1T9:29:53Z</time></trkpt>
<trkpt lat="48.970600128174" lon="3.1844320297241"><ele></ele><time>2022-6-1T9:29:56Z</time></trkpt>
<trkpt lat="48.970600128174" lon="3.1844320297241"><ele></ele><time>2022-6-1T9:29:59Z</time></trkpt>
<trkpt lat="48.970600128174" lon="3.1844320297241"><ele></ele><time>2022-6-1T9:30:2Z</time></trkpt>
<trkpt lat="48.970550537109" lon="3.1843473911285"><ele></ele><time>2022-6-1T9:30:5Z</time></trkpt>
<trkpt lat="48.970550537109" lon="3.1843473911285"><ele></ele><time>2022-6-1T9:30:8Z</time></trkpt>
<trkpt lat="48.970500946045" lon="3.1842885017395"><ele></ele><time>2022-6-1T9:30:11Z</time></trkpt>
<trkpt lat="48.970500946045" lon="3.1842885017395"><ele></ele><time>2022-6-1T9:30:14Z</time></trkpt>
<trkpt lat="48.970500946045" lon="3.1842885017395"><ele></ele><time>2022-6-1T9:30:17Z</time></trkpt>
<trkpt lat="48.970458984375" lon="3.1842124462128"><ele></ele><time>2022-6-1T9:30:20Z</time></trkpt>
<trkpt lat="48.970458984375" lon="3.1842124462128"><ele></ele><time>2022-6-1T9:30:23Z</time></trkpt>
<trkpt lat="48.970458984375" lon="3.1842124462128"><ele></ele><time>2022-6-1T9:30:26Z</time></trkpt>
<trkpt lat="48.970417022705" lon="3.1841397285461"><ele></ele><time>2022-6-1T9:30:29Z</time></trkpt>
<trkpt lat="48.970417022705" lon="3.1841397285461"><ele></ele><time>2022-6-1T9:30:32Z</time></trkpt>
<trkpt lat="48.970417022705" lon="3.1841397285461"><ele></ele><time>2022-6-1T9:30:35Z</time></trkpt>
<trkpt lat="48.970371246338" lon="3.1840779781342"><ele></ele><time>2022-6-1T9:30:38Z</time></trkpt>
<trkpt lat="48.970371246338" lon="3.1840779781342"><ele></ele><time>2022-6-1T9:30:41Z</time></trkpt>
<trkpt lat="48.970371246338" lon="3.1840779781342"><ele></ele><time>2022-6-1T9:30:44Z</time></trkpt>
<trkpt lat="48.970317840576" lon="3.1839935779572"><ele></ele><time>2022-6-1T9:30:47Z</time></trkpt>
<trkpt lat="48.970317840576" lon="3.1839935779572"><ele></ele><time>2022-6-1T9:30:50Z</time></trkpt>
<trkpt lat="48.970317840576" lon="3.1839935779572"><ele></ele><time>2022-6-1T9:30:53Z</time></trkpt>
<trkpt lat="48.970249176025" lon="3.1839282512665"><ele></ele><time>2022-6-1T9:30:56Z</time></trkpt>
<trkpt lat="48.970188140869" lon="3.1838970184326"><ele></ele><time>2022-6-1T9:30:59Z</time></trkpt>
<trkpt lat="48.970188140869" lon="3.1838970184326"><ele></ele><time>2022-6-1T9:31:2Z</time></trkpt>
<trkpt lat="48.970188140869" lon="3.1838970184326"><ele></ele><time>2022-6-1T9:31:5Z</time></trkpt>
<trkpt lat="48.970123291016" lon="3.18390417099"><ele></ele><time>2022-6-1T9:31:8Z</time></trkpt>
<trkpt lat="48.970123291016" lon="3.18390417099"><ele></ele><time>2022-6-1T9:31:11Z</time></trkpt>
<trkpt lat="48.970123291016" lon="3.18390417099"><ele></ele><time>2022-6-1T9:31:14Z</time></trkpt>
<trkpt lat="48.970123291016" lon="3.18390417099"><ele></ele><time>2022-6-1T9:31:17Z</time></trkpt>
<trkpt lat="48.970054626465" lon="3.1839561462402"><ele></ele><time>2022-6-1T9:31:20Z</time></trkpt>
<trkpt lat="48.969974517822" lon="3.1840212345123"><ele></ele><time>2022-6-1T9:31:23Z</time></trkpt>
<trkpt lat="48.969940185547" lon="3.1840484142303"><ele></ele><time>2022-6-1T9:31:26Z</time></trkpt>
<trkpt lat="48.969909667969" lon="3.1840682029724"><ele></ele><time>2022-6-1T9:31:29Z</time></trkpt>
<trkpt lat="48.969879150391" lon="3.1840827465057"><ele></ele><time>2022-6-1T9:31:32Z</time></trkpt>
<trkpt lat="48.969848632812" lon="3.184093952179"><ele></ele><time>2022-6-1T9:31:35Z</time></trkpt>
<trkpt lat="48.96981048584" lon="3.1841027736664"><ele></ele><time>2022-6-1T9:31:38Z</time></trkpt>
<trkpt lat="48.969776153564" lon="3.1841123104095"><ele></ele><time>2022-6-1T9:31:41Z</time></trkpt>
<trkpt lat="48.969745635986" lon="3.1841220855713"><ele></ele><time>2022-6-1T9:31:44Z</time></trkpt>
<trkpt lat="48.969707489014" lon="3.1841406822205"><ele></ele><time>2022-6-1T9:31:47Z</time></trkpt>
<trkpt lat="48.969673156738" lon="3.1841583251953"><ele></ele><time>2022-6-1T9:31:50Z</time></trkpt>
<trkpt lat="48.969612121582" lon="3.1841857433319"><ele></ele><time>2022-6-1T9:31:53Z</time></trkpt>
<trkpt lat="48.969554901123" lon="3.1841902732849"><ele></ele><time>2022-6-1T9:31:56Z</time></trkpt>
<trkpt lat="48.969482421875" lon="3.184201002121"><ele></ele><time>2022-6-1T9:31:59Z</time></trkpt>
<trkpt lat="48.969482421875" lon="3.184201002121"><ele></ele><time>2022-6-1T9:32:2Z</time></trkpt>
<trkpt lat="48.969425201416" lon="3.1842141151428"><ele></ele><time>2022-6-1T9:32:5Z</time></trkpt>
<trkpt lat="48.969425201416" lon="3.1842141151428"><ele></ele><time>2022-6-1T9:32:8Z</time></trkpt>
<trkpt lat="48.969367980957" lon="3.1842410564423"><ele></ele><time>2022-6-1T9:32:11Z</time></trkpt>
<trkpt lat="48.969314575195" lon="3.1842634677887"><ele></ele><time>2022-6-1T9:32:14Z</time></trkpt>
<trkpt lat="48.969314575195" lon="3.1842634677887"><ele></ele><time>2022-6-1T9:32:17Z</time></trkpt>
<trkpt lat="48.96923828125" lon="3.1842911243439"><ele></ele><time>2022-6-1T9:32:20Z</time></trkpt>
<trkpt lat="48.96923828125" lon="3.1842911243439"><ele></ele><time>2022-6-1T9:32:23Z</time></trkpt>
<trkpt lat="48.969177246094" lon="3.1843314170837"><ele></ele><time>2022-6-1T9:32:26Z</time></trkpt>
<trkpt lat="48.969120025635" lon="3.1843667030334"><ele></ele><time>2022-6-1T9:32:29Z</time></trkpt>
<trkpt lat="48.969062805176" lon="3.1844198703766"><ele></ele><time>2022-6-1T9:32:32Z</time></trkpt>
<trkpt lat="48.969062805176" lon="3.1844198703766"><ele></ele><time>2022-6-1T9:32:35Z</time></trkpt>
<trkpt lat="48.968982696533" lon="3.1844518184662"><ele></ele><time>2022-6-1T9:32:38Z</time></trkpt>
<trkpt lat="48.968982696533" lon="3.1844518184662"><ele></ele><time>2022-6-1T9:32:41Z</time></trkpt>
<trkpt lat="48.968925476074" lon="3.1844735145569"><ele></ele><time>2022-6-1T9:32:44Z</time></trkpt>
<trkpt lat="48.968925476074" lon="3.1844735145569"><ele></ele><time>2022-6-1T9:32:47Z</time></trkpt>
<trkpt lat="48.968864440918" lon="3.1845178604126"><ele></ele><time>2022-6-1T9:32:50Z</time></trkpt>
<trkpt lat="48.968807220459" lon="3.1845586299896"><ele></ele><time>2022-6-1T9:32:53Z</time></trkpt>
<trkpt lat="48.968753814697" lon="3.1846044063568"><ele></ele><time>2022-6-1T9:32:56Z</time></trkpt>
<trkpt lat="48.968696594238" lon="3.1846373081207"><ele></ele><time>2022-6-1T9:32:59Z</time></trkpt>
<trkpt lat="48.96862411499" lon="3.1846878528595"><ele></ele><time>2022-6-1T9:33:2Z</time></trkpt>
<trkpt lat="48.96862411499" lon="3.1846878528595"><ele></ele><time>2022-6-1T9:33:5Z</time></trkpt>
<trkpt lat="48.968563079834" lon="3.1847178936005"><ele></ele><time>2022-6-1T9:33:8Z</time></trkpt>
<trkpt lat="48.968563079834" lon="3.1847178936005"><ele></ele><time>2022-6-1T9:33:11Z</time></trkpt>
<trkpt lat="48.96849822998" lon="3.1847357749939"><ele></ele><time>2022-6-1T9:33:14Z</time></trkpt>
<trkpt lat="48.96849822998" lon="3.1847357749939"><ele></ele><time>2022-6-1T9:33:17Z</time></trkpt>
<trkpt lat="48.96849822998" lon="3.1847357749939"><ele></ele><time>2022-6-1T9:33:20Z</time></trkpt>
<trkpt lat="48.968421936035" lon="3.184760093689"><ele></ele><time>2022-6-1T9:33:23Z</time></trkpt>
<trkpt lat="48.968421936035" lon="3.184760093689"><ele></ele><time>2022-6-1T9:33:26Z</time></trkpt>
<trkpt lat="48.968353271484" lon="3.1847996711731"><ele></ele><time>2022-6-1T9:33:29Z</time></trkpt>
<trkpt lat="48.968353271484" lon="3.1847996711731"><ele></ele><time>2022-6-1T9:33:32Z</time></trkpt>
<trkpt lat="48.968299865723" lon="3.1848430633545"><ele></ele><time>2022-6-1T9:33:35Z</time></trkpt>
<trkpt lat="48.968299865723" lon="3.1848430633545"><ele></ele><time>2022-6-1T9:33:38Z</time></trkpt>
<trkpt lat="48.968299865723" lon="3.1848430633545"><ele></ele><time>2022-6-1T9:33:41Z</time></trkpt>
<trkpt lat="48.968238830566" lon="3.1848886013031"><ele></ele><time>2022-6-1T9:33:44Z</time></trkpt>
<trkpt lat="48.968238830566" lon="3.1848886013031"><ele></ele><time>2022-6-1T9:33:47Z</time></trkpt>
<trkpt lat="48.968173980713" lon="3.1849229335785"><ele></ele><time>2022-6-1T9:33:50Z</time></trkpt>
<trkpt lat="48.968112945557" lon="3.1849339008331"><ele></ele><time>2022-6-1T9:33:53Z</time></trkpt>
<trkpt lat="48.968078613281" lon="3.1849319934845"><ele></ele><time>2022-6-1T9:33:56Z</time></trkpt>
<trkpt lat="48.968044281006" lon="3.1849253177643"><ele></ele><time>2022-6-1T9:33:59Z</time></trkpt>
<trkpt lat="48.968013763428" lon="3.1849205493927"><ele></ele><time>2022-6-1T9:34:2Z</time></trkpt>
<trkpt lat="48.967987060547" lon="3.1849179267883"><ele></ele><time>2022-6-1T9:34:5Z</time></trkpt>
<trkpt lat="48.967956542969" lon="3.1849176883698"><ele></ele><time>2022-6-1T9:34:8Z</time></trkpt>
<trkpt lat="48.967884063721" lon="3.1849191188812"><ele></ele><time>2022-6-1T9:34:11Z</time></trkpt>
<trkpt lat="48.967803955078" lon="3.18492436409"><ele></ele><time>2022-6-1T9:34:14Z</time></trkpt>
<trkpt lat="48.967742919922" lon="3.1849222183228"><ele></ele><time>2022-6-1T9:34:17Z</time></trkpt>
<trkpt lat="48.967658996582" lon="3.1849091053009"><ele></ele><time>2022-6-1T9:34:20Z</time></trkpt>
<trkpt lat="48.967571258545" lon="3.1848878860474"><ele></ele><time>2022-6-1T9:34:23Z</time></trkpt>
<trkpt lat="48.967514038086" lon="3.1848721504211"><ele></ele><time>2022-6-1T9:34:26Z</time></trkpt>
<trkpt lat="48.967437744141" lon="3.1848559379578"><ele></ele><time>2022-6-1T9:34:29Z</time></trkpt>
<trkpt lat="48.967338562012" lon="3.1848306655884"><ele></ele><time>2022-6-1T9:34:32Z</time></trkpt>
<trkpt lat="48.967266082764" lon="3.1848151683807"><ele></ele><time>2022-6-1T9:34:35Z</time></trkpt>
<trkpt lat="48.967266082764" lon="3.1848151683807"><ele></ele><time>2022-6-1T9:34:38Z</time></trkpt>
<trkpt lat="48.967189788818" lon="3.1847913265228"><ele></ele><time>2022-6-1T9:34:41Z</time></trkpt>
<trkpt lat="48.967189788818" lon="3.1847913265228"><ele></ele><time>2022-6-1T9:34:44Z</time></trkpt>
<trkpt lat="48.967128753662" lon="3.1847715377808"><ele></ele><time>2022-6-1T9:34:47Z</time></trkpt>
<trkpt lat="48.967128753662" lon="3.1847715377808"><ele></ele><time>2022-6-1T9:34:50Z</time></trkpt>
<trkpt lat="48.967067718506" lon="3.1847660541534"><ele></ele><time>2022-6-1T9:34:53Z</time></trkpt>
<trkpt lat="48.967067718506" lon="3.1847660541534"><ele></ele><time>2022-6-1T9:34:56Z</time></trkpt>
<trkpt lat="48.967002868652" lon="3.1847505569458"><ele></ele><time>2022-6-1T9:34:59Z</time></trkpt>
<trkpt lat="48.967002868652" lon="3.1847505569458"><ele></ele><time>2022-6-1T9:35:2Z</time></trkpt>
<trkpt lat="48.966938018799" lon="3.1847400665283"><ele></ele><time>2022-6-1T9:35:5Z</time></trkpt>
<trkpt lat="48.966873168945" lon="3.1847143173218"><ele></ele><time>2022-6-1T9:35:8Z</time></trkpt>
<trkpt lat="48.966808319092" lon="3.1846799850464"><ele></ele><time>2022-6-1T9:35:11Z</time></trkpt>
<trkpt lat="48.966808319092" lon="3.1846799850464"><ele></ele><time>2022-6-1T9:35:14Z</time></trkpt>
<trkpt lat="48.966808319092" lon="3.1846799850464"><ele></ele><time>2022-6-1T9:35:17Z</time></trkpt>
<trkpt lat="48.966732025146" lon="3.1846253871918"><ele></ele><time>2022-6-1T9:35:20Z</time></trkpt>
<trkpt lat="48.966732025146" lon="3.1846253871918"><ele></ele><time>2022-6-1T9:35:23Z</time></trkpt>
<trkpt lat="48.966663360596" lon="3.1845760345459"><ele></ele><time>2022-6-1T9:35:26Z</time></trkpt>
<trkpt lat="48.966663360596" lon="3.1845760345459"><ele></ele><time>2022-6-1T9:35:29Z</time></trkpt>
<trkpt lat="48.966602325439" lon="3.18452501297"><ele></ele><time>2022-6-1T9:35:32Z</time></trkpt>
<trkpt lat="48.96654510498" lon="3.1844737529755"><ele></ele><time>2022-6-1T9:35:35Z</time></trkpt>
<trkpt lat="48.96654510498" lon="3.1844737529755"><ele></ele><time>2022-6-1T9:35:38Z</time></trkpt>
<trkpt lat="48.96647644043" lon="3.1844351291656"><ele></ele><time>2022-6-1T9:35:41Z</time></trkpt>
<trkpt lat="48.96647644043" lon="3.1844351291656"><ele></ele><time>2022-6-1T9:35:44Z</time></trkpt>
<trkpt lat="48.966419219971" lon="3.1844058036804"><ele></ele><time>2022-6-1T9:35:47Z</time></trkpt>
<trkpt lat="48.966339111328" lon="3.1843690872192"><ele></ele><time>2022-6-1T9:35:50Z</time></trkpt>
<trkpt lat="48.966259002686" lon="3.1843266487122"><ele></ele><time>2022-6-1T9:35:53Z</time></trkpt>
<trkpt lat="48.966175079346" lon="3.1842834949493"><ele></ele><time>2022-6-1T9:35:56Z</time></trkpt>
<trkpt lat="48.966106414795" lon="3.1842410564423"><ele></ele><time>2022-6-1T9:35:59Z</time></trkpt>
<trkpt lat="48.966033935547" lon="3.1841983795166"><ele></ele><time>2022-6-1T9:36:2Z</time></trkpt>
<trkpt lat="48.965957641602" lon="3.1841416358948"><ele></ele><time>2022-6-1T9:36:5Z</time></trkpt>
<trkpt lat="48.965957641602" lon="3.1841416358948"><ele></ele><time>2022-6-1T9:36:8Z</time></trkpt>
<trkpt lat="48.965877532959" lon="3.1840786933899"><ele></ele><time>2022-6-1T9:36:11Z</time></trkpt>
<trkpt lat="48.965877532959" lon="3.1840786933899"><ele></ele><time>2022-6-1T9:36:14Z</time></trkpt>
<trkpt lat="48.965827941895" lon="3.1840469837189"><ele></ele><time>2022-6-1T9:36:17Z</time></trkpt>
<trkpt lat="48.96577835083" lon="3.1840200424194"><ele></ele><time>2022-6-1T9:36:20Z</time></trkpt>
<trkpt lat="48.965732574463" lon="3.1839969158173"><ele></ele><time>2022-6-1T9:36:23Z</time></trkpt>
<trkpt lat="48.965682983398" lon="3.1839714050293"><ele></ele><time>2022-6-1T9:36:26Z</time></trkpt>
<trkpt lat="48.965637207031" lon="3.1839466094971"><ele></ele><time>2022-6-1T9:36:29Z</time></trkpt>
<trkpt lat="48.9655418396" lon="3.1838941574097"><ele></ele><time>2022-6-1T9:36:32Z</time></trkpt>
<trkpt lat="48.965480804443" lon="3.1838519573212"><ele></ele><time>2022-6-1T9:36:35Z</time></trkpt>
<trkpt lat="48.965480804443" lon="3.1838519573212"><ele></ele><time>2022-6-1T9:36:38Z</time></trkpt>
<trkpt lat="48.965404510498" lon="3.1837947368622"><ele></ele><time>2022-6-1T9:36:41Z</time></trkpt>
<trkpt lat="48.965404510498" lon="3.1837947368622"><ele></ele><time>2022-6-1T9:36:44Z</time></trkpt>
<trkpt lat="48.965335845947" lon="3.1837372779846"><ele></ele><time>2022-6-1T9:36:47Z</time></trkpt>
<trkpt lat="48.965335845947" lon="3.1837372779846"><ele></ele><time>2022-6-1T9:36:50Z</time></trkpt>
<trkpt lat="48.965274810791" lon="3.1836671829224"><ele></ele><time>2022-6-1T9:36:53Z</time></trkpt>
<trkpt lat="48.965274810791" lon="3.1836671829224"><ele></ele><time>2022-6-1T9:36:56Z</time></trkpt>
<trkpt lat="48.965209960938" lon="3.1836051940918"><ele></ele><time>2022-6-1T9:36:59Z</time></trkpt>
<trkpt lat="48.965209960938" lon="3.1836051940918"><ele></ele><time>2022-6-1T9:37:2Z</time></trkpt>
<trkpt lat="48.965160369873" lon="3.1835494041443"><ele></ele><time>2022-6-1T9:37:5Z</time></trkpt>
<trkpt lat="48.965160369873" lon="3.1835494041443"><ele></ele><time>2022-6-1T9:37:8Z</time></trkpt>
<trkpt lat="48.96509552002" lon="3.1834800243378"><ele></ele><time>2022-6-1T9:37:11Z</time></trkpt>
<trkpt lat="48.96509552002" lon="3.1834800243378"><ele></ele><time>2022-6-1T9:37:14Z</time></trkpt>
<trkpt lat="48.96509552002" lon="3.1834800243378"><ele></ele><time>2022-6-1T9:37:17Z</time></trkpt>
<trkpt lat="48.96509552002" lon="3.1834800243378"><ele></ele><time>2022-6-1T9:37:20Z</time></trkpt>
<trkpt lat="48.964988708496" lon="3.1833786964417"><ele></ele><time>2022-6-1T9:37:23Z</time></trkpt>
<trkpt lat="48.964988708496" lon="3.1833786964417"><ele></ele><time>2022-6-1T9:37:26Z</time></trkpt>
<trkpt lat="48.964988708496" lon="3.1833786964417"><ele></ele><time>2022-6-1T9:37:29Z</time></trkpt>
<trkpt lat="48.964931488037" lon="3.1832270622253"><ele></ele><time>2022-6-1T9:37:32Z</time></trkpt>
<trkpt lat="48.964870452881" lon="3.1831431388855"><ele></ele><time>2022-6-1T9:37:35Z</time></trkpt>
<trkpt lat="48.964817047119" lon="3.1830742359161"><ele></ele><time>2022-6-1T9:37:38Z</time></trkpt>
<trkpt lat="48.964775085449" lon="3.1830103397369"><ele></ele><time>2022-6-1T9:37:41Z</time></trkpt>
<trkpt lat="48.964775085449" lon="3.1830103397369"><ele></ele><time>2022-6-1T9:37:44Z</time></trkpt>
<trkpt lat="48.964710235596" lon="3.1829352378845"><ele></ele><time>2022-6-1T9:37:47Z</time></trkpt>
<trkpt lat="48.964710235596" lon="3.1829352378845"><ele></ele><time>2022-6-1T9:37:50Z</time></trkpt>
<trkpt lat="48.964710235596" lon="3.1829352378845"><ele></ele><time>2022-6-1T9:37:53Z</time></trkpt>
<trkpt lat="48.964645385742" lon="3.1828668117523"><ele></ele><time>2022-6-1T9:37:56Z</time></trkpt>
<trkpt lat="48.964645385742" lon="3.1828668117523"><ele></ele><time>2022-6-1T9:37:59Z</time></trkpt>
<trkpt lat="48.964645385742" lon="3.1828668117523"><ele></ele><time>2022-6-1T9:38:2Z</time></trkpt>
<trkpt lat="48.964588165283" lon="3.1827893257141"><ele></ele><time>2022-6-1T9:38:5Z</time></trkpt>
<trkpt lat="48.964538574219" lon="3.1827251911163"><ele></ele><time>2022-6-1T9:38:8Z</time></trkpt>
<trkpt lat="48.964488983154" lon="3.1826491355896"><ele></ele><time>2022-6-1T9:38:11Z</time></trkpt>
<trkpt lat="48.964435577393" lon="3.1825580596924"><ele></ele><time>2022-6-1T9:38:14Z</time></trkpt>
<trkpt lat="48.964389801025" lon="3.182469367981"><ele></ele><time>2022-6-1T9:38:17Z</time></trkpt>
<trkpt lat="48.964336395264" lon="3.182400226593"><ele></ele><time>2022-6-1T9:38:20Z</time></trkpt>
<trkpt lat="48.964290618896" lon="3.1823265552521"><ele></ele><time>2022-6-1T9:38:23Z</time></trkpt>
<trkpt lat="48.964241027832" lon="3.1822578907013"><ele></ele><time>2022-6-1T9:38:26Z</time></trkpt>
<trkpt lat="48.964202880859" lon="3.1821863651276"><ele></ele><time>2022-6-1T9:38:29Z</time></trkpt>
<trkpt lat="48.9641456604" lon="3.1821141242981"><ele></ele><time>2022-6-1T9:38:32Z</time></trkpt>
<trkpt lat="48.964096069336" lon="3.1820423603058"><ele></ele><time>2022-6-1T9:38:35Z</time></trkpt>
<trkpt lat="48.964096069336" lon="3.1820423603058"><ele></ele><time>2022-6-1T9:38:38Z</time></trkpt>
<trkpt lat="48.964096069336" lon="3.1820423603058"><ele></ele><time>2022-6-1T9:38:41Z</time></trkpt>
<trkpt lat="48.964031219482" lon="3.1819522380829"><ele></ele><time>2022-6-1T9:38:44Z</time></trkpt>
<trkpt lat="48.964031219482" lon="3.1819522380829"><ele></ele><time>2022-6-1T9:38:47Z</time></trkpt>
<trkpt lat="48.964031219482" lon="3.1819522380829"><ele></ele><time>2022-6-1T9:38:50Z</time></trkpt>
<trkpt lat="48.963981628418" lon="3.1818969249725"><ele></ele><time>2022-6-1T9:38:53Z</time></trkpt>
<trkpt lat="48.963981628418" lon="3.1818969249725"><ele></ele><time>2022-6-1T9:38:56Z</time></trkpt>
<trkpt lat="48.963981628418" lon="3.1818969249725"><ele></ele><time>2022-6-1T9:38:59Z</time></trkpt>
<trkpt lat="48.963905334473" lon="3.1817624568939"><ele></ele><time>2022-6-1T9:39:2Z</time></trkpt>
<trkpt lat="48.963817596436" lon="3.1815283298492"><ele></ele><time>2022-6-1T9:39:5Z</time></trkpt>
<trkpt lat="48.963817596436" lon="3.1815283298492"><ele></ele><time>2022-6-1T9:39:8Z</time></trkpt>
<trkpt lat="48.963817596436" lon="3.1815283298492"><ele></ele><time>2022-6-1T9:39:11Z</time></trkpt>
<trkpt lat="48.963817596436" lon="3.1815283298492"><ele></ele><time>2022-6-1T9:39:14Z</time></trkpt>
<trkpt lat="48.963817596436" lon="3.1815283298492"><ele></ele><time>2022-6-1T9:39:17Z</time></trkpt>
<trkpt lat="48.963703155518" lon="3.1812102794647"><ele></ele><time>2022-6-1T9:39:20Z</time></trkpt>
<trkpt lat="48.963672637939" lon="3.1811335086823"><ele></ele><time>2022-6-1T9:39:23Z</time></trkpt>
<trkpt lat="48.963626861572" lon="3.1810207366943"><ele></ele><time>2022-6-1T9:39:26Z</time></trkpt>
<trkpt lat="48.963581085205" lon="3.1809272766113"><ele></ele><time>2022-6-1T9:39:29Z</time></trkpt>
<trkpt lat="48.963535308838" lon="3.1808435916901"><ele></ele><time>2022-6-1T9:39:32Z</time></trkpt>
<trkpt lat="48.96346282959" lon="3.1806781291962"><ele></ele><time>2022-6-1T9:39:35Z</time></trkpt>
<trkpt lat="48.963424682617" lon="3.1805920600891"><ele></ele><time>2022-6-1T9:39:38Z</time></trkpt>
<trkpt lat="48.963394165039" lon="3.1805155277252"><ele></ele><time>2022-6-1T9:39:41Z</time></trkpt>
<trkpt lat="48.963340759277" lon="3.1803796291351"><ele></ele><time>2022-6-1T9:39:44Z</time></trkpt>
<trkpt lat="48.963298797607" lon="3.1802535057068"><ele></ele><time>2022-6-1T9:39:47Z</time></trkpt>
<trkpt lat="48.963291168213" lon="3.1801176071167"><ele></ele><time>2022-6-1T9:39:50Z</time></trkpt>
<trkpt lat="48.963291168213" lon="3.1801176071167"><ele></ele><time>2022-6-1T9:39:53Z</time></trkpt>
<trkpt lat="48.963279724121" lon="3.1800038814545"><ele></ele><time>2022-6-1T9:39:56Z</time></trkpt>
<trkpt lat="48.963279724121" lon="3.1800038814545"><ele></ele><time>2022-6-1T9:39:59Z</time></trkpt>
<trkpt lat="48.963275909424" lon="3.1798915863037"><ele></ele><time>2022-6-1T9:40:2Z</time></trkpt>
<trkpt lat="48.963275909424" lon="3.1798915863037"><ele></ele><time>2022-6-1T9:40:5Z</time></trkpt>
<trkpt lat="48.963275909424" lon="3.1798915863037"><ele></ele><time>2022-6-1T9:40:8Z</time></trkpt>
<trkpt lat="48.963264465332" lon="3.1797752380371"><ele></ele><time>2022-6-1T9:40:11Z</time></trkpt>
<trkpt lat="48.963264465332" lon="3.1797752380371"><ele></ele><time>2022-6-1T9:40:14Z</time></trkpt>
<trkpt lat="48.963264465332" lon="3.1797752380371"><ele></ele><time>2022-6-1T9:40:17Z</time></trkpt>
<trkpt lat="48.96325302124" lon="3.1795918941498"><ele></ele><time>2022-6-1T9:40:20Z</time></trkpt>
<trkpt lat="48.96325302124" lon="3.1795918941498"><ele></ele><time>2022-6-1T9:40:23Z</time></trkpt>
<trkpt lat="48.963413238525" lon="3.1790020465851"><ele></ele><time>2022-6-1T9:40:26Z</time></trkpt>
<trkpt lat="48.963481903076" lon="3.178966999054"><ele></ele><time>2022-6-1T9:40:29Z</time></trkpt>
<trkpt lat="48.963554382324" lon="3.178964138031"><ele></ele><time>2022-6-1T9:40:32Z</time></trkpt>
<trkpt lat="48.96363067627" lon="3.178925037384"><ele></ele><time>2022-6-1T9:40:35Z</time></trkpt>
<trkpt lat="48.963649749756" lon="3.1788005828857"><ele></ele><time>2022-6-1T9:40:38Z</time></trkpt>
<trkpt lat="48.963619232178" lon="3.1786971092224"><ele></ele><time>2022-6-1T9:40:41Z</time></trkpt>
<trkpt lat="48.963523864746" lon="3.1786620616913"><ele></ele><time>2022-6-1T9:40:44Z</time></trkpt>
<trkpt lat="48.963428497314" lon="3.1786367893219"><ele></ele><time>2022-6-1T9:40:47Z</time></trkpt>
<trkpt lat="48.963329315186" lon="3.1786022186279"><ele></ele><time>2022-6-1T9:40:50Z</time></trkpt>
<trkpt lat="48.963214874268" lon="3.17857837677"><ele></ele><time>2022-6-1T9:40:53Z</time></trkpt>
<trkpt lat="48.963161468506" lon="3.1785576343536"><ele></ele><time>2022-6-1T9:40:56Z</time></trkpt>
<trkpt lat="48.96310043335" lon="3.1785378456116"><ele></ele><time>2022-6-1T9:40:59Z</time></trkpt>
<trkpt lat="48.963031768799" lon="3.1785168647766"><ele></ele><time>2022-6-1T9:41:2Z</time></trkpt>
<trkpt lat="48.962966918945" lon="3.1785025596619"><ele></ele><time>2022-6-1T9:41:5Z</time></trkpt>
<trkpt lat="48.962898254395" lon="3.1784932613373"><ele></ele><time>2022-6-1T9:41:8Z</time></trkpt>
<trkpt lat="48.962837219238" lon="3.1784784793854"><ele></ele><time>2022-6-1T9:41:11Z</time></trkpt>
<trkpt lat="48.962730407715" lon="3.1784319877625"><ele></ele><time>2022-6-1T9:41:14Z</time></trkpt>
<trkpt lat="48.962619781494" lon="3.17839884758"><ele></ele><time>2022-6-1T9:41:17Z</time></trkpt>
<trkpt lat="48.962551116943" lon="3.1783800125122"><ele></ele><time>2022-6-1T9:41:20Z</time></trkpt>
<trkpt lat="48.962490081787" lon="3.1783590316772"><ele></ele><time>2022-6-1T9:41:23Z</time></trkpt>
<trkpt lat="48.962425231934" lon="3.1783359050751"><ele></ele><time>2022-6-1T9:41:26Z</time></trkpt>
<trkpt lat="48.962356567383" lon="3.1783046722412"><ele></ele><time>2022-6-1T9:41:29Z</time></trkpt>
<trkpt lat="48.962287902832" lon="3.1782701015472"><ele></ele><time>2022-6-1T9:41:32Z</time></trkpt>
<trkpt lat="48.962215423584" lon="3.1782350540161"><ele></ele><time>2022-6-1T9:41:35Z</time></trkpt>
<trkpt lat="48.96215057373" lon="3.1782162189484"><ele></ele><time>2022-6-1T9:41:38Z</time></trkpt>
<trkpt lat="48.962074279785" lon="3.1781916618347"><ele></ele><time>2022-6-1T9:41:41Z</time></trkpt>
<trkpt lat="48.962001800537" lon="3.178156375885"><ele></ele><time>2022-6-1T9:41:44Z</time></trkpt>
<trkpt lat="48.961933135986" lon="3.1781179904938"><ele></ele><time>2022-6-1T9:41:47Z</time></trkpt>
<trkpt lat="48.961853027344" lon="3.1780710220337"><ele></ele><time>2022-6-1T9:41:50Z</time></trkpt>
<trkpt lat="48.961769104004" lon="3.1780159473419"><ele></ele><time>2022-6-1T9:41:53Z</time></trkpt>
<trkpt lat="48.961700439453" lon="3.1779627799988"><ele></ele><time>2022-6-1T9:41:56Z</time></trkpt>
<trkpt lat="48.961612701416" lon="3.1779012680054"><ele></ele><time>2022-6-1T9:41:59Z</time></trkpt>
<trkpt lat="48.961521148682" lon="3.1778385639191"><ele></ele><time>2022-6-1T9:42:2Z</time></trkpt>
<trkpt lat="48.961421966553" lon="3.1777837276459"><ele></ele><time>2022-6-1T9:42:5Z</time></trkpt>
<trkpt lat="48.961303710938" lon="3.1777713298798"><ele></ele><time>2022-6-1T9:42:8Z</time></trkpt>
<trkpt lat="48.961204528809" lon="3.1778078079224"><ele></ele><time>2022-6-1T9:42:11Z</time></trkpt>
<trkpt lat="48.961097717285" lon="3.1778693199158"><ele></ele><time>2022-6-1T9:42:14Z</time></trkpt>
<trkpt lat="48.96097946167" lon="3.1779417991638"><ele></ele><time>2022-6-1T9:42:17Z</time></trkpt>
<trkpt lat="48.960868835449" lon="3.178008556366"><ele></ele><time>2022-6-1T9:42:20Z</time></trkpt>
<trkpt lat="48.960758209229" lon="3.1780655384064"><ele></ele><time>2022-6-1T9:42:23Z</time></trkpt>
<trkpt lat="48.960643768311" lon="3.1781198978424"><ele></ele><time>2022-6-1T9:42:26Z</time></trkpt>
<trkpt lat="48.960540771484" lon="3.1781449317932"><ele></ele><time>2022-6-1T9:42:29Z</time></trkpt>
<trkpt lat="48.960422515869" lon="3.1781556606293"><ele></ele><time>2022-6-1T9:42:32Z</time></trkpt>
<trkpt lat="48.960296630859" lon="3.1781384944916"><ele></ele><time>2022-6-1T9:42:35Z</time></trkpt>
<trkpt lat="48.960182189941" lon="3.1780996322632"><ele></ele><time>2022-6-1T9:42:38Z</time></trkpt>
<trkpt lat="48.960071563721" lon="3.1780512332916"><ele></ele><time>2022-6-1T9:42:41Z</time></trkpt>
<trkpt lat="48.959957122803" lon="3.1779839992523"><ele></ele><time>2022-6-1T9:42:44Z</time></trkpt>
<trkpt lat="48.959827423096" lon="3.1779019832611"><ele></ele><time>2022-6-1T9:42:47Z</time></trkpt>
<trkpt lat="48.959701538086" lon="3.1778295040131"><ele></ele><time>2022-6-1T9:42:50Z</time></trkpt>
<trkpt lat="48.959579467773" lon="3.1777880191803"><ele></ele><time>2022-6-1T9:42:53Z</time></trkpt>
<trkpt lat="48.959461212158" lon="3.1777658462524"><ele></ele><time>2022-6-1T9:42:56Z</time></trkpt>
<trkpt lat="48.959354400635" lon="3.1777501106262"><ele></ele><time>2022-6-1T9:42:59Z</time></trkpt>
<trkpt lat="48.959259033203" lon="3.1777453422546"><ele></ele><time>2022-6-1T9:43:2Z</time></trkpt>
<trkpt lat="48.959163665771" lon="3.1777384281158"><ele></ele><time>2022-6-1T9:43:5Z</time></trkpt>
<trkpt lat="48.959064483643" lon="3.1777355670929"><ele></ele><time>2022-6-1T9:43:8Z</time></trkpt>
<trkpt lat="48.958984375" lon="3.1776926517487"><ele></ele><time>2022-6-1T9:43:11Z</time></trkpt>
<trkpt lat="48.958904266357" lon="3.1776149272919"><ele></ele><time>2022-6-1T9:43:14Z</time></trkpt>
<trkpt lat="48.958824157715" lon="3.1775259971619"><ele></ele><time>2022-6-1T9:43:17Z</time></trkpt>
<trkpt lat="48.95874786377" lon="3.1774458885193"><ele></ele><time>2022-6-1T9:43:20Z</time></trkpt>
<trkpt lat="48.958675384521" lon="3.1773700714111"><ele></ele><time>2022-6-1T9:43:23Z</time></trkpt>
<trkpt lat="48.958595275879" lon="3.1773016452789"><ele></ele><time>2022-6-1T9:43:26Z</time></trkpt>
<trkpt lat="48.958511352539" lon="3.1772336959839"><ele></ele><time>2022-6-1T9:43:29Z</time></trkpt>
<trkpt lat="48.958431243896" lon="3.1771731376648"><ele></ele><time>2022-6-1T9:43:32Z</time></trkpt>
<trkpt lat="48.958389282227" lon="3.1770794391632"><ele></ele><time>2022-6-1T9:43:35Z</time></trkpt>
<trkpt lat="48.958389282227" lon="3.1770794391632"><ele></ele><time>2022-6-1T9:43:38Z</time></trkpt>
<trkpt lat="48.958358764648" lon="3.1768918037415"><ele></ele><time>2022-6-1T9:43:41Z</time></trkpt>
<trkpt lat="48.958347320557" lon="3.1767737865448"><ele></ele><time>2022-6-1T9:43:44Z</time></trkpt>
<trkpt lat="48.958335876465" lon="3.1766655445099"><ele></ele><time>2022-6-1T9:43:47Z</time></trkpt>
<trkpt lat="48.958332061768" lon="3.1765582561493"><ele></ele><time>2022-6-1T9:43:50Z</time></trkpt>
<trkpt lat="48.958332061768" lon="3.1764662265778"><ele></ele><time>2022-6-1T9:43:53Z</time></trkpt>
<trkpt lat="48.958332061768" lon="3.1763792037964"><ele></ele><time>2022-6-1T9:43:56Z</time></trkpt>
<trkpt lat="48.958332061768" lon="3.1763792037964"><ele></ele><time>2022-6-1T9:43:59Z</time></trkpt>
<trkpt lat="48.958362579346" lon="3.1762230396271"><ele></ele><time>2022-6-1T9:44:2Z</time></trkpt>
<trkpt lat="48.958362579346" lon="3.1762230396271"><ele></ele><time>2022-6-1T9:44:5Z</time></trkpt>
<trkpt lat="48.958396911621" lon="3.1760907173157"><ele></ele><time>2022-6-1T9:44:8Z</time></trkpt>
<trkpt lat="48.958396911621" lon="3.1760907173157"><ele></ele><time>2022-6-1T9:44:11Z</time></trkpt>
<trkpt lat="48.958427429199" lon="3.1759850978851"><ele></ele><time>2022-6-1T9:44:14Z</time></trkpt>
<trkpt lat="48.958427429199" lon="3.1759850978851"><ele></ele><time>2022-6-1T9:44:17Z</time></trkpt>
<trkpt lat="48.958465576172" lon="3.1758596897125"><ele></ele><time>2022-6-1T9:44:20Z</time></trkpt>
<trkpt lat="48.958465576172" lon="3.1758596897125"><ele></ele><time>2022-6-1T9:44:23Z</time></trkpt>
<trkpt lat="48.958507537842" lon="3.1757221221924"><ele></ele><time>2022-6-1T9:44:26Z</time></trkpt>
<trkpt lat="48.958507537842" lon="3.1757221221924"><ele></ele><time>2022-6-1T9:44:29Z</time></trkpt>
<trkpt lat="48.95853805542" lon="3.1755936145782"><ele></ele><time>2022-6-1T9:44:32Z</time></trkpt>
<trkpt lat="48.95853805542" lon="3.1755936145782"><ele></ele><time>2022-6-1T9:44:35Z</time></trkpt>
<trkpt lat="48.958564758301" lon="3.1754772663116"><ele></ele><time>2022-6-1T9:44:38Z</time></trkpt>
<trkpt lat="48.958591461182" lon="3.1753504276276"><ele></ele><time>2022-6-1T9:44:41Z</time></trkpt>
<trkpt lat="48.958618164062" lon="3.1752331256866"><ele></ele><time>2022-6-1T9:44:44Z</time></trkpt>
<trkpt lat="48.958618164062" lon="3.1752331256866"><ele></ele><time>2022-6-1T9:44:47Z</time></trkpt>
<trkpt lat="48.958652496338" lon="3.1751179695129"><ele></ele><time>2022-6-1T9:44:50Z</time></trkpt>
<trkpt lat="48.958652496338" lon="3.1751179695129"><ele></ele><time>2022-6-1T9:44:53Z</time></trkpt>
<trkpt lat="48.958679199219" lon="3.1750040054321"><ele></ele><time>2022-6-1T9:44:56Z</time></trkpt>
<trkpt lat="48.958679199219" lon="3.1750040054321"><ele></ele><time>2022-6-1T9:44:59Z</time></trkpt>
<trkpt lat="48.958698272705" lon="3.1748912334442"><ele></ele><time>2022-6-1T9:45:2Z</time></trkpt>
<trkpt lat="48.958698272705" lon="3.1748912334442"><ele></ele><time>2022-6-1T9:45:5Z</time></trkpt>
<trkpt lat="48.9587059021" lon="3.1747756004333"><ele></ele><time>2022-6-1T9:45:8Z</time></trkpt>
<trkpt lat="48.9587059021" lon="3.1747756004333"><ele></ele><time>2022-6-1T9:45:11Z</time></trkpt>
<trkpt lat="48.958709716797" lon="3.1746709346771"><ele></ele><time>2022-6-1T9:45:14Z</time></trkpt>
<trkpt lat="48.958709716797" lon="3.1746709346771"><ele></ele><time>2022-6-1T9:45:17Z</time></trkpt>
<trkpt lat="48.958736419678" lon="3.1745562553406"><ele></ele><time>2022-6-1T9:45:20Z</time></trkpt>
<trkpt lat="48.958763122559" lon="3.1744570732117"><ele></ele><time>2022-6-1T9:45:23Z</time></trkpt>
<trkpt lat="48.958763122559" lon="3.1744570732117"><ele></ele><time>2022-6-1T9:45:26Z</time></trkpt>
<trkpt lat="48.958797454834" lon="3.174355506897"><ele></ele><time>2022-6-1T9:45:29Z</time></trkpt>
<trkpt lat="48.958797454834" lon="3.174355506897"><ele></ele><time>2022-6-1T9:45:32Z</time></trkpt>
<trkpt lat="48.958812713623" lon="3.1743144989014"><ele></ele><time>2022-6-1T9:45:35Z</time></trkpt>
<trkpt lat="48.958831787109" lon="3.1742737293243"><ele></ele><time>2022-6-1T9:45:38Z</time></trkpt>
<trkpt lat="48.958850860596" lon="3.1742339134216"><ele></ele><time>2022-6-1T9:45:41Z</time></trkpt>
<trkpt lat="48.958869934082" lon="3.1741902828217"><ele></ele><time>2022-6-1T9:45:44Z</time></trkpt>
<trkpt lat="48.958885192871" lon="3.1741497516632"><ele></ele><time>2022-6-1T9:45:47Z</time></trkpt>
<trkpt lat="48.958915710449" lon="3.1740732192993"><ele></ele><time>2022-6-1T9:45:50Z</time></trkpt>
<trkpt lat="48.958950042725" lon="3.1739659309387"><ele></ele><time>2022-6-1T9:45:53Z</time></trkpt>
<trkpt lat="48.958950042725" lon="3.1739659309387"><ele></ele><time>2022-6-1T9:45:56Z</time></trkpt>
<trkpt lat="48.958976745605" lon="3.1738634109497"><ele></ele><time>2022-6-1T9:45:59Z</time></trkpt>
<trkpt lat="48.958976745605" lon="3.1738634109497"><ele></ele><time>2022-6-1T9:46:2Z</time></trkpt>
<trkpt lat="48.958995819092" lon="3.1737666130066"><ele></ele><time>2022-6-1T9:46:5Z</time></trkpt>
<trkpt lat="48.958995819092" lon="3.1737666130066"><ele></ele><time>2022-6-1T9:46:8Z</time></trkpt>
<trkpt lat="48.959022521973" lon="3.1736607551575"><ele></ele><time>2022-6-1T9:46:11Z</time></trkpt>
<trkpt lat="48.959022521973" lon="3.1736607551575"><ele></ele><time>2022-6-1T9:46:14Z</time></trkpt>
<trkpt lat="48.959041595459" lon="3.1735503673553"><ele></ele><time>2022-6-1T9:46:17Z</time></trkpt>
<trkpt lat="48.959041595459" lon="3.1735503673553"><ele></ele><time>2022-6-1T9:46:20Z</time></trkpt>
<trkpt lat="48.959045410156" lon="3.1734261512756"><ele></ele><time>2022-6-1T9:46:23Z</time></trkpt>
<trkpt lat="48.959033966064" lon="3.1732861995697"><ele></ele><time>2022-6-1T9:46:26Z</time></trkpt>
<trkpt lat="48.958984375" lon="3.1731851100922"><ele></ele><time>2022-6-1T9:46:29Z</time></trkpt>
<trkpt lat="48.958984375" lon="3.1731851100922"><ele></ele><time>2022-6-1T9:46:32Z</time></trkpt>
<trkpt lat="48.958919525146" lon="3.1731123924255"><ele></ele><time>2022-6-1T9:46:35Z</time></trkpt>
<trkpt lat="48.958919525146" lon="3.1731123924255"><ele></ele><time>2022-6-1T9:46:38Z</time></trkpt>
<trkpt lat="48.958919525146" lon="3.1731123924255"><ele></ele><time>2022-6-1T9:46:41Z</time></trkpt>
<trkpt lat="48.958694458008" lon="3.1729154586792"><ele></ele><time>2022-6-1T9:46:44Z</time></trkpt>
<trkpt lat="48.958694458008" lon="3.1729154586792"><ele></ele><time>2022-6-1T9:46:47Z</time></trkpt>
<trkpt lat="48.958606719971" lon="3.1728572845459"><ele></ele><time>2022-6-1T9:46:50Z</time></trkpt>
<trkpt lat="48.958507537842" lon="3.1727850437164"><ele></ele><time>2022-6-1T9:46:53Z</time></trkpt>
<trkpt lat="48.958408355713" lon="3.1727018356323"><ele></ele><time>2022-6-1T9:46:56Z</time></trkpt>
<trkpt lat="48.958354949951" lon="3.1726515293121"><ele></ele><time>2022-6-1T9:46:59Z</time></trkpt>
<trkpt lat="48.958301544189" lon="3.1726036071777"><ele></ele><time>2022-6-1T9:47:2Z</time></trkpt>
<trkpt lat="48.95824432373" lon="3.172557592392"><ele></ele><time>2022-6-1T9:47:5Z</time></trkpt>
<trkpt lat="48.958187103271" lon="3.1725068092346"><ele></ele><time>2022-6-1T9:47:8Z</time></trkpt>
<trkpt lat="48.958129882812" lon="3.1724598407745"><ele></ele><time>2022-6-1T9:47:11Z</time></trkpt>
<trkpt lat="48.958072662354" lon="3.1724181175232"><ele></ele><time>2022-6-1T9:47:14Z</time></trkpt>
<trkpt lat="48.958015441895" lon="3.1723716259003"><ele></ele><time>2022-6-1T9:47:17Z</time></trkpt>
<trkpt lat="48.957908630371" lon="3.1723363399506"><ele></ele><time>2022-6-1T9:47:20Z</time></trkpt>
<trkpt lat="48.957836151123" lon="3.1723170280457"><ele></ele><time>2022-6-1T9:47:23Z</time></trkpt>
<trkpt lat="48.95777130127" lon="3.1722831726074"><ele></ele><time>2022-6-1T9:47:26Z</time></trkpt>
<trkpt lat="48.957706451416" lon="3.1722342967987"><ele></ele><time>2022-6-1T9:47:29Z</time></trkpt>
<trkpt lat="48.957649230957" lon="3.1721925735474"><ele></ele><time>2022-6-1T9:47:32Z</time></trkpt>
<trkpt lat="48.957584381104" lon="3.1721405982971"><ele></ele><time>2022-6-1T9:47:35Z</time></trkpt>
<trkpt lat="48.957515716553" lon="3.172073841095"><ele></ele><time>2022-6-1T9:47:38Z</time></trkpt>
<trkpt lat="48.957454681396" lon="3.1720082759857"><ele></ele><time>2022-6-1T9:47:41Z</time></trkpt>
<trkpt lat="48.957397460938" lon="3.1719574928284"><ele></ele><time>2022-6-1T9:47:44Z</time></trkpt>
<trkpt lat="48.957344055176" lon="3.1719126701355"><ele></ele><time>2022-6-1T9:47:47Z</time></trkpt>
<trkpt lat="48.957290649414" lon="3.1718802452087"><ele></ele><time>2022-6-1T9:47:50Z</time></trkpt>
<trkpt lat="48.957221984863" lon="3.1718428134918"><ele></ele><time>2022-6-1T9:47:53Z</time></trkpt>
<trkpt lat="48.957153320312" lon="3.1717965602875"><ele></ele><time>2022-6-1T9:47:56Z</time></trkpt>
<trkpt lat="48.957088470459" lon="3.1717483997345"><ele></ele><time>2022-6-1T9:47:59Z</time></trkpt>
<trkpt lat="48.95703125" lon="3.1717081069946"><ele></ele><time>2022-6-1T9:48:2Z</time></trkpt>
<trkpt lat="48.956966400146" lon="3.1716599464417"><ele></ele><time>2022-6-1T9:48:5Z</time></trkpt>
<trkpt lat="48.956912994385" lon="3.171617269516"><ele></ele><time>2022-6-1T9:48:8Z</time></trkpt>
<trkpt lat="48.956829071045" lon="3.1715562343597"><ele></ele><time>2022-6-1T9:48:11Z</time></trkpt>
<trkpt lat="48.956737518311" lon="3.1714935302734"><ele></ele><time>2022-6-1T9:48:14Z</time></trkpt>
<trkpt lat="48.956645965576" lon="3.1714420318604"><ele></ele><time>2022-6-1T9:48:17Z</time></trkpt>
<trkpt lat="48.956565856934" lon="3.1714062690735"><ele></ele><time>2022-6-1T9:48:20Z</time></trkpt>
<trkpt lat="48.956474304199" lon="3.1713721752167"><ele></ele><time>2022-6-1T9:48:23Z</time></trkpt>
<trkpt lat="48.956398010254" lon="3.171352148056"><ele></ele><time>2022-6-1T9:48:26Z</time></trkpt>
<trkpt lat="48.956329345703" lon="3.1713263988495"><ele></ele><time>2022-6-1T9:48:29Z</time></trkpt>
<trkpt lat="48.956253051758" lon="3.1713030338287"><ele></ele><time>2022-6-1T9:48:32Z</time></trkpt>
<trkpt lat="48.956169128418" lon="3.171275138855"><ele></ele><time>2022-6-1T9:48:35Z</time></trkpt>
<trkpt lat="48.956085205078" lon="3.1712310314178"><ele></ele><time>2022-6-1T9:48:38Z</time></trkpt>
<trkpt lat="48.955993652344" lon="3.1711773872375"><ele></ele><time>2022-6-1T9:48:41Z</time></trkpt>
<trkpt lat="48.955898284912" lon="3.1711385250092"><ele></ele><time>2022-6-1T9:48:44Z</time></trkpt>
<trkpt lat="48.95581817627" lon="3.1711032390594"><ele></ele><time>2022-6-1T9:48:47Z</time></trkpt>
<trkpt lat="48.955741882324" lon="3.1710824966431"><ele></ele><time>2022-6-1T9:48:50Z</time></trkpt>
<trkpt lat="48.955684661865" lon="3.1711006164551"><ele></ele><time>2022-6-1T9:48:53Z</time></trkpt>
<trkpt lat="48.955600738525" lon="3.171067237854"><ele></ele><time>2022-6-1T9:48:56Z</time></trkpt>
<trkpt lat="48.955516815186" lon="3.1710259914398"><ele></ele><time>2022-6-1T9:48:59Z</time></trkpt>
<trkpt lat="48.955451965332" lon="3.1710040569305"><ele></ele><time>2022-6-1T9:49:2Z</time></trkpt>
<trkpt lat="48.955383300781" lon="3.1709861755371"><ele></ele><time>2022-6-1T9:49:5Z</time></trkpt>
<trkpt lat="48.955310821533" lon="3.1709759235382"><ele></ele><time>2022-6-1T9:49:8Z</time></trkpt>
<trkpt lat="48.955238342285" lon="3.1709704399109"><ele></ele><time>2022-6-1T9:49:11Z</time></trkpt>
<trkpt lat="48.955165863037" lon="3.1709644794464"><ele></ele><time>2022-6-1T9:49:14Z</time></trkpt>
<trkpt lat="48.955085754395" lon="3.1709599494934"><ele></ele><time>2022-6-1T9:49:17Z</time></trkpt>
<trkpt lat="48.955001831055" lon="3.1709506511688"><ele></ele><time>2022-6-1T9:49:20Z</time></trkpt>
<trkpt lat="48.954925537109" lon="3.1709351539612"><ele></ele><time>2022-6-1T9:49:23Z</time></trkpt>
<trkpt lat="48.954845428467" lon="3.1708986759186"><ele></ele><time>2022-6-1T9:49:26Z</time></trkpt>
<trkpt lat="48.954780578613" lon="3.1708650588989"><ele></ele><time>2022-6-1T9:49:29Z</time></trkpt>
<trkpt lat="48.95471572876" lon="3.1708314418793"><ele></ele><time>2022-6-1T9:49:32Z</time></trkpt>
<trkpt lat="48.954658508301" lon="3.1707878112793"><ele></ele><time>2022-6-1T9:49:35Z</time></trkpt>
<trkpt lat="48.954597473145" lon="3.1707308292389"><ele></ele><time>2022-6-1T9:49:38Z</time></trkpt>
<trkpt lat="48.954532623291" lon="3.1706585884094"><ele></ele><time>2022-6-1T9:49:41Z</time></trkpt>
<trkpt lat="48.954483032227" lon="3.1705996990204"><ele></ele><time>2022-6-1T9:49:44Z</time></trkpt>
<trkpt lat="48.954483032227" lon="3.1705996990204"><ele></ele><time>2022-6-1T9:49:47Z</time></trkpt>
<trkpt lat="48.954429626465" lon="3.1705186367035"><ele></ele><time>2022-6-1T9:49:50Z</time></trkpt>
<trkpt lat="48.954429626465" lon="3.1705186367035"><ele></ele><time>2022-6-1T9:49:53Z</time></trkpt>
<trkpt lat="48.954406738281" lon="3.1703994274139"><ele></ele><time>2022-6-1T9:49:56Z</time></trkpt>
<trkpt lat="48.954406738281" lon="3.1703994274139"><ele></ele><time>2022-6-1T9:49:59Z</time></trkpt>
<trkpt lat="48.954391479492" lon="3.1702921390533"><ele></ele><time>2022-6-1T9:50:2Z</time></trkpt>
<trkpt lat="48.954387664795" lon="3.1702048778534"><ele></ele><time>2022-6-1T9:50:5Z</time></trkpt>
<trkpt lat="48.954391479492" lon="3.170113325119"><ele></ele><time>2022-6-1T9:50:8Z</time></trkpt>
<trkpt lat="48.954399108887" lon="3.170022726059"><ele></ele><time>2022-6-1T9:50:11Z</time></trkpt>
<trkpt lat="48.954402923584" lon="3.1699333190918"><ele></ele><time>2022-6-1T9:50:14Z</time></trkpt>
<trkpt lat="48.954414367676" lon="3.1698336601257"><ele></ele><time>2022-6-1T9:50:17Z</time></trkpt>
<trkpt lat="48.954460144043" lon="3.1696622371674"><ele></ele><time>2022-6-1T9:50:20Z</time></trkpt>
<trkpt lat="48.954483032227" lon="3.1695668697357"><ele></ele><time>2022-6-1T9:50:23Z</time></trkpt>
<trkpt lat="48.954509735107" lon="3.1694858074188"><ele></ele><time>2022-6-1T9:50:26Z</time></trkpt>
<trkpt lat="48.954544067383" lon="3.1694025993347"><ele></ele><time>2022-6-1T9:50:29Z</time></trkpt>
<trkpt lat="48.954586029053" lon="3.1693086624146"><ele></ele><time>2022-6-1T9:50:32Z</time></trkpt>
<trkpt lat="48.954635620117" lon="3.1692035198212"><ele></ele><time>2022-6-1T9:50:35Z</time></trkpt>
<trkpt lat="48.95467376709" lon="3.16912317276"><ele></ele><time>2022-6-1T9:50:38Z</time></trkpt>
<trkpt lat="48.954727172852" lon="3.1689434051514"><ele></ele><time>2022-6-1T9:50:41Z</time></trkpt>
<trkpt lat="48.954742431641" lon="3.1688117980957"><ele></ele><time>2022-6-1T9:50:44Z</time></trkpt>
<trkpt lat="48.954719543457" lon="3.1686677932739"><ele></ele><time>2022-6-1T9:50:47Z</time></trkpt>
<trkpt lat="48.954696655273" lon="3.1685447692871"><ele></ele><time>2022-6-1T9:50:50Z</time></trkpt>
<trkpt lat="48.954666137695" lon="3.1684324741364"><ele></ele><time>2022-6-1T9:50:53Z</time></trkpt>
<trkpt lat="48.954624176025" lon="3.1682856082916"><ele></ele><time>2022-6-1T9:50:56Z</time></trkpt>
<trkpt lat="48.954574584961" lon="3.1681437492371"><ele></ele><time>2022-6-1T9:50:59Z</time></trkpt>
<trkpt lat="48.954517364502" lon="3.1680028438568"><ele></ele><time>2022-6-1T9:51:2Z</time></trkpt>
<trkpt lat="48.954452514648" lon="3.1678514480591"><ele></ele><time>2022-6-1T9:51:5Z</time></trkpt>
<trkpt lat="48.954391479492" lon="3.1677055358887"><ele></ele><time>2022-6-1T9:51:8Z</time></trkpt>
<trkpt lat="48.954349517822" lon="3.167581319809"><ele></ele><time>2022-6-1T9:51:11Z</time></trkpt>
<trkpt lat="48.954315185547" lon="3.1674876213074"><ele></ele><time>2022-6-1T9:51:14Z</time></trkpt>
<trkpt lat="48.954315185547" lon="3.1674876213074"><ele></ele><time>2022-6-1T9:51:17Z</time></trkpt>
<trkpt lat="48.954315185547" lon="3.1674876213074"><ele></ele><time>2022-6-1T9:51:20Z</time></trkpt>
<trkpt lat="48.954265594482" lon="3.1674528121948"><ele></ele><time>2022-6-1T9:51:23Z</time></trkpt>
<trkpt lat="48.954265594482" lon="3.1674528121948"><ele></ele><time>2022-6-1T9:51:26Z</time></trkpt>
<trkpt lat="48.954265594482" lon="3.1674528121948"><ele></ele><time>2022-6-1T9:51:29Z</time></trkpt>
<trkpt lat="48.954151153564" lon="3.1671528816223"><ele></ele><time>2022-6-1T9:51:32Z</time></trkpt>
<trkpt lat="48.954124450684" lon="3.1670470237732"><ele></ele><time>2022-6-1T9:51:35Z</time></trkpt>
<trkpt lat="48.954105377197" lon="3.1669497489929"><ele></ele><time>2022-6-1T9:51:38Z</time></trkpt>
<trkpt lat="48.954086303711" lon="3.166862487793"><ele></ele><time>2022-6-1T9:51:41Z</time></trkpt>
<trkpt lat="48.954040527344" lon="3.1667792797089"><ele></ele><time>2022-6-1T9:51:44Z</time></trkpt>
<trkpt lat="48.954010009766" lon="3.1666824817657"><ele></ele><time>2022-6-1T9:51:47Z</time></trkpt>
<trkpt lat="48.953952789307" lon="3.1664884090424"><ele></ele><time>2022-6-1T9:51:50Z</time></trkpt>
<trkpt lat="48.953918457031" lon="3.1663765907288"><ele></ele><time>2022-6-1T9:51:53Z</time></trkpt>
<trkpt lat="48.953887939453" lon="3.166205406189"><ele></ele><time>2022-6-1T9:51:56Z</time></trkpt>
<trkpt lat="48.953845977783" lon="3.1660358905792"><ele></ele><time>2022-6-1T9:51:59Z</time></trkpt>
<trkpt lat="48.953800201416" lon="3.165843963623"><ele></ele><time>2022-6-1T9:52:2Z</time></trkpt>
<trkpt lat="48.95373916626" lon="3.1656181812286"><ele></ele><time>2022-6-1T9:52:5Z</time></trkpt>
<trkpt lat="48.953678131104" lon="3.1654238700867"><ele></ele><time>2022-6-1T9:52:8Z</time></trkpt>
<trkpt lat="48.953617095947" lon="3.1652402877808"><ele></ele><time>2022-6-1T9:52:11Z</time></trkpt>
<trkpt lat="48.953544616699" lon="3.1650533676147"><ele></ele><time>2022-6-1T9:52:14Z</time></trkpt>
<trkpt lat="48.953479766846" lon="3.16490483284"><ele></ele><time>2022-6-1T9:52:17Z</time></trkpt>
<trkpt lat="48.953411102295" lon="3.1647708415985"><ele></ele><time>2022-6-1T9:52:20Z</time></trkpt>
<trkpt lat="48.953338623047" lon="3.1646540164948"><ele></ele><time>2022-6-1T9:52:23Z</time></trkpt>
<trkpt lat="48.953285217285" lon="3.1645412445068"><ele></ele><time>2022-6-1T9:52:26Z</time></trkpt>
<trkpt lat="48.95320892334" lon="3.1644098758698"><ele></ele><time>2022-6-1T9:52:29Z</time></trkpt>
<trkpt lat="48.95316696167" lon="3.1642782688141"><ele></ele><time>2022-6-1T9:52:32Z</time></trkpt>
<trkpt lat="48.953128814697" lon="3.1641328334808"><ele></ele><time>2022-6-1T9:52:35Z</time></trkpt>
<trkpt lat="48.953075408936" lon="3.1639859676361"><ele></ele><time>2022-6-1T9:52:38Z</time></trkpt>
<trkpt lat="48.953025817871" lon="3.1638569831848"><ele></ele><time>2022-6-1T9:52:41Z</time></trkpt>
<trkpt lat="48.953002929688" lon="3.1637649536133"><ele></ele><time>2022-6-1T9:52:44Z</time></trkpt>
<trkpt lat="48.953002929688" lon="3.1637649536133"><ele></ele><time>2022-6-1T9:52:47Z</time></trkpt>
<trkpt lat="48.952964782715" lon="3.1636388301849"><ele></ele><time>2022-6-1T9:52:50Z</time></trkpt>
<trkpt lat="48.952964782715" lon="3.1636388301849"><ele></ele><time>2022-6-1T9:52:53Z</time></trkpt>
<trkpt lat="48.95291519165" lon="3.1634840965271"><ele></ele><time>2022-6-1T9:52:56Z</time></trkpt>
<trkpt lat="48.95288848877" lon="3.1633837223053"><ele></ele><time>2022-6-1T9:52:59Z</time></trkpt>
<trkpt lat="48.952854156494" lon="3.1632499694824"><ele></ele><time>2022-6-1T9:53:2Z</time></trkpt>
<trkpt lat="48.952800750732" lon="3.1631019115448"><ele></ele><time>2022-6-1T9:53:5Z</time></trkpt>
<trkpt lat="48.952732086182" lon="3.1629481315613"><ele></ele><time>2022-6-1T9:53:8Z</time></trkpt>
<trkpt lat="48.95267868042" lon="3.1628391742706"><ele></ele><time>2022-6-1T9:53:11Z</time></trkpt>
<trkpt lat="48.952632904053" lon="3.1627268791199"><ele></ele><time>2022-6-1T9:53:14Z</time></trkpt>
<trkpt lat="48.952579498291" lon="3.1625907421112"><ele></ele><time>2022-6-1T9:53:17Z</time></trkpt>
<trkpt lat="48.952526092529" lon="3.1624567508698"><ele></ele><time>2022-6-1T9:53:20Z</time></trkpt>
<trkpt lat="48.952503204346" lon="3.1623690128326"><ele></ele><time>2022-6-1T9:53:23Z</time></trkpt>
<trkpt lat="48.952503204346" lon="3.1623690128326"><ele></ele><time>2022-6-1T9:53:26Z</time></trkpt>
<trkpt lat="48.952453613281" lon="3.1622040271759"><ele></ele><time>2022-6-1T9:53:29Z</time></trkpt>
<trkpt lat="48.952415466309" lon="3.162116765976"><ele></ele><time>2022-6-1T9:53:32Z</time></trkpt>
<trkpt lat="48.952381134033" lon="3.1620409488678"><ele></ele><time>2022-6-1T9:53:35Z</time></trkpt>
<trkpt lat="48.952346801758" lon="3.1619708538055"><ele></ele><time>2022-6-1T9:53:38Z</time></trkpt>
<trkpt lat="48.952304840088" lon="3.1618740558624"><ele></ele><time>2022-6-1T9:53:41Z</time></trkpt>
<trkpt lat="48.952266693115" lon="3.1618003845215"><ele></ele><time>2022-6-1T9:53:44Z</time></trkpt>
<trkpt lat="48.952213287354" lon="3.1617302894592"><ele></ele><time>2022-6-1T9:53:47Z</time></trkpt>
<trkpt lat="48.952167510986" lon="3.1616597175598"><ele></ele><time>2022-6-1T9:53:50Z</time></trkpt>
<trkpt lat="48.952133178711" lon="3.1615877151489"><ele></ele><time>2022-6-1T9:53:53Z</time></trkpt>
<trkpt lat="48.952133178711" lon="3.1615877151489"><ele></ele><time>2022-6-1T9:53:56Z</time></trkpt>
<trkpt lat="48.95206451416" lon="3.1614503860474"><ele></ele><time>2022-6-1T9:53:59Z</time></trkpt>
<trkpt lat="48.952007293701" lon="3.1613717079163"><ele></ele><time>2022-6-1T9:54:2Z</time></trkpt>
<trkpt lat="48.952007293701" lon="3.1613717079163"><ele></ele><time>2022-6-1T9:54:5Z</time></trkpt>
<trkpt lat="48.951961517334" lon="3.1612977981567"><ele></ele><time>2022-6-1T9:54:8Z</time></trkpt>
<trkpt lat="48.951961517334" lon="3.1612977981567"><ele></ele><time>2022-6-1T9:54:11Z</time></trkpt>
<trkpt lat="48.951877593994" lon="3.1611647605896"><ele></ele><time>2022-6-1T9:54:14Z</time></trkpt>
<trkpt lat="48.951877593994" lon="3.1611647605896"><ele></ele><time>2022-6-1T9:54:17Z</time></trkpt>
<trkpt lat="48.951728820801" lon="3.1610155105591"><ele></ele><time>2022-6-1T9:54:20Z</time></trkpt>
<trkpt lat="48.951652526855" lon="3.1608953475952"><ele></ele><time>2022-6-1T9:54:23Z</time></trkpt>
<trkpt lat="48.951568603516" lon="3.1607708930969"><ele></ele><time>2022-6-1T9:54:26Z</time></trkpt>
<trkpt lat="48.951412200928" lon="3.1604635715485"><ele></ele><time>2022-6-1T9:54:29Z</time></trkpt>
<trkpt lat="48.951343536377" lon="3.1602847576141"><ele></ele><time>2022-6-1T9:54:32Z</time></trkpt>
<trkpt lat="48.951282501221" lon="3.1601059436798"><ele></ele><time>2022-6-1T9:54:35Z</time></trkpt>
<trkpt lat="48.951232910156" lon="3.1599531173706"><ele></ele><time>2022-6-1T9:54:38Z</time></trkpt>
<trkpt lat="48.951164245605" lon="3.1598069667816"><ele></ele><time>2022-6-1T9:54:41Z</time></trkpt>
<trkpt lat="48.951107025146" lon="3.1597135066986"><ele></ele><time>2022-6-1T9:54:44Z</time></trkpt>
<trkpt lat="48.951038360596" lon="3.1596188545227"><ele></ele><time>2022-6-1T9:54:47Z</time></trkpt>
<trkpt lat="48.950984954834" lon="3.1595258712769"><ele></ele><time>2022-6-1T9:54:50Z</time></trkpt>
<trkpt lat="48.950984954834" lon="3.1595258712769"><ele></ele><time>2022-6-1T9:54:53Z</time></trkpt>
<trkpt lat="48.950942993164" lon="3.1594564914703"><ele></ele><time>2022-6-1T9:54:56Z</time></trkpt>
<trkpt lat="48.950942993164" lon="3.1594564914703"><ele></ele><time>2022-6-1T9:54:59Z</time></trkpt>
<trkpt lat="48.950942993164" lon="3.1594564914703"><ele></ele><time>2022-6-1T9:55:2Z</time></trkpt>
<trkpt lat="48.950942993164" lon="3.1594564914703"><ele></ele><time>2022-6-1T9:55:5Z</time></trkpt>
<trkpt lat="48.950942993164" lon="3.1594564914703"><ele></ele><time>2022-6-1T9:55:8Z</time></trkpt>
<trkpt lat="48.950916290283" lon="3.1594681739807"><ele></ele><time>2022-6-1T9:55:11Z</time></trkpt>
<trkpt lat="48.951061248779" lon="3.1593322753906"><ele></ele><time>2022-6-1T9:55:14Z</time></trkpt>
<trkpt lat="48.951164245605" lon="3.1592659950256"><ele></ele><time>2022-6-1T9:55:17Z</time></trkpt>
<trkpt lat="48.95125579834" lon="3.1591951847076"><ele></ele><time>2022-6-1T9:55:20Z</time></trkpt>
<trkpt lat="48.951358795166" lon="3.159107208252"><ele></ele><time>2022-6-1T9:55:23Z</time></trkpt>
<trkpt lat="48.951446533203" lon="3.1590399742126"><ele></ele><time>2022-6-1T9:55:26Z</time></trkpt>
<trkpt lat="48.95153427124" lon="3.1589825153351"><ele></ele><time>2022-6-1T9:55:29Z</time></trkpt>
<trkpt lat="48.951625823975" lon="3.1589245796204"><ele></ele><time>2022-6-1T9:55:32Z</time></trkpt>
<trkpt lat="48.951698303223" lon="3.1588625907898"><ele></ele><time>2022-6-1T9:55:35Z</time></trkpt>
<trkpt lat="48.951763153076" lon="3.1588065624237"><ele></ele><time>2022-6-1T9:55:38Z</time></trkpt>
<trkpt lat="48.951820373535" lon="3.1587288379669"><ele></ele><time>2022-6-1T9:55:41Z</time></trkpt>
<trkpt lat="48.951908111572" lon="3.1587111949921"><ele></ele><time>2022-6-1T9:55:44Z</time></trkpt>
<trkpt lat="48.952003479004" lon="3.1586992740631"><ele></ele><time>2022-6-1T9:55:47Z</time></trkpt>
<trkpt lat="48.952091217041" lon="3.1587009429932"><ele></ele><time>2022-6-1T9:55:50Z</time></trkpt>
<trkpt lat="48.952178955078" lon="3.1587018966675"><ele></ele><time>2022-6-1T9:55:53Z</time></trkpt>
<trkpt lat="48.952259063721" lon="3.1587038040161"><ele></ele><time>2022-6-1T9:55:56Z</time></trkpt>
<trkpt lat="48.952327728271" lon="3.1587064266205"><ele></ele><time>2022-6-1T9:55:59Z</time></trkpt>
<trkpt lat="48.952392578125" lon="3.158712387085"><ele></ele><time>2022-6-1T9:56:2Z</time></trkpt>
<trkpt lat="48.952457427979" lon="3.158712387085"><ele></ele><time>2022-6-1T9:56:5Z</time></trkpt>
<trkpt lat="48.952526092529" lon="3.1586844921112"><ele></ele><time>2022-6-1T9:56:8Z</time></trkpt>
<trkpt lat="48.952579498291" lon="3.1586599349976"><ele></ele><time>2022-6-1T9:56:11Z</time></trkpt>
<trkpt lat="48.952648162842" lon="3.1586170196533"><ele></ele><time>2022-6-1T9:56:14Z</time></trkpt>
<trkpt lat="48.952728271484" lon="3.1585335731506"><ele></ele><time>2022-6-1T9:56:17Z</time></trkpt>
<trkpt lat="48.952796936035" lon="3.1584465503693"><ele></ele><time>2022-6-1T9:56:20Z</time></trkpt>
<trkpt lat="48.9528465271" lon="3.1583633422852"><ele></ele><time>2022-6-1T9:56:23Z</time></trkpt>
<trkpt lat="48.952899932861" lon="3.1582586765289"><ele></ele><time>2022-6-1T9:56:26Z</time></trkpt>
<trkpt lat="48.95295715332" lon="3.1581454277039"><ele></ele><time>2022-6-1T9:56:29Z</time></trkpt>
<trkpt lat="48.953006744385" lon="3.1580317020416"><ele></ele><time>2022-6-1T9:56:32Z</time></trkpt>
<trkpt lat="48.953063964844" lon="3.1578807830811"><ele></ele><time>2022-6-1T9:56:35Z</time></trkpt>
<trkpt lat="48.953113555908" lon="3.1577441692352"><ele></ele><time>2022-6-1T9:56:38Z</time></trkpt>
<trkpt lat="48.953155517578" lon="3.1575746536255"><ele></ele><time>2022-6-1T9:56:41Z</time></trkpt>
<trkpt lat="48.953193664551" lon="3.157420873642"><ele></ele><time>2022-6-1T9:56:44Z</time></trkpt>
<trkpt lat="48.953231811523" lon="3.1572773456573"><ele></ele><time>2022-6-1T9:56:47Z</time></trkpt>
<trkpt lat="48.953273773193" lon="3.1571118831635"><ele></ele><time>2022-6-1T9:56:50Z</time></trkpt>
<trkpt lat="48.953330993652" lon="3.1569666862488"><ele></ele><time>2022-6-1T9:56:53Z</time></trkpt>
<trkpt lat="48.953392028809" lon="3.1568355560303"><ele></ele><time>2022-6-1T9:56:56Z</time></trkpt>
<trkpt lat="48.953453063965" lon="3.1566717624664"><ele></ele><time>2022-6-1T9:56:59Z</time></trkpt>
<trkpt lat="48.953510284424" lon="3.1564810276031"><ele></ele><time>2022-6-1T9:57:2Z</time></trkpt>
<trkpt lat="48.953563690186" lon="3.1562881469727"><ele></ele><time>2022-6-1T9:57:5Z</time></trkpt>
<trkpt lat="48.953620910645" lon="3.1561563014984"><ele></ele><time>2022-6-1T9:57:8Z</time></trkpt>
<trkpt lat="48.953674316406" lon="3.1559941768646"><ele></ele><time>2022-6-1T9:57:11Z</time></trkpt>
<trkpt lat="48.953796386719" lon="3.1556577682495"><ele></ele><time>2022-6-1T9:57:14Z</time></trkpt>
<trkpt lat="48.953872680664" lon="3.1554789543152"><ele></ele><time>2022-6-1T9:57:17Z</time></trkpt>
<trkpt lat="48.953952789307" lon="3.1552836894989"><ele></ele><time>2022-6-1T9:57:20Z</time></trkpt>
<trkpt lat="48.95401763916" lon="3.1550724506378"><ele></ele><time>2022-6-1T9:57:23Z</time></trkpt>
<trkpt lat="48.954082489014" lon="3.1548752784729"><ele></ele><time>2022-6-1T9:57:26Z</time></trkpt>
<trkpt lat="48.954162597656" lon="3.154727935791"><ele></ele><time>2022-6-1T9:57:29Z</time></trkpt>
<trkpt lat="48.954231262207" lon="3.1545779705048"><ele></ele><time>2022-6-1T9:57:32Z</time></trkpt>
<trkpt lat="48.954307556152" lon="3.154399394989"><ele></ele><time>2022-6-1T9:57:35Z</time></trkpt>
<trkpt lat="48.954372406006" lon="3.1542778015137"><ele></ele><time>2022-6-1T9:57:38Z</time></trkpt>
<trkpt lat="48.954433441162" lon="3.1541705131531"><ele></ele><time>2022-6-1T9:57:41Z</time></trkpt>
<trkpt lat="48.954502105713" lon="3.1540660858154"><ele></ele><time>2022-6-1T9:57:44Z</time></trkpt>
<trkpt lat="48.954536437988" lon="3.1539783477783"><ele></ele><time>2022-6-1T9:57:47Z</time></trkpt>
<trkpt lat="48.954582214355" lon="3.1538920402527"><ele></ele><time>2022-6-1T9:57:50Z</time></trkpt>
<trkpt lat="48.954635620117" lon="3.1537961959839"><ele></ele><time>2022-6-1T9:57:53Z</time></trkpt>
<trkpt lat="48.954711914062" lon="3.1536622047424"><ele></ele><time>2022-6-1T9:57:56Z</time></trkpt>
<trkpt lat="48.954788208008" lon="3.153507232666"><ele></ele><time>2022-6-1T9:57:59Z</time></trkpt>
<trkpt lat="48.95486831665" lon="3.1534035205841"><ele></ele><time>2022-6-1T9:58:2Z</time></trkpt>
<trkpt lat="48.954940795898" lon="3.1533308029175"><ele></ele><time>2022-6-1T9:58:5Z</time></trkpt>
<trkpt lat="48.955017089844" lon="3.1532592773438"><ele></ele><time>2022-6-1T9:58:8Z</time></trkpt>
<trkpt lat="48.955104827881" lon="3.1531636714935"><ele></ele><time>2022-6-1T9:58:11Z</time></trkpt>
<trkpt lat="48.955215454102" lon="3.1530728340149"><ele></ele><time>2022-6-1T9:58:14Z</time></trkpt>
<trkpt lat="48.955345153809" lon="3.1529443264008"><ele></ele><time>2022-6-1T9:58:17Z</time></trkpt>
<trkpt lat="48.955463409424" lon="3.1528301239014"><ele></ele><time>2022-6-1T9:58:20Z</time></trkpt>
<trkpt lat="48.95556640625" lon="3.1527433395386"><ele></ele><time>2022-6-1T9:58:23Z</time></trkpt>
<trkpt lat="48.955665588379" lon="3.1526556015015"><ele></ele><time>2022-6-1T9:58:26Z</time></trkpt>
<trkpt lat="48.955768585205" lon="3.1525597572327"><ele></ele><time>2022-6-1T9:58:29Z</time></trkpt>
<trkpt lat="48.955863952637" lon="3.1524746417999"><ele></ele><time>2022-6-1T9:58:32Z</time></trkpt>
<trkpt lat="48.955944061279" lon="3.1523787975311"><ele></ele><time>2022-6-1T9:58:35Z</time></trkpt>
<trkpt lat="48.956020355225" lon="3.1522932052612"><ele></ele><time>2022-6-1T9:58:38Z</time></trkpt>
<trkpt lat="48.956108093262" lon="3.1521933078766"><ele></ele><time>2022-6-1T9:58:41Z</time></trkpt>
<trkpt lat="48.956207275391" lon="3.1520726680756"><ele></ele><time>2022-6-1T9:58:44Z</time></trkpt>
<trkpt lat="48.956329345703" lon="3.1519560813904"><ele></ele><time>2022-6-1T9:58:47Z</time></trkpt>
<trkpt lat="48.956436157227" lon="3.1519243717194"><ele></ele><time>2022-6-1T9:58:50Z</time></trkpt>
<trkpt lat="48.956539154053" lon="3.1519057750702"><ele></ele><time>2022-6-1T9:58:53Z</time></trkpt>
<trkpt lat="48.956676483154" lon="3.1519708633423"><ele></ele><time>2022-6-1T9:58:56Z</time></trkpt>
<trkpt lat="48.956676483154" lon="3.1519708633423"><ele></ele><time>2022-6-1T9:58:59Z</time></trkpt>
<trkpt lat="48.956809997559" lon="3.1519622802734"><ele></ele><time>2022-6-1T9:59:2Z</time></trkpt>
<trkpt lat="48.95690536499" lon="3.1518964767456"><ele></ele><time>2022-6-1T9:59:5Z</time></trkpt>
<trkpt lat="48.957000732422" lon="3.1518096923828"><ele></ele><time>2022-6-1T9:59:8Z</time></trkpt>
<trkpt lat="48.957099914551" lon="3.15172290802"><ele></ele><time>2022-6-1T9:59:11Z</time></trkpt>
<trkpt lat="48.957221984863" lon="3.1516215801239"><ele></ele><time>2022-6-1T9:59:14Z</time></trkpt>
<trkpt lat="48.957328796387" lon="3.1514790058136"><ele></ele><time>2022-6-1T9:59:17Z</time></trkpt>
<trkpt lat="48.957450866699" lon="3.1513485908508"><ele></ele><time>2022-6-1T9:59:20Z</time></trkpt>
<trkpt lat="48.957580566406" lon="3.1512656211853"><ele></ele><time>2022-6-1T9:59:23Z</time></trkpt>
<trkpt lat="48.957725524902" lon="3.1512475013733"><ele></ele><time>2022-6-1T9:59:26Z</time></trkpt>
<trkpt lat="48.957885742188" lon="3.1511652469635"><ele></ele><time>2022-6-1T9:59:29Z</time></trkpt>
<trkpt lat="48.958084106445" lon="3.1511194705963"><ele></ele><time>2022-6-1T9:59:32Z</time></trkpt>
<trkpt lat="48.95825958252" lon="3.1511013507843"><ele></ele><time>2022-6-1T9:59:35Z</time></trkpt>
<trkpt lat="48.958438873291" lon="3.1510872840881"><ele></ele><time>2022-6-1T9:59:38Z</time></trkpt>
<trkpt lat="48.958633422852" lon="3.1510434150696"><ele></ele><time>2022-6-1T9:59:41Z</time></trkpt>
<trkpt lat="48.958976745605" lon="3.1507842540741"><ele></ele><time>2022-6-1T9:59:44Z</time></trkpt>
<trkpt lat="48.959159851074" lon="3.1505982875824"><ele></ele><time>2022-6-1T9:59:47Z</time></trkpt>
<trkpt lat="48.95930480957" lon="3.1504213809967"><ele></ele><time>2022-6-1T9:59:50Z</time></trkpt>
<trkpt lat="48.959434509277" lon="3.1502771377563"><ele></ele><time>2022-6-1T9:59:53Z</time></trkpt>
<trkpt lat="48.959552764893" lon="3.1501591205597"><ele></ele><time>2022-6-1T9:59:56Z</time></trkpt>
<trkpt lat="48.959552764893" lon="3.1501591205597"><ele></ele><time>2022-6-1T9:59:59Z</time></trkpt>
<trkpt lat="48.959606170654" lon="3.1500749588013"><ele></ele><time>2022-6-1T10:0:2Z</time></trkpt>
<trkpt lat="48.959644317627" lon="3.1500034332275"><ele></ele><time>2022-6-1T10:0:5Z</time></trkpt>
<trkpt lat="48.95975112915" lon="3.1498882770538"><ele></ele><time>2022-6-1T10:0:8Z</time></trkpt>
<trkpt lat="48.95975112915" lon="3.1498882770538"><ele></ele><time>2022-6-1T10:0:11Z</time></trkpt>
<trkpt lat="48.959812164307" lon="3.1497905254364"><ele></ele><time>2022-6-1T10:0:14Z</time></trkpt>
<trkpt lat="48.959812164307" lon="3.1497905254364"><ele></ele><time>2022-6-1T10:0:17Z</time></trkpt>
<trkpt lat="48.959934234619" lon="3.1496069431305"><ele></ele><time>2022-6-1T10:0:20Z</time></trkpt>
<trkpt lat="48.960063934326" lon="3.1493883132935"><ele></ele><time>2022-6-1T10:0:23Z</time></trkpt>
<trkpt lat="48.960136413574" lon="3.1492755413055"><ele></ele><time>2022-6-1T10:0:26Z</time></trkpt>
<trkpt lat="48.960216522217" lon="3.1491611003876"><ele></ele><time>2022-6-1T10:0:29Z</time></trkpt>
<trkpt lat="48.960296630859" lon="3.149050951004"><ele></ele><time>2022-6-1T10:0:32Z</time></trkpt>
<trkpt lat="48.960369110107" lon="3.1489398479462"><ele></ele><time>2022-6-1T10:0:35Z</time></trkpt>
<trkpt lat="48.960437774658" lon="3.148824930191"><ele></ele><time>2022-6-1T10:0:38Z</time></trkpt>
<trkpt lat="48.960498809814" lon="3.1487400531769"><ele></ele><time>2022-6-1T10:0:41Z</time></trkpt>
<trkpt lat="48.960498809814" lon="3.1487400531769"><ele></ele><time>2022-6-1T10:0:44Z</time></trkpt>
<trkpt lat="48.960559844971" lon="3.1486597061157"><ele></ele><time>2022-6-1T10:0:47Z</time></trkpt>
<trkpt lat="48.960559844971" lon="3.1486597061157"><ele></ele><time>2022-6-1T10:0:50Z</time></trkpt>
<trkpt lat="48.960624694824" lon="3.1485941410065"><ele></ele><time>2022-6-1T10:0:53Z</time></trkpt>
<trkpt lat="48.960624694824" lon="3.1485941410065"><ele></ele><time>2022-6-1T10:0:56Z</time></trkpt>
<trkpt lat="48.960697174072" lon="3.1485571861267"><ele></ele><time>2022-6-1T10:0:59Z</time></trkpt>
<trkpt lat="48.960697174072" lon="3.1485571861267"><ele></ele><time>2022-6-1T10:1:2Z</time></trkpt>
<trkpt lat="48.960697174072" lon="3.1485571861267"><ele></ele><time>2022-6-1T10:1:5Z</time></trkpt>
<trkpt lat="48.960880279541" lon="3.148380279541"><ele></ele><time>2022-6-1T10:1:8Z</time></trkpt>
<trkpt lat="48.961093902588" lon="3.1482338905334"><ele></ele><time>2022-6-1T10:1:11Z</time></trkpt>
<trkpt lat="48.961242675781" lon="3.1482210159302"><ele></ele><time>2022-6-1T10:1:14Z</time></trkpt>
<trkpt lat="48.96138381958" lon="3.1481559276581"><ele></ele><time>2022-6-1T10:1:17Z</time></trkpt>
<trkpt lat="48.961490631104" lon="3.1479704380035"><ele></ele><time>2022-6-1T10:1:20Z</time></trkpt>
<trkpt lat="48.961559295654" lon="3.1478042602539"><ele></ele><time>2022-6-1T10:1:23Z</time></trkpt>
<trkpt lat="48.961605072021" lon="3.1476769447327"><ele></ele><time>2022-6-1T10:1:26Z</time></trkpt>
<trkpt lat="48.961650848389" lon="3.1475863456726"><ele></ele><time>2022-6-1T10:1:29Z</time></trkpt>
<trkpt lat="48.961681365967" lon="3.1474885940552"><ele></ele><time>2022-6-1T10:1:32Z</time></trkpt>
<trkpt lat="48.961681365967" lon="3.1474885940552"><ele></ele><time>2022-6-1T10:1:35Z</time></trkpt>
<trkpt lat="48.961692810059" lon="3.1473743915558"><ele></ele><time>2022-6-1T10:1:38Z</time></trkpt>
<trkpt lat="48.961692810059" lon="3.1473743915558"><ele></ele><time>2022-6-1T10:1:41Z</time></trkpt>
<trkpt lat="48.961765289307" lon="3.147243976593"><ele></ele><time>2022-6-1T10:1:44Z</time></trkpt>
<trkpt lat="48.961845397949" lon="3.1471388339996"><ele></ele><time>2022-6-1T10:1:47Z</time></trkpt>
<trkpt lat="48.961929321289" lon="3.1470289230347"><ele></ele><time>2022-6-1T10:1:50Z</time></trkpt>
<trkpt lat="48.962005615234" lon="3.1469292640686"><ele></ele><time>2022-6-1T10:1:53Z</time></trkpt>
<trkpt lat="48.962085723877" lon="3.1468296051025"><ele></ele><time>2022-6-1T10:1:56Z</time></trkpt>
<trkpt lat="48.962158203125" lon="3.1467368602753"><ele></ele><time>2022-6-1T10:1:59Z</time></trkpt>
<trkpt lat="48.962219238281" lon="3.1466627120972"><ele></ele><time>2022-6-1T10:2:2Z</time></trkpt>
<trkpt lat="48.962219238281" lon="3.1466627120972"><ele></ele><time>2022-6-1T10:2:5Z</time></trkpt>
<trkpt lat="48.962265014648" lon="3.1465885639191"><ele></ele><time>2022-6-1T10:2:8Z</time></trkpt>
<trkpt lat="48.962169647217" lon="3.1463599205017"><ele></ele><time>2022-6-1T10:2:11Z</time></trkpt>
<trkpt lat="48.962116241455" lon="3.1462261676788"><ele></ele><time>2022-6-1T10:2:14Z</time></trkpt>
<trkpt lat="48.962116241455" lon="3.1462261676788"><ele></ele><time>2022-6-1T10:2:17Z</time></trkpt>
<trkpt lat="48.962051391602" lon="3.1460797786713"><ele></ele><time>2022-6-1T10:2:20Z</time></trkpt>
<trkpt lat="48.962009429932" lon="3.1459984779358"><ele></ele><time>2022-6-1T10:2:23Z</time></trkpt>
<trkpt lat="48.961952209473" lon="3.14590716362"><ele></ele><time>2022-6-1T10:2:26Z</time></trkpt>
<trkpt lat="48.961868286133" lon="3.1457989215851"><ele></ele><time>2022-6-1T10:2:29Z</time></trkpt>
<trkpt lat="48.961791992188" lon="3.1457097530365"><ele></ele><time>2022-6-1T10:2:32Z</time></trkpt>
<trkpt lat="48.961753845215" lon="3.145610332489"><ele></ele><time>2022-6-1T10:2:35Z</time></trkpt>
<trkpt lat="48.961715698242" lon="3.1454894542694"><ele></ele><time>2022-6-1T10:2:38Z</time></trkpt>
<trkpt lat="48.961669921875" lon="3.1453611850739"><ele></ele><time>2022-6-1T10:2:41Z</time></trkpt>
<trkpt lat="48.961627960205" lon="3.1452608108521"><ele></ele><time>2022-6-1T10:2:44Z</time></trkpt>
<trkpt lat="48.961582183838" lon="3.1451697349548"><ele></ele><time>2022-6-1T10:2:47Z</time></trkpt>
<trkpt lat="48.961532592773" lon="3.1450781822205"><ele></ele><time>2022-6-1T10:2:50Z</time></trkpt>
<trkpt lat="48.961471557617" lon="3.1449217796326"><ele></ele><time>2022-6-1T10:2:53Z</time></trkpt>
<trkpt lat="48.96142578125" lon="3.1447639465332"><ele></ele><time>2022-6-1T10:2:56Z</time></trkpt>
<trkpt lat="48.961380004883" lon="3.1445922851562"><ele></ele><time>2022-6-1T10:2:59Z</time></trkpt>
<trkpt lat="48.961345672607" lon="3.1444425582886"><ele></ele><time>2022-6-1T10:3:2Z</time></trkpt>
<trkpt lat="48.961307525635" lon="3.1442971229553"><ele></ele><time>2022-6-1T10:3:5Z</time></trkpt>
<trkpt lat="48.961269378662" lon="3.1441736221313"><ele></ele><time>2022-6-1T10:3:8Z</time></trkpt>
<trkpt lat="48.961231231689" lon="3.1440472602844"><ele></ele><time>2022-6-1T10:3:11Z</time></trkpt>
<trkpt lat="48.961185455322" lon="3.1439259052277"><ele></ele><time>2022-6-1T10:3:14Z</time></trkpt>
<trkpt lat="48.961135864258" lon="3.1438064575195"><ele></ele><time>2022-6-1T10:3:17Z</time></trkpt>
<trkpt lat="48.961074829102" lon="3.1436738967896"><ele></ele><time>2022-6-1T10:3:20Z</time></trkpt>
<trkpt lat="48.961029052734" lon="3.1435945034027"><ele></ele><time>2022-6-1T10:3:23Z</time></trkpt>
<trkpt lat="48.961029052734" lon="3.1435945034027"><ele></ele><time>2022-6-1T10:3:26Z</time></trkpt>
<trkpt lat="48.960914611816" lon="3.1434214115143"><ele></ele><time>2022-6-1T10:3:29Z</time></trkpt>
<trkpt lat="48.960792541504" lon="3.143176317215"><ele></ele><time>2022-6-1T10:3:32Z</time></trkpt>
<trkpt lat="48.960754394531" lon="3.1430995464325"><ele></ele><time>2022-6-1T10:3:35Z</time></trkpt>
<trkpt lat="48.960712432861" lon="3.1430039405823"><ele></ele><time>2022-6-1T10:3:38Z</time></trkpt>
<trkpt lat="48.960662841797" lon="3.1429009437561"><ele></ele><time>2022-6-1T10:3:41Z</time></trkpt>
<trkpt lat="48.960624694824" lon="3.1428277492523"><ele></ele><time>2022-6-1T10:3:44Z</time></trkpt>
<trkpt lat="48.960624694824" lon="3.1428277492523"><ele></ele><time>2022-6-1T10:3:47Z</time></trkpt>
<trkpt lat="48.960556030273" lon="3.1426894664764"><ele></ele><time>2022-6-1T10:3:50Z</time></trkpt>
<trkpt lat="48.960510253906" lon="3.1425969600677"><ele></ele><time>2022-6-1T10:3:53Z</time></trkpt>
<trkpt lat="48.96044921875" lon="3.1424920558929"><ele></ele><time>2022-6-1T10:3:56Z</time></trkpt>
<trkpt lat="48.960388183594" lon="3.1423811912537"><ele></ele><time>2022-6-1T10:3:59Z</time></trkpt>
<trkpt lat="48.960319519043" lon="3.1422739028931"><ele></ele><time>2022-6-1T10:4:2Z</time></trkpt>
<trkpt lat="48.960235595703" lon="3.142156124115"><ele></ele><time>2022-6-1T10:4:5Z</time></trkpt>
<trkpt lat="48.960144042969" lon="3.1420340538025"><ele></ele><time>2022-6-1T10:4:8Z</time></trkpt>
<trkpt lat="48.960060119629" lon="3.1419394016266"><ele></ele><time>2022-6-1T10:4:11Z</time></trkpt>
<trkpt lat="48.959983825684" lon="3.1418564319611"><ele></ele><time>2022-6-1T10:4:14Z</time></trkpt>
<trkpt lat="48.959896087646" lon="3.1417694091797"><ele></ele><time>2022-6-1T10:4:17Z</time></trkpt>
<trkpt lat="48.959812164307" lon="3.1416895389557"><ele></ele><time>2022-6-1T10:4:20Z</time></trkpt>
<trkpt lat="48.959728240967" lon="3.141613483429"><ele></ele><time>2022-6-1T10:4:23Z</time></trkpt>
<trkpt lat="48.959632873535" lon="3.1415348052979"><ele></ele><time>2022-6-1T10:4:26Z</time></trkpt>
<trkpt lat="48.959529876709" lon="3.1414527893066"><ele></ele><time>2022-6-1T10:4:29Z</time></trkpt>
<trkpt lat="48.959438323975" lon="3.1413934230804"><ele></ele><time>2022-6-1T10:4:32Z</time></trkpt>
<trkpt lat="48.959365844727" lon="3.1413547992706"><ele></ele><time>2022-6-1T10:4:35Z</time></trkpt>
<trkpt lat="48.959308624268" lon="3.1413240432739"><ele></ele><time>2022-6-1T10:4:38Z</time></trkpt>
<trkpt lat="48.959251403809" lon="3.1412742137909"><ele></ele><time>2022-6-1T10:4:41Z</time></trkpt>
<trkpt lat="48.959251403809" lon="3.1412742137909"><ele></ele><time>2022-6-1T10:4:44Z</time></trkpt>
<trkpt lat="48.95919418335" lon="3.1412000656128"><ele></ele><time>2022-6-1T10:4:47Z</time></trkpt>
<trkpt lat="48.95919418335" lon="3.1412000656128"><ele></ele><time>2022-6-1T10:4:50Z</time></trkpt>
<trkpt lat="48.959041595459" lon="3.1411519050598"><ele></ele><time>2022-6-1T10:4:53Z</time></trkpt>
<trkpt lat="48.959041595459" lon="3.1411519050598"><ele></ele><time>2022-6-1T10:4:56Z</time></trkpt>
<trkpt lat="48.958938598633" lon="3.1411077976227"><ele></ele><time>2022-6-1T10:4:59Z</time></trkpt>
<trkpt lat="48.958881378174" lon="3.1410806179047"><ele></ele><time>2022-6-1T10:5:2Z</time></trkpt>
<trkpt lat="48.958827972412" lon="3.1410536766052"><ele></ele><time>2022-6-1T10:5:5Z</time></trkpt>
<trkpt lat="48.95873260498" lon="3.1409909725189"><ele></ele><time>2022-6-1T10:5:8Z</time></trkpt>
<trkpt lat="48.958667755127" lon="3.1409449577332"><ele></ele><time>2022-6-1T10:5:11Z</time></trkpt>
<trkpt lat="48.958606719971" lon="3.140908241272"><ele></ele><time>2022-6-1T10:5:14Z</time></trkpt>
<trkpt lat="48.958534240723" lon="3.1408696174622"><ele></ele><time>2022-6-1T10:5:17Z</time></trkpt>
<trkpt lat="48.958469390869" lon="3.140834569931"><ele></ele><time>2022-6-1T10:5:20Z</time></trkpt>
<trkpt lat="48.958396911621" lon="3.1407980918884"><ele></ele><time>2022-6-1T10:5:23Z</time></trkpt>
<trkpt lat="48.958320617676" lon="3.1407587528229"><ele></ele><time>2022-6-1T10:5:26Z</time></trkpt>
<trkpt lat="48.958240509033" lon="3.1407165527344"><ele></ele><time>2022-6-1T10:5:29Z</time></trkpt>
<trkpt lat="48.958168029785" lon="3.1406741142273"><ele></ele><time>2022-6-1T10:5:32Z</time></trkpt>
<trkpt lat="48.958099365234" lon="3.1406342983246"><ele></ele><time>2022-6-1T10:5:35Z</time></trkpt>
<trkpt lat="48.958026885986" lon="3.1405875682831"><ele></ele><time>2022-6-1T10:5:38Z</time></trkpt>
<trkpt lat="48.957950592041" lon="3.1405391693115"><ele></ele><time>2022-6-1T10:5:41Z</time></trkpt>
<trkpt lat="48.957874298096" lon="3.1404929161072"><ele></ele><time>2022-6-1T10:5:44Z</time></trkpt>
<trkpt lat="48.957790374756" lon="3.1404483318329"><ele></ele><time>2022-6-1T10:5:47Z</time></trkpt>
<trkpt lat="48.957714080811" lon="3.1404094696045"><ele></ele><time>2022-6-1T10:5:50Z</time></trkpt>
<trkpt lat="48.95764541626" lon="3.1403775215149"><ele></ele><time>2022-6-1T10:5:53Z</time></trkpt>
<trkpt lat="48.957572937012" lon="3.1403346061707"><ele></ele><time>2022-6-1T10:5:56Z</time></trkpt>
<trkpt lat="48.957489013672" lon="3.1402790546417"><ele></ele><time>2022-6-1T10:5:59Z</time></trkpt>
<trkpt lat="48.957405090332" lon="3.1402332782745"><ele></ele><time>2022-6-1T10:6:2Z</time></trkpt>
<trkpt lat="48.957321166992" lon="3.1402039527893"><ele></ele><time>2022-6-1T10:6:5Z</time></trkpt>
<trkpt lat="48.957221984863" lon="3.1401586532593"><ele></ele><time>2022-6-1T10:6:8Z</time></trkpt>
<trkpt lat="48.95711517334" lon="3.1401093006134"><ele></ele><time>2022-6-1T10:6:11Z</time></trkpt>
<trkpt lat="48.957015991211" lon="3.1400630474091"><ele></ele><time>2022-6-1T10:6:14Z</time></trkpt>
<trkpt lat="48.95690536499" lon="3.1400117874146"><ele></ele><time>2022-6-1T10:6:17Z</time></trkpt>
<trkpt lat="48.956813812256" lon="3.1399576663971"><ele></ele><time>2022-6-1T10:6:20Z</time></trkpt>
<trkpt lat="48.956714630127" lon="3.1398987770081"><ele></ele><time>2022-6-1T10:6:23Z</time></trkpt>
<trkpt lat="48.956619262695" lon="3.1398367881775"><ele></ele><time>2022-6-1T10:6:26Z</time></trkpt>
<trkpt lat="48.956527709961" lon="3.1397802829742"><ele></ele><time>2022-6-1T10:6:29Z</time></trkpt>
<trkpt lat="48.956443786621" lon="3.1397297382355"><ele></ele><time>2022-6-1T10:6:32Z</time></trkpt>
<trkpt lat="48.956363677979" lon="3.1396770477295"><ele></ele><time>2022-6-1T10:6:35Z</time></trkpt>
<trkpt lat="48.95626449585" lon="3.1396186351776"><ele></ele><time>2022-6-1T10:6:38Z</time></trkpt>
<trkpt lat="48.956176757812" lon="3.1395683288574"><ele></ele><time>2022-6-1T10:6:41Z</time></trkpt>
<trkpt lat="48.95609664917" lon="3.1395130157471"><ele></ele><time>2022-6-1T10:6:44Z</time></trkpt>
<trkpt lat="48.956020355225" lon="3.1394643783569"><ele></ele><time>2022-6-1T10:6:47Z</time></trkpt>
<trkpt lat="48.955940246582" lon="3.1394121646881"><ele></ele><time>2022-6-1T10:6:50Z</time></trkpt>
<trkpt lat="48.955852508545" lon="3.1393706798553"><ele></ele><time>2022-6-1T10:6:53Z</time></trkpt>
<trkpt lat="48.955757141113" lon="3.1393406391144"><ele></ele><time>2022-6-1T10:6:56Z</time></trkpt>
<trkpt lat="48.955657958984" lon="3.1393206119537"><ele></ele><time>2022-6-1T10:6:59Z</time></trkpt>
<trkpt lat="48.955558776855" lon="3.1392800807953"><ele></ele><time>2022-6-1T10:7:2Z</time></trkpt>
<trkpt lat="48.955455780029" lon="3.1392133235931"><ele></ele><time>2022-6-1T10:7:5Z</time></trkpt>
<trkpt lat="48.955345153809" lon="3.1391537189484"><ele></ele><time>2022-6-1T10:7:8Z</time></trkpt>
<trkpt lat="48.95524597168" lon="3.1391112804413"><ele></ele><time>2022-6-1T10:7:11Z</time></trkpt>
<trkpt lat="48.955154418945" lon="3.1390516757965"><ele></ele><time>2022-6-1T10:7:14Z</time></trkpt>
<trkpt lat="48.955062866211" lon="3.1389901638031"><ele></ele><time>2022-6-1T10:7:17Z</time></trkpt>
<trkpt lat="48.954959869385" lon="3.138908624649"><ele></ele><time>2022-6-1T10:7:20Z</time></trkpt>
<trkpt lat="48.954860687256" lon="3.1388313770294"><ele></ele><time>2022-6-1T10:7:23Z</time></trkpt>
<trkpt lat="48.954734802246" lon="3.1387386322021"><ele></ele><time>2022-6-1T10:7:26Z</time></trkpt>
<trkpt lat="48.954597473145" lon="3.1386349201202"><ele></ele><time>2022-6-1T10:7:29Z</time></trkpt>
<trkpt lat="48.954479217529" lon="3.1385531425476"><ele></ele><time>2022-6-1T10:7:32Z</time></trkpt>
<trkpt lat="48.954357147217" lon="3.1384732723236"><ele></ele><time>2022-6-1T10:7:35Z</time></trkpt>
<trkpt lat="48.954242706299" lon="3.1384055614471"><ele></ele><time>2022-6-1T10:7:38Z</time></trkpt>
<trkpt lat="48.95414352417" lon="3.1383445262909"><ele></ele><time>2022-6-1T10:7:41Z</time></trkpt>
<trkpt lat="48.954032897949" lon="3.1382780075073"><ele></ele><time>2022-6-1T10:7:44Z</time></trkpt>
<trkpt lat="48.953922271729" lon="3.1382036209106"><ele></ele><time>2022-6-1T10:7:47Z</time></trkpt>
<trkpt lat="48.953819274902" lon="3.1381356716156"><ele></ele><time>2022-6-1T10:7:50Z</time></trkpt>
<trkpt lat="48.953727722168" lon="3.1380712985992"><ele></ele><time>2022-6-1T10:7:53Z</time></trkpt>
<trkpt lat="48.953632354736" lon="3.1380054950714"><ele></ele><time>2022-6-1T10:7:56Z</time></trkpt>
<trkpt lat="48.953544616699" lon="3.1379377841949"><ele></ele><time>2022-6-1T10:7:59Z</time></trkpt>
<trkpt lat="48.953441619873" lon="3.1378657817841"><ele></ele><time>2022-6-1T10:8:2Z</time></trkpt>
<trkpt lat="48.953346252441" lon="3.1377949714661"><ele></ele><time>2022-6-1T10:8:5Z</time></trkpt>
<trkpt lat="48.953247070312" lon="3.1377301216125"><ele></ele><time>2022-6-1T10:8:8Z</time></trkpt>
<trkpt lat="48.953155517578" lon="3.1376554965973"><ele></ele><time>2022-6-1T10:8:11Z</time></trkpt>
<trkpt lat="48.953060150146" lon="3.1375806331635"><ele></ele><time>2022-6-1T10:8:14Z</time></trkpt>
<trkpt lat="48.952964782715" lon="3.1375000476837"><ele></ele><time>2022-6-1T10:8:17Z</time></trkpt>
<trkpt lat="48.95287322998" lon="3.1374306678772"><ele></ele><time>2022-6-1T10:8:20Z</time></trkpt>
<trkpt lat="48.952785491943" lon="3.1373527050018"><ele></ele><time>2022-6-1T10:8:23Z</time></trkpt>
<trkpt lat="48.952697753906" lon="3.1372711658478"><ele></ele><time>2022-6-1T10:8:26Z</time></trkpt>
<trkpt lat="48.952613830566" lon="3.1371898651123"><ele></ele><time>2022-6-1T10:8:29Z</time></trkpt>
<trkpt lat="48.952545166016" lon="3.1371073722839"><ele></ele><time>2022-6-1T10:8:32Z</time></trkpt>
<trkpt lat="48.952457427979" lon="3.1370136737823"><ele></ele><time>2022-6-1T10:8:35Z</time></trkpt>
<trkpt lat="48.952373504639" lon="3.136935710907"><ele></ele><time>2022-6-1T10:8:38Z</time></trkpt>
<trkpt lat="48.952301025391" lon="3.1368753910065"><ele></ele><time>2022-6-1T10:8:41Z</time></trkpt>
<trkpt lat="48.952239990234" lon="3.1368253231049"><ele></ele><time>2022-6-1T10:8:44Z</time></trkpt>
<trkpt lat="48.952175140381" lon="3.1367592811584"><ele></ele><time>2022-6-1T10:8:47Z</time></trkpt>
<trkpt lat="48.952121734619" lon="3.1366813182831"><ele></ele><time>2022-6-1T10:8:50Z</time></trkpt>
<trkpt lat="48.952068328857" lon="3.1365828514099"><ele></ele><time>2022-6-1T10:8:53Z</time></trkpt>
<trkpt lat="48.952014923096" lon="3.1364884376526"><ele></ele><time>2022-6-1T10:8:56Z</time></trkpt>
<trkpt lat="48.951961517334" lon="3.13640666008"><ele></ele><time>2022-6-1T10:8:59Z</time></trkpt>
<trkpt lat="48.951908111572" lon="3.1363141536713"><ele></ele><time>2022-6-1T10:9:2Z</time></trkpt>
<trkpt lat="48.951850891113" lon="3.1362290382385"><ele></ele><time>2022-6-1T10:9:5Z</time></trkpt>
<trkpt lat="48.95178604126" lon="3.1361322402954"><ele></ele><time>2022-6-1T10:9:8Z</time></trkpt>
<trkpt lat="48.951717376709" lon="3.1360146999359"><ele></ele><time>2022-6-1T10:9:11Z</time></trkpt>
<trkpt lat="48.951641082764" lon="3.1358935832977"><ele></ele><time>2022-6-1T10:9:14Z</time></trkpt>
<trkpt lat="48.951560974121" lon="3.1357750892639"><ele></ele><time>2022-6-1T10:9:17Z</time></trkpt>
<trkpt lat="48.951488494873" lon="3.1356678009033"><ele></ele><time>2022-6-1T10:9:20Z</time></trkpt>
<trkpt lat="48.951438903809" lon="3.1355957984924"><ele></ele><time>2022-6-1T10:9:23Z</time></trkpt>
<trkpt lat="48.951396942139" lon="3.1355292797089"><ele></ele><time>2022-6-1T10:9:26Z</time></trkpt>
<trkpt lat="48.951396942139" lon="3.1355292797089"><ele></ele><time>2022-6-1T10:9:29Z</time></trkpt>
<trkpt lat="48.951313018799" lon="3.1354897022247"><ele></ele><time>2022-6-1T10:9:32Z</time></trkpt>
<trkpt lat="48.951313018799" lon="3.1354897022247"><ele></ele><time>2022-6-1T10:9:35Z</time></trkpt>
<trkpt lat="48.951236724854" lon="3.1354022026062"><ele></ele><time>2022-6-1T10:9:38Z</time></trkpt>
<trkpt lat="48.951194763184" lon="3.1353230476379"><ele></ele><time>2022-6-1T10:9:41Z</time></trkpt>
<trkpt lat="48.951137542725" lon="3.1352217197418"><ele></ele><time>2022-6-1T10:9:44Z</time></trkpt>
<trkpt lat="48.951068878174" lon="3.1350920200348"><ele></ele><time>2022-6-1T10:9:47Z</time></trkpt>
<trkpt lat="48.950996398926" lon="3.1349806785583"><ele></ele><time>2022-6-1T10:9:50Z</time></trkpt>
<trkpt lat="48.950931549072" lon="3.1348729133606"><ele></ele><time>2022-6-1T10:9:53Z</time></trkpt>
<trkpt lat="48.950874328613" lon="3.1347813606262"><ele></ele><time>2022-6-1T10:9:56Z</time></trkpt>
<trkpt lat="48.950798034668" lon="3.134681224823"><ele></ele><time>2022-6-1T10:9:59Z</time></trkpt>
<trkpt lat="48.950721740723" lon="3.1345853805542"><ele></ele><time>2022-6-1T10:10:2Z</time></trkpt>
<trkpt lat="48.95064163208" lon="3.1344785690308"><ele></ele><time>2022-6-1T10:10:5Z</time></trkpt>
<trkpt lat="48.950569152832" lon="3.134369134903"><ele></ele><time>2022-6-1T10:10:8Z</time></trkpt>
<trkpt lat="48.950485229492" lon="3.1342604160309"><ele></ele><time>2022-6-1T10:10:11Z</time></trkpt>
<trkpt lat="48.950401306152" lon="3.1341683864594"><ele></ele><time>2022-6-1T10:10:14Z</time></trkpt>
<trkpt lat="48.950313568115" lon="3.1340897083282"><ele></ele><time>2022-6-1T10:10:17Z</time></trkpt>
<trkpt lat="48.950233459473" lon="3.1340119838715"><ele></ele><time>2022-6-1T10:10:20Z</time></trkpt>
<trkpt lat="48.950141906738" lon="3.1339199542999"><ele></ele><time>2022-6-1T10:10:23Z</time></trkpt>
<trkpt lat="48.950038909912" lon="3.1338167190552"><ele></ele><time>2022-6-1T10:10:26Z</time></trkpt>
<trkpt lat="48.949939727783" lon="3.1337113380432"><ele></ele><time>2022-6-1T10:10:29Z</time></trkpt>
<trkpt lat="48.949848175049" lon="3.1336028575897"><ele></ele><time>2022-6-1T10:10:32Z</time></trkpt>
<trkpt lat="48.949756622314" lon="3.1334934234619"><ele></ele><time>2022-6-1T10:10:35Z</time></trkpt>
<trkpt lat="48.949672698975" lon="3.133376121521"><ele></ele><time>2022-6-1T10:10:38Z</time></trkpt>
<trkpt lat="48.949584960938" lon="3.1332578659058"><ele></ele><time>2022-6-1T10:10:41Z</time></trkpt>
<trkpt lat="48.949493408203" lon="3.1331388950348"><ele></ele><time>2022-6-1T10:10:44Z</time></trkpt>
<trkpt lat="48.949401855469" lon="3.1330146789551"><ele></ele><time>2022-6-1T10:10:47Z</time></trkpt>
<trkpt lat="48.949314117432" lon="3.1329007148743"><ele></ele><time>2022-6-1T10:10:50Z</time></trkpt>
<trkpt lat="48.949214935303" lon="3.1327903270721"><ele></ele><time>2022-6-1T10:10:53Z</time></trkpt>
<trkpt lat="48.949111938477" lon="3.1326956748962"><ele></ele><time>2022-6-1T10:10:56Z</time></trkpt>
<trkpt lat="48.94900894165" lon="3.1326124668121"><ele></ele><time>2022-6-1T10:10:59Z</time></trkpt>
<trkpt lat="48.948902130127" lon="3.1325294971466"><ele></ele><time>2022-6-1T10:11:2Z</time></trkpt>
<trkpt lat="48.948806762695" lon="3.1324207782745"><ele></ele><time>2022-6-1T10:11:5Z</time></trkpt>
<trkpt lat="48.948722839355" lon="3.13232421875"><ele></ele><time>2022-6-1T10:11:8Z</time></trkpt>
<trkpt lat="48.948665618896" lon="3.1322555541992"><ele></ele><time>2022-6-1T10:11:11Z</time></trkpt>
<trkpt lat="48.948665618896" lon="3.1322555541992"><ele></ele><time>2022-6-1T10:11:14Z</time></trkpt>
<trkpt lat="48.948612213135" lon="3.1321835517883"><ele></ele><time>2022-6-1T10:11:17Z</time></trkpt>
<trkpt lat="48.948612213135" lon="3.1321835517883"><ele></ele><time>2022-6-1T10:11:20Z</time></trkpt>
<trkpt lat="48.948612213135" lon="3.1321835517883"><ele></ele><time>2022-6-1T10:11:23Z</time></trkpt>
<trkpt lat="48.948612213135" lon="3.1321835517883"><ele></ele><time>2022-6-1T10:11:26Z</time></trkpt>
<trkpt lat="48.948608398438" lon="3.1320552825928"><ele></ele><time>2022-6-1T10:11:29Z</time></trkpt>
<trkpt lat="48.948638916016" lon="3.1319589614868"><ele></ele><time>2022-6-1T10:11:32Z</time></trkpt>
<trkpt lat="48.948711395264" lon="3.1318440437317"><ele></ele><time>2022-6-1T10:11:35Z</time></trkpt>
<trkpt lat="48.948764801025" lon="3.1317307949066"><ele></ele><time>2022-6-1T10:11:38Z</time></trkpt>
<trkpt lat="48.948833465576" lon="3.1315996646881"><ele></ele><time>2022-6-1T10:11:41Z</time></trkpt>
<trkpt lat="48.948883056641" lon="3.1315157413483"><ele></ele><time>2022-6-1T10:11:44Z</time></trkpt>
<trkpt lat="48.948944091797" lon="3.1314060688019"><ele></ele><time>2022-6-1T10:11:47Z</time></trkpt>
<trkpt lat="48.94900894165" lon="3.131285905838"><ele></ele><time>2022-6-1T10:11:50Z</time></trkpt>
<trkpt lat="48.949073791504" lon="3.1311619281769"><ele></ele><time>2022-6-1T10:11:53Z</time></trkpt>
<trkpt lat="48.949131011963" lon="3.1310524940491"><ele></ele><time>2022-6-1T10:11:56Z</time></trkpt>
<trkpt lat="48.949180603027" lon="3.1309549808502"><ele></ele><time>2022-6-1T10:11:59Z</time></trkpt>
<trkpt lat="48.949241638184" lon="3.1308469772339"><ele></ele><time>2022-6-1T10:12:2Z</time></trkpt>
<trkpt lat="48.949287414551" lon="3.1307771205902"><ele></ele><time>2022-6-1T10:12:5Z</time></trkpt>
<trkpt lat="48.949317932129" lon="3.1307008266449"><ele></ele><time>2022-6-1T10:12:8Z</time></trkpt>
<trkpt lat="48.949283599854" lon="3.1306018829346"><ele></ele><time>2022-6-1T10:12:11Z</time></trkpt>
<trkpt lat="48.949214935303" lon="3.1305334568024"><ele></ele><time>2022-6-1T10:12:14Z</time></trkpt>
<trkpt lat="48.949138641357" lon="3.1304750442505"><ele></ele><time>2022-6-1T10:12:17Z</time></trkpt>
<trkpt lat="48.949054718018" lon="3.130407333374"><ele></ele><time>2022-6-1T10:12:20Z</time></trkpt>
<trkpt lat="48.948959350586" lon="3.1303427219391"><ele></ele><time>2022-6-1T10:12:23Z</time></trkpt>
<trkpt lat="48.948875427246" lon="3.1302790641785"><ele></ele><time>2022-6-1T10:12:26Z</time></trkpt>
<trkpt lat="48.948791503906" lon="3.1302084922791"><ele></ele><time>2022-6-1T10:12:29Z</time></trkpt>
<trkpt lat="48.948699951172" lon="3.1301431655884"><ele></ele><time>2022-6-1T10:12:32Z</time></trkpt>
<trkpt lat="48.948623657227" lon="3.1300792694092"><ele></ele><time>2022-6-1T10:12:35Z</time></trkpt>
<trkpt lat="48.948558807373" lon="3.1300184726715"><ele></ele><time>2022-6-1T10:12:38Z</time></trkpt>
<trkpt lat="48.948558807373" lon="3.1300184726715"><ele></ele><time>2022-6-1T10:12:41Z</time></trkpt>
<trkpt lat="48.94847869873" lon="3.1299633979797"><ele></ele><time>2022-6-1T10:12:44Z</time></trkpt>
<trkpt lat="48.94847869873" lon="3.1299633979797"><ele></ele><time>2022-6-1T10:12:47Z</time></trkpt>
<trkpt lat="48.94847869873" lon="3.1299633979797"><ele></ele><time>2022-6-1T10:12:50Z</time></trkpt>
<trkpt lat="48.94847869873" lon="3.1299633979797"><ele></ele><time>2022-6-1T10:12:53Z</time></trkpt>
<trkpt lat="48.94847869873" lon="3.1299633979797"><ele></ele><time>2022-6-1T10:12:56Z</time></trkpt>
</trkseg></trk></gpx>